<?xml version="1.0" encoding="UTF-8" standalone="no" ?>
<gpx xmlns="http://www.topografix.com/GPX/1/1" xmlns:xsi="http://www.w3.org/2001/XMLSchema-instance" xsi:schemaLocation="http://www.topografix.com/GPX/1/1 http://www.topografix.com/GPX/1/1/gpx.xsd" version="1.1" creator="VisuGPX - https://www.visugpx.com">
  <metadata>
    <name>Randonnée à Pujols du 26 février 2012</name>
    <desc><![CDATA[Une boucle de 25 kms pour la rando de Pujols 2012. Beaucoup de route et un dénivelé pas trop élevé.]]></desc>
  </metadata>
  <trk>
    <name><![CDATA[Randonnée à Pujols du 26 février 2012_1]]></name>
    <trkseg>
      <trkpt lat="44.38566" lon="0.68624">
        <ele>170</ele>
        <time>2012-02-26T07:55:49Z</time>
      </trkpt>
      <trkpt lat="44.38585" lon="0.68594">
        <ele>168</ele>
        <time>2012-02-26T07:58:21Z</time>
      </trkpt>
      <trkpt lat="44.38585" lon="0.68591">
        <ele>168</ele>
        <time>2012-02-26T07:58:22Z</time>
      </trkpt>
      <trkpt lat="44.38586" lon="0.68588">
        <ele>168</ele>
        <time>2012-02-26T07:58:23Z</time>
      </trkpt>
      <trkpt lat="44.38586" lon="0.68585">
        <ele>168</ele>
        <time>2012-02-26T07:58:24Z</time>
      </trkpt>
      <trkpt lat="44.38586" lon="0.68582">
        <ele>168</ele>
        <time>2012-02-26T07:58:25Z</time>
      </trkpt>
      <trkpt lat="44.38586" lon="0.68579">
        <ele>168</ele>
        <time>2012-02-26T07:58:26Z</time>
      </trkpt>
      <trkpt lat="44.38586" lon="0.68576">
        <ele>168</ele>
        <time>2012-02-26T07:58:27Z</time>
      </trkpt>
      <trkpt lat="44.38586" lon="0.68573">
        <ele>168</ele>
        <time>2012-02-26T07:58:28Z</time>
      </trkpt>
      <trkpt lat="44.38586" lon="0.68569">
        <ele>167</ele>
        <time>2012-02-26T07:58:29Z</time>
      </trkpt>
      <trkpt lat="44.38587" lon="0.68566">
        <ele>167</ele>
        <time>2012-02-26T07:58:30Z</time>
      </trkpt>
      <trkpt lat="44.38587" lon="0.68563">
        <ele>167</ele>
        <time>2012-02-26T07:58:31Z</time>
      </trkpt>
      <trkpt lat="44.38587" lon="0.68559">
        <ele>167</ele>
        <time>2012-02-26T07:58:32Z</time>
      </trkpt>
      <trkpt lat="44.38587" lon="0.68555">
        <ele>166</ele>
        <time>2012-02-26T07:58:33Z</time>
      </trkpt>
      <trkpt lat="44.38588" lon="0.68551">
        <ele>166</ele>
        <time>2012-02-26T07:58:34Z</time>
      </trkpt>
      <trkpt lat="44.38588" lon="0.68546">
        <ele>166</ele>
        <time>2012-02-26T07:58:35Z</time>
      </trkpt>
      <trkpt lat="44.38588" lon="0.68542">
        <ele>166</ele>
        <time>2012-02-26T07:58:36Z</time>
      </trkpt>
      <trkpt lat="44.38588" lon="0.68537">
        <ele>166</ele>
        <time>2012-02-26T07:58:37Z</time>
      </trkpt>
      <trkpt lat="44.38587" lon="0.68533">
        <ele>166</ele>
        <time>2012-02-26T07:58:38Z</time>
      </trkpt>
      <trkpt lat="44.38586" lon="0.68529">
        <ele>166</ele>
        <time>2012-02-26T07:58:39Z</time>
      </trkpt>
      <trkpt lat="44.38584" lon="0.68524">
        <ele>166</ele>
        <time>2012-02-26T07:58:41Z</time>
      </trkpt>
      <trkpt lat="44.38582" lon="0.68519">
        <ele>165</ele>
        <time>2012-02-26T07:58:41Z</time>
      </trkpt>
      <trkpt lat="44.3858" lon="0.68514">
        <ele>165</ele>
        <time>2012-02-26T07:58:42Z</time>
      </trkpt>
      <trkpt lat="44.38579" lon="0.68509">
        <ele>165</ele>
        <time>2012-02-26T07:58:43Z</time>
      </trkpt>
      <trkpt lat="44.38577" lon="0.68504">
        <ele>165</ele>
        <time>2012-02-26T07:58:44Z</time>
      </trkpt>
      <trkpt lat="44.38575" lon="0.685">
        <ele>165</ele>
        <time>2012-02-26T07:58:45Z</time>
      </trkpt>
      <trkpt lat="44.38574" lon="0.68495">
        <ele>164</ele>
        <time>2012-02-26T07:58:46Z</time>
      </trkpt>
      <trkpt lat="44.38574" lon="0.68491">
        <ele>164</ele>
        <time>2012-02-26T07:58:47Z</time>
      </trkpt>
      <trkpt lat="44.38573" lon="0.68485">
        <ele>164</ele>
        <time>2012-02-26T07:58:48Z</time>
      </trkpt>
      <trkpt lat="44.38573" lon="0.6848">
        <ele>164</ele>
        <time>2012-02-26T07:58:49Z</time>
      </trkpt>
      <trkpt lat="44.38573" lon="0.68475">
        <ele>164</ele>
        <time>2012-02-26T07:58:50Z</time>
      </trkpt>
      <trkpt lat="44.38574" lon="0.6847">
        <ele>164</ele>
        <time>2012-02-26T07:58:51Z</time>
      </trkpt>
      <trkpt lat="44.38575" lon="0.68465">
        <ele>164</ele>
        <time>2012-02-26T07:58:52Z</time>
      </trkpt>
      <trkpt lat="44.38577" lon="0.6846">
        <ele>164</ele>
        <time>2012-02-26T07:58:53Z</time>
      </trkpt>
      <trkpt lat="44.38578" lon="0.68457">
        <ele>164</ele>
        <time>2012-02-26T07:58:54Z</time>
      </trkpt>
      <trkpt lat="44.38581" lon="0.68454">
        <ele>164</ele>
        <time>2012-02-26T07:58:55Z</time>
      </trkpt>
      <trkpt lat="44.38583" lon="0.68451">
        <ele>164</ele>
        <time>2012-02-26T07:58:56Z</time>
      </trkpt>
      <trkpt lat="44.38586" lon="0.68449">
        <ele>164</ele>
        <time>2012-02-26T07:58:57Z</time>
      </trkpt>
      <trkpt lat="44.38588" lon="0.68447">
        <ele>164</ele>
        <time>2012-02-26T07:58:58Z</time>
      </trkpt>
      <trkpt lat="44.3859" lon="0.68446">
        <ele>164</ele>
        <time>2012-02-26T07:59:00Z</time>
      </trkpt>
      <trkpt lat="44.38591" lon="0.68446">
        <ele>164</ele>
        <time>2012-02-26T07:59:00Z</time>
      </trkpt>
      <trkpt lat="44.38593" lon="0.68445">
        <ele>164</ele>
        <time>2012-02-26T07:59:01Z</time>
      </trkpt>
      <trkpt lat="44.38594" lon="0.68445">
        <ele>164</ele>
        <time>2012-02-26T07:59:02Z</time>
      </trkpt>
      <trkpt lat="44.38595" lon="0.68445">
        <ele>164</ele>
        <time>2012-02-26T07:59:03Z</time>
      </trkpt>
      <trkpt lat="44.38596" lon="0.68446">
        <ele>164</ele>
        <time>2012-02-26T07:59:04Z</time>
      </trkpt>
      <trkpt lat="44.38598" lon="0.68446">
        <ele>164</ele>
        <time>2012-02-26T07:59:05Z</time>
      </trkpt>
      <trkpt lat="44.38599" lon="0.68446">
        <ele>164</ele>
        <time>2012-02-26T07:59:06Z</time>
      </trkpt>
      <trkpt lat="44.38601" lon="0.68446">
        <ele>164</ele>
        <time>2012-02-26T07:59:07Z</time>
      </trkpt>
      <trkpt lat="44.38602" lon="0.68447">
        <ele>164</ele>
        <time>2012-02-26T07:59:08Z</time>
      </trkpt>
      <trkpt lat="44.38604" lon="0.68447">
        <ele>164</ele>
        <time>2012-02-26T07:59:09Z</time>
      </trkpt>
      <trkpt lat="44.38606" lon="0.68448">
        <ele>164</ele>
        <time>2012-02-26T07:59:10Z</time>
      </trkpt>
      <trkpt lat="44.38608" lon="0.68449">
        <ele>164</ele>
        <time>2012-02-26T07:59:11Z</time>
      </trkpt>
      <trkpt lat="44.3861" lon="0.68449">
        <ele>164</ele>
        <time>2012-02-26T07:59:12Z</time>
      </trkpt>
      <trkpt lat="44.38612" lon="0.6845">
        <ele>164</ele>
        <time>2012-02-26T07:59:13Z</time>
      </trkpt>
      <trkpt lat="44.38614" lon="0.68452">
        <ele>164</ele>
        <time>2012-02-26T07:59:14Z</time>
      </trkpt>
      <trkpt lat="44.38616" lon="0.68454">
        <ele>164</ele>
        <time>2012-02-26T07:59:15Z</time>
      </trkpt>
      <trkpt lat="44.38617" lon="0.68457">
        <ele>164</ele>
        <time>2012-02-26T07:59:16Z</time>
      </trkpt>
      <trkpt lat="44.38619" lon="0.6846">
        <ele>164</ele>
        <time>2012-02-26T07:59:17Z</time>
      </trkpt>
      <trkpt lat="44.3862" lon="0.68463">
        <ele>164</ele>
        <time>2012-02-26T07:59:18Z</time>
      </trkpt>
      <trkpt lat="44.3862" lon="0.68466">
        <ele>164</ele>
        <time>2012-02-26T07:59:19Z</time>
      </trkpt>
      <trkpt lat="44.3862" lon="0.68468">
        <ele>164</ele>
        <time>2012-02-26T07:59:20Z</time>
      </trkpt>
      <trkpt lat="44.38621" lon="0.6847">
        <ele>164</ele>
        <time>2012-02-26T07:59:21Z</time>
      </trkpt>
      <trkpt lat="44.38621" lon="0.68472">
        <ele>164</ele>
        <time>2012-02-26T07:59:22Z</time>
      </trkpt>
      <trkpt lat="44.38621" lon="0.68474">
        <ele>164</ele>
        <time>2012-02-26T07:59:23Z</time>
      </trkpt>
      <trkpt lat="44.38622" lon="0.68476">
        <ele>164</ele>
        <time>2012-02-26T07:59:24Z</time>
      </trkpt>
      <trkpt lat="44.38622" lon="0.68478">
        <ele>164</ele>
        <time>2012-02-26T07:59:25Z</time>
      </trkpt>
      <trkpt lat="44.38623" lon="0.6848">
        <ele>164</ele>
        <time>2012-02-26T07:59:26Z</time>
      </trkpt>
      <trkpt lat="44.38625" lon="0.68481">
        <ele>164</ele>
        <time>2012-02-26T07:59:28Z</time>
      </trkpt>
      <trkpt lat="44.38626" lon="0.68481">
        <ele>164</ele>
        <time>2012-02-26T07:59:29Z</time>
      </trkpt>
      <trkpt lat="44.38628" lon="0.68479">
        <ele>164</ele>
        <time>2012-02-26T07:59:31Z</time>
      </trkpt>
      <trkpt lat="44.38629" lon="0.68476">
        <ele>164</ele>
        <time>2012-02-26T07:59:32Z</time>
      </trkpt>
      <trkpt lat="44.3863" lon="0.68473">
        <ele>164</ele>
        <time>2012-02-26T07:59:33Z</time>
      </trkpt>
      <trkpt lat="44.38631" lon="0.6847">
        <ele>164</ele>
        <time>2012-02-26T07:59:34Z</time>
      </trkpt>
      <trkpt lat="44.38631" lon="0.68468">
        <ele>164</ele>
        <time>2012-02-26T07:59:35Z</time>
      </trkpt>
      <trkpt lat="44.38632" lon="0.68467">
        <ele>163</ele>
        <time>2012-02-26T07:59:36Z</time>
      </trkpt>
      <trkpt lat="44.38633" lon="0.68465">
        <ele>163</ele>
        <time>2012-02-26T07:59:37Z</time>
      </trkpt>
      <trkpt lat="44.38633" lon="0.68463">
        <ele>163</ele>
        <time>2012-02-26T07:59:38Z</time>
      </trkpt>
      <trkpt lat="44.38634" lon="0.68461">
        <ele>162</ele>
        <time>2012-02-26T07:59:40Z</time>
      </trkpt>
      <trkpt lat="44.38636" lon="0.68459">
        <ele>162</ele>
        <time>2012-02-26T07:59:40Z</time>
      </trkpt>
      <trkpt lat="44.38636" lon="0.68457">
        <ele>161</ele>
        <time>2012-02-26T07:59:41Z</time>
      </trkpt>
      <trkpt lat="44.38637" lon="0.68456">
        <ele>161</ele>
        <time>2012-02-26T07:59:43Z</time>
      </trkpt>
      <trkpt lat="44.38637" lon="0.68454">
        <ele>160</ele>
        <time>2012-02-26T07:59:43Z</time>
      </trkpt>
      <trkpt lat="44.38638" lon="0.68451">
        <ele>160</ele>
        <time>2012-02-26T07:59:44Z</time>
      </trkpt>
      <trkpt lat="44.38639" lon="0.68449">
        <ele>160</ele>
        <time>2012-02-26T07:59:45Z</time>
      </trkpt>
      <trkpt lat="44.3864" lon="0.68446">
        <ele>160</ele>
        <time>2012-02-26T07:59:46Z</time>
      </trkpt>
      <trkpt lat="44.38641" lon="0.68443">
        <ele>160</ele>
        <time>2012-02-26T07:59:47Z</time>
      </trkpt>
      <trkpt lat="44.38642" lon="0.6844">
        <ele>159</ele>
        <time>2012-02-26T07:59:49Z</time>
      </trkpt>
      <trkpt lat="44.38644" lon="0.68438">
        <ele>159</ele>
        <time>2012-02-26T07:59:49Z</time>
      </trkpt>
      <trkpt lat="44.38645" lon="0.68436">
        <ele>159</ele>
        <time>2012-02-26T07:59:50Z</time>
      </trkpt>
      <trkpt lat="44.38646" lon="0.68433">
        <ele>159</ele>
        <time>2012-02-26T07:59:52Z</time>
      </trkpt>
      <trkpt lat="44.38648" lon="0.6843">
        <ele>159</ele>
        <time>2012-02-26T07:59:52Z</time>
      </trkpt>
      <trkpt lat="44.38649" lon="0.68427">
        <ele>159</ele>
        <time>2012-02-26T07:59:53Z</time>
      </trkpt>
      <trkpt lat="44.38649" lon="0.68423">
        <ele>159</ele>
        <time>2012-02-26T07:59:54Z</time>
      </trkpt>
      <trkpt lat="44.3865" lon="0.6842">
        <ele>158</ele>
        <time>2012-02-26T07:59:55Z</time>
      </trkpt>
      <trkpt lat="44.3865" lon="0.68417">
        <ele>158</ele>
        <time>2012-02-26T07:59:57Z</time>
      </trkpt>
      <trkpt lat="44.3865" lon="0.68414">
        <ele>158</ele>
        <time>2012-02-26T07:59:57Z</time>
      </trkpt>
      <trkpt lat="44.3865" lon="0.6841">
        <ele>157</ele>
        <time>2012-02-26T07:59:58Z</time>
      </trkpt>
      <trkpt lat="44.3865" lon="0.68407">
        <ele>156</ele>
        <time>2012-02-26T07:59:59Z</time>
      </trkpt>
      <trkpt lat="44.3865" lon="0.68405">
        <ele>156</ele>
        <time>2012-02-26T08:00:00Z</time>
      </trkpt>
      <trkpt lat="44.38649" lon="0.68403">
        <ele>155</ele>
        <time>2012-02-26T08:00:01Z</time>
      </trkpt>
      <trkpt lat="44.38649" lon="0.68401">
        <ele>154</ele>
        <time>2012-02-26T08:00:02Z</time>
      </trkpt>
      <trkpt lat="44.38649" lon="0.684">
        <ele>154</ele>
        <time>2012-02-26T08:00:03Z</time>
      </trkpt>
      <trkpt lat="44.38649" lon="0.68398">
        <ele>153</ele>
        <time>2012-02-26T08:00:04Z</time>
      </trkpt>
      <trkpt lat="44.38649" lon="0.68396">
        <ele>153</ele>
        <time>2012-02-26T08:00:06Z</time>
      </trkpt>
      <trkpt lat="44.38649" lon="0.68394">
        <ele>152</ele>
        <time>2012-02-26T08:00:07Z</time>
      </trkpt>
      <trkpt lat="44.38649" lon="0.68392">
        <ele>152</ele>
        <time>2012-02-26T08:00:09Z</time>
      </trkpt>
      <trkpt lat="44.38649" lon="0.68389">
        <ele>152</ele>
        <time>2012-02-26T08:00:11Z</time>
      </trkpt>
      <trkpt lat="44.38648" lon="0.68388">
        <ele>152</ele>
        <time>2012-02-26T08:00:13Z</time>
      </trkpt>
      <trkpt lat="44.38648" lon="0.68386">
        <ele>152</ele>
        <time>2012-02-26T08:00:13Z</time>
      </trkpt>
      <trkpt lat="44.38648" lon="0.68384">
        <ele>152</ele>
        <time>2012-02-26T08:00:14Z</time>
      </trkpt>
      <trkpt lat="44.38647" lon="0.68382">
        <ele>151</ele>
        <time>2012-02-26T08:00:15Z</time>
      </trkpt>
      <trkpt lat="44.38647" lon="0.6838">
        <ele>151</ele>
        <time>2012-02-26T08:00:16Z</time>
      </trkpt>
      <trkpt lat="44.38646" lon="0.68378">
        <ele>151</ele>
        <time>2012-02-26T08:00:18Z</time>
      </trkpt>
      <trkpt lat="44.38646" lon="0.68376">
        <ele>151</ele>
        <time>2012-02-26T08:00:18Z</time>
      </trkpt>
      <trkpt lat="44.38644" lon="0.68375">
        <ele>150</ele>
        <time>2012-02-26T08:00:19Z</time>
      </trkpt>
      <trkpt lat="44.38644" lon="0.68372">
        <ele>150</ele>
        <time>2012-02-26T08:00:21Z</time>
      </trkpt>
      <trkpt lat="44.38643" lon="0.6837">
        <ele>150</ele>
        <time>2012-02-26T08:00:21Z</time>
      </trkpt>
      <trkpt lat="44.38643" lon="0.68366">
        <ele>149</ele>
        <time>2012-02-26T08:00:22Z</time>
      </trkpt>
      <trkpt lat="44.38644" lon="0.68363">
        <ele>149</ele>
        <time>2012-02-26T08:00:23Z</time>
      </trkpt>
      <trkpt lat="44.38646" lon="0.68362">
        <ele>148</ele>
        <time>2012-02-26T08:00:25Z</time>
      </trkpt>
      <trkpt lat="44.38647" lon="0.6836">
        <ele>148</ele>
        <time>2012-02-26T08:00:25Z</time>
      </trkpt>
      <trkpt lat="44.3865" lon="0.68358">
        <ele>147</ele>
        <time>2012-02-26T08:00:26Z</time>
      </trkpt>
      <trkpt lat="44.38653" lon="0.68356">
        <ele>146</ele>
        <time>2012-02-26T08:00:27Z</time>
      </trkpt>
      <trkpt lat="44.38654" lon="0.68352">
        <ele>146</ele>
        <time>2012-02-26T08:00:28Z</time>
      </trkpt>
      <trkpt lat="44.38655" lon="0.68347">
        <ele>145</ele>
        <time>2012-02-26T08:00:29Z</time>
      </trkpt>
      <trkpt lat="44.38654" lon="0.68341">
        <ele>144</ele>
        <time>2012-02-26T08:00:31Z</time>
      </trkpt>
      <trkpt lat="44.38654" lon="0.68335">
        <ele>143</ele>
        <time>2012-02-26T08:00:32Z</time>
      </trkpt>
      <trkpt lat="44.38654" lon="0.68327">
        <ele>142</ele>
        <time>2012-02-26T08:00:33Z</time>
      </trkpt>
      <trkpt lat="44.38655" lon="0.68318">
        <ele>141</ele>
        <time>2012-02-26T08:00:34Z</time>
      </trkpt>
      <trkpt lat="44.38658" lon="0.68309">
        <ele>140</ele>
        <time>2012-02-26T08:00:34Z</time>
      </trkpt>
      <trkpt lat="44.38661" lon="0.683">
        <ele>139</ele>
        <time>2012-02-26T08:00:36Z</time>
      </trkpt>
      <trkpt lat="44.38664" lon="0.68289">
        <ele>138</ele>
        <time>2012-02-26T08:00:36Z</time>
      </trkpt>
      <trkpt lat="44.38666" lon="0.68277">
        <ele>137</ele>
        <time>2012-02-26T08:00:37Z</time>
      </trkpt>
      <trkpt lat="44.38668" lon="0.68264">
        <ele>136</ele>
        <time>2012-02-26T08:00:38Z</time>
      </trkpt>
      <trkpt lat="44.3867" lon="0.6825">
        <ele>135</ele>
        <time>2012-02-26T08:00:40Z</time>
      </trkpt>
      <trkpt lat="44.38675" lon="0.68237">
        <ele>134</ele>
        <time>2012-02-26T08:00:40Z</time>
      </trkpt>
      <trkpt lat="44.3868" lon="0.68223">
        <ele>133</ele>
        <time>2012-02-26T08:00:41Z</time>
      </trkpt>
      <trkpt lat="44.38685" lon="0.6821">
        <ele>132</ele>
        <time>2012-02-26T08:00:42Z</time>
      </trkpt>
      <trkpt lat="44.38692" lon="0.68196">
        <ele>131</ele>
        <time>2012-02-26T08:00:43Z</time>
      </trkpt>
      <trkpt lat="44.38698" lon="0.68182">
        <ele>130</ele>
        <time>2012-02-26T08:00:44Z</time>
      </trkpt>
      <trkpt lat="44.38705" lon="0.68169">
        <ele>129</ele>
        <time>2012-02-26T08:00:45Z</time>
      </trkpt>
      <trkpt lat="44.38711" lon="0.68156">
        <ele>128</ele>
        <time>2012-02-26T08:00:46Z</time>
      </trkpt>
      <trkpt lat="44.38717" lon="0.68144">
        <ele>127</ele>
        <time>2012-02-26T08:00:47Z</time>
      </trkpt>
      <trkpt lat="44.38722" lon="0.68135">
        <ele>126</ele>
        <time>2012-02-26T08:00:48Z</time>
      </trkpt>
      <trkpt lat="44.38726" lon="0.68127">
        <ele>125</ele>
        <time>2012-02-26T08:00:49Z</time>
      </trkpt>
      <trkpt lat="44.38731" lon="0.68121">
        <ele>124</ele>
        <time>2012-02-26T08:00:50Z</time>
      </trkpt>
      <trkpt lat="44.38735" lon="0.68115">
        <ele>123</ele>
        <time>2012-02-26T08:00:52Z</time>
      </trkpt>
      <trkpt lat="44.38739" lon="0.6811">
        <ele>121</ele>
        <time>2012-02-26T08:00:53Z</time>
      </trkpt>
      <trkpt lat="44.38743" lon="0.68103">
        <ele>120</ele>
        <time>2012-02-26T08:00:53Z</time>
      </trkpt>
      <trkpt lat="44.38746" lon="0.68095">
        <ele>119</ele>
        <time>2012-02-26T08:00:55Z</time>
      </trkpt>
      <trkpt lat="44.38748" lon="0.68087">
        <ele>118</ele>
        <time>2012-02-26T08:00:55Z</time>
      </trkpt>
      <trkpt lat="44.38749" lon="0.68077">
        <ele>117</ele>
        <time>2012-02-26T08:00:56Z</time>
      </trkpt>
      <trkpt lat="44.3875" lon="0.68068">
        <ele>116</ele>
        <time>2012-02-26T08:00:57Z</time>
      </trkpt>
      <trkpt lat="44.38752" lon="0.68059">
        <ele>115</ele>
        <time>2012-02-26T08:00:59Z</time>
      </trkpt>
      <trkpt lat="44.38754" lon="0.6805">
        <ele>114</ele>
        <time>2012-02-26T08:00:59Z</time>
      </trkpt>
      <trkpt lat="44.38757" lon="0.68041">
        <ele>114</ele>
        <time>2012-02-26T08:01:00Z</time>
      </trkpt>
      <trkpt lat="44.3876" lon="0.68033">
        <ele>114</ele>
        <time>2012-02-26T08:01:01Z</time>
      </trkpt>
      <trkpt lat="44.38763" lon="0.68025">
        <ele>114</ele>
        <time>2012-02-26T08:01:03Z</time>
      </trkpt>
      <trkpt lat="44.38766" lon="0.68018">
        <ele>114</ele>
        <time>2012-02-26T08:01:04Z</time>
      </trkpt>
      <trkpt lat="44.38769" lon="0.6801">
        <ele>114</ele>
        <time>2012-02-26T08:01:04Z</time>
      </trkpt>
      <trkpt lat="44.38773" lon="0.68002">
        <ele>114</ele>
        <time>2012-02-26T08:01:05Z</time>
      </trkpt>
      <trkpt lat="44.38776" lon="0.67994">
        <ele>114</ele>
        <time>2012-02-26T08:01:07Z</time>
      </trkpt>
      <trkpt lat="44.3878" lon="0.67985">
        <ele>114</ele>
        <time>2012-02-26T08:01:07Z</time>
      </trkpt>
      <trkpt lat="44.38783" lon="0.67977">
        <ele>114</ele>
        <time>2012-02-26T08:01:08Z</time>
      </trkpt>
      <trkpt lat="44.38786" lon="0.67969">
        <ele>114</ele>
        <time>2012-02-26T08:01:09Z</time>
      </trkpt>
      <trkpt lat="44.38789" lon="0.67961">
        <ele>114</ele>
        <time>2012-02-26T08:01:11Z</time>
      </trkpt>
      <trkpt lat="44.38792" lon="0.67953">
        <ele>114</ele>
        <time>2012-02-26T08:01:11Z</time>
      </trkpt>
      <trkpt lat="44.38795" lon="0.67946">
        <ele>114</ele>
        <time>2012-02-26T08:01:13Z</time>
      </trkpt>
      <trkpt lat="44.38798" lon="0.6794">
        <ele>114</ele>
        <time>2012-02-26T08:01:13Z</time>
      </trkpt>
      <trkpt lat="44.38801" lon="0.67933">
        <ele>114</ele>
        <time>2012-02-26T08:01:14Z</time>
      </trkpt>
      <trkpt lat="44.38805" lon="0.67926">
        <ele>114</ele>
        <time>2012-02-26T08:01:16Z</time>
      </trkpt>
      <trkpt lat="44.38808" lon="0.67918">
        <ele>114</ele>
        <time>2012-02-26T08:01:16Z</time>
      </trkpt>
      <trkpt lat="44.38811" lon="0.67911">
        <ele>114</ele>
        <time>2012-02-26T08:01:17Z</time>
      </trkpt>
      <trkpt lat="44.38814" lon="0.67905">
        <ele>114</ele>
        <time>2012-02-26T08:01:19Z</time>
      </trkpt>
      <trkpt lat="44.38816" lon="0.679">
        <ele>114</ele>
        <time>2012-02-26T08:01:19Z</time>
      </trkpt>
      <trkpt lat="44.38817" lon="0.67895">
        <ele>114</ele>
        <time>2012-02-26T08:01:20Z</time>
      </trkpt>
      <trkpt lat="44.38819" lon="0.67889">
        <ele>114</ele>
        <time>2012-02-26T08:01:21Z</time>
      </trkpt>
      <trkpt lat="44.38821" lon="0.67885">
        <ele>114</ele>
        <time>2012-02-26T08:01:22Z</time>
      </trkpt>
      <trkpt lat="44.38823" lon="0.6788">
        <ele>114</ele>
        <time>2012-02-26T08:01:24Z</time>
      </trkpt>
      <trkpt lat="44.38824" lon="0.67876">
        <ele>114</ele>
        <time>2012-02-26T08:01:24Z</time>
      </trkpt>
      <trkpt lat="44.38827" lon="0.67871">
        <ele>114</ele>
        <time>2012-02-26T08:01:25Z</time>
      </trkpt>
      <trkpt lat="44.3883" lon="0.67867">
        <ele>115</ele>
        <time>2012-02-26T08:01:26Z</time>
      </trkpt>
      <trkpt lat="44.38832" lon="0.67862">
        <ele>116</ele>
        <time>2012-02-26T08:01:28Z</time>
      </trkpt>
      <trkpt lat="44.38835" lon="0.67858">
        <ele>116</ele>
        <time>2012-02-26T08:01:28Z</time>
      </trkpt>
      <trkpt lat="44.38837" lon="0.67854">
        <ele>116</ele>
        <time>2012-02-26T08:01:30Z</time>
      </trkpt>
      <trkpt lat="44.3884" lon="0.6785">
        <ele>116</ele>
        <time>2012-02-26T08:01:30Z</time>
      </trkpt>
      <trkpt lat="44.38843" lon="0.67845">
        <ele>116</ele>
        <time>2012-02-26T08:01:32Z</time>
      </trkpt>
      <trkpt lat="44.38846" lon="0.67841">
        <ele>116</ele>
        <time>2012-02-26T08:01:32Z</time>
      </trkpt>
      <trkpt lat="44.38849" lon="0.67837">
        <ele>116</ele>
        <time>2012-02-26T08:01:33Z</time>
      </trkpt>
      <trkpt lat="44.38852" lon="0.67833">
        <ele>116</ele>
        <time>2012-02-26T08:01:34Z</time>
      </trkpt>
      <trkpt lat="44.38856" lon="0.67828">
        <ele>116</ele>
        <time>2012-02-26T08:01:36Z</time>
      </trkpt>
      <trkpt lat="44.38859" lon="0.67824">
        <ele>116</ele>
        <time>2012-02-26T08:01:36Z</time>
      </trkpt>
      <trkpt lat="44.38863" lon="0.6782">
        <ele>116</ele>
        <time>2012-02-26T08:01:37Z</time>
      </trkpt>
      <trkpt lat="44.38867" lon="0.67816">
        <ele>116</ele>
        <time>2012-02-26T08:01:38Z</time>
      </trkpt>
      <trkpt lat="44.3887" lon="0.67811">
        <ele>116</ele>
        <time>2012-02-26T08:01:40Z</time>
      </trkpt>
      <trkpt lat="44.38873" lon="0.67806">
        <ele>117</ele>
        <time>2012-02-26T08:01:40Z</time>
      </trkpt>
      <trkpt lat="44.38877" lon="0.67801">
        <ele>118</ele>
        <time>2012-02-26T08:01:41Z</time>
      </trkpt>
      <trkpt lat="44.38881" lon="0.67796">
        <ele>118</ele>
        <time>2012-02-26T08:01:43Z</time>
      </trkpt>
      <trkpt lat="44.38885" lon="0.67791">
        <ele>118</ele>
        <time>2012-02-26T08:01:43Z</time>
      </trkpt>
      <trkpt lat="44.38889" lon="0.67785">
        <ele>118</ele>
        <time>2012-02-26T08:01:44Z</time>
      </trkpt>
      <trkpt lat="44.38895" lon="0.67779">
        <ele>118</ele>
        <time>2012-02-26T08:01:45Z</time>
      </trkpt>
      <trkpt lat="44.389" lon="0.67773">
        <ele>118</ele>
        <time>2012-02-26T08:01:47Z</time>
      </trkpt>
      <trkpt lat="44.38905" lon="0.67766">
        <ele>119</ele>
        <time>2012-02-26T08:01:47Z</time>
      </trkpt>
      <trkpt lat="44.38911" lon="0.67759">
        <ele>119</ele>
        <time>2012-02-26T08:01:48Z</time>
      </trkpt>
      <trkpt lat="44.38916" lon="0.6775">
        <ele>120</ele>
        <time>2012-02-26T08:01:49Z</time>
      </trkpt>
      <trkpt lat="44.38921" lon="0.67742">
        <ele>120</ele>
        <time>2012-02-26T08:01:50Z</time>
      </trkpt>
      <trkpt lat="44.38926" lon="0.67733">
        <ele>121</ele>
        <time>2012-02-26T08:01:51Z</time>
      </trkpt>
      <trkpt lat="44.38931" lon="0.67725">
        <ele>121</ele>
        <time>2012-02-26T08:01:52Z</time>
      </trkpt>
      <trkpt lat="44.38936" lon="0.67717">
        <ele>121</ele>
        <time>2012-02-26T08:01:53Z</time>
      </trkpt>
      <trkpt lat="44.38941" lon="0.67709">
        <ele>121</ele>
        <time>2012-02-26T08:01:55Z</time>
      </trkpt>
      <trkpt lat="44.38945" lon="0.67701">
        <ele>121</ele>
        <time>2012-02-26T08:01:55Z</time>
      </trkpt>
      <trkpt lat="44.3895" lon="0.67693">
        <ele>121</ele>
        <time>2012-02-26T08:01:56Z</time>
      </trkpt>
      <trkpt lat="44.38954" lon="0.67685">
        <ele>121</ele>
        <time>2012-02-26T08:01:57Z</time>
      </trkpt>
      <trkpt lat="44.38958" lon="0.67676">
        <ele>121</ele>
        <time>2012-02-26T08:01:58Z</time>
      </trkpt>
      <trkpt lat="44.38963" lon="0.67667">
        <ele>121</ele>
        <time>2012-02-26T08:01:59Z</time>
      </trkpt>
      <trkpt lat="44.38968" lon="0.67658">
        <ele>121</ele>
        <time>2012-02-26T08:02:00Z</time>
      </trkpt>
      <trkpt lat="44.38972" lon="0.67649">
        <ele>121</ele>
        <time>2012-02-26T08:02:01Z</time>
      </trkpt>
      <trkpt lat="44.38977" lon="0.67639">
        <ele>121</ele>
        <time>2012-02-26T08:02:02Z</time>
      </trkpt>
      <trkpt lat="44.38981" lon="0.6763">
        <ele>121</ele>
        <time>2012-02-26T08:02:03Z</time>
      </trkpt>
      <trkpt lat="44.38985" lon="0.67621">
        <ele>121</ele>
        <time>2012-02-26T08:02:04Z</time>
      </trkpt>
      <trkpt lat="44.38988" lon="0.67612">
        <ele>121</ele>
        <time>2012-02-26T08:02:06Z</time>
      </trkpt>
      <trkpt lat="44.38992" lon="0.67603">
        <ele>121</ele>
        <time>2012-02-26T08:02:06Z</time>
      </trkpt>
      <trkpt lat="44.38996" lon="0.67595">
        <ele>121</ele>
        <time>2012-02-26T08:02:07Z</time>
      </trkpt>
      <trkpt lat="44.38999" lon="0.67586">
        <ele>121</ele>
        <time>2012-02-26T08:02:08Z</time>
      </trkpt>
      <trkpt lat="44.39002" lon="0.67576">
        <ele>121</ele>
        <time>2012-02-26T08:02:09Z</time>
      </trkpt>
      <trkpt lat="44.39005" lon="0.67566">
        <ele>121</ele>
        <time>2012-02-26T08:02:11Z</time>
      </trkpt>
      <trkpt lat="44.39008" lon="0.67555">
        <ele>121</ele>
        <time>2012-02-26T08:02:11Z</time>
      </trkpt>
      <trkpt lat="44.3901" lon="0.67544">
        <ele>121</ele>
        <time>2012-02-26T08:02:13Z</time>
      </trkpt>
      <trkpt lat="44.39012" lon="0.67532">
        <ele>121</ele>
        <time>2012-02-26T08:02:13Z</time>
      </trkpt>
      <trkpt lat="44.39013" lon="0.67521">
        <ele>121</ele>
        <time>2012-02-26T08:02:14Z</time>
      </trkpt>
      <trkpt lat="44.39015" lon="0.6751">
        <ele>120</ele>
        <time>2012-02-26T08:02:15Z</time>
      </trkpt>
      <trkpt lat="44.39016" lon="0.67499">
        <ele>119</ele>
        <time>2012-02-26T08:02:16Z</time>
      </trkpt>
      <trkpt lat="44.39017" lon="0.67489">
        <ele>118</ele>
        <time>2012-02-26T08:02:18Z</time>
      </trkpt>
      <trkpt lat="44.39018" lon="0.67479">
        <ele>117</ele>
        <time>2012-02-26T08:02:18Z</time>
      </trkpt>
      <trkpt lat="44.3902" lon="0.6747">
        <ele>116</ele>
        <time>2012-02-26T08:02:19Z</time>
      </trkpt>
      <trkpt lat="44.39022" lon="0.67462">
        <ele>116</ele>
        <time>2012-02-26T08:02:20Z</time>
      </trkpt>
      <trkpt lat="44.39024" lon="0.67453">
        <ele>116</ele>
        <time>2012-02-26T08:02:21Z</time>
      </trkpt>
      <trkpt lat="44.39027" lon="0.67445">
        <ele>116</ele>
        <time>2012-02-26T08:02:22Z</time>
      </trkpt>
      <trkpt lat="44.3903" lon="0.67438">
        <ele>116</ele>
        <time>2012-02-26T08:02:23Z</time>
      </trkpt>
      <trkpt lat="44.39034" lon="0.67431">
        <ele>116</ele>
        <time>2012-02-26T08:02:24Z</time>
      </trkpt>
      <trkpt lat="44.39037" lon="0.67423">
        <ele>116</ele>
        <time>2012-02-26T08:02:26Z</time>
      </trkpt>
      <trkpt lat="44.3904" lon="0.67416">
        <ele>115</ele>
        <time>2012-02-26T08:02:26Z</time>
      </trkpt>
      <trkpt lat="44.39044" lon="0.67409">
        <ele>115</ele>
        <time>2012-02-26T08:02:27Z</time>
      </trkpt>
      <trkpt lat="44.39047" lon="0.67402">
        <ele>115</ele>
        <time>2012-02-26T08:02:28Z</time>
      </trkpt>
      <trkpt lat="44.39051" lon="0.67396">
        <ele>115</ele>
        <time>2012-02-26T08:02:29Z</time>
      </trkpt>
      <trkpt lat="44.39054" lon="0.6739">
        <ele>115</ele>
        <time>2012-02-26T08:02:30Z</time>
      </trkpt>
      <trkpt lat="44.39057" lon="0.67384">
        <ele>115</ele>
        <time>2012-02-26T08:02:32Z</time>
      </trkpt>
      <trkpt lat="44.3906" lon="0.6738">
        <ele>115</ele>
        <time>2012-02-26T08:02:32Z</time>
      </trkpt>
      <trkpt lat="44.39063" lon="0.67375">
        <ele>115</ele>
        <time>2012-02-26T08:02:33Z</time>
      </trkpt>
      <trkpt lat="44.39066" lon="0.67371">
        <ele>115</ele>
        <time>2012-02-26T08:02:35Z</time>
      </trkpt>
      <trkpt lat="44.39068" lon="0.67366">
        <ele>115</ele>
        <time>2012-02-26T08:02:35Z</time>
      </trkpt>
      <trkpt lat="44.3907" lon="0.67361">
        <ele>115</ele>
        <time>2012-02-26T08:02:36Z</time>
      </trkpt>
      <trkpt lat="44.39073" lon="0.67356">
        <ele>115</ele>
        <time>2012-02-26T08:02:37Z</time>
      </trkpt>
      <trkpt lat="44.39076" lon="0.67351">
        <ele>115</ele>
        <time>2012-02-26T08:02:38Z</time>
      </trkpt>
      <trkpt lat="44.39079" lon="0.67348">
        <ele>115</ele>
        <time>2012-02-26T08:02:39Z</time>
      </trkpt>
      <trkpt lat="44.39082" lon="0.67344">
        <ele>115</ele>
        <time>2012-02-26T08:02:41Z</time>
      </trkpt>
      <trkpt lat="44.39086" lon="0.6734">
        <ele>115</ele>
        <time>2012-02-26T08:02:42Z</time>
      </trkpt>
      <trkpt lat="44.39089" lon="0.67335">
        <ele>115</ele>
        <time>2012-02-26T08:02:43Z</time>
      </trkpt>
      <trkpt lat="44.39092" lon="0.67331">
        <ele>115</ele>
        <time>2012-02-26T08:02:43Z</time>
      </trkpt>
      <trkpt lat="44.39096" lon="0.67327">
        <ele>115</ele>
        <time>2012-02-26T08:02:44Z</time>
      </trkpt>
      <trkpt lat="44.39099" lon="0.67323">
        <ele>115</ele>
        <time>2012-02-26T08:02:45Z</time>
      </trkpt>
      <trkpt lat="44.39102" lon="0.67319">
        <ele>115</ele>
        <time>2012-02-26T08:02:46Z</time>
      </trkpt>
      <trkpt lat="44.39105" lon="0.67316">
        <ele>115</ele>
        <time>2012-02-26T08:02:47Z</time>
      </trkpt>
      <trkpt lat="44.39108" lon="0.67312">
        <ele>115</ele>
        <time>2012-02-26T08:02:48Z</time>
      </trkpt>
      <trkpt lat="44.3911" lon="0.67309">
        <ele>115</ele>
        <time>2012-02-26T08:02:49Z</time>
      </trkpt>
      <trkpt lat="44.39112" lon="0.67305">
        <ele>115</ele>
        <time>2012-02-26T08:02:50Z</time>
      </trkpt>
      <trkpt lat="44.39114" lon="0.67301">
        <ele>116</ele>
        <time>2012-02-26T08:02:51Z</time>
      </trkpt>
      <trkpt lat="44.39117" lon="0.67297">
        <ele>116</ele>
        <time>2012-02-26T08:02:53Z</time>
      </trkpt>
      <trkpt lat="44.39119" lon="0.67292">
        <ele>117</ele>
        <time>2012-02-26T08:02:53Z</time>
      </trkpt>
      <trkpt lat="44.39121" lon="0.67288">
        <ele>118</ele>
        <time>2012-02-26T08:02:54Z</time>
      </trkpt>
      <trkpt lat="44.39123" lon="0.67283">
        <ele>119</ele>
        <time>2012-02-26T08:02:56Z</time>
      </trkpt>
      <trkpt lat="44.39125" lon="0.67278">
        <ele>120</ele>
        <time>2012-02-26T08:02:56Z</time>
      </trkpt>
      <trkpt lat="44.39127" lon="0.67273">
        <ele>121</ele>
        <time>2012-02-26T08:02:57Z</time>
      </trkpt>
      <trkpt lat="44.39129" lon="0.67267">
        <ele>122</ele>
        <time>2012-02-26T08:02:58Z</time>
      </trkpt>
      <trkpt lat="44.39131" lon="0.67261">
        <ele>122</ele>
        <time>2012-02-26T08:03:00Z</time>
      </trkpt>
      <trkpt lat="44.39133" lon="0.67254">
        <ele>123</ele>
        <time>2012-02-26T08:03:00Z</time>
      </trkpt>
      <trkpt lat="44.39135" lon="0.67247">
        <ele>123</ele>
        <time>2012-02-26T08:03:01Z</time>
      </trkpt>
      <trkpt lat="44.39137" lon="0.6724">
        <ele>123</ele>
        <time>2012-02-26T08:03:02Z</time>
      </trkpt>
      <trkpt lat="44.39139" lon="0.67232">
        <ele>123</ele>
        <time>2012-02-26T08:03:03Z</time>
      </trkpt>
      <trkpt lat="44.39141" lon="0.67224">
        <ele>123</ele>
        <time>2012-02-26T08:03:05Z</time>
      </trkpt>
      <trkpt lat="44.39142" lon="0.67215">
        <ele>123</ele>
        <time>2012-02-26T08:03:05Z</time>
      </trkpt>
      <trkpt lat="44.39144" lon="0.67207">
        <ele>123</ele>
        <time>2012-02-26T08:03:06Z</time>
      </trkpt>
      <trkpt lat="44.39146" lon="0.67198">
        <ele>123</ele>
        <time>2012-02-26T08:03:07Z</time>
      </trkpt>
      <trkpt lat="44.39148" lon="0.67189">
        <ele>123</ele>
        <time>2012-02-26T08:03:08Z</time>
      </trkpt>
      <trkpt lat="44.3915" lon="0.6718">
        <ele>123</ele>
        <time>2012-02-26T08:03:09Z</time>
      </trkpt>
      <trkpt lat="44.39151" lon="0.67169">
        <ele>122</ele>
        <time>2012-02-26T08:03:10Z</time>
      </trkpt>
      <trkpt lat="44.39153" lon="0.67158">
        <ele>121</ele>
        <time>2012-02-26T08:03:11Z</time>
      </trkpt>
      <trkpt lat="44.39154" lon="0.67146">
        <ele>120</ele>
        <time>2012-02-26T08:03:12Z</time>
      </trkpt>
      <trkpt lat="44.39156" lon="0.67135">
        <ele>119</ele>
        <time>2012-02-26T08:03:13Z</time>
      </trkpt>
      <trkpt lat="44.39157" lon="0.67123">
        <ele>119</ele>
        <time>2012-02-26T08:03:14Z</time>
      </trkpt>
      <trkpt lat="44.39159" lon="0.67111">
        <ele>118</ele>
        <time>2012-02-26T08:03:15Z</time>
      </trkpt>
      <trkpt lat="44.3916" lon="0.67099">
        <ele>117</ele>
        <time>2012-02-26T08:03:16Z</time>
      </trkpt>
      <trkpt lat="44.39162" lon="0.67087">
        <ele>116</ele>
        <time>2012-02-26T08:03:17Z</time>
      </trkpt>
      <trkpt lat="44.39164" lon="0.67076">
        <ele>116</ele>
        <time>2012-02-26T08:03:19Z</time>
      </trkpt>
      <trkpt lat="44.39164" lon="0.67063">
        <ele>115</ele>
        <time>2012-02-26T08:03:19Z</time>
      </trkpt>
      <trkpt lat="44.39166" lon="0.67052">
        <ele>115</ele>
        <time>2012-02-26T08:03:20Z</time>
      </trkpt>
      <trkpt lat="44.39167" lon="0.67041">
        <ele>114</ele>
        <time>2012-02-26T08:03:21Z</time>
      </trkpt>
      <trkpt lat="44.39169" lon="0.6703">
        <ele>114</ele>
        <time>2012-02-26T08:03:23Z</time>
      </trkpt>
      <trkpt lat="44.39172" lon="0.67019">
        <ele>113</ele>
        <time>2012-02-26T08:03:23Z</time>
      </trkpt>
      <trkpt lat="44.39174" lon="0.67009">
        <ele>113</ele>
        <time>2012-02-26T08:03:24Z</time>
      </trkpt>
      <trkpt lat="44.39175" lon="0.66999">
        <ele>113</ele>
        <time>2012-02-26T08:03:25Z</time>
      </trkpt>
      <trkpt lat="44.39177" lon="0.6699">
        <ele>112</ele>
        <time>2012-02-26T08:03:26Z</time>
      </trkpt>
      <trkpt lat="44.39178" lon="0.66982">
        <ele>112</ele>
        <time>2012-02-26T08:03:27Z</time>
      </trkpt>
      <trkpt lat="44.39179" lon="0.66975">
        <ele>112</ele>
        <time>2012-02-26T08:03:28Z</time>
      </trkpt>
      <trkpt lat="44.39179" lon="0.66969">
        <ele>112</ele>
        <time>2012-02-26T08:03:29Z</time>
      </trkpt>
      <trkpt lat="44.39177" lon="0.66963">
        <ele>111</ele>
        <time>2012-02-26T08:03:31Z</time>
      </trkpt>
      <trkpt lat="44.39174" lon="0.66958">
        <ele>111</ele>
        <time>2012-02-26T08:03:31Z</time>
      </trkpt>
      <trkpt lat="44.39172" lon="0.66953">
        <ele>111</ele>
        <time>2012-02-26T08:03:33Z</time>
      </trkpt>
      <trkpt lat="44.39171" lon="0.66946">
        <ele>110</ele>
        <time>2012-02-26T08:03:33Z</time>
      </trkpt>
      <trkpt lat="44.39171" lon="0.66939">
        <ele>110</ele>
        <time>2012-02-26T08:03:34Z</time>
      </trkpt>
      <trkpt lat="44.39172" lon="0.66931">
        <ele>110</ele>
        <time>2012-02-26T08:03:36Z</time>
      </trkpt>
      <trkpt lat="44.39173" lon="0.66923">
        <ele>110</ele>
        <time>2012-02-26T08:03:36Z</time>
      </trkpt>
      <trkpt lat="44.39174" lon="0.66915">
        <ele>109</ele>
        <time>2012-02-26T08:03:38Z</time>
      </trkpt>
      <trkpt lat="44.39175" lon="0.66907">
        <ele>109</ele>
        <time>2012-02-26T08:03:39Z</time>
      </trkpt>
      <trkpt lat="44.39177" lon="0.66899">
        <ele>109</ele>
        <time>2012-02-26T08:03:39Z</time>
      </trkpt>
      <trkpt lat="44.39178" lon="0.6689">
        <ele>109</ele>
        <time>2012-02-26T08:03:41Z</time>
      </trkpt>
      <trkpt lat="44.3918" lon="0.66881">
        <ele>108</ele>
        <time>2012-02-26T08:03:41Z</time>
      </trkpt>
      <trkpt lat="44.39181" lon="0.66874">
        <ele>108</ele>
        <time>2012-02-26T08:03:43Z</time>
      </trkpt>
      <trkpt lat="44.39182" lon="0.66866">
        <ele>108</ele>
        <time>2012-02-26T08:03:43Z</time>
      </trkpt>
      <trkpt lat="44.39183" lon="0.66861">
        <ele>108</ele>
        <time>2012-02-26T08:03:44Z</time>
      </trkpt>
      <trkpt lat="44.39182" lon="0.66855">
        <ele>108</ele>
        <time>2012-02-26T08:03:45Z</time>
      </trkpt>
      <trkpt lat="44.3918" lon="0.66851">
        <ele>107</ele>
        <time>2012-02-26T08:03:46Z</time>
      </trkpt>
      <trkpt lat="44.39175" lon="0.66849">
        <ele>107</ele>
        <time>2012-02-26T08:03:48Z</time>
      </trkpt>
      <trkpt lat="44.39169" lon="0.66847">
        <ele>106</ele>
        <time>2012-02-26T08:03:48Z</time>
      </trkpt>
      <trkpt lat="44.39164" lon="0.66845">
        <ele>106</ele>
        <time>2012-02-26T08:03:49Z</time>
      </trkpt>
      <trkpt lat="44.3916" lon="0.66844">
        <ele>105</ele>
        <time>2012-02-26T08:03:51Z</time>
      </trkpt>
      <trkpt lat="44.39156" lon="0.66843">
        <ele>104</ele>
        <time>2012-02-26T08:03:51Z</time>
      </trkpt>
      <trkpt lat="44.39151" lon="0.66841">
        <ele>103</ele>
        <time>2012-02-26T08:03:52Z</time>
      </trkpt>
      <trkpt lat="44.39147" lon="0.6684">
        <ele>102</ele>
        <time>2012-02-26T08:03:53Z</time>
      </trkpt>
      <trkpt lat="44.39142" lon="0.66838">
        <ele>101</ele>
        <time>2012-02-26T08:03:55Z</time>
      </trkpt>
      <trkpt lat="44.39137" lon="0.66837">
        <ele>100</ele>
        <time>2012-02-26T08:03:55Z</time>
      </trkpt>
      <trkpt lat="44.39133" lon="0.66835">
        <ele>99</ele>
        <time>2012-02-26T08:03:56Z</time>
      </trkpt>
      <trkpt lat="44.3913" lon="0.66834">
        <ele>98</ele>
        <time>2012-02-26T08:03:57Z</time>
      </trkpt>
      <trkpt lat="44.39128" lon="0.66833">
        <ele>98</ele>
        <time>2012-02-26T08:03:58Z</time>
      </trkpt>
      <trkpt lat="44.39126" lon="0.66833">
        <ele>97</ele>
        <time>2012-02-26T08:03:59Z</time>
      </trkpt>
      <trkpt lat="44.39124" lon="0.66832">
        <ele>97</ele>
        <time>2012-02-26T08:04:00Z</time>
      </trkpt>
      <trkpt lat="44.39122" lon="0.66831">
        <ele>97</ele>
        <time>2012-02-26T08:04:01Z</time>
      </trkpt>
      <trkpt lat="44.39119" lon="0.6683">
        <ele>96</ele>
        <time>2012-02-26T08:04:02Z</time>
      </trkpt>
      <trkpt lat="44.39116" lon="0.66828">
        <ele>96</ele>
        <time>2012-02-26T08:04:04Z</time>
      </trkpt>
      <trkpt lat="44.39113" lon="0.66826">
        <ele>95</ele>
        <time>2012-02-26T08:04:05Z</time>
      </trkpt>
      <trkpt lat="44.3911" lon="0.66824">
        <ele>95</ele>
        <time>2012-02-26T08:04:05Z</time>
      </trkpt>
      <trkpt lat="44.39106" lon="0.66822">
        <ele>94</ele>
        <time>2012-02-26T08:04:06Z</time>
      </trkpt>
      <trkpt lat="44.39103" lon="0.6682">
        <ele>94</ele>
        <time>2012-02-26T08:04:07Z</time>
      </trkpt>
      <trkpt lat="44.391" lon="0.66818">
        <ele>93</ele>
        <time>2012-02-26T08:04:08Z</time>
      </trkpt>
      <trkpt lat="44.39096" lon="0.66815">
        <ele>93</ele>
        <time>2012-02-26T08:04:09Z</time>
      </trkpt>
      <trkpt lat="44.39093" lon="0.66813">
        <ele>92</ele>
        <time>2012-02-26T08:04:10Z</time>
      </trkpt>
      <trkpt lat="44.39091" lon="0.66812">
        <ele>91</ele>
        <time>2012-02-26T08:04:12Z</time>
      </trkpt>
      <trkpt lat="44.3909" lon="0.6681">
        <ele>91</ele>
        <time>2012-02-26T08:04:13Z</time>
      </trkpt>
      <trkpt lat="44.39087" lon="0.66809">
        <ele>90</ele>
        <time>2012-02-26T08:04:13Z</time>
      </trkpt>
      <trkpt lat="44.39085" lon="0.66808">
        <ele>90</ele>
        <time>2012-02-26T08:04:14Z</time>
      </trkpt>
      <trkpt lat="44.39082" lon="0.66806">
        <ele>89</ele>
        <time>2012-02-26T08:04:15Z</time>
      </trkpt>
      <trkpt lat="44.39079" lon="0.66803">
        <ele>89</ele>
        <time>2012-02-26T08:04:16Z</time>
      </trkpt>
      <trkpt lat="44.39074" lon="0.66799">
        <ele>88</ele>
        <time>2012-02-26T08:04:17Z</time>
      </trkpt>
      <trkpt lat="44.39069" lon="0.66796">
        <ele>87</ele>
        <time>2012-02-26T08:04:19Z</time>
      </trkpt>
      <trkpt lat="44.39063" lon="0.66792">
        <ele>87</ele>
        <time>2012-02-26T08:04:19Z</time>
      </trkpt>
      <trkpt lat="44.39057" lon="0.66786">
        <ele>86</ele>
        <time>2012-02-26T08:04:20Z</time>
      </trkpt>
      <trkpt lat="44.39049" lon="0.66781">
        <ele>85</ele>
        <time>2012-02-26T08:04:21Z</time>
      </trkpt>
      <trkpt lat="44.39041" lon="0.66775">
        <ele>84</ele>
        <time>2012-02-26T08:04:22Z</time>
      </trkpt>
      <trkpt lat="44.39032" lon="0.66769">
        <ele>83</ele>
        <time>2012-02-26T08:04:23Z</time>
      </trkpt>
      <trkpt lat="44.39023" lon="0.66763">
        <ele>82</ele>
        <time>2012-02-26T08:04:24Z</time>
      </trkpt>
      <trkpt lat="44.39014" lon="0.66756">
        <ele>81</ele>
        <time>2012-02-26T08:04:25Z</time>
      </trkpt>
      <trkpt lat="44.39005" lon="0.6675">
        <ele>80</ele>
        <time>2012-02-26T08:04:26Z</time>
      </trkpt>
      <trkpt lat="44.38996" lon="0.66744">
        <ele>79</ele>
        <time>2012-02-26T08:04:27Z</time>
      </trkpt>
      <trkpt lat="44.38987" lon="0.66738">
        <ele>78</ele>
        <time>2012-02-26T08:04:28Z</time>
      </trkpt>
      <trkpt lat="44.38979" lon="0.66733">
        <ele>76</ele>
        <time>2012-02-26T08:04:29Z</time>
      </trkpt>
      <trkpt lat="44.38972" lon="0.66728">
        <ele>75</ele>
        <time>2012-02-26T08:04:30Z</time>
      </trkpt>
      <trkpt lat="44.38967" lon="0.66724">
        <ele>74</ele>
        <time>2012-02-26T08:04:31Z</time>
      </trkpt>
      <trkpt lat="44.38962" lon="0.66723">
        <ele>73</ele>
        <time>2012-02-26T08:04:33Z</time>
      </trkpt>
      <trkpt lat="44.38958" lon="0.66725">
        <ele>72</ele>
        <time>2012-02-26T08:04:33Z</time>
      </trkpt>
      <trkpt lat="44.38955" lon="0.66729">
        <ele>71</ele>
        <time>2012-02-26T08:04:34Z</time>
      </trkpt>
      <trkpt lat="44.38953" lon="0.66735">
        <ele>70</ele>
        <time>2012-02-26T08:04:35Z</time>
      </trkpt>
      <trkpt lat="44.3895" lon="0.66742">
        <ele>69</ele>
        <time>2012-02-26T08:04:36Z</time>
      </trkpt>
      <trkpt lat="44.38948" lon="0.66749">
        <ele>68</ele>
        <time>2012-02-26T08:04:37Z</time>
      </trkpt>
      <trkpt lat="44.38946" lon="0.66756">
        <ele>67</ele>
        <time>2012-02-26T08:04:38Z</time>
      </trkpt>
      <trkpt lat="44.38944" lon="0.66764">
        <ele>66</ele>
        <time>2012-02-26T08:04:39Z</time>
      </trkpt>
      <trkpt lat="44.38942" lon="0.66772">
        <ele>66</ele>
        <time>2012-02-26T08:04:40Z</time>
      </trkpt>
      <trkpt lat="44.3894" lon="0.6678">
        <ele>66</ele>
        <time>2012-02-26T08:04:41Z</time>
      </trkpt>
      <trkpt lat="44.38937" lon="0.66787">
        <ele>66</ele>
        <time>2012-02-26T08:04:43Z</time>
      </trkpt>
      <trkpt lat="44.38935" lon="0.66795">
        <ele>66</ele>
        <time>2012-02-26T08:04:43Z</time>
      </trkpt>
      <trkpt lat="44.38933" lon="0.66803">
        <ele>66</ele>
        <time>2012-02-26T08:04:44Z</time>
      </trkpt>
      <trkpt lat="44.38931" lon="0.66811">
        <ele>66</ele>
        <time>2012-02-26T08:04:45Z</time>
      </trkpt>
      <trkpt lat="44.38928" lon="0.66819">
        <ele>66</ele>
        <time>2012-02-26T08:04:46Z</time>
      </trkpt>
      <trkpt lat="44.38926" lon="0.66827">
        <ele>66</ele>
        <time>2012-02-26T08:04:47Z</time>
      </trkpt>
      <trkpt lat="44.38924" lon="0.66835">
        <ele>66</ele>
        <time>2012-02-26T08:04:49Z</time>
      </trkpt>
      <trkpt lat="44.38922" lon="0.66843">
        <ele>66</ele>
        <time>2012-02-26T08:04:50Z</time>
      </trkpt>
      <trkpt lat="44.3892" lon="0.66851">
        <ele>66</ele>
        <time>2012-02-26T08:04:50Z</time>
      </trkpt>
      <trkpt lat="44.38918" lon="0.66858">
        <ele>66</ele>
        <time>2012-02-26T08:04:51Z</time>
      </trkpt>
      <trkpt lat="44.38916" lon="0.66866">
        <ele>66</ele>
        <time>2012-02-26T08:04:52Z</time>
      </trkpt>
      <trkpt lat="44.38913" lon="0.66874">
        <ele>66</ele>
        <time>2012-02-26T08:04:53Z</time>
      </trkpt>
      <trkpt lat="44.38911" lon="0.66881">
        <ele>66</ele>
        <time>2012-02-26T08:04:55Z</time>
      </trkpt>
      <trkpt lat="44.38908" lon="0.66889">
        <ele>66</ele>
        <time>2012-02-26T08:04:56Z</time>
      </trkpt>
      <trkpt lat="44.38906" lon="0.66897">
        <ele>66</ele>
        <time>2012-02-26T08:04:56Z</time>
      </trkpt>
      <trkpt lat="44.38904" lon="0.66904">
        <ele>66</ele>
        <time>2012-02-26T08:04:57Z</time>
      </trkpt>
      <trkpt lat="44.38902" lon="0.66912">
        <ele>66</ele>
        <time>2012-02-26T08:04:59Z</time>
      </trkpt>
      <trkpt lat="44.389" lon="0.66919">
        <ele>66</ele>
        <time>2012-02-26T08:04:59Z</time>
      </trkpt>
      <trkpt lat="44.38897" lon="0.66927">
        <ele>66</ele>
        <time>2012-02-26T08:05:01Z</time>
      </trkpt>
      <trkpt lat="44.38895" lon="0.66935">
        <ele>66</ele>
        <time>2012-02-26T08:05:02Z</time>
      </trkpt>
      <trkpt lat="44.38893" lon="0.66944">
        <ele>66</ele>
        <time>2012-02-26T08:05:03Z</time>
      </trkpt>
      <trkpt lat="44.38891" lon="0.66952">
        <ele>66</ele>
        <time>2012-02-26T08:05:03Z</time>
      </trkpt>
      <trkpt lat="44.38889" lon="0.6696">
        <ele>66</ele>
        <time>2012-02-26T08:05:04Z</time>
      </trkpt>
      <trkpt lat="44.38888" lon="0.6697">
        <ele>66</ele>
        <time>2012-02-26T08:05:05Z</time>
      </trkpt>
      <trkpt lat="44.38886" lon="0.66979">
        <ele>66</ele>
        <time>2012-02-26T08:05:06Z</time>
      </trkpt>
      <trkpt lat="44.38884" lon="0.66989">
        <ele>66</ele>
        <time>2012-02-26T08:05:07Z</time>
      </trkpt>
      <trkpt lat="44.38882" lon="0.66997">
        <ele>66</ele>
        <time>2012-02-26T08:05:08Z</time>
      </trkpt>
      <trkpt lat="44.38881" lon="0.67007">
        <ele>66</ele>
        <time>2012-02-26T08:05:09Z</time>
      </trkpt>
      <trkpt lat="44.38879" lon="0.67016">
        <ele>66</ele>
        <time>2012-02-26T08:05:10Z</time>
      </trkpt>
      <trkpt lat="44.38877" lon="0.67024">
        <ele>66</ele>
        <time>2012-02-26T08:05:11Z</time>
      </trkpt>
      <trkpt lat="44.38875" lon="0.67033">
        <ele>66</ele>
        <time>2012-02-26T08:05:13Z</time>
      </trkpt>
      <trkpt lat="44.38874" lon="0.67041">
        <ele>66</ele>
        <time>2012-02-26T08:05:14Z</time>
      </trkpt>
      <trkpt lat="44.38872" lon="0.67049">
        <ele>66</ele>
        <time>2012-02-26T08:05:15Z</time>
      </trkpt>
      <trkpt lat="44.3887" lon="0.67058">
        <ele>66</ele>
        <time>2012-02-26T08:05:15Z</time>
      </trkpt>
      <trkpt lat="44.38868" lon="0.67066">
        <ele>66</ele>
        <time>2012-02-26T08:05:16Z</time>
      </trkpt>
      <trkpt lat="44.38866" lon="0.67074">
        <ele>66</ele>
        <time>2012-02-26T08:05:18Z</time>
      </trkpt>
      <trkpt lat="44.38865" lon="0.67083">
        <ele>66</ele>
        <time>2012-02-26T08:05:18Z</time>
      </trkpt>
      <trkpt lat="44.38863" lon="0.67092">
        <ele>66</ele>
        <time>2012-02-26T08:05:19Z</time>
      </trkpt>
      <trkpt lat="44.38861" lon="0.671">
        <ele>66</ele>
        <time>2012-02-26T08:05:21Z</time>
      </trkpt>
      <trkpt lat="44.38859" lon="0.67109">
        <ele>66</ele>
        <time>2012-02-26T08:05:22Z</time>
      </trkpt>
      <trkpt lat="44.38857" lon="0.67118">
        <ele>66</ele>
        <time>2012-02-26T08:05:23Z</time>
      </trkpt>
      <trkpt lat="44.38855" lon="0.67126">
        <ele>66</ele>
        <time>2012-02-26T08:05:24Z</time>
      </trkpt>
      <trkpt lat="44.38853" lon="0.67135">
        <ele>66</ele>
        <time>2012-02-26T08:05:24Z</time>
      </trkpt>
      <trkpt lat="44.38851" lon="0.67143">
        <ele>66</ele>
        <time>2012-02-26T08:05:25Z</time>
      </trkpt>
      <trkpt lat="44.38849" lon="0.67152">
        <ele>66</ele>
        <time>2012-02-26T08:05:26Z</time>
      </trkpt>
      <trkpt lat="44.38847" lon="0.67161">
        <ele>66</ele>
        <time>2012-02-26T08:05:27Z</time>
      </trkpt>
      <trkpt lat="44.38845" lon="0.67169">
        <ele>66</ele>
        <time>2012-02-26T08:05:28Z</time>
      </trkpt>
      <trkpt lat="44.38844" lon="0.67177">
        <ele>66</ele>
        <time>2012-02-26T08:05:29Z</time>
      </trkpt>
      <trkpt lat="44.38842" lon="0.67185">
        <ele>66</ele>
        <time>2012-02-26T08:05:31Z</time>
      </trkpt>
      <trkpt lat="44.38839" lon="0.67191">
        <ele>66</ele>
        <time>2012-02-26T08:05:31Z</time>
      </trkpt>
      <trkpt lat="44.38836" lon="0.67195">
        <ele>66</ele>
        <time>2012-02-26T08:05:32Z</time>
      </trkpt>
      <trkpt lat="44.38832" lon="0.67194">
        <ele>66</ele>
        <time>2012-02-26T08:05:34Z</time>
      </trkpt>
      <trkpt lat="44.38828" lon="0.6719">
        <ele>66</ele>
        <time>2012-02-26T08:05:34Z</time>
      </trkpt>
      <trkpt lat="44.38826" lon="0.67183">
        <ele>66</ele>
        <time>2012-02-26T08:05:36Z</time>
      </trkpt>
      <trkpt lat="44.38824" lon="0.67175">
        <ele>66</ele>
        <time>2012-02-26T08:05:37Z</time>
      </trkpt>
      <trkpt lat="44.38822" lon="0.67167">
        <ele>66</ele>
        <time>2012-02-26T08:05:38Z</time>
      </trkpt>
      <trkpt lat="44.3882" lon="0.67158">
        <ele>66</ele>
        <time>2012-02-26T08:05:38Z</time>
      </trkpt>
      <trkpt lat="44.38818" lon="0.6715">
        <ele>66</ele>
        <time>2012-02-26T08:05:39Z</time>
      </trkpt>
      <trkpt lat="44.38815" lon="0.67142">
        <ele>67</ele>
        <time>2012-02-26T08:05:40Z</time>
      </trkpt>
      <trkpt lat="44.38813" lon="0.67134">
        <ele>67</ele>
        <time>2012-02-26T08:05:41Z</time>
      </trkpt>
      <trkpt lat="44.38811" lon="0.67126">
        <ele>67</ele>
        <time>2012-02-26T08:05:43Z</time>
      </trkpt>
      <trkpt lat="44.38808" lon="0.67119">
        <ele>67</ele>
        <time>2012-02-26T08:05:43Z</time>
      </trkpt>
      <trkpt lat="44.38805" lon="0.67112">
        <ele>67</ele>
        <time>2012-02-26T08:05:45Z</time>
      </trkpt>
      <trkpt lat="44.38802" lon="0.67105">
        <ele>67</ele>
        <time>2012-02-26T08:05:45Z</time>
      </trkpt>
      <trkpt lat="44.38799" lon="0.67098">
        <ele>67</ele>
        <time>2012-02-26T08:05:47Z</time>
      </trkpt>
      <trkpt lat="44.38795" lon="0.67091">
        <ele>67</ele>
        <time>2012-02-26T08:05:47Z</time>
      </trkpt>
      <trkpt lat="44.38791" lon="0.67084">
        <ele>67</ele>
        <time>2012-02-26T08:05:49Z</time>
      </trkpt>
      <trkpt lat="44.38786" lon="0.67078">
        <ele>67</ele>
        <time>2012-02-26T08:05:49Z</time>
      </trkpt>
      <trkpt lat="44.38781" lon="0.67072">
        <ele>67</ele>
        <time>2012-02-26T08:05:50Z</time>
      </trkpt>
      <trkpt lat="44.38775" lon="0.67066">
        <ele>67</ele>
        <time>2012-02-26T08:05:51Z</time>
      </trkpt>
      <trkpt lat="44.38769" lon="0.67061">
        <ele>67</ele>
        <time>2012-02-26T08:05:53Z</time>
      </trkpt>
      <trkpt lat="44.38763" lon="0.67055">
        <ele>67</ele>
        <time>2012-02-26T08:05:53Z</time>
      </trkpt>
      <trkpt lat="44.38757" lon="0.6705">
        <ele>67</ele>
        <time>2012-02-26T08:05:55Z</time>
      </trkpt>
      <trkpt lat="44.38751" lon="0.67045">
        <ele>67</ele>
        <time>2012-02-26T08:05:55Z</time>
      </trkpt>
      <trkpt lat="44.38744" lon="0.6704">
        <ele>67</ele>
        <time>2012-02-26T08:05:56Z</time>
      </trkpt>
      <trkpt lat="44.38738" lon="0.67035">
        <ele>67</ele>
        <time>2012-02-26T08:05:57Z</time>
      </trkpt>
      <trkpt lat="44.38732" lon="0.6703">
        <ele>67</ele>
        <time>2012-02-26T08:05:58Z</time>
      </trkpt>
      <trkpt lat="44.38726" lon="0.67025">
        <ele>67</ele>
        <time>2012-02-26T08:05:59Z</time>
      </trkpt>
      <trkpt lat="44.3872" lon="0.67019">
        <ele>67</ele>
        <time>2012-02-26T08:06:01Z</time>
      </trkpt>
      <trkpt lat="44.38713" lon="0.67014">
        <ele>67</ele>
        <time>2012-02-26T08:06:02Z</time>
      </trkpt>
      <trkpt lat="44.38707" lon="0.67009">
        <ele>67</ele>
        <time>2012-02-26T08:06:02Z</time>
      </trkpt>
      <trkpt lat="44.38701" lon="0.67004">
        <ele>67</ele>
        <time>2012-02-26T08:06:04Z</time>
      </trkpt>
      <trkpt lat="44.38695" lon="0.66999">
        <ele>67</ele>
        <time>2012-02-26T08:06:04Z</time>
      </trkpt>
      <trkpt lat="44.38689" lon="0.66994">
        <ele>67</ele>
        <time>2012-02-26T08:06:06Z</time>
      </trkpt>
      <trkpt lat="44.38683" lon="0.66989">
        <ele>67</ele>
        <time>2012-02-26T08:06:06Z</time>
      </trkpt>
      <trkpt lat="44.38677" lon="0.66984">
        <ele>67</ele>
        <time>2012-02-26T08:06:07Z</time>
      </trkpt>
      <trkpt lat="44.38671" lon="0.6698">
        <ele>67</ele>
        <time>2012-02-26T08:06:08Z</time>
      </trkpt>
      <trkpt lat="44.38665" lon="0.66975">
        <ele>67</ele>
        <time>2012-02-26T08:06:09Z</time>
      </trkpt>
      <trkpt lat="44.3866" lon="0.6697">
        <ele>67</ele>
        <time>2012-02-26T08:06:10Z</time>
      </trkpt>
      <trkpt lat="44.38654" lon="0.66966">
        <ele>67</ele>
        <time>2012-02-26T08:06:11Z</time>
      </trkpt>
      <trkpt lat="44.38649" lon="0.66962">
        <ele>67</ele>
        <time>2012-02-26T08:06:13Z</time>
      </trkpt>
      <trkpt lat="44.38644" lon="0.66958">
        <ele>67</ele>
        <time>2012-02-26T08:06:14Z</time>
      </trkpt>
      <trkpt lat="44.38639" lon="0.66954">
        <ele>67</ele>
        <time>2012-02-26T08:06:14Z</time>
      </trkpt>
      <trkpt lat="44.38635" lon="0.66951">
        <ele>67</ele>
        <time>2012-02-26T08:06:16Z</time>
      </trkpt>
      <trkpt lat="44.38631" lon="0.66947">
        <ele>67</ele>
        <time>2012-02-26T08:06:16Z</time>
      </trkpt>
      <trkpt lat="44.38626" lon="0.66943">
        <ele>67</ele>
        <time>2012-02-26T08:06:17Z</time>
      </trkpt>
      <trkpt lat="44.38622" lon="0.6694">
        <ele>67</ele>
        <time>2012-02-26T08:06:19Z</time>
      </trkpt>
      <trkpt lat="44.38617" lon="0.66936">
        <ele>67</ele>
        <time>2012-02-26T08:06:19Z</time>
      </trkpt>
      <trkpt lat="44.38613" lon="0.66933">
        <ele>67</ele>
        <time>2012-02-26T08:06:20Z</time>
      </trkpt>
      <trkpt lat="44.38609" lon="0.66929">
        <ele>67</ele>
        <time>2012-02-26T08:06:22Z</time>
      </trkpt>
      <trkpt lat="44.38605" lon="0.66926">
        <ele>67</ele>
        <time>2012-02-26T08:06:23Z</time>
      </trkpt>
      <trkpt lat="44.38602" lon="0.66922">
        <ele>68</ele>
        <time>2012-02-26T08:06:23Z</time>
      </trkpt>
      <trkpt lat="44.38598" lon="0.66919">
        <ele>68</ele>
        <time>2012-02-26T08:06:24Z</time>
      </trkpt>
      <trkpt lat="44.38594" lon="0.66915">
        <ele>69</ele>
        <time>2012-02-26T08:06:25Z</time>
      </trkpt>
      <trkpt lat="44.38589" lon="0.66911">
        <ele>70</ele>
        <time>2012-02-26T08:06:26Z</time>
      </trkpt>
      <trkpt lat="44.38584" lon="0.66908">
        <ele>70</ele>
        <time>2012-02-26T08:06:27Z</time>
      </trkpt>
      <trkpt lat="44.38579" lon="0.66905">
        <ele>71</ele>
        <time>2012-02-26T08:06:29Z</time>
      </trkpt>
      <trkpt lat="44.38574" lon="0.66901">
        <ele>72</ele>
        <time>2012-02-26T08:06:29Z</time>
      </trkpt>
      <trkpt lat="44.38569" lon="0.66898">
        <ele>72</ele>
        <time>2012-02-26T08:06:30Z</time>
      </trkpt>
      <trkpt lat="44.38564" lon="0.66896">
        <ele>73</ele>
        <time>2012-02-26T08:06:31Z</time>
      </trkpt>
      <trkpt lat="44.38559" lon="0.66894">
        <ele>73</ele>
        <time>2012-02-26T08:06:32Z</time>
      </trkpt>
      <trkpt lat="44.38554" lon="0.66891">
        <ele>74</ele>
        <time>2012-02-26T08:06:33Z</time>
      </trkpt>
      <trkpt lat="44.38549" lon="0.66889">
        <ele>74</ele>
        <time>2012-02-26T08:06:34Z</time>
      </trkpt>
      <trkpt lat="44.38544" lon="0.66887">
        <ele>75</ele>
        <time>2012-02-26T08:06:35Z</time>
      </trkpt>
      <trkpt lat="44.3854" lon="0.66884">
        <ele>75</ele>
        <time>2012-02-26T08:06:36Z</time>
      </trkpt>
      <trkpt lat="44.38535" lon="0.66882">
        <ele>75</ele>
        <time>2012-02-26T08:06:37Z</time>
      </trkpt>
      <trkpt lat="44.3853" lon="0.6688">
        <ele>76</ele>
        <time>2012-02-26T08:06:38Z</time>
      </trkpt>
      <trkpt lat="44.38525" lon="0.66878">
        <ele>76</ele>
        <time>2012-02-26T08:06:39Z</time>
      </trkpt>
      <trkpt lat="44.3852" lon="0.66876">
        <ele>76</ele>
        <time>2012-02-26T08:06:40Z</time>
      </trkpt>
      <trkpt lat="44.38515" lon="0.66874">
        <ele>76</ele>
        <time>2012-02-26T08:06:42Z</time>
      </trkpt>
      <trkpt lat="44.3851" lon="0.66873">
        <ele>76</ele>
        <time>2012-02-26T08:06:43Z</time>
      </trkpt>
      <trkpt lat="44.38505" lon="0.66872">
        <ele>76</ele>
        <time>2012-02-26T08:06:44Z</time>
      </trkpt>
      <trkpt lat="44.385" lon="0.66871">
        <ele>76</ele>
        <time>2012-02-26T08:06:44Z</time>
      </trkpt>
      <trkpt lat="44.38495" lon="0.66869">
        <ele>76</ele>
        <time>2012-02-26T08:06:46Z</time>
      </trkpt>
      <trkpt lat="44.3849" lon="0.66867">
        <ele>76</ele>
        <time>2012-02-26T08:06:46Z</time>
      </trkpt>
      <trkpt lat="44.38485" lon="0.66865">
        <ele>76</ele>
        <time>2012-02-26T08:06:47Z</time>
      </trkpt>
      <trkpt lat="44.38481" lon="0.66862">
        <ele>76</ele>
        <time>2012-02-26T08:06:48Z</time>
      </trkpt>
      <trkpt lat="44.38477" lon="0.66859">
        <ele>76</ele>
        <time>2012-02-26T08:06:50Z</time>
      </trkpt>
      <trkpt lat="44.38473" lon="0.66856">
        <ele>76</ele>
        <time>2012-02-26T08:06:50Z</time>
      </trkpt>
      <trkpt lat="44.38469" lon="0.66852">
        <ele>76</ele>
        <time>2012-02-26T08:06:51Z</time>
      </trkpt>
      <trkpt lat="44.38466" lon="0.66848">
        <ele>76</ele>
        <time>2012-02-26T08:06:53Z</time>
      </trkpt>
      <trkpt lat="44.38462" lon="0.66844">
        <ele>76</ele>
        <time>2012-02-26T08:06:54Z</time>
      </trkpt>
      <trkpt lat="44.38459" lon="0.66841">
        <ele>77</ele>
        <time>2012-02-26T08:06:54Z</time>
      </trkpt>
      <trkpt lat="44.38456" lon="0.66838">
        <ele>77</ele>
        <time>2012-02-26T08:06:55Z</time>
      </trkpt>
      <trkpt lat="44.38453" lon="0.66835">
        <ele>78</ele>
        <time>2012-02-26T08:06:56Z</time>
      </trkpt>
      <trkpt lat="44.3845" lon="0.66831">
        <ele>78</ele>
        <time>2012-02-26T08:06:57Z</time>
      </trkpt>
      <trkpt lat="44.38447" lon="0.66828">
        <ele>79</ele>
        <time>2012-02-26T08:06:58Z</time>
      </trkpt>
      <trkpt lat="44.38445" lon="0.66825">
        <ele>79</ele>
        <time>2012-02-26T08:07:00Z</time>
      </trkpt>
      <trkpt lat="44.38441" lon="0.66822">
        <ele>79</ele>
        <time>2012-02-26T08:07:00Z</time>
      </trkpt>
      <trkpt lat="44.38439" lon="0.66819">
        <ele>80</ele>
        <time>2012-02-26T08:07:01Z</time>
      </trkpt>
      <trkpt lat="44.38436" lon="0.66816">
        <ele>80</ele>
        <time>2012-02-26T08:07:03Z</time>
      </trkpt>
      <trkpt lat="44.38433" lon="0.66813">
        <ele>80</ele>
        <time>2012-02-26T08:07:03Z</time>
      </trkpt>
      <trkpt lat="44.38431" lon="0.6681">
        <ele>81</ele>
        <time>2012-02-26T08:07:04Z</time>
      </trkpt>
      <trkpt lat="44.38428" lon="0.66806">
        <ele>81</ele>
        <time>2012-02-26T08:07:05Z</time>
      </trkpt>
      <trkpt lat="44.38426" lon="0.66802">
        <ele>81</ele>
        <time>2012-02-26T08:07:07Z</time>
      </trkpt>
      <trkpt lat="44.38424" lon="0.66798">
        <ele>81</ele>
        <time>2012-02-26T08:07:07Z</time>
      </trkpt>
      <trkpt lat="44.38421" lon="0.66793">
        <ele>82</ele>
        <time>2012-02-26T08:07:08Z</time>
      </trkpt>
      <trkpt lat="44.3842" lon="0.66789">
        <ele>82</ele>
        <time>2012-02-26T08:07:09Z</time>
      </trkpt>
      <trkpt lat="44.38418" lon="0.66784">
        <ele>82</ele>
        <time>2012-02-26T08:07:10Z</time>
      </trkpt>
      <trkpt lat="44.38417" lon="0.6678">
        <ele>82</ele>
        <time>2012-02-26T08:07:11Z</time>
      </trkpt>
      <trkpt lat="44.38415" lon="0.66776">
        <ele>82</ele>
        <time>2012-02-26T08:07:12Z</time>
      </trkpt>
      <trkpt lat="44.38413" lon="0.66772">
        <ele>82</ele>
        <time>2012-02-26T08:07:13Z</time>
      </trkpt>
      <trkpt lat="44.38412" lon="0.66767">
        <ele>83</ele>
        <time>2012-02-26T08:07:14Z</time>
      </trkpt>
      <trkpt lat="44.3841" lon="0.66763">
        <ele>83</ele>
        <time>2012-02-26T08:07:15Z</time>
      </trkpt>
      <trkpt lat="44.38409" lon="0.66759">
        <ele>84</ele>
        <time>2012-02-26T08:07:16Z</time>
      </trkpt>
      <trkpt lat="44.38407" lon="0.66755">
        <ele>84</ele>
        <time>2012-02-26T08:07:17Z</time>
      </trkpt>
      <trkpt lat="44.38406" lon="0.6675">
        <ele>84</ele>
        <time>2012-02-26T08:07:19Z</time>
      </trkpt>
      <trkpt lat="44.38404" lon="0.66746">
        <ele>85</ele>
        <time>2012-02-26T08:07:19Z</time>
      </trkpt>
      <trkpt lat="44.38402" lon="0.66742">
        <ele>85</ele>
        <time>2012-02-26T08:07:20Z</time>
      </trkpt>
      <trkpt lat="44.38401" lon="0.66738">
        <ele>85</ele>
        <time>2012-02-26T08:07:21Z</time>
      </trkpt>
      <trkpt lat="44.38398" lon="0.66733">
        <ele>85</ele>
        <time>2012-02-26T08:07:23Z</time>
      </trkpt>
      <trkpt lat="44.38396" lon="0.66729">
        <ele>86</ele>
        <time>2012-02-26T08:07:23Z</time>
      </trkpt>
      <trkpt lat="44.38394" lon="0.66724">
        <ele>86</ele>
        <time>2012-02-26T08:07:24Z</time>
      </trkpt>
      <trkpt lat="44.38392" lon="0.6672">
        <ele>86</ele>
        <time>2012-02-26T08:07:25Z</time>
      </trkpt>
      <trkpt lat="44.3839" lon="0.66716">
        <ele>86</ele>
        <time>2012-02-26T08:07:26Z</time>
      </trkpt>
      <trkpt lat="44.38388" lon="0.66712">
        <ele>86</ele>
        <time>2012-02-26T08:07:27Z</time>
      </trkpt>
      <trkpt lat="44.38386" lon="0.66707">
        <ele>86</ele>
        <time>2012-02-26T08:07:29Z</time>
      </trkpt>
      <trkpt lat="44.38384" lon="0.66703">
        <ele>86</ele>
        <time>2012-02-26T08:07:29Z</time>
      </trkpt>
      <trkpt lat="44.38383" lon="0.667">
        <ele>86</ele>
        <time>2012-02-26T08:07:30Z</time>
      </trkpt>
      <trkpt lat="44.38382" lon="0.66697">
        <ele>86</ele>
        <time>2012-02-26T08:07:32Z</time>
      </trkpt>
      <trkpt lat="44.3838" lon="0.66694">
        <ele>86</ele>
        <time>2012-02-26T08:07:32Z</time>
      </trkpt>
      <trkpt lat="44.38378" lon="0.66691">
        <ele>86</ele>
        <time>2012-02-26T08:07:33Z</time>
      </trkpt>
      <trkpt lat="44.38376" lon="0.66687">
        <ele>86</ele>
        <time>2012-02-26T08:07:35Z</time>
      </trkpt>
      <trkpt lat="44.38374" lon="0.66684">
        <ele>86</ele>
        <time>2012-02-26T08:07:35Z</time>
      </trkpt>
      <trkpt lat="44.38372" lon="0.6668">
        <ele>86</ele>
        <time>2012-02-26T08:07:36Z</time>
      </trkpt>
      <trkpt lat="44.3837" lon="0.66677">
        <ele>86</ele>
        <time>2012-02-26T08:07:37Z</time>
      </trkpt>
      <trkpt lat="44.38368" lon="0.66674">
        <ele>86</ele>
        <time>2012-02-26T08:07:38Z</time>
      </trkpt>
      <trkpt lat="44.38366" lon="0.66671">
        <ele>86</ele>
        <time>2012-02-26T08:07:39Z</time>
      </trkpt>
      <trkpt lat="44.38364" lon="0.66668">
        <ele>86</ele>
        <time>2012-02-26T08:07:40Z</time>
      </trkpt>
      <trkpt lat="44.38361" lon="0.66666">
        <ele>86</ele>
        <time>2012-02-26T08:07:42Z</time>
      </trkpt>
      <trkpt lat="44.38359" lon="0.66663">
        <ele>87</ele>
        <time>2012-02-26T08:07:42Z</time>
      </trkpt>
      <trkpt lat="44.38356" lon="0.6666">
        <ele>87</ele>
        <time>2012-02-26T08:07:43Z</time>
      </trkpt>
      <trkpt lat="44.38354" lon="0.66658">
        <ele>87</ele>
        <time>2012-02-26T08:07:44Z</time>
      </trkpt>
      <trkpt lat="44.38351" lon="0.66655">
        <ele>88</ele>
        <time>2012-02-26T08:07:45Z</time>
      </trkpt>
      <trkpt lat="44.38349" lon="0.66652">
        <ele>88</ele>
        <time>2012-02-26T08:07:47Z</time>
      </trkpt>
      <trkpt lat="44.38347" lon="0.6665">
        <ele>88</ele>
        <time>2012-02-26T08:07:47Z</time>
      </trkpt>
      <trkpt lat="44.38344" lon="0.66647">
        <ele>89</ele>
        <time>2012-02-26T08:07:48Z</time>
      </trkpt>
      <trkpt lat="44.38342" lon="0.66645">
        <ele>89</ele>
        <time>2012-02-26T08:07:50Z</time>
      </trkpt>
      <trkpt lat="44.38339" lon="0.66642">
        <ele>89</ele>
        <time>2012-02-26T08:07:50Z</time>
      </trkpt>
      <trkpt lat="44.38337" lon="0.66639">
        <ele>90</ele>
        <time>2012-02-26T08:07:52Z</time>
      </trkpt>
      <trkpt lat="44.38335" lon="0.66636">
        <ele>90</ele>
        <time>2012-02-26T08:07:52Z</time>
      </trkpt>
      <trkpt lat="44.38332" lon="0.66634">
        <ele>90</ele>
        <time>2012-02-26T08:07:53Z</time>
      </trkpt>
      <trkpt lat="44.3833" lon="0.66631">
        <ele>91</ele>
        <time>2012-02-26T08:07:55Z</time>
      </trkpt>
      <trkpt lat="44.38328" lon="0.66629">
        <ele>91</ele>
        <time>2012-02-26T08:07:55Z</time>
      </trkpt>
      <trkpt lat="44.38325" lon="0.66626">
        <ele>91</ele>
        <time>2012-02-26T08:07:56Z</time>
      </trkpt>
      <trkpt lat="44.38323" lon="0.66624">
        <ele>91</ele>
        <time>2012-02-26T08:07:57Z</time>
      </trkpt>
      <trkpt lat="44.38321" lon="0.66621">
        <ele>91</ele>
        <time>2012-02-26T08:07:58Z</time>
      </trkpt>
      <trkpt lat="44.38318" lon="0.66618">
        <ele>92</ele>
        <time>2012-02-26T08:08:00Z</time>
      </trkpt>
      <trkpt lat="44.38316" lon="0.66615">
        <ele>92</ele>
        <time>2012-02-26T08:08:00Z</time>
      </trkpt>
      <trkpt lat="44.38313" lon="0.66612">
        <ele>92</ele>
        <time>2012-02-26T08:08:01Z</time>
      </trkpt>
      <trkpt lat="44.3831" lon="0.6661">
        <ele>92</ele>
        <time>2012-02-26T08:08:02Z</time>
      </trkpt>
      <trkpt lat="44.38308" lon="0.66607">
        <ele>92</ele>
        <time>2012-02-26T08:08:04Z</time>
      </trkpt>
      <trkpt lat="44.38305" lon="0.66605">
        <ele>92</ele>
        <time>2012-02-26T08:08:04Z</time>
      </trkpt>
      <trkpt lat="44.38302" lon="0.66603">
        <ele>92</ele>
        <time>2012-02-26T08:08:05Z</time>
      </trkpt>
      <trkpt lat="44.383" lon="0.66601">
        <ele>92</ele>
        <time>2012-02-26T08:08:07Z</time>
      </trkpt>
      <trkpt lat="44.38298" lon="0.66598">
        <ele>92</ele>
        <time>2012-02-26T08:08:07Z</time>
      </trkpt>
      <trkpt lat="44.38295" lon="0.66595">
        <ele>92</ele>
        <time>2012-02-26T08:08:08Z</time>
      </trkpt>
      <trkpt lat="44.38293" lon="0.66592">
        <ele>92</ele>
        <time>2012-02-26T08:08:09Z</time>
      </trkpt>
      <trkpt lat="44.3829" lon="0.66589">
        <ele>92</ele>
        <time>2012-02-26T08:08:11Z</time>
      </trkpt>
      <trkpt lat="44.38287" lon="0.66586">
        <ele>92</ele>
        <time>2012-02-26T08:08:11Z</time>
      </trkpt>
      <trkpt lat="44.38285" lon="0.66583">
        <ele>92</ele>
        <time>2012-02-26T08:08:12Z</time>
      </trkpt>
      <trkpt lat="44.38282" lon="0.66581">
        <ele>92</ele>
        <time>2012-02-26T08:08:13Z</time>
      </trkpt>
      <trkpt lat="44.38279" lon="0.66579">
        <ele>92</ele>
        <time>2012-02-26T08:08:14Z</time>
      </trkpt>
      <trkpt lat="44.38276" lon="0.66577">
        <ele>92</ele>
        <time>2012-02-26T08:08:16Z</time>
      </trkpt>
      <trkpt lat="44.38273" lon="0.66575">
        <ele>92</ele>
        <time>2012-02-26T08:08:16Z</time>
      </trkpt>
      <trkpt lat="44.38269" lon="0.66572">
        <ele>92</ele>
        <time>2012-02-26T08:08:18Z</time>
      </trkpt>
      <trkpt lat="44.38267" lon="0.6657">
        <ele>92</ele>
        <time>2012-02-26T08:08:18Z</time>
      </trkpt>
      <trkpt lat="44.38264" lon="0.66567">
        <ele>92</ele>
        <time>2012-02-26T08:08:19Z</time>
      </trkpt>
      <trkpt lat="44.38261" lon="0.66565">
        <ele>92</ele>
        <time>2012-02-26T08:08:21Z</time>
      </trkpt>
      <trkpt lat="44.38258" lon="0.66562">
        <ele>92</ele>
        <time>2012-02-26T08:08:21Z</time>
      </trkpt>
      <trkpt lat="44.38255" lon="0.66559">
        <ele>92</ele>
        <time>2012-02-26T08:08:23Z</time>
      </trkpt>
      <trkpt lat="44.38253" lon="0.66556">
        <ele>92</ele>
        <time>2012-02-26T08:08:23Z</time>
      </trkpt>
      <trkpt lat="44.3825" lon="0.66553">
        <ele>92</ele>
        <time>2012-02-26T08:08:24Z</time>
      </trkpt>
      <trkpt lat="44.38247" lon="0.66551">
        <ele>92</ele>
        <time>2012-02-26T08:08:25Z</time>
      </trkpt>
      <trkpt lat="44.38244" lon="0.66548">
        <ele>92</ele>
        <time>2012-02-26T08:08:26Z</time>
      </trkpt>
      <trkpt lat="44.38241" lon="0.66546">
        <ele>92</ele>
        <time>2012-02-26T08:08:28Z</time>
      </trkpt>
      <trkpt lat="44.38239" lon="0.66543">
        <ele>92</ele>
        <time>2012-02-26T08:08:28Z</time>
      </trkpt>
      <trkpt lat="44.38236" lon="0.6654">
        <ele>92</ele>
        <time>2012-02-26T08:08:30Z</time>
      </trkpt>
      <trkpt lat="44.38233" lon="0.66538">
        <ele>92</ele>
        <time>2012-02-26T08:08:30Z</time>
      </trkpt>
      <trkpt lat="44.3823" lon="0.66536">
        <ele>92</ele>
        <time>2012-02-26T08:08:31Z</time>
      </trkpt>
      <trkpt lat="44.38228" lon="0.66533">
        <ele>92</ele>
        <time>2012-02-26T08:08:32Z</time>
      </trkpt>
      <trkpt lat="44.38225" lon="0.66531">
        <ele>92</ele>
        <time>2012-02-26T08:08:33Z</time>
      </trkpt>
      <trkpt lat="44.38222" lon="0.66528">
        <ele>92</ele>
        <time>2012-02-26T08:08:34Z</time>
      </trkpt>
      <trkpt lat="44.3822" lon="0.66526">
        <ele>92</ele>
        <time>2012-02-26T08:08:35Z</time>
      </trkpt>
      <trkpt lat="44.38217" lon="0.66523">
        <ele>92</ele>
        <time>2012-02-26T08:08:36Z</time>
      </trkpt>
      <trkpt lat="44.38214" lon="0.66521">
        <ele>92</ele>
        <time>2012-02-26T08:08:37Z</time>
      </trkpt>
      <trkpt lat="44.38211" lon="0.66519">
        <ele>92</ele>
        <time>2012-02-26T08:08:38Z</time>
      </trkpt>
      <trkpt lat="44.38207" lon="0.66517">
        <ele>92</ele>
        <time>2012-02-26T08:08:39Z</time>
      </trkpt>
      <trkpt lat="44.38204" lon="0.66515">
        <ele>92</ele>
        <time>2012-02-26T08:08:41Z</time>
      </trkpt>
      <trkpt lat="44.38201" lon="0.66512">
        <ele>93</ele>
        <time>2012-02-26T08:08:41Z</time>
      </trkpt>
      <trkpt lat="44.38198" lon="0.6651">
        <ele>93</ele>
        <time>2012-02-26T08:08:42Z</time>
      </trkpt>
      <trkpt lat="44.38194" lon="0.66507">
        <ele>93</ele>
        <time>2012-02-26T08:08:44Z</time>
      </trkpt>
      <trkpt lat="44.38191" lon="0.66505">
        <ele>93</ele>
        <time>2012-02-26T08:08:44Z</time>
      </trkpt>
      <trkpt lat="44.38188" lon="0.66502">
        <ele>94</ele>
        <time>2012-02-26T08:08:45Z</time>
      </trkpt>
      <trkpt lat="44.38186" lon="0.665">
        <ele>95</ele>
        <time>2012-02-26T08:08:46Z</time>
      </trkpt>
      <trkpt lat="44.38182" lon="0.66497">
        <ele>95</ele>
        <time>2012-02-26T08:08:48Z</time>
      </trkpt>
      <trkpt lat="44.38179" lon="0.66494">
        <ele>95</ele>
        <time>2012-02-26T08:08:49Z</time>
      </trkpt>
      <trkpt lat="44.38176" lon="0.66492">
        <ele>96</ele>
        <time>2012-02-26T08:08:49Z</time>
      </trkpt>
      <trkpt lat="44.38173" lon="0.66489">
        <ele>96</ele>
        <time>2012-02-26T08:08:50Z</time>
      </trkpt>
      <trkpt lat="44.38171" lon="0.66487">
        <ele>96</ele>
        <time>2012-02-26T08:08:52Z</time>
      </trkpt>
      <trkpt lat="44.38168" lon="0.66484">
        <ele>97</ele>
        <time>2012-02-26T08:08:52Z</time>
      </trkpt>
      <trkpt lat="44.38164" lon="0.66481">
        <ele>97</ele>
        <time>2012-02-26T08:08:53Z</time>
      </trkpt>
      <trkpt lat="44.38161" lon="0.66479">
        <ele>97</ele>
        <time>2012-02-26T08:08:54Z</time>
      </trkpt>
      <trkpt lat="44.38158" lon="0.66476">
        <ele>97</ele>
        <time>2012-02-26T08:08:56Z</time>
      </trkpt>
      <trkpt lat="44.38155" lon="0.66473">
        <ele>98</ele>
        <time>2012-02-26T08:08:56Z</time>
      </trkpt>
      <trkpt lat="44.38151" lon="0.66471">
        <ele>98</ele>
        <time>2012-02-26T08:08:57Z</time>
      </trkpt>
      <trkpt lat="44.38148" lon="0.66469">
        <ele>98</ele>
        <time>2012-02-26T08:08:58Z</time>
      </trkpt>
      <trkpt lat="44.38145" lon="0.66467">
        <ele>98</ele>
        <time>2012-02-26T08:09:00Z</time>
      </trkpt>
      <trkpt lat="44.38141" lon="0.66465">
        <ele>98</ele>
        <time>2012-02-26T08:09:00Z</time>
      </trkpt>
      <trkpt lat="44.38138" lon="0.66463">
        <ele>98</ele>
        <time>2012-02-26T08:09:01Z</time>
      </trkpt>
      <trkpt lat="44.38134" lon="0.66462">
        <ele>98</ele>
        <time>2012-02-26T08:09:02Z</time>
      </trkpt>
      <trkpt lat="44.38131" lon="0.66461">
        <ele>98</ele>
        <time>2012-02-26T08:09:03Z</time>
      </trkpt>
      <trkpt lat="44.38127" lon="0.66461">
        <ele>98</ele>
        <time>2012-02-26T08:09:04Z</time>
      </trkpt>
      <trkpt lat="44.38124" lon="0.66461">
        <ele>98</ele>
        <time>2012-02-26T08:09:05Z</time>
      </trkpt>
      <trkpt lat="44.38121" lon="0.66462">
        <ele>98</ele>
        <time>2012-02-26T08:09:06Z</time>
      </trkpt>
      <trkpt lat="44.38118" lon="0.66462">
        <ele>98</ele>
        <time>2012-02-26T08:09:07Z</time>
      </trkpt>
      <trkpt lat="44.38115" lon="0.66464">
        <ele>99</ele>
        <time>2012-02-26T08:09:09Z</time>
      </trkpt>
      <trkpt lat="44.38111" lon="0.66466">
        <ele>99</ele>
        <time>2012-02-26T08:09:09Z</time>
      </trkpt>
      <trkpt lat="44.38109" lon="0.66468">
        <ele>99</ele>
        <time>2012-02-26T08:09:10Z</time>
      </trkpt>
      <trkpt lat="44.38106" lon="0.6647">
        <ele>100</ele>
        <time>2012-02-26T08:09:12Z</time>
      </trkpt>
      <trkpt lat="44.38104" lon="0.66473">
        <ele>100</ele>
        <time>2012-02-26T08:09:12Z</time>
      </trkpt>
      <trkpt lat="44.38101" lon="0.66475">
        <ele>100</ele>
        <time>2012-02-26T08:09:13Z</time>
      </trkpt>
      <trkpt lat="44.38099" lon="0.66478">
        <ele>101</ele>
        <time>2012-02-26T08:09:14Z</time>
      </trkpt>
      <trkpt lat="44.38096" lon="0.6648">
        <ele>101</ele>
        <time>2012-02-26T08:09:15Z</time>
      </trkpt>
      <trkpt lat="44.38094" lon="0.66483">
        <ele>101</ele>
        <time>2012-02-26T08:09:16Z</time>
      </trkpt>
      <trkpt lat="44.38091" lon="0.66486">
        <ele>102</ele>
        <time>2012-02-26T08:09:17Z</time>
      </trkpt>
      <trkpt lat="44.38089" lon="0.66488">
        <ele>102</ele>
        <time>2012-02-26T08:09:19Z</time>
      </trkpt>
      <trkpt lat="44.38086" lon="0.66492">
        <ele>103</ele>
        <time>2012-02-26T08:09:20Z</time>
      </trkpt>
      <trkpt lat="44.38084" lon="0.66495">
        <ele>103</ele>
        <time>2012-02-26T08:09:20Z</time>
      </trkpt>
      <trkpt lat="44.38082" lon="0.66497">
        <ele>104</ele>
        <time>2012-02-26T08:09:21Z</time>
      </trkpt>
      <trkpt lat="44.3808" lon="0.66499">
        <ele>104</ele>
        <time>2012-02-26T08:09:23Z</time>
      </trkpt>
      <trkpt lat="44.38078" lon="0.66502">
        <ele>105</ele>
        <time>2012-02-26T08:09:23Z</time>
      </trkpt>
      <trkpt lat="44.38075" lon="0.66504">
        <ele>105</ele>
        <time>2012-02-26T08:09:24Z</time>
      </trkpt>
      <trkpt lat="44.38073" lon="0.66507">
        <ele>106</ele>
        <time>2012-02-26T08:09:25Z</time>
      </trkpt>
      <trkpt lat="44.3807" lon="0.66509">
        <ele>106</ele>
        <time>2012-02-26T08:09:26Z</time>
      </trkpt>
      <trkpt lat="44.38068" lon="0.66511">
        <ele>107</ele>
        <time>2012-02-26T08:09:28Z</time>
      </trkpt>
      <trkpt lat="44.38065" lon="0.66514">
        <ele>107</ele>
        <time>2012-02-26T08:09:28Z</time>
      </trkpt>
      <trkpt lat="44.38062" lon="0.66515">
        <ele>108</ele>
        <time>2012-02-26T08:09:29Z</time>
      </trkpt>
      <trkpt lat="44.38059" lon="0.66517">
        <ele>108</ele>
        <time>2012-02-26T08:09:31Z</time>
      </trkpt>
      <trkpt lat="44.38057" lon="0.66518">
        <ele>109</ele>
        <time>2012-02-26T08:09:32Z</time>
      </trkpt>
      <trkpt lat="44.38054" lon="0.6652">
        <ele>109</ele>
        <time>2012-02-26T08:09:32Z</time>
      </trkpt>
      <trkpt lat="44.38051" lon="0.66522">
        <ele>109</ele>
        <time>2012-02-26T08:09:33Z</time>
      </trkpt>
      <trkpt lat="44.38048" lon="0.66523">
        <ele>110</ele>
        <time>2012-02-26T08:09:35Z</time>
      </trkpt>
      <trkpt lat="44.38045" lon="0.66524">
        <ele>110</ele>
        <time>2012-02-26T08:09:35Z</time>
      </trkpt>
      <trkpt lat="44.38042" lon="0.66524">
        <ele>110</ele>
        <time>2012-02-26T08:09:37Z</time>
      </trkpt>
      <trkpt lat="44.38039" lon="0.66524">
        <ele>110</ele>
        <time>2012-02-26T08:09:37Z</time>
      </trkpt>
      <trkpt lat="44.38036" lon="0.66524">
        <ele>110</ele>
        <time>2012-02-26T08:09:38Z</time>
      </trkpt>
      <trkpt lat="44.38033" lon="0.66524">
        <ele>110</ele>
        <time>2012-02-26T08:09:39Z</time>
      </trkpt>
      <trkpt lat="44.38031" lon="0.66524">
        <ele>111</ele>
        <time>2012-02-26T08:09:40Z</time>
      </trkpt>
      <trkpt lat="44.38028" lon="0.66524">
        <ele>111</ele>
        <time>2012-02-26T08:09:41Z</time>
      </trkpt>
      <trkpt lat="44.38025" lon="0.66523">
        <ele>111</ele>
        <time>2012-02-26T08:09:42Z</time>
      </trkpt>
      <trkpt lat="44.38022" lon="0.66523">
        <ele>111</ele>
        <time>2012-02-26T08:09:43Z</time>
      </trkpt>
      <trkpt lat="44.38019" lon="0.66522">
        <ele>111</ele>
        <time>2012-02-26T08:09:45Z</time>
      </trkpt>
      <trkpt lat="44.38017" lon="0.66521">
        <ele>112</ele>
        <time>2012-02-26T08:09:45Z</time>
      </trkpt>
      <trkpt lat="44.38014" lon="0.6652">
        <ele>112</ele>
        <time>2012-02-26T08:09:46Z</time>
      </trkpt>
      <trkpt lat="44.38011" lon="0.66519">
        <ele>112</ele>
        <time>2012-02-26T08:09:47Z</time>
      </trkpt>
      <trkpt lat="44.38008" lon="0.66518">
        <ele>112</ele>
        <time>2012-02-26T08:09:48Z</time>
      </trkpt>
      <trkpt lat="44.38006" lon="0.66518">
        <ele>113</ele>
        <time>2012-02-26T08:09:49Z</time>
      </trkpt>
      <trkpt lat="44.38003" lon="0.66517">
        <ele>113</ele>
        <time>2012-02-26T08:09:50Z</time>
      </trkpt>
      <trkpt lat="44.38001" lon="0.66515">
        <ele>113</ele>
        <time>2012-02-26T08:09:52Z</time>
      </trkpt>
      <trkpt lat="44.37998" lon="0.66514">
        <ele>114</ele>
        <time>2012-02-26T08:09:52Z</time>
      </trkpt>
      <trkpt lat="44.37996" lon="0.66514">
        <ele>114</ele>
        <time>2012-02-26T08:09:53Z</time>
      </trkpt>
      <trkpt lat="44.37994" lon="0.66512">
        <ele>114</ele>
        <time>2012-02-26T08:09:54Z</time>
      </trkpt>
      <trkpt lat="44.37991" lon="0.66511">
        <ele>115</ele>
        <time>2012-02-26T08:09:55Z</time>
      </trkpt>
      <trkpt lat="44.37989" lon="0.6651">
        <ele>115</ele>
        <time>2012-02-26T08:09:56Z</time>
      </trkpt>
      <trkpt lat="44.37986" lon="0.66509">
        <ele>115</ele>
        <time>2012-02-26T08:09:57Z</time>
      </trkpt>
      <trkpt lat="44.37984" lon="0.66508">
        <ele>116</ele>
        <time>2012-02-26T08:09:58Z</time>
      </trkpt>
      <trkpt lat="44.37981" lon="0.66506">
        <ele>116</ele>
        <time>2012-02-26T08:09:59Z</time>
      </trkpt>
      <trkpt lat="44.37979" lon="0.66505">
        <ele>116</ele>
        <time>2012-02-26T08:10:00Z</time>
      </trkpt>
      <trkpt lat="44.37976" lon="0.66503">
        <ele>116</ele>
        <time>2012-02-26T08:10:01Z</time>
      </trkpt>
      <trkpt lat="44.37974" lon="0.66502">
        <ele>117</ele>
        <time>2012-02-26T08:10:02Z</time>
      </trkpt>
      <trkpt lat="44.37972" lon="0.665">
        <ele>117</ele>
        <time>2012-02-26T08:10:03Z</time>
      </trkpt>
      <trkpt lat="44.37969" lon="0.66499">
        <ele>117</ele>
        <time>2012-02-26T08:10:04Z</time>
      </trkpt>
      <trkpt lat="44.37967" lon="0.66497">
        <ele>118</ele>
        <time>2012-02-26T08:10:05Z</time>
      </trkpt>
      <trkpt lat="44.37964" lon="0.66496">
        <ele>118</ele>
        <time>2012-02-26T08:10:06Z</time>
      </trkpt>
      <trkpt lat="44.37962" lon="0.66495">
        <ele>118</ele>
        <time>2012-02-26T08:10:08Z</time>
      </trkpt>
      <trkpt lat="44.37959" lon="0.66493">
        <ele>118</ele>
        <time>2012-02-26T08:10:08Z</time>
      </trkpt>
      <trkpt lat="44.37957" lon="0.66491">
        <ele>119</ele>
        <time>2012-02-26T08:10:09Z</time>
      </trkpt>
      <trkpt lat="44.37954" lon="0.66489">
        <ele>119</ele>
        <time>2012-02-26T08:10:10Z</time>
      </trkpt>
      <trkpt lat="44.37952" lon="0.66487">
        <ele>119</ele>
        <time>2012-02-26T08:10:12Z</time>
      </trkpt>
      <trkpt lat="44.37949" lon="0.66485">
        <ele>119</ele>
        <time>2012-02-26T08:10:12Z</time>
      </trkpt>
      <trkpt lat="44.37946" lon="0.66483">
        <ele>119</ele>
        <time>2012-02-26T08:10:13Z</time>
      </trkpt>
      <trkpt lat="44.37944" lon="0.66481">
        <ele>120</ele>
        <time>2012-02-26T08:10:14Z</time>
      </trkpt>
      <trkpt lat="44.37941" lon="0.66478">
        <ele>120</ele>
        <time>2012-02-26T08:10:16Z</time>
      </trkpt>
      <trkpt lat="44.37939" lon="0.66476">
        <ele>120</ele>
        <time>2012-02-26T08:10:16Z</time>
      </trkpt>
      <trkpt lat="44.37936" lon="0.66474">
        <ele>120</ele>
        <time>2012-02-26T08:10:17Z</time>
      </trkpt>
      <trkpt lat="44.37933" lon="0.66472">
        <ele>120</ele>
        <time>2012-02-26T08:10:19Z</time>
      </trkpt>
      <trkpt lat="44.37931" lon="0.6647">
        <ele>120</ele>
        <time>2012-02-26T08:10:19Z</time>
      </trkpt>
      <trkpt lat="44.37928" lon="0.66467">
        <ele>121</ele>
        <time>2012-02-26T08:10:20Z</time>
      </trkpt>
      <trkpt lat="44.37926" lon="0.66465">
        <ele>121</ele>
        <time>2012-02-26T08:10:21Z</time>
      </trkpt>
      <trkpt lat="44.37923" lon="0.66463">
        <ele>121</ele>
        <time>2012-02-26T08:10:22Z</time>
      </trkpt>
      <trkpt lat="44.37921" lon="0.66461">
        <ele>121</ele>
        <time>2012-02-26T08:10:24Z</time>
      </trkpt>
      <trkpt lat="44.37918" lon="0.66458">
        <ele>121</ele>
        <time>2012-02-26T08:10:25Z</time>
      </trkpt>
      <trkpt lat="44.37915" lon="0.66457">
        <ele>122</ele>
        <time>2012-02-26T08:10:25Z</time>
      </trkpt>
      <trkpt lat="44.37913" lon="0.66455">
        <ele>122</ele>
        <time>2012-02-26T08:10:26Z</time>
      </trkpt>
      <trkpt lat="44.3791" lon="0.66452">
        <ele>122</ele>
        <time>2012-02-26T08:10:27Z</time>
      </trkpt>
      <trkpt lat="44.37908" lon="0.6645">
        <ele>122</ele>
        <time>2012-02-26T08:10:28Z</time>
      </trkpt>
      <trkpt lat="44.37905" lon="0.66448">
        <ele>122</ele>
        <time>2012-02-26T08:10:29Z</time>
      </trkpt>
      <trkpt lat="44.37903" lon="0.66446">
        <ele>122</ele>
        <time>2012-02-26T08:10:30Z</time>
      </trkpt>
      <trkpt lat="44.37901" lon="0.66444">
        <ele>123</ele>
        <time>2012-02-26T08:10:32Z</time>
      </trkpt>
      <trkpt lat="44.37898" lon="0.66442">
        <ele>123</ele>
        <time>2012-02-26T08:10:32Z</time>
      </trkpt>
      <trkpt lat="44.37896" lon="0.66439">
        <ele>123</ele>
        <time>2012-02-26T08:10:33Z</time>
      </trkpt>
      <trkpt lat="44.37893" lon="0.66438">
        <ele>123</ele>
        <time>2012-02-26T08:10:34Z</time>
      </trkpt>
      <trkpt lat="44.37891" lon="0.66435">
        <ele>124</ele>
        <time>2012-02-26T08:10:35Z</time>
      </trkpt>
      <trkpt lat="44.37888" lon="0.66433">
        <ele>124</ele>
        <time>2012-02-26T08:10:36Z</time>
      </trkpt>
      <trkpt lat="44.37886" lon="0.66431">
        <ele>124</ele>
        <time>2012-02-26T08:10:37Z</time>
      </trkpt>
      <trkpt lat="44.37883" lon="0.66429">
        <ele>125</ele>
        <time>2012-02-26T08:10:38Z</time>
      </trkpt>
      <trkpt lat="44.37881" lon="0.66427">
        <ele>125</ele>
        <time>2012-02-26T08:10:39Z</time>
      </trkpt>
      <trkpt lat="44.37878" lon="0.66425">
        <ele>125</ele>
        <time>2012-02-26T08:10:40Z</time>
      </trkpt>
      <trkpt lat="44.37876" lon="0.66423">
        <ele>126</ele>
        <time>2012-02-26T08:10:41Z</time>
      </trkpt>
      <trkpt lat="44.37873" lon="0.66421">
        <ele>126</ele>
        <time>2012-02-26T08:10:42Z</time>
      </trkpt>
      <trkpt lat="44.37871" lon="0.6642">
        <ele>126</ele>
        <time>2012-02-26T08:10:44Z</time>
      </trkpt>
      <trkpt lat="44.37869" lon="0.66418">
        <ele>127</ele>
        <time>2012-02-26T08:10:44Z</time>
      </trkpt>
      <trkpt lat="44.37866" lon="0.66416">
        <ele>127</ele>
        <time>2012-02-26T08:10:45Z</time>
      </trkpt>
      <trkpt lat="44.37864" lon="0.66413">
        <ele>127</ele>
        <time>2012-02-26T08:10:46Z</time>
      </trkpt>
      <trkpt lat="44.37862" lon="0.66411">
        <ele>128</ele>
        <time>2012-02-26T08:10:48Z</time>
      </trkpt>
      <trkpt lat="44.37859" lon="0.66409">
        <ele>128</ele>
        <time>2012-02-26T08:10:48Z</time>
      </trkpt>
      <trkpt lat="44.37856" lon="0.66408">
        <ele>128</ele>
        <time>2012-02-26T08:10:49Z</time>
      </trkpt>
      <trkpt lat="44.37854" lon="0.66405">
        <ele>128</ele>
        <time>2012-02-26T08:10:51Z</time>
      </trkpt>
      <trkpt lat="44.37852" lon="0.66403">
        <ele>129</ele>
        <time>2012-02-26T08:10:51Z</time>
      </trkpt>
      <trkpt lat="44.37849" lon="0.66401">
        <ele>129</ele>
        <time>2012-02-26T08:10:52Z</time>
      </trkpt>
      <trkpt lat="44.37847" lon="0.66399">
        <ele>129</ele>
        <time>2012-02-26T08:10:53Z</time>
      </trkpt>
      <trkpt lat="44.37845" lon="0.66397">
        <ele>129</ele>
        <time>2012-02-26T08:10:54Z</time>
      </trkpt>
      <trkpt lat="44.37843" lon="0.66395">
        <ele>129</ele>
        <time>2012-02-26T08:10:55Z</time>
      </trkpt>
      <trkpt lat="44.37841" lon="0.66393">
        <ele>129</ele>
        <time>2012-02-26T08:10:56Z</time>
      </trkpt>
      <trkpt lat="44.37838" lon="0.66391">
        <ele>130</ele>
        <time>2012-02-26T08:10:57Z</time>
      </trkpt>
      <trkpt lat="44.37836" lon="0.6639">
        <ele>130</ele>
        <time>2012-02-26T08:10:59Z</time>
      </trkpt>
      <trkpt lat="44.37833" lon="0.66388">
        <ele>130</ele>
        <time>2012-02-26T08:10:59Z</time>
      </trkpt>
      <trkpt lat="44.37831" lon="0.66386">
        <ele>130</ele>
        <time>2012-02-26T08:11:00Z</time>
      </trkpt>
      <trkpt lat="44.37829" lon="0.66385">
        <ele>131</ele>
        <time>2012-02-26T08:11:01Z</time>
      </trkpt>
      <trkpt lat="44.37826" lon="0.66382">
        <ele>131</ele>
        <time>2012-02-26T08:11:02Z</time>
      </trkpt>
      <trkpt lat="44.37824" lon="0.66381">
        <ele>131</ele>
        <time>2012-02-26T08:11:04Z</time>
      </trkpt>
      <trkpt lat="44.37822" lon="0.66379">
        <ele>132</ele>
        <time>2012-02-26T08:11:04Z</time>
      </trkpt>
      <trkpt lat="44.3782" lon="0.66378">
        <ele>133</ele>
        <time>2012-02-26T08:11:05Z</time>
      </trkpt>
      <trkpt lat="44.37818" lon="0.66376">
        <ele>133</ele>
        <time>2012-02-26T08:11:06Z</time>
      </trkpt>
      <trkpt lat="44.37816" lon="0.66373">
        <ele>134</ele>
        <time>2012-02-26T08:11:07Z</time>
      </trkpt>
      <trkpt lat="44.37815" lon="0.6637">
        <ele>134</ele>
        <time>2012-02-26T08:11:08Z</time>
      </trkpt>
      <trkpt lat="44.37815" lon="0.66367">
        <ele>135</ele>
        <time>2012-02-26T08:11:09Z</time>
      </trkpt>
      <trkpt lat="44.37815" lon="0.66365">
        <ele>135</ele>
        <time>2012-02-26T08:11:10Z</time>
      </trkpt>
      <trkpt lat="44.37816" lon="0.66363">
        <ele>136</ele>
        <time>2012-02-26T08:11:11Z</time>
      </trkpt>
      <trkpt lat="44.37817" lon="0.66362">
        <ele>137</ele>
        <time>2012-02-26T08:11:13Z</time>
      </trkpt>
      <trkpt lat="44.37819" lon="0.66361">
        <ele>137</ele>
        <time>2012-02-26T08:11:13Z</time>
      </trkpt>
      <trkpt lat="44.3782" lon="0.66361">
        <ele>138</ele>
        <time>2012-02-26T08:11:14Z</time>
      </trkpt>
      <trkpt lat="44.37822" lon="0.6636">
        <ele>139</ele>
        <time>2012-02-26T08:11:15Z</time>
      </trkpt>
      <trkpt lat="44.37823" lon="0.66359">
        <ele>140</ele>
        <time>2012-02-26T08:11:16Z</time>
      </trkpt>
      <trkpt lat="44.37825" lon="0.66358">
        <ele>141</ele>
        <time>2012-02-26T08:11:17Z</time>
      </trkpt>
      <trkpt lat="44.37827" lon="0.66358">
        <ele>142</ele>
        <time>2012-02-26T08:11:19Z</time>
      </trkpt>
      <trkpt lat="44.37829" lon="0.66357">
        <ele>142</ele>
        <time>2012-02-26T08:11:19Z</time>
      </trkpt>
      <trkpt lat="44.37831" lon="0.66356">
        <ele>143</ele>
        <time>2012-02-26T08:11:21Z</time>
      </trkpt>
      <trkpt lat="44.37833" lon="0.66356">
        <ele>144</ele>
        <time>2012-02-26T08:11:21Z</time>
      </trkpt>
      <trkpt lat="44.37835" lon="0.66355">
        <ele>145</ele>
        <time>2012-02-26T08:11:22Z</time>
      </trkpt>
      <trkpt lat="44.37836" lon="0.66355">
        <ele>145</ele>
        <time>2012-02-26T08:11:24Z</time>
      </trkpt>
      <trkpt lat="44.37837" lon="0.66354">
        <ele>146</ele>
        <time>2012-02-26T08:11:25Z</time>
      </trkpt>
      <trkpt lat="44.37839" lon="0.66353">
        <ele>147</ele>
        <time>2012-02-26T08:11:26Z</time>
      </trkpt>
      <trkpt lat="44.37841" lon="0.66353">
        <ele>147</ele>
        <time>2012-02-26T08:11:26Z</time>
      </trkpt>
      <trkpt lat="44.37842" lon="0.66352">
        <ele>147</ele>
        <time>2012-02-26T08:11:27Z</time>
      </trkpt>
      <trkpt lat="44.37843" lon="0.66352">
        <ele>147</ele>
        <time>2012-02-26T08:11:29Z</time>
      </trkpt>
      <trkpt lat="44.37845" lon="0.66352">
        <ele>148</ele>
        <time>2012-02-26T08:11:30Z</time>
      </trkpt>
      <trkpt lat="44.37846" lon="0.66352">
        <ele>148</ele>
        <time>2012-02-26T08:11:30Z</time>
      </trkpt>
      <trkpt lat="44.37848" lon="0.66352">
        <ele>148</ele>
        <time>2012-02-26T08:11:31Z</time>
      </trkpt>
      <trkpt lat="44.3785" lon="0.66352">
        <ele>148</ele>
        <time>2012-02-26T08:11:32Z</time>
      </trkpt>
      <trkpt lat="44.37851" lon="0.66352">
        <ele>148</ele>
        <time>2012-02-26T08:11:33Z</time>
      </trkpt>
      <trkpt lat="44.37853" lon="0.66351">
        <ele>149</ele>
        <time>2012-02-26T08:11:35Z</time>
      </trkpt>
      <trkpt lat="44.37854" lon="0.66351">
        <ele>149</ele>
        <time>2012-02-26T08:11:35Z</time>
      </trkpt>
      <trkpt lat="44.37855" lon="0.66351">
        <ele>149</ele>
        <time>2012-02-26T08:11:36Z</time>
      </trkpt>
      <trkpt lat="44.37857" lon="0.66351">
        <ele>149</ele>
        <time>2012-02-26T08:11:38Z</time>
      </trkpt>
      <trkpt lat="44.37859" lon="0.66351">
        <ele>149</ele>
        <time>2012-02-26T08:11:39Z</time>
      </trkpt>
      <trkpt lat="44.3786" lon="0.66351">
        <ele>149</ele>
        <time>2012-02-26T08:11:40Z</time>
      </trkpt>
      <trkpt lat="44.37862" lon="0.6635">
        <ele>149</ele>
        <time>2012-02-26T08:11:40Z</time>
      </trkpt>
      <trkpt lat="44.37865" lon="0.6635">
        <ele>149</ele>
        <time>2012-02-26T08:11:42Z</time>
      </trkpt>
      <trkpt lat="44.37866" lon="0.6635">
        <ele>149</ele>
        <time>2012-02-26T08:11:43Z</time>
      </trkpt>
      <trkpt lat="44.37868" lon="0.6635">
        <ele>150</ele>
        <time>2012-02-26T08:11:43Z</time>
      </trkpt>
      <trkpt lat="44.3787" lon="0.66349">
        <ele>150</ele>
        <time>2012-02-26T08:11:44Z</time>
      </trkpt>
      <trkpt lat="44.37871" lon="0.66349">
        <ele>150</ele>
        <time>2012-02-26T08:11:45Z</time>
      </trkpt>
      <trkpt lat="44.37873" lon="0.66347">
        <ele>151</ele>
        <time>2012-02-26T08:11:47Z</time>
      </trkpt>
      <trkpt lat="44.37875" lon="0.66346">
        <ele>151</ele>
        <time>2012-02-26T08:11:47Z</time>
      </trkpt>
      <trkpt lat="44.37876" lon="0.66345">
        <ele>151</ele>
        <time>2012-02-26T08:11:49Z</time>
      </trkpt>
      <trkpt lat="44.37878" lon="0.66344">
        <ele>152</ele>
        <time>2012-02-26T08:11:50Z</time>
      </trkpt>
      <trkpt lat="44.3788" lon="0.66343">
        <ele>152</ele>
        <time>2012-02-26T08:11:50Z</time>
      </trkpt>
      <trkpt lat="44.37881" lon="0.66342">
        <ele>152</ele>
        <time>2012-02-26T08:11:51Z</time>
      </trkpt>
      <trkpt lat="44.37882" lon="0.66341">
        <ele>152</ele>
        <time>2012-02-26T08:11:52Z</time>
      </trkpt>
      <trkpt lat="44.37884" lon="0.6634">
        <ele>152</ele>
        <time>2012-02-26T08:11:54Z</time>
      </trkpt>
      <trkpt lat="44.37885" lon="0.66338">
        <ele>152</ele>
        <time>2012-02-26T08:11:54Z</time>
      </trkpt>
      <trkpt lat="44.37887" lon="0.66335">
        <ele>152</ele>
        <time>2012-02-26T08:11:55Z</time>
      </trkpt>
      <trkpt lat="44.37888" lon="0.66333">
        <ele>152</ele>
        <time>2012-02-26T08:11:56Z</time>
      </trkpt>
      <trkpt lat="44.37888" lon="0.66331">
        <ele>152</ele>
        <time>2012-02-26T08:11:58Z</time>
      </trkpt>
      <trkpt lat="44.37888" lon="0.66329">
        <ele>152</ele>
        <time>2012-02-26T08:11:59Z</time>
      </trkpt>
      <trkpt lat="44.37889" lon="0.66326">
        <ele>152</ele>
        <time>2012-02-26T08:11:59Z</time>
      </trkpt>
      <trkpt lat="44.37889" lon="0.66325">
        <ele>152</ele>
        <time>2012-02-26T08:12:00Z</time>
      </trkpt>
      <trkpt lat="44.37888" lon="0.66323">
        <ele>152</ele>
        <time>2012-02-26T08:12:02Z</time>
      </trkpt>
      <trkpt lat="44.37887" lon="0.66321">
        <ele>152</ele>
        <time>2012-02-26T08:12:03Z</time>
      </trkpt>
      <trkpt lat="44.37886" lon="0.66318">
        <ele>152</ele>
        <time>2012-02-26T08:12:03Z</time>
      </trkpt>
      <trkpt lat="44.37885" lon="0.66315">
        <ele>152</ele>
        <time>2012-02-26T08:12:05Z</time>
      </trkpt>
      <trkpt lat="44.37885" lon="0.66313">
        <ele>152</ele>
        <time>2012-02-26T08:12:06Z</time>
      </trkpt>
      <trkpt lat="44.37885" lon="0.66312">
        <ele>152</ele>
        <time>2012-02-26T08:12:07Z</time>
      </trkpt>
      <trkpt lat="44.37885" lon="0.6631">
        <ele>152</ele>
        <time>2012-02-26T08:12:08Z</time>
      </trkpt>
      <trkpt lat="44.37885" lon="0.66308">
        <ele>152</ele>
        <time>2012-02-26T08:12:09Z</time>
      </trkpt>
      <trkpt lat="44.37884" lon="0.66306">
        <ele>152</ele>
        <time>2012-02-26T08:12:10Z</time>
      </trkpt>
      <trkpt lat="44.37884" lon="0.66303">
        <ele>153</ele>
        <time>2012-02-26T08:12:11Z</time>
      </trkpt>
      <trkpt lat="44.37884" lon="0.66302">
        <ele>153</ele>
        <time>2012-02-26T08:12:13Z</time>
      </trkpt>
      <trkpt lat="44.37883" lon="0.66299">
        <ele>154</ele>
        <time>2012-02-26T08:12:15Z</time>
      </trkpt>
      <trkpt lat="44.37883" lon="0.66296">
        <ele>154</ele>
        <time>2012-02-26T08:12:16Z</time>
      </trkpt>
      <trkpt lat="44.37883" lon="0.66295">
        <ele>154</ele>
        <time>2012-02-26T08:12:16Z</time>
      </trkpt>
      <trkpt lat="44.37883" lon="0.66293">
        <ele>154</ele>
        <time>2012-02-26T08:12:18Z</time>
      </trkpt>
      <trkpt lat="44.37884" lon="0.66291">
        <ele>154</ele>
        <time>2012-02-26T08:12:18Z</time>
      </trkpt>
      <trkpt lat="44.37885" lon="0.6629">
        <ele>154</ele>
        <time>2012-02-26T08:12:20Z</time>
      </trkpt>
      <trkpt lat="44.37887" lon="0.66287">
        <ele>154</ele>
        <time>2012-02-26T08:12:21Z</time>
      </trkpt>
      <trkpt lat="44.37888" lon="0.66286">
        <ele>154</ele>
        <time>2012-02-26T08:12:22Z</time>
      </trkpt>
      <trkpt lat="44.37889" lon="0.66285">
        <ele>155</ele>
        <time>2012-02-26T08:12:23Z</time>
      </trkpt>
      <trkpt lat="44.37891" lon="0.66284">
        <ele>155</ele>
        <time>2012-02-26T08:12:25Z</time>
      </trkpt>
      <trkpt lat="44.37891" lon="0.66283">
        <ele>155</ele>
        <time>2012-02-26T08:12:25Z</time>
      </trkpt>
      <trkpt lat="44.37894" lon="0.6628">
        <ele>156</ele>
        <time>2012-02-26T08:12:27Z</time>
      </trkpt>
      <trkpt lat="44.37895" lon="0.66278">
        <ele>157</ele>
        <time>2012-02-26T08:12:28Z</time>
      </trkpt>
      <trkpt lat="44.37896" lon="0.66276">
        <ele>158</ele>
        <time>2012-02-26T08:12:30Z</time>
      </trkpt>
      <trkpt lat="44.37897" lon="0.66274">
        <ele>159</ele>
        <time>2012-02-26T08:12:30Z</time>
      </trkpt>
      <trkpt lat="44.37898" lon="0.66272">
        <ele>159</ele>
        <time>2012-02-26T08:12:31Z</time>
      </trkpt>
      <trkpt lat="44.379" lon="0.66271">
        <ele>160</ele>
        <time>2012-02-26T08:12:32Z</time>
      </trkpt>
      <trkpt lat="44.37902" lon="0.66268">
        <ele>162</ele>
        <time>2012-02-26T08:12:34Z</time>
      </trkpt>
      <trkpt lat="44.37903" lon="0.66266">
        <ele>163</ele>
        <time>2012-02-26T08:12:35Z</time>
      </trkpt>
      <trkpt lat="44.37904" lon="0.66264">
        <ele>164</ele>
        <time>2012-02-26T08:12:36Z</time>
      </trkpt>
      <trkpt lat="44.37905" lon="0.66262">
        <ele>164</ele>
        <time>2012-02-26T08:12:37Z</time>
      </trkpt>
      <trkpt lat="44.37906" lon="0.6626">
        <ele>164</ele>
        <time>2012-02-26T08:12:38Z</time>
      </trkpt>
      <trkpt lat="44.37907" lon="0.66257">
        <ele>164</ele>
        <time>2012-02-26T08:12:40Z</time>
      </trkpt>
      <trkpt lat="44.37907" lon="0.66254">
        <ele>164</ele>
        <time>2012-02-26T08:12:40Z</time>
      </trkpt>
      <trkpt lat="44.37908" lon="0.66252">
        <ele>164</ele>
        <time>2012-02-26T08:12:41Z</time>
      </trkpt>
      <trkpt lat="44.37908" lon="0.66248">
        <ele>164</ele>
        <time>2012-02-26T08:12:42Z</time>
      </trkpt>
      <trkpt lat="44.37909" lon="0.66246">
        <ele>164</ele>
        <time>2012-02-26T08:12:43Z</time>
      </trkpt>
      <trkpt lat="44.37909" lon="0.66243">
        <ele>164</ele>
        <time>2012-02-26T08:12:45Z</time>
      </trkpt>
      <trkpt lat="44.3791" lon="0.6624">
        <ele>164</ele>
        <time>2012-02-26T08:12:46Z</time>
      </trkpt>
      <trkpt lat="44.3791" lon="0.66237">
        <ele>164</ele>
        <time>2012-02-26T08:12:46Z</time>
      </trkpt>
      <trkpt lat="44.3791" lon="0.66235">
        <ele>164</ele>
        <time>2012-02-26T08:12:47Z</time>
      </trkpt>
      <trkpt lat="44.37911" lon="0.66232">
        <ele>164</ele>
        <time>2012-02-26T08:12:49Z</time>
      </trkpt>
      <trkpt lat="44.37911" lon="0.66228">
        <ele>164</ele>
        <time>2012-02-26T08:12:49Z</time>
      </trkpt>
      <trkpt lat="44.37912" lon="0.66225">
        <ele>164</ele>
        <time>2012-02-26T08:12:51Z</time>
      </trkpt>
      <trkpt lat="44.37912" lon="0.66222">
        <ele>164</ele>
        <time>2012-02-26T08:12:51Z</time>
      </trkpt>
      <trkpt lat="44.37912" lon="0.66219">
        <ele>164</ele>
        <time>2012-02-26T08:12:53Z</time>
      </trkpt>
      <trkpt lat="44.37912" lon="0.66215">
        <ele>164</ele>
        <time>2012-02-26T08:12:53Z</time>
      </trkpt>
      <trkpt lat="44.37912" lon="0.66212">
        <ele>164</ele>
        <time>2012-02-26T08:12:54Z</time>
      </trkpt>
      <trkpt lat="44.37912" lon="0.6621">
        <ele>164</ele>
        <time>2012-02-26T08:12:55Z</time>
      </trkpt>
      <trkpt lat="44.37912" lon="0.66206">
        <ele>164</ele>
        <time>2012-02-26T08:12:56Z</time>
      </trkpt>
      <trkpt lat="44.37912" lon="0.66202">
        <ele>164</ele>
        <time>2012-02-26T08:12:58Z</time>
      </trkpt>
      <trkpt lat="44.37911" lon="0.66199">
        <ele>164</ele>
        <time>2012-02-26T08:12:58Z</time>
      </trkpt>
      <trkpt lat="44.37912" lon="0.66197">
        <ele>164</ele>
        <time>2012-02-26T08:12:59Z</time>
      </trkpt>
      <trkpt lat="44.37912" lon="0.66194">
        <ele>164</ele>
        <time>2012-02-26T08:13:00Z</time>
      </trkpt>
      <trkpt lat="44.37912" lon="0.66191">
        <ele>164</ele>
        <time>2012-02-26T08:13:02Z</time>
      </trkpt>
      <trkpt lat="44.37913" lon="0.66188">
        <ele>164</ele>
        <time>2012-02-26T08:13:02Z</time>
      </trkpt>
      <trkpt lat="44.37914" lon="0.66185">
        <ele>164</ele>
        <time>2012-02-26T08:13:03Z</time>
      </trkpt>
      <trkpt lat="44.37915" lon="0.66183">
        <ele>164</ele>
        <time>2012-02-26T08:13:05Z</time>
      </trkpt>
      <trkpt lat="44.37917" lon="0.6618">
        <ele>164</ele>
        <time>2012-02-26T08:13:06Z</time>
      </trkpt>
      <trkpt lat="44.37919" lon="0.66177">
        <ele>164</ele>
        <time>2012-02-26T08:13:06Z</time>
      </trkpt>
      <trkpt lat="44.37922" lon="0.66173">
        <ele>164</ele>
        <time>2012-02-26T08:13:07Z</time>
      </trkpt>
      <trkpt lat="44.37924" lon="0.66169">
        <ele>164</ele>
        <time>2012-02-26T08:13:08Z</time>
      </trkpt>
      <trkpt lat="44.37927" lon="0.66165">
        <ele>164</ele>
        <time>2012-02-26T08:13:10Z</time>
      </trkpt>
      <trkpt lat="44.37929" lon="0.66162">
        <ele>164</ele>
        <time>2012-02-26T08:13:11Z</time>
      </trkpt>
      <trkpt lat="44.37932" lon="0.66158">
        <ele>164</ele>
        <time>2012-02-26T08:13:12Z</time>
      </trkpt>
      <trkpt lat="44.37934" lon="0.66155">
        <ele>164</ele>
        <time>2012-02-26T08:13:12Z</time>
      </trkpt>
      <trkpt lat="44.37937" lon="0.66153">
        <ele>164</ele>
        <time>2012-02-26T08:13:13Z</time>
      </trkpt>
      <trkpt lat="44.37939" lon="0.66149">
        <ele>164</ele>
        <time>2012-02-26T08:13:15Z</time>
      </trkpt>
      <trkpt lat="44.37942" lon="0.66147">
        <ele>164</ele>
        <time>2012-02-26T08:13:16Z</time>
      </trkpt>
      <trkpt lat="44.37944" lon="0.66143">
        <ele>164</ele>
        <time>2012-02-26T08:13:16Z</time>
      </trkpt>
      <trkpt lat="44.37946" lon="0.66139">
        <ele>164</ele>
        <time>2012-02-26T08:13:17Z</time>
      </trkpt>
      <trkpt lat="44.37949" lon="0.66136">
        <ele>164</ele>
        <time>2012-02-26T08:13:18Z</time>
      </trkpt>
      <trkpt lat="44.37951" lon="0.66132">
        <ele>164</ele>
        <time>2012-02-26T08:13:19Z</time>
      </trkpt>
      <trkpt lat="44.37954" lon="0.66128">
        <ele>164</ele>
        <time>2012-02-26T08:13:20Z</time>
      </trkpt>
      <trkpt lat="44.37957" lon="0.66124">
        <ele>164</ele>
        <time>2012-02-26T08:13:21Z</time>
      </trkpt>
      <trkpt lat="44.37959" lon="0.66119">
        <ele>164</ele>
        <time>2012-02-26T08:13:22Z</time>
      </trkpt>
      <trkpt lat="44.37962" lon="0.66114">
        <ele>164</ele>
        <time>2012-02-26T08:13:23Z</time>
      </trkpt>
      <trkpt lat="44.37966" lon="0.66109">
        <ele>164</ele>
        <time>2012-02-26T08:13:25Z</time>
      </trkpt>
      <trkpt lat="44.3797" lon="0.66102">
        <ele>164</ele>
        <time>2012-02-26T08:13:25Z</time>
      </trkpt>
      <trkpt lat="44.37974" lon="0.66097">
        <ele>164</ele>
        <time>2012-02-26T08:13:26Z</time>
      </trkpt>
      <trkpt lat="44.37978" lon="0.66091">
        <ele>164</ele>
        <time>2012-02-26T08:13:27Z</time>
      </trkpt>
      <trkpt lat="44.37981" lon="0.66084">
        <ele>164</ele>
        <time>2012-02-26T08:13:29Z</time>
      </trkpt>
      <trkpt lat="44.37984" lon="0.66077">
        <ele>164</ele>
        <time>2012-02-26T08:13:30Z</time>
      </trkpt>
      <trkpt lat="44.37986" lon="0.66071">
        <ele>164</ele>
        <time>2012-02-26T08:13:30Z</time>
      </trkpt>
      <trkpt lat="44.37989" lon="0.66063">
        <ele>164</ele>
        <time>2012-02-26T08:13:32Z</time>
      </trkpt>
      <trkpt lat="44.37992" lon="0.66056">
        <ele>164</ele>
        <time>2012-02-26T08:13:32Z</time>
      </trkpt>
      <trkpt lat="44.37995" lon="0.66049">
        <ele>164</ele>
        <time>2012-02-26T08:13:34Z</time>
      </trkpt>
      <trkpt lat="44.37999" lon="0.66042">
        <ele>164</ele>
        <time>2012-02-26T08:13:34Z</time>
      </trkpt>
      <trkpt lat="44.38001" lon="0.66035">
        <ele>164</ele>
        <time>2012-02-26T08:13:35Z</time>
      </trkpt>
      <trkpt lat="44.38004" lon="0.66028">
        <ele>164</ele>
        <time>2012-02-26T08:13:36Z</time>
      </trkpt>
      <trkpt lat="44.38008" lon="0.66022">
        <ele>164</ele>
        <time>2012-02-26T08:13:38Z</time>
      </trkpt>
      <trkpt lat="44.38011" lon="0.66016">
        <ele>164</ele>
        <time>2012-02-26T08:13:38Z</time>
      </trkpt>
      <trkpt lat="44.38014" lon="0.6601">
        <ele>165</ele>
        <time>2012-02-26T08:13:39Z</time>
      </trkpt>
      <trkpt lat="44.38017" lon="0.66006">
        <ele>166</ele>
        <time>2012-02-26T08:13:41Z</time>
      </trkpt>
      <trkpt lat="44.3802" lon="0.66001">
        <ele>166</ele>
        <time>2012-02-26T08:13:41Z</time>
      </trkpt>
      <trkpt lat="44.38021" lon="0.65996">
        <ele>167</ele>
        <time>2012-02-26T08:13:43Z</time>
      </trkpt>
      <trkpt lat="44.38023" lon="0.65993">
        <ele>167</ele>
        <time>2012-02-26T08:13:44Z</time>
      </trkpt>
      <trkpt lat="44.38024" lon="0.65988">
        <ele>167</ele>
        <time>2012-02-26T08:13:44Z</time>
      </trkpt>
      <trkpt lat="44.38026" lon="0.65984">
        <ele>167</ele>
        <time>2012-02-26T08:13:45Z</time>
      </trkpt>
      <trkpt lat="44.38028" lon="0.6598">
        <ele>167</ele>
        <time>2012-02-26T08:13:46Z</time>
      </trkpt>
      <trkpt lat="44.38031" lon="0.65977">
        <ele>167</ele>
        <time>2012-02-26T08:13:47Z</time>
      </trkpt>
      <trkpt lat="44.38036" lon="0.65975">
        <ele>167</ele>
        <time>2012-02-26T08:13:48Z</time>
      </trkpt>
      <trkpt lat="44.38042" lon="0.65977">
        <ele>167</ele>
        <time>2012-02-26T08:13:49Z</time>
      </trkpt>
      <trkpt lat="44.38049" lon="0.6598">
        <ele>167</ele>
        <time>2012-02-26T08:13:50Z</time>
      </trkpt>
      <trkpt lat="44.38057" lon="0.65984">
        <ele>167</ele>
        <time>2012-02-26T08:13:51Z</time>
      </trkpt>
      <trkpt lat="44.38067" lon="0.65991">
        <ele>167</ele>
        <time>2012-02-26T08:13:53Z</time>
      </trkpt>
      <trkpt lat="44.38076" lon="0.65997">
        <ele>167</ele>
        <time>2012-02-26T08:13:53Z</time>
      </trkpt>
      <trkpt lat="44.38085" lon="0.66005">
        <ele>167</ele>
        <time>2012-02-26T08:13:54Z</time>
      </trkpt>
      <trkpt lat="44.38093" lon="0.66013">
        <ele>167</ele>
        <time>2012-02-26T08:13:55Z</time>
      </trkpt>
      <trkpt lat="44.381" lon="0.66022">
        <ele>167</ele>
        <time>2012-02-26T08:13:56Z</time>
      </trkpt>
      <trkpt lat="44.38105" lon="0.66029">
        <ele>167</ele>
        <time>2012-02-26T08:13:57Z</time>
      </trkpt>
      <trkpt lat="44.38109" lon="0.66036">
        <ele>167</ele>
        <time>2012-02-26T08:13:58Z</time>
      </trkpt>
      <trkpt lat="44.3811" lon="0.66043">
        <ele>166</ele>
        <time>2012-02-26T08:13:59Z</time>
      </trkpt>
      <trkpt lat="44.38111" lon="0.66051">
        <ele>165</ele>
        <time>2012-02-26T08:14:00Z</time>
      </trkpt>
      <trkpt lat="44.38112" lon="0.6606">
        <ele>164</ele>
        <time>2012-02-26T08:14:01Z</time>
      </trkpt>
      <trkpt lat="44.38112" lon="0.66068">
        <ele>163</ele>
        <time>2012-02-26T08:14:02Z</time>
      </trkpt>
      <trkpt lat="44.38112" lon="0.66075">
        <ele>162</ele>
        <time>2012-02-26T08:14:03Z</time>
      </trkpt>
      <trkpt lat="44.38112" lon="0.66082">
        <ele>161</ele>
        <time>2012-02-26T08:14:04Z</time>
      </trkpt>
      <trkpt lat="44.38112" lon="0.66089">
        <ele>160</ele>
        <time>2012-02-26T08:14:05Z</time>
      </trkpt>
      <trkpt lat="44.38114" lon="0.66097">
        <ele>159</ele>
        <time>2012-02-26T08:14:06Z</time>
      </trkpt>
      <trkpt lat="44.38116" lon="0.66106">
        <ele>158</ele>
        <time>2012-02-26T08:14:07Z</time>
      </trkpt>
      <trkpt lat="44.38118" lon="0.66114">
        <ele>157</ele>
        <time>2012-02-26T08:14:08Z</time>
      </trkpt>
      <trkpt lat="44.3812" lon="0.66123">
        <ele>156</ele>
        <time>2012-02-26T08:14:09Z</time>
      </trkpt>
      <trkpt lat="44.38123" lon="0.66131">
        <ele>155</ele>
        <time>2012-02-26T08:14:10Z</time>
      </trkpt>
      <trkpt lat="44.38124" lon="0.66138">
        <ele>153</ele>
        <time>2012-02-26T08:14:11Z</time>
      </trkpt>
      <trkpt lat="44.38127" lon="0.66145">
        <ele>152</ele>
        <time>2012-02-26T08:14:12Z</time>
      </trkpt>
      <trkpt lat="44.38129" lon="0.66152">
        <ele>151</ele>
        <time>2012-02-26T08:14:13Z</time>
      </trkpt>
      <trkpt lat="44.38132" lon="0.66159">
        <ele>150</ele>
        <time>2012-02-26T08:14:14Z</time>
      </trkpt>
      <trkpt lat="44.38135" lon="0.66166">
        <ele>149</ele>
        <time>2012-02-26T08:14:15Z</time>
      </trkpt>
      <trkpt lat="44.38138" lon="0.66172">
        <ele>148</ele>
        <time>2012-02-26T08:14:16Z</time>
      </trkpt>
      <trkpt lat="44.38142" lon="0.66178">
        <ele>147</ele>
        <time>2012-02-26T08:14:17Z</time>
      </trkpt>
      <trkpt lat="44.38146" lon="0.66183">
        <ele>146</ele>
        <time>2012-02-26T08:14:18Z</time>
      </trkpt>
      <trkpt lat="44.3815" lon="0.66188">
        <ele>145</ele>
        <time>2012-02-26T08:14:19Z</time>
      </trkpt>
      <trkpt lat="44.38155" lon="0.66193">
        <ele>144</ele>
        <time>2012-02-26T08:14:20Z</time>
      </trkpt>
      <trkpt lat="44.3816" lon="0.66197">
        <ele>143</ele>
        <time>2012-02-26T08:14:21Z</time>
      </trkpt>
      <trkpt lat="44.38165" lon="0.66199">
        <ele>142</ele>
        <time>2012-02-26T08:14:22Z</time>
      </trkpt>
      <trkpt lat="44.38171" lon="0.66202">
        <ele>141</ele>
        <time>2012-02-26T08:14:23Z</time>
      </trkpt>
      <trkpt lat="44.38176" lon="0.66206">
        <ele>140</ele>
        <time>2012-02-26T08:14:24Z</time>
      </trkpt>
      <trkpt lat="44.38181" lon="0.66209">
        <ele>139</ele>
        <time>2012-02-26T08:14:25Z</time>
      </trkpt>
      <trkpt lat="44.38187" lon="0.66211">
        <ele>138</ele>
        <time>2012-02-26T08:14:26Z</time>
      </trkpt>
      <trkpt lat="44.38191" lon="0.66213">
        <ele>138</ele>
        <time>2012-02-26T08:14:27Z</time>
      </trkpt>
      <trkpt lat="44.38196" lon="0.66215">
        <ele>137</ele>
        <time>2012-02-26T08:14:28Z</time>
      </trkpt>
      <trkpt lat="44.38201" lon="0.66218">
        <ele>137</ele>
        <time>2012-02-26T08:14:29Z</time>
      </trkpt>
      <trkpt lat="44.38205" lon="0.66221">
        <ele>136</ele>
        <time>2012-02-26T08:14:30Z</time>
      </trkpt>
      <trkpt lat="44.3821" lon="0.66223">
        <ele>136</ele>
        <time>2012-02-26T08:14:31Z</time>
      </trkpt>
      <trkpt lat="44.38214" lon="0.66226">
        <ele>136</ele>
        <time>2012-02-26T08:14:32Z</time>
      </trkpt>
      <trkpt lat="44.38218" lon="0.66228">
        <ele>135</ele>
        <time>2012-02-26T08:14:33Z</time>
      </trkpt>
      <trkpt lat="44.38222" lon="0.6623">
        <ele>135</ele>
        <time>2012-02-26T08:14:35Z</time>
      </trkpt>
      <trkpt lat="44.38226" lon="0.66233">
        <ele>134</ele>
        <time>2012-02-26T08:14:35Z</time>
      </trkpt>
      <trkpt lat="44.38231" lon="0.66238">
        <ele>133</ele>
        <time>2012-02-26T08:14:36Z</time>
      </trkpt>
      <trkpt lat="44.38235" lon="0.66242">
        <ele>133</ele>
        <time>2012-02-26T08:14:37Z</time>
      </trkpt>
      <trkpt lat="44.3824" lon="0.66246">
        <ele>132</ele>
        <time>2012-02-26T08:14:38Z</time>
      </trkpt>
      <trkpt lat="44.38245" lon="0.6625">
        <ele>132</ele>
        <time>2012-02-26T08:14:40Z</time>
      </trkpt>
      <trkpt lat="44.3825" lon="0.66254">
        <ele>132</ele>
        <time>2012-02-26T08:14:41Z</time>
      </trkpt>
      <trkpt lat="44.38256" lon="0.66257">
        <ele>132</ele>
        <time>2012-02-26T08:14:41Z</time>
      </trkpt>
      <trkpt lat="44.38262" lon="0.66259">
        <ele>132</ele>
        <time>2012-02-26T08:14:42Z</time>
      </trkpt>
      <trkpt lat="44.38268" lon="0.66259">
        <ele>132</ele>
        <time>2012-02-26T08:14:43Z</time>
      </trkpt>
      <trkpt lat="44.38273" lon="0.6626">
        <ele>132</ele>
        <time>2012-02-26T08:14:44Z</time>
      </trkpt>
      <trkpt lat="44.38277" lon="0.6626">
        <ele>132</ele>
        <time>2012-02-26T08:14:45Z</time>
      </trkpt>
      <trkpt lat="44.3828" lon="0.66258">
        <ele>132</ele>
        <time>2012-02-26T08:14:46Z</time>
      </trkpt>
      <trkpt lat="44.38284" lon="0.66255">
        <ele>132</ele>
        <time>2012-02-26T08:14:47Z</time>
      </trkpt>
      <trkpt lat="44.38287" lon="0.66252">
        <ele>132</ele>
        <time>2012-02-26T08:14:48Z</time>
      </trkpt>
      <trkpt lat="44.3829" lon="0.6625">
        <ele>132</ele>
        <time>2012-02-26T08:14:49Z</time>
      </trkpt>
      <trkpt lat="44.38293" lon="0.66248">
        <ele>132</ele>
        <time>2012-02-26T08:14:50Z</time>
      </trkpt>
      <trkpt lat="44.38298" lon="0.66246">
        <ele>132</ele>
        <time>2012-02-26T08:14:51Z</time>
      </trkpt>
      <trkpt lat="44.38301" lon="0.66244">
        <ele>132</ele>
        <time>2012-02-26T08:14:52Z</time>
      </trkpt>
      <trkpt lat="44.38305" lon="0.66241">
        <ele>132</ele>
        <time>2012-02-26T08:14:53Z</time>
      </trkpt>
      <trkpt lat="44.38308" lon="0.66238">
        <ele>132</ele>
        <time>2012-02-26T08:14:54Z</time>
      </trkpt>
      <trkpt lat="44.38311" lon="0.66235">
        <ele>132</ele>
        <time>2012-02-26T08:14:55Z</time>
      </trkpt>
      <trkpt lat="44.38314" lon="0.66232">
        <ele>132</ele>
        <time>2012-02-26T08:14:56Z</time>
      </trkpt>
      <trkpt lat="44.38318" lon="0.66229">
        <ele>132</ele>
        <time>2012-02-26T08:14:58Z</time>
      </trkpt>
      <trkpt lat="44.38321" lon="0.66225">
        <ele>132</ele>
        <time>2012-02-26T08:14:59Z</time>
      </trkpt>
      <trkpt lat="44.38323" lon="0.6622">
        <ele>132</ele>
        <time>2012-02-26T08:14:59Z</time>
      </trkpt>
      <trkpt lat="44.38325" lon="0.66215">
        <ele>132</ele>
        <time>2012-02-26T08:15:00Z</time>
      </trkpt>
      <trkpt lat="44.38326" lon="0.6621">
        <ele>132</ele>
        <time>2012-02-26T08:15:01Z</time>
      </trkpt>
      <trkpt lat="44.38328" lon="0.66205">
        <ele>132</ele>
        <time>2012-02-26T08:15:02Z</time>
      </trkpt>
      <trkpt lat="44.3833" lon="0.66201">
        <ele>132</ele>
        <time>2012-02-26T08:15:03Z</time>
      </trkpt>
      <trkpt lat="44.38332" lon="0.66196">
        <ele>132</ele>
        <time>2012-02-26T08:15:04Z</time>
      </trkpt>
      <trkpt lat="44.38334" lon="0.66191">
        <ele>132</ele>
        <time>2012-02-26T08:15:05Z</time>
      </trkpt>
      <trkpt lat="44.38336" lon="0.66186">
        <ele>133</ele>
        <time>2012-02-26T08:15:06Z</time>
      </trkpt>
      <trkpt lat="44.38337" lon="0.66181">
        <ele>134</ele>
        <time>2012-02-26T08:15:08Z</time>
      </trkpt>
      <trkpt lat="44.38339" lon="0.66176">
        <ele>135</ele>
        <time>2012-02-26T08:15:08Z</time>
      </trkpt>
      <trkpt lat="44.38341" lon="0.66172">
        <ele>136</ele>
        <time>2012-02-26T08:15:09Z</time>
      </trkpt>
      <trkpt lat="44.38342" lon="0.66168">
        <ele>137</ele>
        <time>2012-02-26T08:15:11Z</time>
      </trkpt>
      <trkpt lat="44.38344" lon="0.66163">
        <ele>138</ele>
        <time>2012-02-26T08:15:11Z</time>
      </trkpt>
      <trkpt lat="44.38345" lon="0.66159">
        <ele>139</ele>
        <time>2012-02-26T08:15:12Z</time>
      </trkpt>
      <trkpt lat="44.38347" lon="0.66154">
        <ele>140</ele>
        <time>2012-02-26T08:15:13Z</time>
      </trkpt>
      <trkpt lat="44.38348" lon="0.6615">
        <ele>141</ele>
        <time>2012-02-26T08:15:14Z</time>
      </trkpt>
      <trkpt lat="44.3835" lon="0.66146">
        <ele>142</ele>
        <time>2012-02-26T08:15:16Z</time>
      </trkpt>
      <trkpt lat="44.38351" lon="0.66141">
        <ele>142</ele>
        <time>2012-02-26T08:15:16Z</time>
      </trkpt>
      <trkpt lat="44.38353" lon="0.66136">
        <ele>143</ele>
        <time>2012-02-26T08:15:17Z</time>
      </trkpt>
      <trkpt lat="44.38354" lon="0.66131">
        <ele>143</ele>
        <time>2012-02-26T08:15:18Z</time>
      </trkpt>
      <trkpt lat="44.38356" lon="0.66125">
        <ele>144</ele>
        <time>2012-02-26T08:15:19Z</time>
      </trkpt>
      <trkpt lat="44.38357" lon="0.6612">
        <ele>144</ele>
        <time>2012-02-26T08:15:20Z</time>
      </trkpt>
      <trkpt lat="44.38359" lon="0.66114">
        <ele>144</ele>
        <time>2012-02-26T08:15:21Z</time>
      </trkpt>
      <trkpt lat="44.3836" lon="0.66109">
        <ele>144</ele>
        <time>2012-02-26T08:15:23Z</time>
      </trkpt>
      <trkpt lat="44.38361" lon="0.66104">
        <ele>144</ele>
        <time>2012-02-26T08:15:23Z</time>
      </trkpt>
      <trkpt lat="44.38362" lon="0.66099">
        <ele>144</ele>
        <time>2012-02-26T08:15:24Z</time>
      </trkpt>
      <trkpt lat="44.38363" lon="0.66093">
        <ele>144</ele>
        <time>2012-02-26T08:15:25Z</time>
      </trkpt>
      <trkpt lat="44.38364" lon="0.66088">
        <ele>144</ele>
        <time>2012-02-26T08:15:26Z</time>
      </trkpt>
      <trkpt lat="44.38365" lon="0.66083">
        <ele>144</ele>
        <time>2012-02-26T08:15:27Z</time>
      </trkpt>
      <trkpt lat="44.38365" lon="0.66078">
        <ele>144</ele>
        <time>2012-02-26T08:15:28Z</time>
      </trkpt>
      <trkpt lat="44.38366" lon="0.66073">
        <ele>144</ele>
        <time>2012-02-26T08:15:29Z</time>
      </trkpt>
      <trkpt lat="44.38366" lon="0.66067">
        <ele>144</ele>
        <time>2012-02-26T08:15:30Z</time>
      </trkpt>
      <trkpt lat="44.38366" lon="0.66062">
        <ele>144</ele>
        <time>2012-02-26T08:15:31Z</time>
      </trkpt>
      <trkpt lat="44.38366" lon="0.66057">
        <ele>144</ele>
        <time>2012-02-26T08:15:33Z</time>
      </trkpt>
      <trkpt lat="44.38366" lon="0.66052">
        <ele>144</ele>
        <time>2012-02-26T08:15:33Z</time>
      </trkpt>
      <trkpt lat="44.38365" lon="0.66047">
        <ele>144</ele>
        <time>2012-02-26T08:15:34Z</time>
      </trkpt>
      <trkpt lat="44.38365" lon="0.66042">
        <ele>144</ele>
        <time>2012-02-26T08:15:35Z</time>
      </trkpt>
      <trkpt lat="44.38364" lon="0.66037">
        <ele>144</ele>
        <time>2012-02-26T08:15:36Z</time>
      </trkpt>
      <trkpt lat="44.38363" lon="0.66033">
        <ele>144</ele>
        <time>2012-02-26T08:15:37Z</time>
      </trkpt>
      <trkpt lat="44.38362" lon="0.66028">
        <ele>144</ele>
        <time>2012-02-26T08:15:38Z</time>
      </trkpt>
      <trkpt lat="44.38361" lon="0.66024">
        <ele>144</ele>
        <time>2012-02-26T08:15:39Z</time>
      </trkpt>
      <trkpt lat="44.38361" lon="0.6602">
        <ele>144</ele>
        <time>2012-02-26T08:15:40Z</time>
      </trkpt>
      <trkpt lat="44.3836" lon="0.66016">
        <ele>144</ele>
        <time>2012-02-26T08:15:42Z</time>
      </trkpt>
      <trkpt lat="44.38359" lon="0.66012">
        <ele>144</ele>
        <time>2012-02-26T08:15:42Z</time>
      </trkpt>
      <trkpt lat="44.38358" lon="0.66007">
        <ele>144</ele>
        <time>2012-02-26T08:15:43Z</time>
      </trkpt>
      <trkpt lat="44.38356" lon="0.66003">
        <ele>144</ele>
        <time>2012-02-26T08:15:45Z</time>
      </trkpt>
      <trkpt lat="44.38356" lon="0.65999">
        <ele>144</ele>
        <time>2012-02-26T08:15:46Z</time>
      </trkpt>
      <trkpt lat="44.38354" lon="0.65995">
        <ele>144</ele>
        <time>2012-02-26T08:15:46Z</time>
      </trkpt>
      <trkpt lat="44.38352" lon="0.65991">
        <ele>144</ele>
        <time>2012-02-26T08:15:47Z</time>
      </trkpt>
      <trkpt lat="44.3835" lon="0.65988">
        <ele>144</ele>
        <time>2012-02-26T08:15:48Z</time>
      </trkpt>
      <trkpt lat="44.38348" lon="0.65985">
        <ele>144</ele>
        <time>2012-02-26T08:15:49Z</time>
      </trkpt>
      <trkpt lat="44.38345" lon="0.65982">
        <ele>144</ele>
        <time>2012-02-26T08:15:50Z</time>
      </trkpt>
      <trkpt lat="44.38342" lon="0.6598">
        <ele>144</ele>
        <time>2012-02-26T08:15:51Z</time>
      </trkpt>
      <trkpt lat="44.3834" lon="0.65977">
        <ele>145</ele>
        <time>2012-02-26T08:15:53Z</time>
      </trkpt>
      <trkpt lat="44.38337" lon="0.65975">
        <ele>145</ele>
        <time>2012-02-26T08:15:54Z</time>
      </trkpt>
      <trkpt lat="44.38334" lon="0.65973">
        <ele>145</ele>
        <time>2012-02-26T08:15:54Z</time>
      </trkpt>
      <trkpt lat="44.38331" lon="0.65971">
        <ele>145</ele>
        <time>2012-02-26T08:15:55Z</time>
      </trkpt>
      <trkpt lat="44.38328" lon="0.6597">
        <ele>145</ele>
        <time>2012-02-26T08:15:56Z</time>
      </trkpt>
      <trkpt lat="44.38325" lon="0.65968">
        <ele>145</ele>
        <time>2012-02-26T08:15:57Z</time>
      </trkpt>
      <trkpt lat="44.38322" lon="0.65966">
        <ele>145</ele>
        <time>2012-02-26T08:15:58Z</time>
      </trkpt>
      <trkpt lat="44.38319" lon="0.65965">
        <ele>146</ele>
        <time>2012-02-26T08:15:59Z</time>
      </trkpt>
      <trkpt lat="44.38315" lon="0.65964">
        <ele>146</ele>
        <time>2012-02-26T08:16:00Z</time>
      </trkpt>
      <trkpt lat="44.38312" lon="0.65963">
        <ele>146</ele>
        <time>2012-02-26T08:16:01Z</time>
      </trkpt>
      <trkpt lat="44.38309" lon="0.65963">
        <ele>147</ele>
        <time>2012-02-26T08:16:02Z</time>
      </trkpt>
      <trkpt lat="44.38306" lon="0.65963">
        <ele>147</ele>
        <time>2012-02-26T08:16:03Z</time>
      </trkpt>
      <trkpt lat="44.38302" lon="0.65963">
        <ele>147</ele>
        <time>2012-02-26T08:16:04Z</time>
      </trkpt>
      <trkpt lat="44.38299" lon="0.65962">
        <ele>147</ele>
        <time>2012-02-26T08:16:05Z</time>
      </trkpt>
      <trkpt lat="44.38296" lon="0.65962">
        <ele>148</ele>
        <time>2012-02-26T08:16:06Z</time>
      </trkpt>
      <trkpt lat="44.38293" lon="0.65962">
        <ele>148</ele>
        <time>2012-02-26T08:16:07Z</time>
      </trkpt>
      <trkpt lat="44.3829" lon="0.65962">
        <ele>148</ele>
        <time>2012-02-26T08:16:08Z</time>
      </trkpt>
      <trkpt lat="44.38287" lon="0.65962">
        <ele>148</ele>
        <time>2012-02-26T08:16:09Z</time>
      </trkpt>
      <trkpt lat="44.38283" lon="0.65963">
        <ele>148</ele>
        <time>2012-02-26T08:16:10Z</time>
      </trkpt>
      <trkpt lat="44.3828" lon="0.65963">
        <ele>148</ele>
        <time>2012-02-26T08:16:11Z</time>
      </trkpt>
      <trkpt lat="44.38277" lon="0.65964">
        <ele>148</ele>
        <time>2012-02-26T08:16:12Z</time>
      </trkpt>
      <trkpt lat="44.38274" lon="0.65964">
        <ele>148</ele>
        <time>2012-02-26T08:16:13Z</time>
      </trkpt>
      <trkpt lat="44.38271" lon="0.65964">
        <ele>148</ele>
        <time>2012-02-26T08:16:15Z</time>
      </trkpt>
      <trkpt lat="44.38268" lon="0.65964">
        <ele>148</ele>
        <time>2012-02-26T08:16:15Z</time>
      </trkpt>
      <trkpt lat="44.38264" lon="0.65964">
        <ele>148</ele>
        <time>2012-02-26T08:16:16Z</time>
      </trkpt>
      <trkpt lat="44.38261" lon="0.65964">
        <ele>148</ele>
        <time>2012-02-26T08:16:17Z</time>
      </trkpt>
      <trkpt lat="44.38258" lon="0.65964">
        <ele>148</ele>
        <time>2012-02-26T08:16:18Z</time>
      </trkpt>
      <trkpt lat="44.38255" lon="0.65965">
        <ele>148</ele>
        <time>2012-02-26T08:16:19Z</time>
      </trkpt>
      <trkpt lat="44.38251" lon="0.65965">
        <ele>148</ele>
        <time>2012-02-26T08:16:21Z</time>
      </trkpt>
      <trkpt lat="44.38248" lon="0.65965">
        <ele>148</ele>
        <time>2012-02-26T08:16:21Z</time>
      </trkpt>
      <trkpt lat="44.38245" lon="0.65965">
        <ele>148</ele>
        <time>2012-02-26T08:16:23Z</time>
      </trkpt>
      <trkpt lat="44.38242" lon="0.65965">
        <ele>148</ele>
        <time>2012-02-26T08:16:23Z</time>
      </trkpt>
      <trkpt lat="44.38239" lon="0.65965">
        <ele>148</ele>
        <time>2012-02-26T08:16:25Z</time>
      </trkpt>
      <trkpt lat="44.38235" lon="0.65964">
        <ele>148</ele>
        <time>2012-02-26T08:16:25Z</time>
      </trkpt>
      <trkpt lat="44.38232" lon="0.65964">
        <ele>148</ele>
        <time>2012-02-26T08:16:26Z</time>
      </trkpt>
      <trkpt lat="44.38229" lon="0.65964">
        <ele>148</ele>
        <time>2012-02-26T08:16:28Z</time>
      </trkpt>
      <trkpt lat="44.38226" lon="0.65964">
        <ele>148</ele>
        <time>2012-02-26T08:16:28Z</time>
      </trkpt>
      <trkpt lat="44.38222" lon="0.65965">
        <ele>148</ele>
        <time>2012-02-26T08:16:29Z</time>
      </trkpt>
      <trkpt lat="44.38219" lon="0.65964">
        <ele>148</ele>
        <time>2012-02-26T08:16:30Z</time>
      </trkpt>
      <trkpt lat="44.38216" lon="0.65962">
        <ele>148</ele>
        <time>2012-02-26T08:16:32Z</time>
      </trkpt>
      <trkpt lat="44.38212" lon="0.65961">
        <ele>148</ele>
        <time>2012-02-26T08:16:32Z</time>
      </trkpt>
      <trkpt lat="44.38209" lon="0.6596">
        <ele>149</ele>
        <time>2012-02-26T08:16:33Z</time>
      </trkpt>
      <trkpt lat="44.38205" lon="0.6596">
        <ele>150</ele>
        <time>2012-02-26T08:16:34Z</time>
      </trkpt>
      <trkpt lat="44.38202" lon="0.65959">
        <ele>151</ele>
        <time>2012-02-26T08:16:35Z</time>
      </trkpt>
      <trkpt lat="44.38199" lon="0.65958">
        <ele>152</ele>
        <time>2012-02-26T08:16:36Z</time>
      </trkpt>
      <trkpt lat="44.38196" lon="0.65956">
        <ele>153</ele>
        <time>2012-02-26T08:16:38Z</time>
      </trkpt>
      <trkpt lat="44.38193" lon="0.65955">
        <ele>153</ele>
        <time>2012-02-26T08:16:38Z</time>
      </trkpt>
      <trkpt lat="44.38189" lon="0.65953">
        <ele>154</ele>
        <time>2012-02-26T08:16:39Z</time>
      </trkpt>
      <trkpt lat="44.38187" lon="0.65952">
        <ele>154</ele>
        <time>2012-02-26T08:16:40Z</time>
      </trkpt>
      <trkpt lat="44.38184" lon="0.6595">
        <ele>155</ele>
        <time>2012-02-26T08:16:41Z</time>
      </trkpt>
      <trkpt lat="44.38182" lon="0.65948">
        <ele>155</ele>
        <time>2012-02-26T08:16:42Z</time>
      </trkpt>
      <trkpt lat="44.38179" lon="0.65946">
        <ele>156</ele>
        <time>2012-02-26T08:16:44Z</time>
      </trkpt>
      <trkpt lat="44.38177" lon="0.65943">
        <ele>156</ele>
        <time>2012-02-26T08:16:44Z</time>
      </trkpt>
      <trkpt lat="44.38174" lon="0.6594">
        <ele>156</ele>
        <time>2012-02-26T08:16:45Z</time>
      </trkpt>
      <trkpt lat="44.38172" lon="0.65937">
        <ele>157</ele>
        <time>2012-02-26T08:16:46Z</time>
      </trkpt>
      <trkpt lat="44.38169" lon="0.65934">
        <ele>158</ele>
        <time>2012-02-26T08:16:47Z</time>
      </trkpt>
      <trkpt lat="44.38167" lon="0.65931">
        <ele>158</ele>
        <time>2012-02-26T08:16:48Z</time>
      </trkpt>
      <trkpt lat="44.38164" lon="0.65928">
        <ele>159</ele>
        <time>2012-02-26T08:16:49Z</time>
      </trkpt>
      <trkpt lat="44.38161" lon="0.65924">
        <ele>159</ele>
        <time>2012-02-26T08:16:50Z</time>
      </trkpt>
      <trkpt lat="44.38158" lon="0.65921">
        <ele>159</ele>
        <time>2012-02-26T08:16:51Z</time>
      </trkpt>
      <trkpt lat="44.38155" lon="0.65917">
        <ele>160</ele>
        <time>2012-02-26T08:16:52Z</time>
      </trkpt>
      <trkpt lat="44.38152" lon="0.65914">
        <ele>160</ele>
        <time>2012-02-26T08:16:53Z</time>
      </trkpt>
      <trkpt lat="44.3815" lon="0.65911">
        <ele>160</ele>
        <time>2012-02-26T08:16:55Z</time>
      </trkpt>
      <trkpt lat="44.38147" lon="0.65907">
        <ele>160</ele>
        <time>2012-02-26T08:16:55Z</time>
      </trkpt>
      <trkpt lat="44.38144" lon="0.65904">
        <ele>160</ele>
        <time>2012-02-26T08:16:56Z</time>
      </trkpt>
      <trkpt lat="44.38142" lon="0.65901">
        <ele>160</ele>
        <time>2012-02-26T08:16:57Z</time>
      </trkpt>
      <trkpt lat="44.38139" lon="0.65898">
        <ele>160</ele>
        <time>2012-02-26T08:16:58Z</time>
      </trkpt>
      <trkpt lat="44.38136" lon="0.65895">
        <ele>160</ele>
        <time>2012-02-26T08:16:59Z</time>
      </trkpt>
      <trkpt lat="44.38132" lon="0.65892">
        <ele>160</ele>
        <time>2012-02-26T08:17:00Z</time>
      </trkpt>
      <trkpt lat="44.38129" lon="0.6589">
        <ele>160</ele>
        <time>2012-02-26T08:17:01Z</time>
      </trkpt>
      <trkpt lat="44.38126" lon="0.65887">
        <ele>160</ele>
        <time>2012-02-26T08:17:02Z</time>
      </trkpt>
      <trkpt lat="44.38123" lon="0.65884">
        <ele>160</ele>
        <time>2012-02-26T08:17:03Z</time>
      </trkpt>
      <trkpt lat="44.3812" lon="0.65881">
        <ele>160</ele>
        <time>2012-02-26T08:17:04Z</time>
      </trkpt>
      <trkpt lat="44.38117" lon="0.65878">
        <ele>160</ele>
        <time>2012-02-26T08:17:06Z</time>
      </trkpt>
      <trkpt lat="44.38114" lon="0.65874">
        <ele>160</ele>
        <time>2012-02-26T08:17:06Z</time>
      </trkpt>
      <trkpt lat="44.38111" lon="0.65871">
        <ele>160</ele>
        <time>2012-02-26T08:17:07Z</time>
      </trkpt>
      <trkpt lat="44.38108" lon="0.65868">
        <ele>160</ele>
        <time>2012-02-26T08:17:08Z</time>
      </trkpt>
      <trkpt lat="44.38105" lon="0.65865">
        <ele>160</ele>
        <time>2012-02-26T08:17:09Z</time>
      </trkpt>
      <trkpt lat="44.38103" lon="0.65863">
        <ele>160</ele>
        <time>2012-02-26T08:17:10Z</time>
      </trkpt>
      <trkpt lat="44.38101" lon="0.65861">
        <ele>160</ele>
        <time>2012-02-26T08:17:11Z</time>
      </trkpt>
      <trkpt lat="44.38099" lon="0.65858">
        <ele>160</ele>
        <time>2012-02-26T08:17:12Z</time>
      </trkpt>
      <trkpt lat="44.38097" lon="0.65855">
        <ele>160</ele>
        <time>2012-02-26T08:17:13Z</time>
      </trkpt>
      <trkpt lat="44.38094" lon="0.65852">
        <ele>160</ele>
        <time>2012-02-26T08:17:14Z</time>
      </trkpt>
      <trkpt lat="44.38092" lon="0.65848">
        <ele>160</ele>
        <time>2012-02-26T08:17:15Z</time>
      </trkpt>
      <trkpt lat="44.38089" lon="0.65845">
        <ele>160</ele>
        <time>2012-02-26T08:17:16Z</time>
      </trkpt>
      <trkpt lat="44.38087" lon="0.65841">
        <ele>160</ele>
        <time>2012-02-26T08:17:17Z</time>
      </trkpt>
      <trkpt lat="44.38086" lon="0.65837">
        <ele>160</ele>
        <time>2012-02-26T08:17:19Z</time>
      </trkpt>
      <trkpt lat="44.38084" lon="0.65833">
        <ele>160</ele>
        <time>2012-02-26T08:17:19Z</time>
      </trkpt>
      <trkpt lat="44.38082" lon="0.65829">
        <ele>160</ele>
        <time>2012-02-26T08:17:20Z</time>
      </trkpt>
      <trkpt lat="44.3808" lon="0.65825">
        <ele>160</ele>
        <time>2012-02-26T08:17:21Z</time>
      </trkpt>
      <trkpt lat="44.38078" lon="0.6582">
        <ele>160</ele>
        <time>2012-02-26T08:17:22Z</time>
      </trkpt>
      <trkpt lat="44.38077" lon="0.65816">
        <ele>160</ele>
        <time>2012-02-26T08:17:23Z</time>
      </trkpt>
      <trkpt lat="44.38076" lon="0.65811">
        <ele>160</ele>
        <time>2012-02-26T08:17:24Z</time>
      </trkpt>
      <trkpt lat="44.38074" lon="0.65805">
        <ele>160</ele>
        <time>2012-02-26T08:17:25Z</time>
      </trkpt>
      <trkpt lat="44.38074" lon="0.658">
        <ele>160</ele>
        <time>2012-02-26T08:17:26Z</time>
      </trkpt>
      <trkpt lat="44.38073" lon="0.65795">
        <ele>160</ele>
        <time>2012-02-26T08:17:27Z</time>
      </trkpt>
      <trkpt lat="44.38073" lon="0.6579">
        <ele>160</ele>
        <time>2012-02-26T08:17:28Z</time>
      </trkpt>
      <trkpt lat="44.38073" lon="0.65786">
        <ele>160</ele>
        <time>2012-02-26T08:17:29Z</time>
      </trkpt>
      <trkpt lat="44.38072" lon="0.6578">
        <ele>160</ele>
        <time>2012-02-26T08:17:30Z</time>
      </trkpt>
      <trkpt lat="44.38072" lon="0.65775">
        <ele>160</ele>
        <time>2012-02-26T08:17:31Z</time>
      </trkpt>
      <trkpt lat="44.38072" lon="0.6577">
        <ele>160</ele>
        <time>2012-02-26T08:17:32Z</time>
      </trkpt>
      <trkpt lat="44.38072" lon="0.65764">
        <ele>160</ele>
        <time>2012-02-26T08:17:33Z</time>
      </trkpt>
      <trkpt lat="44.38071" lon="0.65758">
        <ele>160</ele>
        <time>2012-02-26T08:17:34Z</time>
      </trkpt>
      <trkpt lat="44.38071" lon="0.65752">
        <ele>160</ele>
        <time>2012-02-26T08:17:36Z</time>
      </trkpt>
      <trkpt lat="44.38071" lon="0.65745">
        <ele>160</ele>
        <time>2012-02-26T08:17:36Z</time>
      </trkpt>
      <trkpt lat="44.38071" lon="0.6574">
        <ele>160</ele>
        <time>2012-02-26T08:17:38Z</time>
      </trkpt>
      <trkpt lat="44.38071" lon="0.65734">
        <ele>160</ele>
        <time>2012-02-26T08:17:38Z</time>
      </trkpt>
      <trkpt lat="44.3807" lon="0.65727">
        <ele>160</ele>
        <time>2012-02-26T08:17:39Z</time>
      </trkpt>
      <trkpt lat="44.3807" lon="0.65721">
        <ele>160</ele>
        <time>2012-02-26T08:17:40Z</time>
      </trkpt>
      <trkpt lat="44.3807" lon="0.65715">
        <ele>160</ele>
        <time>2012-02-26T08:17:41Z</time>
      </trkpt>
      <trkpt lat="44.3807" lon="0.6571">
        <ele>160</ele>
        <time>2012-02-26T08:17:42Z</time>
      </trkpt>
      <trkpt lat="44.3807" lon="0.65703">
        <ele>160</ele>
        <time>2012-02-26T08:17:44Z</time>
      </trkpt>
      <trkpt lat="44.3807" lon="0.65697">
        <ele>161</ele>
        <time>2012-02-26T08:17:44Z</time>
      </trkpt>
      <trkpt lat="44.3807" lon="0.65691">
        <ele>161</ele>
        <time>2012-02-26T08:17:45Z</time>
      </trkpt>
      <trkpt lat="44.3807" lon="0.65685">
        <ele>161</ele>
        <time>2012-02-26T08:17:46Z</time>
      </trkpt>
      <trkpt lat="44.3807" lon="0.65678">
        <ele>161</ele>
        <time>2012-02-26T08:17:48Z</time>
      </trkpt>
      <trkpt lat="44.3807" lon="0.65672">
        <ele>161</ele>
        <time>2012-02-26T08:17:48Z</time>
      </trkpt>
      <trkpt lat="44.38071" lon="0.65666">
        <ele>161</ele>
        <time>2012-02-26T08:17:50Z</time>
      </trkpt>
      <trkpt lat="44.38072" lon="0.6566">
        <ele>161</ele>
        <time>2012-02-26T08:17:50Z</time>
      </trkpt>
      <trkpt lat="44.38073" lon="0.65655">
        <ele>162</ele>
        <time>2012-02-26T08:17:51Z</time>
      </trkpt>
      <trkpt lat="44.38073" lon="0.65649">
        <ele>162</ele>
        <time>2012-02-26T08:17:52Z</time>
      </trkpt>
      <trkpt lat="44.38074" lon="0.65643">
        <ele>163</ele>
        <time>2012-02-26T08:17:53Z</time>
      </trkpt>
      <trkpt lat="44.38076" lon="0.65638">
        <ele>164</ele>
        <time>2012-02-26T08:17:54Z</time>
      </trkpt>
      <trkpt lat="44.38077" lon="0.65633">
        <ele>164</ele>
        <time>2012-02-26T08:17:55Z</time>
      </trkpt>
      <trkpt lat="44.38078" lon="0.65628">
        <ele>165</ele>
        <time>2012-02-26T08:17:56Z</time>
      </trkpt>
      <trkpt lat="44.38079" lon="0.65623">
        <ele>166</ele>
        <time>2012-02-26T08:17:57Z</time>
      </trkpt>
      <trkpt lat="44.38081" lon="0.65618">
        <ele>166</ele>
        <time>2012-02-26T08:17:58Z</time>
      </trkpt>
      <trkpt lat="44.38082" lon="0.65613">
        <ele>167</ele>
        <time>2012-02-26T08:17:59Z</time>
      </trkpt>
      <trkpt lat="44.38083" lon="0.65608">
        <ele>167</ele>
        <time>2012-02-26T08:18:00Z</time>
      </trkpt>
      <trkpt lat="44.38084" lon="0.65603">
        <ele>168</ele>
        <time>2012-02-26T08:18:01Z</time>
      </trkpt>
      <trkpt lat="44.38086" lon="0.65599">
        <ele>168</ele>
        <time>2012-02-26T08:18:02Z</time>
      </trkpt>
      <trkpt lat="44.38087" lon="0.65594">
        <ele>169</ele>
        <time>2012-02-26T08:18:03Z</time>
      </trkpt>
      <trkpt lat="44.38088" lon="0.6559">
        <ele>169</ele>
        <time>2012-02-26T08:18:04Z</time>
      </trkpt>
      <trkpt lat="44.38089" lon="0.65585">
        <ele>169</ele>
        <time>2012-02-26T08:18:05Z</time>
      </trkpt>
      <trkpt lat="44.38091" lon="0.65581">
        <ele>170</ele>
        <time>2012-02-26T08:18:06Z</time>
      </trkpt>
      <trkpt lat="44.38092" lon="0.65577">
        <ele>170</ele>
        <time>2012-02-26T08:18:07Z</time>
      </trkpt>
      <trkpt lat="44.38093" lon="0.65573">
        <ele>170</ele>
        <time>2012-02-26T08:18:08Z</time>
      </trkpt>
      <trkpt lat="44.38094" lon="0.65569">
        <ele>171</ele>
        <time>2012-02-26T08:18:09Z</time>
      </trkpt>
      <trkpt lat="44.38095" lon="0.65565">
        <ele>171</ele>
        <time>2012-02-26T08:18:11Z</time>
      </trkpt>
      <trkpt lat="44.38097" lon="0.6556">
        <ele>171</ele>
        <time>2012-02-26T08:18:11Z</time>
      </trkpt>
      <trkpt lat="44.38098" lon="0.65556">
        <ele>172</ele>
        <time>2012-02-26T08:18:12Z</time>
      </trkpt>
      <trkpt lat="44.38099" lon="0.65551">
        <ele>172</ele>
        <time>2012-02-26T08:18:13Z</time>
      </trkpt>
      <trkpt lat="44.381" lon="0.65547">
        <ele>173</ele>
        <time>2012-02-26T08:18:14Z</time>
      </trkpt>
      <trkpt lat="44.381" lon="0.65542">
        <ele>173</ele>
        <time>2012-02-26T08:18:15Z</time>
      </trkpt>
      <trkpt lat="44.38102" lon="0.65538">
        <ele>174</ele>
        <time>2012-02-26T08:18:16Z</time>
      </trkpt>
      <trkpt lat="44.38102" lon="0.65533">
        <ele>174</ele>
        <time>2012-02-26T08:18:17Z</time>
      </trkpt>
      <trkpt lat="44.38102" lon="0.65528">
        <ele>174</ele>
        <time>2012-02-26T08:18:18Z</time>
      </trkpt>
      <trkpt lat="44.38102" lon="0.65523">
        <ele>174</ele>
        <time>2012-02-26T08:18:19Z</time>
      </trkpt>
      <trkpt lat="44.38102" lon="0.65517">
        <ele>174</ele>
        <time>2012-02-26T08:18:20Z</time>
      </trkpt>
      <trkpt lat="44.38102" lon="0.65513">
        <ele>174</ele>
        <time>2012-02-26T08:18:21Z</time>
      </trkpt>
      <trkpt lat="44.38102" lon="0.65507">
        <ele>174</ele>
        <time>2012-02-26T08:18:22Z</time>
      </trkpt>
      <trkpt lat="44.38102" lon="0.65502">
        <ele>174</ele>
        <time>2012-02-26T08:18:23Z</time>
      </trkpt>
      <trkpt lat="44.38101" lon="0.65498">
        <ele>174</ele>
        <time>2012-02-26T08:18:24Z</time>
      </trkpt>
      <trkpt lat="44.381" lon="0.65494">
        <ele>174</ele>
        <time>2012-02-26T08:18:25Z</time>
      </trkpt>
      <trkpt lat="44.38098" lon="0.6549">
        <ele>174</ele>
        <time>2012-02-26T08:18:27Z</time>
      </trkpt>
      <trkpt lat="44.38096" lon="0.65486">
        <ele>174</ele>
        <time>2012-02-26T08:18:27Z</time>
      </trkpt>
      <trkpt lat="44.38093" lon="0.65483">
        <ele>174</ele>
        <time>2012-02-26T08:18:28Z</time>
      </trkpt>
      <trkpt lat="44.38091" lon="0.65481">
        <ele>174</ele>
        <time>2012-02-26T08:18:29Z</time>
      </trkpt>
      <trkpt lat="44.38087" lon="0.65479">
        <ele>174</ele>
        <time>2012-02-26T08:18:30Z</time>
      </trkpt>
      <trkpt lat="44.38084" lon="0.65478">
        <ele>174</ele>
        <time>2012-02-26T08:18:31Z</time>
      </trkpt>
      <trkpt lat="44.38081" lon="0.65478">
        <ele>174</ele>
        <time>2012-02-26T08:18:33Z</time>
      </trkpt>
      <trkpt lat="44.38077" lon="0.65477">
        <ele>175</ele>
        <time>2012-02-26T08:18:33Z</time>
      </trkpt>
      <trkpt lat="44.38074" lon="0.65478">
        <ele>175</ele>
        <time>2012-02-26T08:18:34Z</time>
      </trkpt>
      <trkpt lat="44.3807" lon="0.65478">
        <ele>175</ele>
        <time>2012-02-26T08:18:35Z</time>
      </trkpt>
      <trkpt lat="44.38066" lon="0.65479">
        <ele>175</ele>
        <time>2012-02-26T08:18:36Z</time>
      </trkpt>
      <trkpt lat="44.38062" lon="0.6548">
        <ele>175</ele>
        <time>2012-02-26T08:18:38Z</time>
      </trkpt>
      <trkpt lat="44.38059" lon="0.65482">
        <ele>175</ele>
        <time>2012-02-26T08:18:38Z</time>
      </trkpt>
      <trkpt lat="44.38055" lon="0.65483">
        <ele>175</ele>
        <time>2012-02-26T08:18:39Z</time>
      </trkpt>
      <trkpt lat="44.3805" lon="0.65486">
        <ele>175</ele>
        <time>2012-02-26T08:18:40Z</time>
      </trkpt>
      <trkpt lat="44.38046" lon="0.65488">
        <ele>175</ele>
        <time>2012-02-26T08:18:41Z</time>
      </trkpt>
      <trkpt lat="44.38042" lon="0.65489">
        <ele>175</ele>
        <time>2012-02-26T08:18:43Z</time>
      </trkpt>
      <trkpt lat="44.38038" lon="0.6549">
        <ele>175</ele>
        <time>2012-02-26T08:18:43Z</time>
      </trkpt>
      <trkpt lat="44.38033" lon="0.65491">
        <ele>175</ele>
        <time>2012-02-26T08:18:44Z</time>
      </trkpt>
      <trkpt lat="44.38029" lon="0.65491">
        <ele>175</ele>
        <time>2012-02-26T08:18:45Z</time>
      </trkpt>
      <trkpt lat="44.38025" lon="0.6549">
        <ele>175</ele>
        <time>2012-02-26T08:18:46Z</time>
      </trkpt>
      <trkpt lat="44.3802" lon="0.65489">
        <ele>175</ele>
        <time>2012-02-26T08:18:47Z</time>
      </trkpt>
      <trkpt lat="44.38016" lon="0.65488">
        <ele>175</ele>
        <time>2012-02-26T08:18:48Z</time>
      </trkpt>
      <trkpt lat="44.38012" lon="0.65487">
        <ele>175</ele>
        <time>2012-02-26T08:18:49Z</time>
      </trkpt>
      <trkpt lat="44.38008" lon="0.65485">
        <ele>175</ele>
        <time>2012-02-26T08:18:50Z</time>
      </trkpt>
      <trkpt lat="44.38005" lon="0.65484">
        <ele>175</ele>
        <time>2012-02-26T08:18:51Z</time>
      </trkpt>
      <trkpt lat="44.38" lon="0.65483">
        <ele>175</ele>
        <time>2012-02-26T08:18:52Z</time>
      </trkpt>
      <trkpt lat="44.37996" lon="0.65481">
        <ele>175</ele>
        <time>2012-02-26T08:18:53Z</time>
      </trkpt>
      <trkpt lat="44.37991" lon="0.6548">
        <ele>175</ele>
        <time>2012-02-26T08:18:54Z</time>
      </trkpt>
      <trkpt lat="44.37987" lon="0.65478">
        <ele>175</ele>
        <time>2012-02-26T08:18:55Z</time>
      </trkpt>
      <trkpt lat="44.37982" lon="0.65477">
        <ele>175</ele>
        <time>2012-02-26T08:18:56Z</time>
      </trkpt>
      <trkpt lat="44.37977" lon="0.65475">
        <ele>175</ele>
        <time>2012-02-26T08:18:57Z</time>
      </trkpt>
      <trkpt lat="44.37972" lon="0.65474">
        <ele>175</ele>
        <time>2012-02-26T08:18:59Z</time>
      </trkpt>
      <trkpt lat="44.37967" lon="0.65473">
        <ele>175</ele>
        <time>2012-02-26T08:18:59Z</time>
      </trkpt>
      <trkpt lat="44.37962" lon="0.65472">
        <ele>175</ele>
        <time>2012-02-26T08:19:00Z</time>
      </trkpt>
      <trkpt lat="44.37957" lon="0.6547">
        <ele>175</ele>
        <time>2012-02-26T08:19:01Z</time>
      </trkpt>
      <trkpt lat="44.37952" lon="0.65469">
        <ele>175</ele>
        <time>2012-02-26T08:19:02Z</time>
      </trkpt>
      <trkpt lat="44.37947" lon="0.65468">
        <ele>175</ele>
        <time>2012-02-26T08:19:03Z</time>
      </trkpt>
      <trkpt lat="44.37942" lon="0.65468">
        <ele>175</ele>
        <time>2012-02-26T08:19:05Z</time>
      </trkpt>
      <trkpt lat="44.37937" lon="0.65467">
        <ele>175</ele>
        <time>2012-02-26T08:19:05Z</time>
      </trkpt>
      <trkpt lat="44.37932" lon="0.65466">
        <ele>175</ele>
        <time>2012-02-26T08:19:06Z</time>
      </trkpt>
      <trkpt lat="44.37928" lon="0.65465">
        <ele>175</ele>
        <time>2012-02-26T08:19:07Z</time>
      </trkpt>
      <trkpt lat="44.37923" lon="0.65465">
        <ele>175</ele>
        <time>2012-02-26T08:19:08Z</time>
      </trkpt>
      <trkpt lat="44.37919" lon="0.65464">
        <ele>175</ele>
        <time>2012-02-26T08:19:09Z</time>
      </trkpt>
      <trkpt lat="44.37915" lon="0.65463">
        <ele>175</ele>
        <time>2012-02-26T08:19:10Z</time>
      </trkpt>
      <trkpt lat="44.3791" lon="0.65462">
        <ele>175</ele>
        <time>2012-02-26T08:19:11Z</time>
      </trkpt>
      <trkpt lat="44.37906" lon="0.65461">
        <ele>175</ele>
        <time>2012-02-26T08:19:12Z</time>
      </trkpt>
      <trkpt lat="44.37901" lon="0.6546">
        <ele>175</ele>
        <time>2012-02-26T08:19:13Z</time>
      </trkpt>
      <trkpt lat="44.37897" lon="0.65459">
        <ele>175</ele>
        <time>2012-02-26T08:19:14Z</time>
      </trkpt>
      <trkpt lat="44.37893" lon="0.65459">
        <ele>175</ele>
        <time>2012-02-26T08:19:16Z</time>
      </trkpt>
      <trkpt lat="44.37888" lon="0.65458">
        <ele>175</ele>
        <time>2012-02-26T08:19:16Z</time>
      </trkpt>
      <trkpt lat="44.37884" lon="0.65457">
        <ele>175</ele>
        <time>2012-02-26T08:19:17Z</time>
      </trkpt>
      <trkpt lat="44.3788" lon="0.65456">
        <ele>175</ele>
        <time>2012-02-26T08:19:18Z</time>
      </trkpt>
      <trkpt lat="44.37876" lon="0.65456">
        <ele>175</ele>
        <time>2012-02-26T08:19:19Z</time>
      </trkpt>
      <trkpt lat="44.37872" lon="0.65455">
        <ele>175</ele>
        <time>2012-02-26T08:19:21Z</time>
      </trkpt>
      <trkpt lat="44.37868" lon="0.65454">
        <ele>175</ele>
        <time>2012-02-26T08:19:21Z</time>
      </trkpt>
      <trkpt lat="44.37864" lon="0.65454">
        <ele>175</ele>
        <time>2012-02-26T08:19:22Z</time>
      </trkpt>
      <trkpt lat="44.3786" lon="0.65453">
        <ele>175</ele>
        <time>2012-02-26T08:19:23Z</time>
      </trkpt>
      <trkpt lat="44.37856" lon="0.65452">
        <ele>175</ele>
        <time>2012-02-26T08:19:24Z</time>
      </trkpt>
      <trkpt lat="44.37852" lon="0.65452">
        <ele>176</ele>
        <time>2012-02-26T08:19:26Z</time>
      </trkpt>
      <trkpt lat="44.37849" lon="0.65452">
        <ele>176</ele>
        <time>2012-02-26T08:19:26Z</time>
      </trkpt>
      <trkpt lat="44.37845" lon="0.65452">
        <ele>176</ele>
        <time>2012-02-26T08:19:27Z</time>
      </trkpt>
      <trkpt lat="44.37841" lon="0.65452">
        <ele>176</ele>
        <time>2012-02-26T08:19:28Z</time>
      </trkpt>
      <trkpt lat="44.37837" lon="0.65453">
        <ele>177</ele>
        <time>2012-02-26T08:19:29Z</time>
      </trkpt>
      <trkpt lat="44.37833" lon="0.65455">
        <ele>177</ele>
        <time>2012-02-26T08:19:30Z</time>
      </trkpt>
      <trkpt lat="44.3783" lon="0.65456">
        <ele>177</ele>
        <time>2012-02-26T08:19:31Z</time>
      </trkpt>
      <trkpt lat="44.37826" lon="0.65458">
        <ele>177</ele>
        <time>2012-02-26T08:19:32Z</time>
      </trkpt>
      <trkpt lat="44.37822" lon="0.6546">
        <ele>178</ele>
        <time>2012-02-26T08:19:33Z</time>
      </trkpt>
      <trkpt lat="44.3782" lon="0.65462">
        <ele>178</ele>
        <time>2012-02-26T08:19:34Z</time>
      </trkpt>
      <trkpt lat="44.37816" lon="0.65464">
        <ele>178</ele>
        <time>2012-02-26T08:19:35Z</time>
      </trkpt>
      <trkpt lat="44.37813" lon="0.65466">
        <ele>179</ele>
        <time>2012-02-26T08:19:36Z</time>
      </trkpt>
      <trkpt lat="44.37809" lon="0.65469">
        <ele>179</ele>
        <time>2012-02-26T08:19:37Z</time>
      </trkpt>
      <trkpt lat="44.37806" lon="0.65471">
        <ele>180</ele>
        <time>2012-02-26T08:19:38Z</time>
      </trkpt>
      <trkpt lat="44.37803" lon="0.65473">
        <ele>180</ele>
        <time>2012-02-26T08:19:39Z</time>
      </trkpt>
      <trkpt lat="44.37799" lon="0.65475">
        <ele>181</ele>
        <time>2012-02-26T08:19:40Z</time>
      </trkpt>
      <trkpt lat="44.37796" lon="0.65478">
        <ele>181</ele>
        <time>2012-02-26T08:19:41Z</time>
      </trkpt>
      <trkpt lat="44.37792" lon="0.6548">
        <ele>182</ele>
        <time>2012-02-26T08:19:42Z</time>
      </trkpt>
      <trkpt lat="44.37789" lon="0.65482">
        <ele>183</ele>
        <time>2012-02-26T08:19:43Z</time>
      </trkpt>
      <trkpt lat="44.37785" lon="0.65485">
        <ele>183</ele>
        <time>2012-02-26T08:19:44Z</time>
      </trkpt>
      <trkpt lat="44.37782" lon="0.65488">
        <ele>184</ele>
        <time>2012-02-26T08:19:45Z</time>
      </trkpt>
      <trkpt lat="44.37778" lon="0.6549">
        <ele>184</ele>
        <time>2012-02-26T08:19:47Z</time>
      </trkpt>
      <trkpt lat="44.37774" lon="0.65493">
        <ele>184</ele>
        <time>2012-02-26T08:19:47Z</time>
      </trkpt>
      <trkpt lat="44.37771" lon="0.65495">
        <ele>185</ele>
        <time>2012-02-26T08:19:48Z</time>
      </trkpt>
      <trkpt lat="44.37767" lon="0.65498">
        <ele>185</ele>
        <time>2012-02-26T08:19:49Z</time>
      </trkpt>
      <trkpt lat="44.37764" lon="0.655">
        <ele>185</ele>
        <time>2012-02-26T08:19:50Z</time>
      </trkpt>
      <trkpt lat="44.3776" lon="0.65502">
        <ele>186</ele>
        <time>2012-02-26T08:19:51Z</time>
      </trkpt>
      <trkpt lat="44.37757" lon="0.65504">
        <ele>186</ele>
        <time>2012-02-26T08:19:52Z</time>
      </trkpt>
      <trkpt lat="44.37753" lon="0.65507">
        <ele>186</ele>
        <time>2012-02-26T08:19:53Z</time>
      </trkpt>
      <trkpt lat="44.3775" lon="0.65509">
        <ele>187</ele>
        <time>2012-02-26T08:19:54Z</time>
      </trkpt>
      <trkpt lat="44.37746" lon="0.65512">
        <ele>187</ele>
        <time>2012-02-26T08:19:55Z</time>
      </trkpt>
      <trkpt lat="44.37743" lon="0.65515">
        <ele>187</ele>
        <time>2012-02-26T08:19:56Z</time>
      </trkpt>
      <trkpt lat="44.3774" lon="0.65517">
        <ele>187</ele>
        <time>2012-02-26T08:19:58Z</time>
      </trkpt>
      <trkpt lat="44.37736" lon="0.6552">
        <ele>187</ele>
        <time>2012-02-26T08:19:58Z</time>
      </trkpt>
      <trkpt lat="44.37733" lon="0.65523">
        <ele>188</ele>
        <time>2012-02-26T08:19:59Z</time>
      </trkpt>
      <trkpt lat="44.3773" lon="0.65526">
        <ele>188</ele>
        <time>2012-02-26T08:20:00Z</time>
      </trkpt>
      <trkpt lat="44.37727" lon="0.65529">
        <ele>188</ele>
        <time>2012-02-26T08:20:01Z</time>
      </trkpt>
      <trkpt lat="44.37725" lon="0.65534">
        <ele>188</ele>
        <time>2012-02-26T08:20:03Z</time>
      </trkpt>
      <trkpt lat="44.37723" lon="0.65539">
        <ele>188</ele>
        <time>2012-02-26T08:20:03Z</time>
      </trkpt>
      <trkpt lat="44.37722" lon="0.65544">
        <ele>188</ele>
        <time>2012-02-26T08:20:04Z</time>
      </trkpt>
      <trkpt lat="44.3772" lon="0.65549">
        <ele>188</ele>
        <time>2012-02-26T08:20:05Z</time>
      </trkpt>
      <trkpt lat="44.3772" lon="0.65554">
        <ele>188</ele>
        <time>2012-02-26T08:20:06Z</time>
      </trkpt>
      <trkpt lat="44.3772" lon="0.65559">
        <ele>188</ele>
        <time>2012-02-26T08:20:08Z</time>
      </trkpt>
      <trkpt lat="44.37721" lon="0.65565">
        <ele>188</ele>
        <time>2012-02-26T08:20:08Z</time>
      </trkpt>
      <trkpt lat="44.37721" lon="0.6557">
        <ele>188</ele>
        <time>2012-02-26T08:20:09Z</time>
      </trkpt>
      <trkpt lat="44.37721" lon="0.65576">
        <ele>188</ele>
        <time>2012-02-26T08:20:10Z</time>
      </trkpt>
      <trkpt lat="44.3772" lon="0.65582">
        <ele>188</ele>
        <time>2012-02-26T08:20:11Z</time>
      </trkpt>
      <trkpt lat="44.3772" lon="0.65587">
        <ele>188</ele>
        <time>2012-02-26T08:20:12Z</time>
      </trkpt>
      <trkpt lat="44.37719" lon="0.65593">
        <ele>188</ele>
        <time>2012-02-26T08:20:14Z</time>
      </trkpt>
      <trkpt lat="44.37718" lon="0.65599">
        <ele>188</ele>
        <time>2012-02-26T08:20:14Z</time>
      </trkpt>
      <trkpt lat="44.37716" lon="0.65605">
        <ele>188</ele>
        <time>2012-02-26T08:20:15Z</time>
      </trkpt>
      <trkpt lat="44.37714" lon="0.6561">
        <ele>188</ele>
        <time>2012-02-26T08:20:16Z</time>
      </trkpt>
      <trkpt lat="44.3771" lon="0.65615">
        <ele>188</ele>
        <time>2012-02-26T08:20:17Z</time>
      </trkpt>
      <trkpt lat="44.37707" lon="0.65619">
        <ele>188</ele>
        <time>2012-02-26T08:20:18Z</time>
      </trkpt>
      <trkpt lat="44.37703" lon="0.65623">
        <ele>188</ele>
        <time>2012-02-26T08:20:20Z</time>
      </trkpt>
      <trkpt lat="44.37699" lon="0.65627">
        <ele>188</ele>
        <time>2012-02-26T08:20:20Z</time>
      </trkpt>
      <trkpt lat="44.37695" lon="0.65629">
        <ele>188</ele>
        <time>2012-02-26T08:20:21Z</time>
      </trkpt>
      <trkpt lat="44.3769" lon="0.65631">
        <ele>188</ele>
        <time>2012-02-26T08:20:22Z</time>
      </trkpt>
      <trkpt lat="44.37685" lon="0.65633">
        <ele>188</ele>
        <time>2012-02-26T08:20:23Z</time>
      </trkpt>
      <trkpt lat="44.37681" lon="0.65635">
        <ele>188</ele>
        <time>2012-02-26T08:20:24Z</time>
      </trkpt>
      <trkpt lat="44.37676" lon="0.65637">
        <ele>188</ele>
        <time>2012-02-26T08:20:26Z</time>
      </trkpt>
      <trkpt lat="44.37672" lon="0.65639">
        <ele>188</ele>
        <time>2012-02-26T08:20:26Z</time>
      </trkpt>
      <trkpt lat="44.37668" lon="0.65641">
        <ele>188</ele>
        <time>2012-02-26T08:20:27Z</time>
      </trkpt>
      <trkpt lat="44.37664" lon="0.65644">
        <ele>188</ele>
        <time>2012-02-26T08:20:28Z</time>
      </trkpt>
      <trkpt lat="44.37659" lon="0.65645">
        <ele>188</ele>
        <time>2012-02-26T08:20:29Z</time>
      </trkpt>
      <trkpt lat="44.37655" lon="0.65648">
        <ele>188</ele>
        <time>2012-02-26T08:20:30Z</time>
      </trkpt>
      <trkpt lat="44.37651" lon="0.6565">
        <ele>188</ele>
        <time>2012-02-26T08:20:31Z</time>
      </trkpt>
      <trkpt lat="44.37647" lon="0.65652">
        <ele>188</ele>
        <time>2012-02-26T08:20:32Z</time>
      </trkpt>
      <trkpt lat="44.37643" lon="0.65655">
        <ele>188</ele>
        <time>2012-02-26T08:20:33Z</time>
      </trkpt>
      <trkpt lat="44.37639" lon="0.65658">
        <ele>188</ele>
        <time>2012-02-26T08:20:34Z</time>
      </trkpt>
      <trkpt lat="44.37635" lon="0.6566">
        <ele>188</ele>
        <time>2012-02-26T08:20:35Z</time>
      </trkpt>
      <trkpt lat="44.37631" lon="0.65663">
        <ele>188</ele>
        <time>2012-02-26T08:20:36Z</time>
      </trkpt>
      <trkpt lat="44.37627" lon="0.65666">
        <ele>188</ele>
        <time>2012-02-26T08:20:38Z</time>
      </trkpt>
      <trkpt lat="44.37624" lon="0.65669">
        <ele>188</ele>
        <time>2012-02-26T08:20:38Z</time>
      </trkpt>
      <trkpt lat="44.3762" lon="0.65672">
        <ele>188</ele>
        <time>2012-02-26T08:20:39Z</time>
      </trkpt>
      <trkpt lat="44.37616" lon="0.65675">
        <ele>188</ele>
        <time>2012-02-26T08:20:40Z</time>
      </trkpt>
      <trkpt lat="44.37613" lon="0.65678">
        <ele>189</ele>
        <time>2012-02-26T08:20:41Z</time>
      </trkpt>
      <trkpt lat="44.37608" lon="0.65681">
        <ele>189</ele>
        <time>2012-02-26T08:20:42Z</time>
      </trkpt>
      <trkpt lat="44.37605" lon="0.65684">
        <ele>189</ele>
        <time>2012-02-26T08:20:43Z</time>
      </trkpt>
      <trkpt lat="44.37601" lon="0.65688">
        <ele>190</ele>
        <time>2012-02-26T08:20:44Z</time>
      </trkpt>
      <trkpt lat="44.37598" lon="0.65691">
        <ele>190</ele>
        <time>2012-02-26T08:20:45Z</time>
      </trkpt>
      <trkpt lat="44.37595" lon="0.65695">
        <ele>190</ele>
        <time>2012-02-26T08:20:46Z</time>
      </trkpt>
      <trkpt lat="44.37591" lon="0.65699">
        <ele>190</ele>
        <time>2012-02-26T08:20:47Z</time>
      </trkpt>
      <trkpt lat="44.37587" lon="0.65702">
        <ele>191</ele>
        <time>2012-02-26T08:20:48Z</time>
      </trkpt>
      <trkpt lat="44.37583" lon="0.65706">
        <ele>191</ele>
        <time>2012-02-26T08:20:49Z</time>
      </trkpt>
      <trkpt lat="44.37579" lon="0.6571">
        <ele>191</ele>
        <time>2012-02-26T08:20:50Z</time>
      </trkpt>
      <trkpt lat="44.37575" lon="0.65713">
        <ele>191</ele>
        <time>2012-02-26T08:20:52Z</time>
      </trkpt>
      <trkpt lat="44.37572" lon="0.65717">
        <ele>192</ele>
        <time>2012-02-26T08:20:52Z</time>
      </trkpt>
      <trkpt lat="44.37568" lon="0.65721">
        <ele>192</ele>
        <time>2012-02-26T08:20:53Z</time>
      </trkpt>
      <trkpt lat="44.37564" lon="0.65725">
        <ele>192</ele>
        <time>2012-02-26T08:20:54Z</time>
      </trkpt>
      <trkpt lat="44.3756" lon="0.65728">
        <ele>192</ele>
        <time>2012-02-26T08:20:55Z</time>
      </trkpt>
      <trkpt lat="44.37556" lon="0.65733">
        <ele>192</ele>
        <time>2012-02-26T08:20:56Z</time>
      </trkpt>
      <trkpt lat="44.37552" lon="0.65737">
        <ele>193</ele>
        <time>2012-02-26T08:20:57Z</time>
      </trkpt>
      <trkpt lat="44.37548" lon="0.65741">
        <ele>193</ele>
        <time>2012-02-26T08:20:58Z</time>
      </trkpt>
      <trkpt lat="44.37545" lon="0.65745">
        <ele>193</ele>
        <time>2012-02-26T08:20:59Z</time>
      </trkpt>
      <trkpt lat="44.3754" lon="0.65749">
        <ele>193</ele>
        <time>2012-02-26T08:21:00Z</time>
      </trkpt>
      <trkpt lat="44.37536" lon="0.65753">
        <ele>193</ele>
        <time>2012-02-26T08:21:01Z</time>
      </trkpt>
      <trkpt lat="44.37532" lon="0.65757">
        <ele>193</ele>
        <time>2012-02-26T08:21:02Z</time>
      </trkpt>
      <trkpt lat="44.37527" lon="0.65761">
        <ele>193</ele>
        <time>2012-02-26T08:21:03Z</time>
      </trkpt>
      <trkpt lat="44.37523" lon="0.65765">
        <ele>193</ele>
        <time>2012-02-26T08:21:04Z</time>
      </trkpt>
      <trkpt lat="44.37519" lon="0.65769">
        <ele>193</ele>
        <time>2012-02-26T08:21:05Z</time>
      </trkpt>
      <trkpt lat="44.37514" lon="0.65773">
        <ele>193</ele>
        <time>2012-02-26T08:21:06Z</time>
      </trkpt>
      <trkpt lat="44.3751" lon="0.65777">
        <ele>193</ele>
        <time>2012-02-26T08:21:08Z</time>
      </trkpt>
      <trkpt lat="44.37505" lon="0.65782">
        <ele>193</ele>
        <time>2012-02-26T08:21:08Z</time>
      </trkpt>
      <trkpt lat="44.37501" lon="0.65786">
        <ele>193</ele>
        <time>2012-02-26T08:21:09Z</time>
      </trkpt>
      <trkpt lat="44.37496" lon="0.6579">
        <ele>193</ele>
        <time>2012-02-26T08:21:10Z</time>
      </trkpt>
      <trkpt lat="44.37492" lon="0.65794">
        <ele>193</ele>
        <time>2012-02-26T08:21:11Z</time>
      </trkpt>
      <trkpt lat="44.37487" lon="0.65798">
        <ele>193</ele>
        <time>2012-02-26T08:21:12Z</time>
      </trkpt>
      <trkpt lat="44.37482" lon="0.65802">
        <ele>193</ele>
        <time>2012-02-26T08:21:14Z</time>
      </trkpt>
      <trkpt lat="44.37477" lon="0.65806">
        <ele>193</ele>
        <time>2012-02-26T08:21:14Z</time>
      </trkpt>
      <trkpt lat="44.37473" lon="0.6581">
        <ele>193</ele>
        <time>2012-02-26T08:21:15Z</time>
      </trkpt>
      <trkpt lat="44.37468" lon="0.65814">
        <ele>193</ele>
        <time>2012-02-26T08:21:16Z</time>
      </trkpt>
      <trkpt lat="44.37463" lon="0.65818">
        <ele>193</ele>
        <time>2012-02-26T08:21:17Z</time>
      </trkpt>
      <trkpt lat="44.37458" lon="0.65822">
        <ele>193</ele>
        <time>2012-02-26T08:21:18Z</time>
      </trkpt>
      <trkpt lat="44.37454" lon="0.65827">
        <ele>193</ele>
        <time>2012-02-26T08:21:20Z</time>
      </trkpt>
      <trkpt lat="44.37449" lon="0.65831">
        <ele>193</ele>
        <time>2012-02-26T08:21:20Z</time>
      </trkpt>
      <trkpt lat="44.37444" lon="0.65835">
        <ele>193</ele>
        <time>2012-02-26T08:21:21Z</time>
      </trkpt>
      <trkpt lat="44.37439" lon="0.65839">
        <ele>193</ele>
        <time>2012-02-26T08:21:22Z</time>
      </trkpt>
      <trkpt lat="44.37435" lon="0.65843">
        <ele>193</ele>
        <time>2012-02-26T08:21:23Z</time>
      </trkpt>
      <trkpt lat="44.3743" lon="0.65847">
        <ele>193</ele>
        <time>2012-02-26T08:21:24Z</time>
      </trkpt>
      <trkpt lat="44.37425" lon="0.65851">
        <ele>193</ele>
        <time>2012-02-26T08:21:25Z</time>
      </trkpt>
      <trkpt lat="44.37421" lon="0.65854">
        <ele>193</ele>
        <time>2012-02-26T08:21:26Z</time>
      </trkpt>
      <trkpt lat="44.37416" lon="0.65858">
        <ele>193</ele>
        <time>2012-02-26T08:21:27Z</time>
      </trkpt>
      <trkpt lat="44.37411" lon="0.65862">
        <ele>193</ele>
        <time>2012-02-26T08:21:28Z</time>
      </trkpt>
      <trkpt lat="44.37407" lon="0.65866">
        <ele>193</ele>
        <time>2012-02-26T08:21:29Z</time>
      </trkpt>
      <trkpt lat="44.37402" lon="0.6587">
        <ele>193</ele>
        <time>2012-02-26T08:21:30Z</time>
      </trkpt>
      <trkpt lat="44.37397" lon="0.65873">
        <ele>193</ele>
        <time>2012-02-26T08:21:31Z</time>
      </trkpt>
      <trkpt lat="44.37393" lon="0.65877">
        <ele>193</ele>
        <time>2012-02-26T08:21:32Z</time>
      </trkpt>
      <trkpt lat="44.37388" lon="0.65881">
        <ele>193</ele>
        <time>2012-02-26T08:21:33Z</time>
      </trkpt>
      <trkpt lat="44.37383" lon="0.65884">
        <ele>193</ele>
        <time>2012-02-26T08:21:34Z</time>
      </trkpt>
      <trkpt lat="44.37379" lon="0.65888">
        <ele>193</ele>
        <time>2012-02-26T08:21:35Z</time>
      </trkpt>
      <trkpt lat="44.37374" lon="0.65891">
        <ele>193</ele>
        <time>2012-02-26T08:21:36Z</time>
      </trkpt>
      <trkpt lat="44.3737" lon="0.65895">
        <ele>193</ele>
        <time>2012-02-26T08:21:37Z</time>
      </trkpt>
      <trkpt lat="44.37366" lon="0.65898">
        <ele>193</ele>
        <time>2012-02-26T08:21:38Z</time>
      </trkpt>
      <trkpt lat="44.37362" lon="0.65901">
        <ele>193</ele>
        <time>2012-02-26T08:21:39Z</time>
      </trkpt>
      <trkpt lat="44.37357" lon="0.65904">
        <ele>193</ele>
        <time>2012-02-26T08:21:40Z</time>
      </trkpt>
      <trkpt lat="44.37353" lon="0.65907">
        <ele>193</ele>
        <time>2012-02-26T08:21:41Z</time>
      </trkpt>
      <trkpt lat="44.37349" lon="0.65911">
        <ele>193</ele>
        <time>2012-02-26T08:21:42Z</time>
      </trkpt>
      <trkpt lat="44.37344" lon="0.65913">
        <ele>193</ele>
        <time>2012-02-26T08:21:43Z</time>
      </trkpt>
      <trkpt lat="44.3734" lon="0.65917">
        <ele>193</ele>
        <time>2012-02-26T08:21:44Z</time>
      </trkpt>
      <trkpt lat="44.37336" lon="0.6592">
        <ele>193</ele>
        <time>2012-02-26T08:21:45Z</time>
      </trkpt>
      <trkpt lat="44.37331" lon="0.65924">
        <ele>193</ele>
        <time>2012-02-26T08:21:46Z</time>
      </trkpt>
      <trkpt lat="44.37327" lon="0.65927">
        <ele>193</ele>
        <time>2012-02-26T08:21:47Z</time>
      </trkpt>
      <trkpt lat="44.37322" lon="0.6593">
        <ele>193</ele>
        <time>2012-02-26T08:21:48Z</time>
      </trkpt>
      <trkpt lat="44.37318" lon="0.65934">
        <ele>193</ele>
        <time>2012-02-26T08:21:49Z</time>
      </trkpt>
      <trkpt lat="44.37313" lon="0.65937">
        <ele>193</ele>
        <time>2012-02-26T08:21:50Z</time>
      </trkpt>
      <trkpt lat="44.37309" lon="0.65941">
        <ele>193</ele>
        <time>2012-02-26T08:21:51Z</time>
      </trkpt>
      <trkpt lat="44.37305" lon="0.65944">
        <ele>193</ele>
        <time>2012-02-26T08:21:52Z</time>
      </trkpt>
      <trkpt lat="44.373" lon="0.65947">
        <ele>193</ele>
        <time>2012-02-26T08:21:53Z</time>
      </trkpt>
      <trkpt lat="44.37296" lon="0.65951">
        <ele>193</ele>
        <time>2012-02-26T08:21:54Z</time>
      </trkpt>
      <trkpt lat="44.37292" lon="0.65955">
        <ele>193</ele>
        <time>2012-02-26T08:21:56Z</time>
      </trkpt>
      <trkpt lat="44.37288" lon="0.65959">
        <ele>193</ele>
        <time>2012-02-26T08:21:56Z</time>
      </trkpt>
      <trkpt lat="44.37285" lon="0.65963">
        <ele>193</ele>
        <time>2012-02-26T08:21:57Z</time>
      </trkpt>
      <trkpt lat="44.37281" lon="0.65968">
        <ele>193</ele>
        <time>2012-02-26T08:21:58Z</time>
      </trkpt>
      <trkpt lat="44.37278" lon="0.65972">
        <ele>193</ele>
        <time>2012-02-26T08:21:59Z</time>
      </trkpt>
      <trkpt lat="44.37275" lon="0.65978">
        <ele>193</ele>
        <time>2012-02-26T08:22:01Z</time>
      </trkpt>
      <trkpt lat="44.37273" lon="0.65983">
        <ele>193</ele>
        <time>2012-02-26T08:22:01Z</time>
      </trkpt>
      <trkpt lat="44.3727" lon="0.65989">
        <ele>193</ele>
        <time>2012-02-26T08:22:02Z</time>
      </trkpt>
      <trkpt lat="44.37268" lon="0.65995">
        <ele>193</ele>
        <time>2012-02-26T08:22:03Z</time>
      </trkpt>
      <trkpt lat="44.37265" lon="0.66">
        <ele>193</ele>
        <time>2012-02-26T08:22:04Z</time>
      </trkpt>
      <trkpt lat="44.37264" lon="0.66006">
        <ele>193</ele>
        <time>2012-02-26T08:22:05Z</time>
      </trkpt>
      <trkpt lat="44.37262" lon="0.66012">
        <ele>193</ele>
        <time>2012-02-26T08:22:06Z</time>
      </trkpt>
      <trkpt lat="44.3726" lon="0.66018">
        <ele>193</ele>
        <time>2012-02-26T08:22:07Z</time>
      </trkpt>
      <trkpt lat="44.37259" lon="0.66024">
        <ele>193</ele>
        <time>2012-02-26T08:22:08Z</time>
      </trkpt>
      <trkpt lat="44.37257" lon="0.66031">
        <ele>193</ele>
        <time>2012-02-26T08:22:09Z</time>
      </trkpt>
      <trkpt lat="44.37255" lon="0.66037">
        <ele>193</ele>
        <time>2012-02-26T08:22:10Z</time>
      </trkpt>
      <trkpt lat="44.37254" lon="0.66044">
        <ele>193</ele>
        <time>2012-02-26T08:22:11Z</time>
      </trkpt>
      <trkpt lat="44.37252" lon="0.66051">
        <ele>193</ele>
        <time>2012-02-26T08:22:12Z</time>
      </trkpt>
      <trkpt lat="44.37249" lon="0.66058">
        <ele>193</ele>
        <time>2012-02-26T08:22:13Z</time>
      </trkpt>
      <trkpt lat="44.37247" lon="0.66065">
        <ele>193</ele>
        <time>2012-02-26T08:22:14Z</time>
      </trkpt>
      <trkpt lat="44.37246" lon="0.66072">
        <ele>193</ele>
        <time>2012-02-26T08:22:15Z</time>
      </trkpt>
      <trkpt lat="44.37244" lon="0.66079">
        <ele>193</ele>
        <time>2012-02-26T08:22:16Z</time>
      </trkpt>
      <trkpt lat="44.37241" lon="0.66086">
        <ele>193</ele>
        <time>2012-02-26T08:22:17Z</time>
      </trkpt>
      <trkpt lat="44.3724" lon="0.66093">
        <ele>193</ele>
        <time>2012-02-26T08:22:18Z</time>
      </trkpt>
      <trkpt lat="44.37238" lon="0.66101">
        <ele>193</ele>
        <time>2012-02-26T08:22:19Z</time>
      </trkpt>
      <trkpt lat="44.37236" lon="0.66107">
        <ele>193</ele>
        <time>2012-02-26T08:22:20Z</time>
      </trkpt>
      <trkpt lat="44.37234" lon="0.66114">
        <ele>193</ele>
        <time>2012-02-26T08:22:22Z</time>
      </trkpt>
      <trkpt lat="44.37232" lon="0.66122">
        <ele>193</ele>
        <time>2012-02-26T08:22:22Z</time>
      </trkpt>
      <trkpt lat="44.3723" lon="0.66128">
        <ele>193</ele>
        <time>2012-02-26T08:22:23Z</time>
      </trkpt>
      <trkpt lat="44.37228" lon="0.66135">
        <ele>193</ele>
        <time>2012-02-26T08:22:24Z</time>
      </trkpt>
      <trkpt lat="44.37225" lon="0.66142">
        <ele>193</ele>
        <time>2012-02-26T08:22:25Z</time>
      </trkpt>
      <trkpt lat="44.37223" lon="0.66149">
        <ele>193</ele>
        <time>2012-02-26T08:22:26Z</time>
      </trkpt>
      <trkpt lat="44.37221" lon="0.66156">
        <ele>193</ele>
        <time>2012-02-26T08:22:27Z</time>
      </trkpt>
      <trkpt lat="44.37218" lon="0.66163">
        <ele>193</ele>
        <time>2012-02-26T08:22:28Z</time>
      </trkpt>
      <trkpt lat="44.37215" lon="0.6617">
        <ele>193</ele>
        <time>2012-02-26T08:22:29Z</time>
      </trkpt>
      <trkpt lat="44.37213" lon="0.66177">
        <ele>193</ele>
        <time>2012-02-26T08:22:30Z</time>
      </trkpt>
      <trkpt lat="44.3721" lon="0.66184">
        <ele>193</ele>
        <time>2012-02-26T08:22:31Z</time>
      </trkpt>
      <trkpt lat="44.37207" lon="0.66191">
        <ele>193</ele>
        <time>2012-02-26T08:22:32Z</time>
      </trkpt>
      <trkpt lat="44.37203" lon="0.66198">
        <ele>193</ele>
        <time>2012-02-26T08:22:33Z</time>
      </trkpt>
      <trkpt lat="44.372" lon="0.66205">
        <ele>193</ele>
        <time>2012-02-26T08:22:34Z</time>
      </trkpt>
      <trkpt lat="44.37197" lon="0.66211">
        <ele>193</ele>
        <time>2012-02-26T08:22:35Z</time>
      </trkpt>
      <trkpt lat="44.37193" lon="0.66218">
        <ele>193</ele>
        <time>2012-02-26T08:22:36Z</time>
      </trkpt>
      <trkpt lat="44.37189" lon="0.66225">
        <ele>193</ele>
        <time>2012-02-26T08:22:37Z</time>
      </trkpt>
      <trkpt lat="44.37186" lon="0.66232">
        <ele>193</ele>
        <time>2012-02-26T08:22:38Z</time>
      </trkpt>
      <trkpt lat="44.37182" lon="0.66238">
        <ele>193</ele>
        <time>2012-02-26T08:22:39Z</time>
      </trkpt>
      <trkpt lat="44.37178" lon="0.66245">
        <ele>193</ele>
        <time>2012-02-26T08:22:40Z</time>
      </trkpt>
      <trkpt lat="44.37174" lon="0.66251">
        <ele>193</ele>
        <time>2012-02-26T08:22:41Z</time>
      </trkpt>
      <trkpt lat="44.3717" lon="0.66257">
        <ele>193</ele>
        <time>2012-02-26T08:22:42Z</time>
      </trkpt>
      <trkpt lat="44.37167" lon="0.66264">
        <ele>193</ele>
        <time>2012-02-26T08:22:43Z</time>
      </trkpt>
      <trkpt lat="44.37163" lon="0.6627">
        <ele>193</ele>
        <time>2012-02-26T08:22:44Z</time>
      </trkpt>
      <trkpt lat="44.3716" lon="0.66276">
        <ele>193</ele>
        <time>2012-02-26T08:22:45Z</time>
      </trkpt>
      <trkpt lat="44.37156" lon="0.66282">
        <ele>193</ele>
        <time>2012-02-26T08:22:46Z</time>
      </trkpt>
      <trkpt lat="44.37152" lon="0.66288">
        <ele>193</ele>
        <time>2012-02-26T08:22:47Z</time>
      </trkpt>
      <trkpt lat="44.37148" lon="0.66294">
        <ele>193</ele>
        <time>2012-02-26T08:22:48Z</time>
      </trkpt>
      <trkpt lat="44.37145" lon="0.663">
        <ele>193</ele>
        <time>2012-02-26T08:22:49Z</time>
      </trkpt>
      <trkpt lat="44.37141" lon="0.66307">
        <ele>192</ele>
        <time>2012-02-26T08:22:50Z</time>
      </trkpt>
      <trkpt lat="44.37137" lon="0.66313">
        <ele>192</ele>
        <time>2012-02-26T08:22:51Z</time>
      </trkpt>
      <trkpt lat="44.37133" lon="0.6632">
        <ele>192</ele>
        <time>2012-02-26T08:22:52Z</time>
      </trkpt>
      <trkpt lat="44.37129" lon="0.66326">
        <ele>192</ele>
        <time>2012-02-26T08:22:53Z</time>
      </trkpt>
      <trkpt lat="44.37125" lon="0.66333">
        <ele>192</ele>
        <time>2012-02-26T08:22:54Z</time>
      </trkpt>
      <trkpt lat="44.37121" lon="0.66339">
        <ele>192</ele>
        <time>2012-02-26T08:22:55Z</time>
      </trkpt>
      <trkpt lat="44.37117" lon="0.66345">
        <ele>192</ele>
        <time>2012-02-26T08:22:56Z</time>
      </trkpt>
      <trkpt lat="44.37113" lon="0.66352">
        <ele>192</ele>
        <time>2012-02-26T08:22:57Z</time>
      </trkpt>
      <trkpt lat="44.3711" lon="0.66358">
        <ele>192</ele>
        <time>2012-02-26T08:22:58Z</time>
      </trkpt>
      <trkpt lat="44.37106" lon="0.66365">
        <ele>192</ele>
        <time>2012-02-26T08:22:59Z</time>
      </trkpt>
      <trkpt lat="44.37102" lon="0.66371">
        <ele>192</ele>
        <time>2012-02-26T08:23:00Z</time>
      </trkpt>
      <trkpt lat="44.37099" lon="0.66377">
        <ele>192</ele>
        <time>2012-02-26T08:23:01Z</time>
      </trkpt>
      <trkpt lat="44.37095" lon="0.66383">
        <ele>192</ele>
        <time>2012-02-26T08:23:02Z</time>
      </trkpt>
      <trkpt lat="44.37091" lon="0.66388">
        <ele>192</ele>
        <time>2012-02-26T08:23:03Z</time>
      </trkpt>
      <trkpt lat="44.37086" lon="0.66392">
        <ele>192</ele>
        <time>2012-02-26T08:23:04Z</time>
      </trkpt>
      <trkpt lat="44.37081" lon="0.66395">
        <ele>192</ele>
        <time>2012-02-26T08:23:05Z</time>
      </trkpt>
      <trkpt lat="44.37075" lon="0.66396">
        <ele>192</ele>
        <time>2012-02-26T08:23:06Z</time>
      </trkpt>
      <trkpt lat="44.37068" lon="0.66397">
        <ele>192</ele>
        <time>2012-02-26T08:23:08Z</time>
      </trkpt>
      <trkpt lat="44.37061" lon="0.66398">
        <ele>192</ele>
        <time>2012-02-26T08:23:08Z</time>
      </trkpt>
      <trkpt lat="44.37054" lon="0.664">
        <ele>192</ele>
        <time>2012-02-26T08:23:09Z</time>
      </trkpt>
      <trkpt lat="44.37048" lon="0.66401">
        <ele>192</ele>
        <time>2012-02-26T08:23:10Z</time>
      </trkpt>
      <trkpt lat="44.3704" lon="0.66403">
        <ele>191</ele>
        <time>2012-02-26T08:23:11Z</time>
      </trkpt>
      <trkpt lat="44.37033" lon="0.66404">
        <ele>191</ele>
        <time>2012-02-26T08:23:12Z</time>
      </trkpt>
      <trkpt lat="44.37025" lon="0.66404">
        <ele>190</ele>
        <time>2012-02-26T08:23:14Z</time>
      </trkpt>
      <trkpt lat="44.37018" lon="0.66403">
        <ele>190</ele>
        <time>2012-02-26T08:23:14Z</time>
      </trkpt>
      <trkpt lat="44.37011" lon="0.66403">
        <ele>189</ele>
        <time>2012-02-26T08:23:15Z</time>
      </trkpt>
      <trkpt lat="44.37004" lon="0.66402">
        <ele>189</ele>
        <time>2012-02-26T08:23:16Z</time>
      </trkpt>
      <trkpt lat="44.36998" lon="0.66402">
        <ele>188</ele>
        <time>2012-02-26T08:23:17Z</time>
      </trkpt>
      <trkpt lat="44.36991" lon="0.66401">
        <ele>188</ele>
        <time>2012-02-26T08:23:18Z</time>
      </trkpt>
      <trkpt lat="44.36985" lon="0.66401">
        <ele>187</ele>
        <time>2012-02-26T08:23:19Z</time>
      </trkpt>
      <trkpt lat="44.36979" lon="0.66401">
        <ele>187</ele>
        <time>2012-02-26T08:23:20Z</time>
      </trkpt>
      <trkpt lat="44.36973" lon="0.66401">
        <ele>187</ele>
        <time>2012-02-26T08:23:21Z</time>
      </trkpt>
      <trkpt lat="44.36967" lon="0.66401">
        <ele>186</ele>
        <time>2012-02-26T08:23:22Z</time>
      </trkpt>
      <trkpt lat="44.36962" lon="0.66401">
        <ele>186</ele>
        <time>2012-02-26T08:23:23Z</time>
      </trkpt>
      <trkpt lat="44.36956" lon="0.66402">
        <ele>186</ele>
        <time>2012-02-26T08:23:24Z</time>
      </trkpt>
      <trkpt lat="44.36952" lon="0.66403">
        <ele>186</ele>
        <time>2012-02-26T08:23:25Z</time>
      </trkpt>
      <trkpt lat="44.36947" lon="0.66404">
        <ele>186</ele>
        <time>2012-02-26T08:23:26Z</time>
      </trkpt>
      <trkpt lat="44.36942" lon="0.66405">
        <ele>186</ele>
        <time>2012-02-26T08:23:27Z</time>
      </trkpt>
      <trkpt lat="44.36937" lon="0.66407">
        <ele>186</ele>
        <time>2012-02-26T08:23:28Z</time>
      </trkpt>
      <trkpt lat="44.36932" lon="0.66409">
        <ele>186</ele>
        <time>2012-02-26T08:23:29Z</time>
      </trkpt>
      <trkpt lat="44.36927" lon="0.6641">
        <ele>186</ele>
        <time>2012-02-26T08:23:30Z</time>
      </trkpt>
      <trkpt lat="44.36923" lon="0.66412">
        <ele>186</ele>
        <time>2012-02-26T08:23:31Z</time>
      </trkpt>
      <trkpt lat="44.36919" lon="0.66414">
        <ele>186</ele>
        <time>2012-02-26T08:23:32Z</time>
      </trkpt>
      <trkpt lat="44.36914" lon="0.66415">
        <ele>186</ele>
        <time>2012-02-26T08:23:33Z</time>
      </trkpt>
      <trkpt lat="44.36911" lon="0.66415">
        <ele>186</ele>
        <time>2012-02-26T08:23:34Z</time>
      </trkpt>
      <trkpt lat="44.36907" lon="0.66416">
        <ele>186</ele>
        <time>2012-02-26T08:23:35Z</time>
      </trkpt>
      <trkpt lat="44.36903" lon="0.66417">
        <ele>186</ele>
        <time>2012-02-26T08:23:36Z</time>
      </trkpt>
      <trkpt lat="44.36899" lon="0.66419">
        <ele>186</ele>
        <time>2012-02-26T08:23:37Z</time>
      </trkpt>
      <trkpt lat="44.36895" lon="0.6642">
        <ele>186</ele>
        <time>2012-02-26T08:23:38Z</time>
      </trkpt>
      <trkpt lat="44.3689" lon="0.66422">
        <ele>186</ele>
        <time>2012-02-26T08:23:39Z</time>
      </trkpt>
      <trkpt lat="44.36886" lon="0.66422">
        <ele>186</ele>
        <time>2012-02-26T08:23:40Z</time>
      </trkpt>
      <trkpt lat="44.36882" lon="0.66424">
        <ele>186</ele>
        <time>2012-02-26T08:23:41Z</time>
      </trkpt>
      <trkpt lat="44.36878" lon="0.66425">
        <ele>186</ele>
        <time>2012-02-26T08:23:42Z</time>
      </trkpt>
      <trkpt lat="44.36874" lon="0.66427">
        <ele>186</ele>
        <time>2012-02-26T08:23:43Z</time>
      </trkpt>
      <trkpt lat="44.36871" lon="0.66428">
        <ele>186</ele>
        <time>2012-02-26T08:23:44Z</time>
      </trkpt>
      <trkpt lat="44.36866" lon="0.6643">
        <ele>186</ele>
        <time>2012-02-26T08:23:45Z</time>
      </trkpt>
      <trkpt lat="44.36862" lon="0.66432">
        <ele>186</ele>
        <time>2012-02-26T08:23:46Z</time>
      </trkpt>
      <trkpt lat="44.36858" lon="0.66435">
        <ele>186</ele>
        <time>2012-02-26T08:23:47Z</time>
      </trkpt>
      <trkpt lat="44.36854" lon="0.66437">
        <ele>186</ele>
        <time>2012-02-26T08:23:48Z</time>
      </trkpt>
      <trkpt lat="44.3685" lon="0.66439">
        <ele>186</ele>
        <time>2012-02-26T08:23:49Z</time>
      </trkpt>
      <trkpt lat="44.36846" lon="0.66442">
        <ele>186</ele>
        <time>2012-02-26T08:23:50Z</time>
      </trkpt>
      <trkpt lat="44.36843" lon="0.66444">
        <ele>186</ele>
        <time>2012-02-26T08:23:51Z</time>
      </trkpt>
      <trkpt lat="44.3684" lon="0.66445">
        <ele>186</ele>
        <time>2012-02-26T08:23:52Z</time>
      </trkpt>
      <trkpt lat="44.36837" lon="0.66447">
        <ele>186</ele>
        <time>2012-02-26T08:23:53Z</time>
      </trkpt>
      <trkpt lat="44.36834" lon="0.66448">
        <ele>186</ele>
        <time>2012-02-26T08:23:54Z</time>
      </trkpt>
      <trkpt lat="44.36832" lon="0.66449">
        <ele>186</ele>
        <time>2012-02-26T08:23:55Z</time>
      </trkpt>
      <trkpt lat="44.3683" lon="0.66451">
        <ele>186</ele>
        <time>2012-02-26T08:23:56Z</time>
      </trkpt>
      <trkpt lat="44.36828" lon="0.66452">
        <ele>186</ele>
        <time>2012-02-26T08:23:57Z</time>
      </trkpt>
      <trkpt lat="44.36826" lon="0.66453">
        <ele>186</ele>
        <time>2012-02-26T08:23:58Z</time>
      </trkpt>
      <trkpt lat="44.36824" lon="0.66454">
        <ele>186</ele>
        <time>2012-02-26T08:23:59Z</time>
      </trkpt>
      <trkpt lat="44.36822" lon="0.66455">
        <ele>186</ele>
        <time>2012-02-26T08:24:00Z</time>
      </trkpt>
      <trkpt lat="44.3682" lon="0.66456">
        <ele>186</ele>
        <time>2012-02-26T08:24:01Z</time>
      </trkpt>
      <trkpt lat="44.36818" lon="0.66457">
        <ele>186</ele>
        <time>2012-02-26T08:24:02Z</time>
      </trkpt>
      <trkpt lat="44.36814" lon="0.6646">
        <ele>186</ele>
        <time>2012-02-26T08:24:03Z</time>
      </trkpt>
      <trkpt lat="44.36811" lon="0.66462">
        <ele>186</ele>
        <time>2012-02-26T08:24:04Z</time>
      </trkpt>
      <trkpt lat="44.36808" lon="0.66465">
        <ele>186</ele>
        <time>2012-02-26T08:24:05Z</time>
      </trkpt>
      <trkpt lat="44.36805" lon="0.66469">
        <ele>186</ele>
        <time>2012-02-26T08:24:06Z</time>
      </trkpt>
      <trkpt lat="44.36801" lon="0.66473">
        <ele>186</ele>
        <time>2012-02-26T08:24:07Z</time>
      </trkpt>
      <trkpt lat="44.36798" lon="0.66476">
        <ele>186</ele>
        <time>2012-02-26T08:24:08Z</time>
      </trkpt>
      <trkpt lat="44.36794" lon="0.66479">
        <ele>186</ele>
        <time>2012-02-26T08:24:09Z</time>
      </trkpt>
      <trkpt lat="44.36792" lon="0.66482">
        <ele>187</ele>
        <time>2012-02-26T08:24:10Z</time>
      </trkpt>
      <trkpt lat="44.36788" lon="0.66486">
        <ele>187</ele>
        <time>2012-02-26T08:24:11Z</time>
      </trkpt>
      <trkpt lat="44.36783" lon="0.66489">
        <ele>188</ele>
        <time>2012-02-26T08:24:12Z</time>
      </trkpt>
      <trkpt lat="44.36778" lon="0.66492">
        <ele>188</ele>
        <time>2012-02-26T08:24:13Z</time>
      </trkpt>
      <trkpt lat="44.36774" lon="0.66497">
        <ele>188</ele>
        <time>2012-02-26T08:24:14Z</time>
      </trkpt>
      <trkpt lat="44.36769" lon="0.66503">
        <ele>188</ele>
        <time>2012-02-26T08:24:15Z</time>
      </trkpt>
      <trkpt lat="44.36766" lon="0.66508">
        <ele>189</ele>
        <time>2012-02-26T08:24:16Z</time>
      </trkpt>
      <trkpt lat="44.36762" lon="0.66513">
        <ele>189</ele>
        <time>2012-02-26T08:24:17Z</time>
      </trkpt>
      <trkpt lat="44.36758" lon="0.66519">
        <ele>189</ele>
        <time>2012-02-26T08:24:18Z</time>
      </trkpt>
      <trkpt lat="44.36754" lon="0.66524">
        <ele>190</ele>
        <time>2012-02-26T08:24:19Z</time>
      </trkpt>
      <trkpt lat="44.3675" lon="0.6653">
        <ele>190</ele>
        <time>2012-02-26T08:24:20Z</time>
      </trkpt>
      <trkpt lat="44.36747" lon="0.66535">
        <ele>190</ele>
        <time>2012-02-26T08:24:21Z</time>
      </trkpt>
      <trkpt lat="44.36743" lon="0.6654">
        <ele>191</ele>
        <time>2012-02-26T08:24:22Z</time>
      </trkpt>
      <trkpt lat="44.3674" lon="0.66544">
        <ele>191</ele>
        <time>2012-02-26T08:24:23Z</time>
      </trkpt>
      <trkpt lat="44.36736" lon="0.66549">
        <ele>191</ele>
        <time>2012-02-26T08:24:24Z</time>
      </trkpt>
      <trkpt lat="44.36732" lon="0.66554">
        <ele>191</ele>
        <time>2012-02-26T08:24:25Z</time>
      </trkpt>
      <trkpt lat="44.36729" lon="0.66558">
        <ele>191</ele>
        <time>2012-02-26T08:24:26Z</time>
      </trkpt>
      <trkpt lat="44.36725" lon="0.66563">
        <ele>192</ele>
        <time>2012-02-26T08:24:27Z</time>
      </trkpt>
      <trkpt lat="44.36721" lon="0.66567">
        <ele>192</ele>
        <time>2012-02-26T08:24:28Z</time>
      </trkpt>
      <trkpt lat="44.36717" lon="0.66571">
        <ele>193</ele>
        <time>2012-02-26T08:24:29Z</time>
      </trkpt>
      <trkpt lat="44.36713" lon="0.66576">
        <ele>193</ele>
        <time>2012-02-26T08:24:30Z</time>
      </trkpt>
      <trkpt lat="44.3671" lon="0.6658">
        <ele>193</ele>
        <time>2012-02-26T08:24:31Z</time>
      </trkpt>
      <trkpt lat="44.36706" lon="0.66584">
        <ele>193</ele>
        <time>2012-02-26T08:24:32Z</time>
      </trkpt>
      <trkpt lat="44.36702" lon="0.66589">
        <ele>193</ele>
        <time>2012-02-26T08:24:33Z</time>
      </trkpt>
      <trkpt lat="44.36698" lon="0.66593">
        <ele>193</ele>
        <time>2012-02-26T08:24:34Z</time>
      </trkpt>
      <trkpt lat="44.36694" lon="0.66598">
        <ele>193</ele>
        <time>2012-02-26T08:24:35Z</time>
      </trkpt>
      <trkpt lat="44.3669" lon="0.66603">
        <ele>193</ele>
        <time>2012-02-26T08:24:36Z</time>
      </trkpt>
      <trkpt lat="44.36686" lon="0.66608">
        <ele>193</ele>
        <time>2012-02-26T08:24:37Z</time>
      </trkpt>
      <trkpt lat="44.36682" lon="0.66614">
        <ele>193</ele>
        <time>2012-02-26T08:24:38Z</time>
      </trkpt>
      <trkpt lat="44.36678" lon="0.6662">
        <ele>193</ele>
        <time>2012-02-26T08:24:39Z</time>
      </trkpt>
      <trkpt lat="44.36673" lon="0.66625">
        <ele>193</ele>
        <time>2012-02-26T08:24:40Z</time>
      </trkpt>
      <trkpt lat="44.3667" lon="0.66632">
        <ele>193</ele>
        <time>2012-02-26T08:24:41Z</time>
      </trkpt>
      <trkpt lat="44.36666" lon="0.66638">
        <ele>193</ele>
        <time>2012-02-26T08:24:42Z</time>
      </trkpt>
      <trkpt lat="44.36662" lon="0.66644">
        <ele>193</ele>
        <time>2012-02-26T08:24:43Z</time>
      </trkpt>
      <trkpt lat="44.36659" lon="0.66651">
        <ele>193</ele>
        <time>2012-02-26T08:24:44Z</time>
      </trkpt>
      <trkpt lat="44.36655" lon="0.66658">
        <ele>193</ele>
        <time>2012-02-26T08:24:45Z</time>
      </trkpt>
      <trkpt lat="44.36651" lon="0.66665">
        <ele>193</ele>
        <time>2012-02-26T08:24:46Z</time>
      </trkpt>
      <trkpt lat="44.36648" lon="0.66672">
        <ele>193</ele>
        <time>2012-02-26T08:24:47Z</time>
      </trkpt>
      <trkpt lat="44.36644" lon="0.6668">
        <ele>193</ele>
        <time>2012-02-26T08:24:48Z</time>
      </trkpt>
      <trkpt lat="44.3664" lon="0.66687">
        <ele>193</ele>
        <time>2012-02-26T08:24:49Z</time>
      </trkpt>
      <trkpt lat="44.36637" lon="0.66694">
        <ele>193</ele>
        <time>2012-02-26T08:24:50Z</time>
      </trkpt>
      <trkpt lat="44.36633" lon="0.66701">
        <ele>193</ele>
        <time>2012-02-26T08:24:51Z</time>
      </trkpt>
      <trkpt lat="44.36629" lon="0.66708">
        <ele>193</ele>
        <time>2012-02-26T08:24:52Z</time>
      </trkpt>
      <trkpt lat="44.36625" lon="0.66715">
        <ele>193</ele>
        <time>2012-02-26T08:24:53Z</time>
      </trkpt>
      <trkpt lat="44.3662" lon="0.66721">
        <ele>193</ele>
        <time>2012-02-26T08:24:54Z</time>
      </trkpt>
      <trkpt lat="44.36615" lon="0.66725">
        <ele>193</ele>
        <time>2012-02-26T08:24:55Z</time>
      </trkpt>
      <trkpt lat="44.36609" lon="0.66727">
        <ele>193</ele>
        <time>2012-02-26T08:24:56Z</time>
      </trkpt>
      <trkpt lat="44.36603" lon="0.66727">
        <ele>193</ele>
        <time>2012-02-26T08:24:57Z</time>
      </trkpt>
      <trkpt lat="44.36597" lon="0.66727">
        <ele>193</ele>
        <time>2012-02-26T08:24:58Z</time>
      </trkpt>
      <trkpt lat="44.36591" lon="0.66727">
        <ele>193</ele>
        <time>2012-02-26T08:24:59Z</time>
      </trkpt>
      <trkpt lat="44.36584" lon="0.66726">
        <ele>193</ele>
        <time>2012-02-26T08:25:00Z</time>
      </trkpt>
      <trkpt lat="44.36578" lon="0.66726">
        <ele>193</ele>
        <time>2012-02-26T08:25:01Z</time>
      </trkpt>
      <trkpt lat="44.36571" lon="0.66725">
        <ele>193</ele>
        <time>2012-02-26T08:25:02Z</time>
      </trkpt>
      <trkpt lat="44.36565" lon="0.66724">
        <ele>193</ele>
        <time>2012-02-26T08:25:03Z</time>
      </trkpt>
      <trkpt lat="44.36559" lon="0.66724">
        <ele>193</ele>
        <time>2012-02-26T08:25:04Z</time>
      </trkpt>
      <trkpt lat="44.36553" lon="0.66724">
        <ele>193</ele>
        <time>2012-02-26T08:25:05Z</time>
      </trkpt>
      <trkpt lat="44.36548" lon="0.66725">
        <ele>193</ele>
        <time>2012-02-26T08:25:06Z</time>
      </trkpt>
      <trkpt lat="44.36542" lon="0.66726">
        <ele>193</ele>
        <time>2012-02-26T08:25:07Z</time>
      </trkpt>
      <trkpt lat="44.36536" lon="0.66728">
        <ele>193</ele>
        <time>2012-02-26T08:25:08Z</time>
      </trkpt>
      <trkpt lat="44.36531" lon="0.66729">
        <ele>193</ele>
        <time>2012-02-26T08:25:09Z</time>
      </trkpt>
      <trkpt lat="44.36525" lon="0.66731">
        <ele>193</ele>
        <time>2012-02-26T08:25:10Z</time>
      </trkpt>
      <trkpt lat="44.3652" lon="0.66733">
        <ele>193</ele>
        <time>2012-02-26T08:25:11Z</time>
      </trkpt>
      <trkpt lat="44.36515" lon="0.66734">
        <ele>193</ele>
        <time>2012-02-26T08:25:12Z</time>
      </trkpt>
      <trkpt lat="44.36509" lon="0.66736">
        <ele>193</ele>
        <time>2012-02-26T08:25:13Z</time>
      </trkpt>
      <trkpt lat="44.36504" lon="0.66738">
        <ele>193</ele>
        <time>2012-02-26T08:25:14Z</time>
      </trkpt>
      <trkpt lat="44.36499" lon="0.66739">
        <ele>193</ele>
        <time>2012-02-26T08:25:15Z</time>
      </trkpt>
      <trkpt lat="44.36493" lon="0.66741">
        <ele>193</ele>
        <time>2012-02-26T08:25:16Z</time>
      </trkpt>
      <trkpt lat="44.36488" lon="0.66742">
        <ele>193</ele>
        <time>2012-02-26T08:25:17Z</time>
      </trkpt>
      <trkpt lat="44.36483" lon="0.66744">
        <ele>193</ele>
        <time>2012-02-26T08:25:18Z</time>
      </trkpt>
      <trkpt lat="44.36478" lon="0.66746">
        <ele>193</ele>
        <time>2012-02-26T08:25:19Z</time>
      </trkpt>
      <trkpt lat="44.36472" lon="0.66747">
        <ele>193</ele>
        <time>2012-02-26T08:25:20Z</time>
      </trkpt>
      <trkpt lat="44.36467" lon="0.66749">
        <ele>193</ele>
        <time>2012-02-26T08:25:21Z</time>
      </trkpt>
      <trkpt lat="44.36462" lon="0.66751">
        <ele>193</ele>
        <time>2012-02-26T08:25:22Z</time>
      </trkpt>
      <trkpt lat="44.36457" lon="0.66752">
        <ele>193</ele>
        <time>2012-02-26T08:25:23Z</time>
      </trkpt>
      <trkpt lat="44.36452" lon="0.66755">
        <ele>193</ele>
        <time>2012-02-26T08:25:24Z</time>
      </trkpt>
      <trkpt lat="44.36447" lon="0.66756">
        <ele>193</ele>
        <time>2012-02-26T08:25:25Z</time>
      </trkpt>
      <trkpt lat="44.36441" lon="0.66758">
        <ele>194</ele>
        <time>2012-02-26T08:25:26Z</time>
      </trkpt>
      <trkpt lat="44.36437" lon="0.66759">
        <ele>194</ele>
        <time>2012-02-26T08:25:27Z</time>
      </trkpt>
      <trkpt lat="44.36432" lon="0.6676">
        <ele>194</ele>
        <time>2012-02-26T08:25:28Z</time>
      </trkpt>
      <trkpt lat="44.36427" lon="0.66762">
        <ele>195</ele>
        <time>2012-02-26T08:25:29Z</time>
      </trkpt>
      <trkpt lat="44.36423" lon="0.66763">
        <ele>195</ele>
        <time>2012-02-26T08:25:30Z</time>
      </trkpt>
      <trkpt lat="44.36419" lon="0.66764">
        <ele>196</ele>
        <time>2012-02-26T08:25:31Z</time>
      </trkpt>
      <trkpt lat="44.36414" lon="0.66764">
        <ele>196</ele>
        <time>2012-02-26T08:25:32Z</time>
      </trkpt>
      <trkpt lat="44.3641" lon="0.66765">
        <ele>197</ele>
        <time>2012-02-26T08:25:33Z</time>
      </trkpt>
      <trkpt lat="44.36406" lon="0.66767">
        <ele>197</ele>
        <time>2012-02-26T08:25:34Z</time>
      </trkpt>
      <trkpt lat="44.36402" lon="0.66767">
        <ele>198</ele>
        <time>2012-02-26T08:25:35Z</time>
      </trkpt>
      <trkpt lat="44.36398" lon="0.66768">
        <ele>198</ele>
        <time>2012-02-26T08:25:36Z</time>
      </trkpt>
      <trkpt lat="44.36393" lon="0.66768">
        <ele>198</ele>
        <time>2012-02-26T08:25:37Z</time>
      </trkpt>
      <trkpt lat="44.36388" lon="0.66768">
        <ele>198</ele>
        <time>2012-02-26T08:25:38Z</time>
      </trkpt>
      <trkpt lat="44.36383" lon="0.66768">
        <ele>198</ele>
        <time>2012-02-26T08:25:39Z</time>
      </trkpt>
      <trkpt lat="44.36378" lon="0.66767">
        <ele>198</ele>
        <time>2012-02-26T08:25:40Z</time>
      </trkpt>
      <trkpt lat="44.36374" lon="0.66765">
        <ele>198</ele>
        <time>2012-02-26T08:25:41Z</time>
      </trkpt>
      <trkpt lat="44.36369" lon="0.66763">
        <ele>198</ele>
        <time>2012-02-26T08:25:42Z</time>
      </trkpt>
      <trkpt lat="44.36365" lon="0.6676">
        <ele>198</ele>
        <time>2012-02-26T08:25:43Z</time>
      </trkpt>
      <trkpt lat="44.36361" lon="0.66756">
        <ele>198</ele>
        <time>2012-02-26T08:25:44Z</time>
      </trkpt>
      <trkpt lat="44.36356" lon="0.66753">
        <ele>198</ele>
        <time>2012-02-26T08:25:45Z</time>
      </trkpt>
      <trkpt lat="44.36353" lon="0.66749">
        <ele>198</ele>
        <time>2012-02-26T08:25:46Z</time>
      </trkpt>
      <trkpt lat="44.36349" lon="0.66745">
        <ele>198</ele>
        <time>2012-02-26T08:25:47Z</time>
      </trkpt>
      <trkpt lat="44.36345" lon="0.6674">
        <ele>198</ele>
        <time>2012-02-26T08:25:48Z</time>
      </trkpt>
      <trkpt lat="44.36342" lon="0.66736">
        <ele>198</ele>
        <time>2012-02-26T08:25:49Z</time>
      </trkpt>
      <trkpt lat="44.36339" lon="0.66731">
        <ele>198</ele>
        <time>2012-02-26T08:25:50Z</time>
      </trkpt>
      <trkpt lat="44.36335" lon="0.66726">
        <ele>198</ele>
        <time>2012-02-26T08:25:51Z</time>
      </trkpt>
      <trkpt lat="44.36332" lon="0.66721">
        <ele>198</ele>
        <time>2012-02-26T08:25:52Z</time>
      </trkpt>
      <trkpt lat="44.36329" lon="0.66716">
        <ele>198</ele>
        <time>2012-02-26T08:25:53Z</time>
      </trkpt>
      <trkpt lat="44.36326" lon="0.66711">
        <ele>198</ele>
        <time>2012-02-26T08:25:54Z</time>
      </trkpt>
      <trkpt lat="44.36323" lon="0.66706">
        <ele>198</ele>
        <time>2012-02-26T08:25:55Z</time>
      </trkpt>
      <trkpt lat="44.3632" lon="0.66701">
        <ele>198</ele>
        <time>2012-02-26T08:25:56Z</time>
      </trkpt>
      <trkpt lat="44.36317" lon="0.66696">
        <ele>198</ele>
        <time>2012-02-26T08:25:57Z</time>
      </trkpt>
      <trkpt lat="44.36314" lon="0.66691">
        <ele>198</ele>
        <time>2012-02-26T08:25:58Z</time>
      </trkpt>
      <trkpt lat="44.36311" lon="0.66685">
        <ele>198</ele>
        <time>2012-02-26T08:25:59Z</time>
      </trkpt>
      <trkpt lat="44.36308" lon="0.6668">
        <ele>198</ele>
        <time>2012-02-26T08:26:00Z</time>
      </trkpt>
      <trkpt lat="44.36305" lon="0.66675">
        <ele>198</ele>
        <time>2012-02-26T08:26:01Z</time>
      </trkpt>
      <trkpt lat="44.36302" lon="0.6667">
        <ele>198</ele>
        <time>2012-02-26T08:26:02Z</time>
      </trkpt>
      <trkpt lat="44.36299" lon="0.66664">
        <ele>198</ele>
        <time>2012-02-26T08:26:03Z</time>
      </trkpt>
      <trkpt lat="44.36296" lon="0.66659">
        <ele>198</ele>
        <time>2012-02-26T08:26:04Z</time>
      </trkpt>
      <trkpt lat="44.36292" lon="0.66654">
        <ele>198</ele>
        <time>2012-02-26T08:26:05Z</time>
      </trkpt>
      <trkpt lat="44.36289" lon="0.66648">
        <ele>198</ele>
        <time>2012-02-26T08:26:06Z</time>
      </trkpt>
      <trkpt lat="44.36286" lon="0.66642">
        <ele>198</ele>
        <time>2012-02-26T08:26:07Z</time>
      </trkpt>
      <trkpt lat="44.36282" lon="0.66636">
        <ele>198</ele>
        <time>2012-02-26T08:26:08Z</time>
      </trkpt>
      <trkpt lat="44.36279" lon="0.6663">
        <ele>198</ele>
        <time>2012-02-26T08:26:09Z</time>
      </trkpt>
      <trkpt lat="44.36276" lon="0.66624">
        <ele>197</ele>
        <time>2012-02-26T08:26:10Z</time>
      </trkpt>
      <trkpt lat="44.36272" lon="0.66617">
        <ele>197</ele>
        <time>2012-02-26T08:26:11Z</time>
      </trkpt>
      <trkpt lat="44.36269" lon="0.66611">
        <ele>197</ele>
        <time>2012-02-26T08:26:12Z</time>
      </trkpt>
      <trkpt lat="44.36265" lon="0.66604">
        <ele>196</ele>
        <time>2012-02-26T08:26:13Z</time>
      </trkpt>
      <trkpt lat="44.36261" lon="0.66598">
        <ele>196</ele>
        <time>2012-02-26T08:26:14Z</time>
      </trkpt>
      <trkpt lat="44.36257" lon="0.66591">
        <ele>196</ele>
        <time>2012-02-26T08:26:15Z</time>
      </trkpt>
      <trkpt lat="44.36253" lon="0.66585">
        <ele>196</ele>
        <time>2012-02-26T08:26:16Z</time>
      </trkpt>
      <trkpt lat="44.36248" lon="0.66579">
        <ele>196</ele>
        <time>2012-02-26T08:26:17Z</time>
      </trkpt>
      <trkpt lat="44.36244" lon="0.66574">
        <ele>195</ele>
        <time>2012-02-26T08:26:18Z</time>
      </trkpt>
      <trkpt lat="44.36239" lon="0.66566">
        <ele>195</ele>
        <time>2012-02-26T08:26:19Z</time>
      </trkpt>
      <trkpt lat="44.36234" lon="0.66559">
        <ele>195</ele>
        <time>2012-02-26T08:26:20Z</time>
      </trkpt>
      <trkpt lat="44.36229" lon="0.66551">
        <ele>195</ele>
        <time>2012-02-26T08:26:21Z</time>
      </trkpt>
      <trkpt lat="44.36223" lon="0.66543">
        <ele>195</ele>
        <time>2012-02-26T08:26:22Z</time>
      </trkpt>
      <trkpt lat="44.36217" lon="0.66535">
        <ele>195</ele>
        <time>2012-02-26T08:26:23Z</time>
      </trkpt>
      <trkpt lat="44.3621" lon="0.66527">
        <ele>195</ele>
        <time>2012-02-26T08:26:24Z</time>
      </trkpt>
      <trkpt lat="44.36204" lon="0.6652">
        <ele>194</ele>
        <time>2012-02-26T08:26:25Z</time>
      </trkpt>
      <trkpt lat="44.36198" lon="0.66513">
        <ele>194</ele>
        <time>2012-02-26T08:26:26Z</time>
      </trkpt>
      <trkpt lat="44.36191" lon="0.66506">
        <ele>194</ele>
        <time>2012-02-26T08:26:27Z</time>
      </trkpt>
      <trkpt lat="44.36184" lon="0.66499">
        <ele>194</ele>
        <time>2012-02-26T08:26:28Z</time>
      </trkpt>
      <trkpt lat="44.36178" lon="0.66491">
        <ele>193</ele>
        <time>2012-02-26T08:26:29Z</time>
      </trkpt>
      <trkpt lat="44.3617" lon="0.66483">
        <ele>193</ele>
        <time>2012-02-26T08:26:30Z</time>
      </trkpt>
      <trkpt lat="44.36163" lon="0.66477">
        <ele>193</ele>
        <time>2012-02-26T08:26:31Z</time>
      </trkpt>
      <trkpt lat="44.36155" lon="0.66472">
        <ele>193</ele>
        <time>2012-02-26T08:26:32Z</time>
      </trkpt>
      <trkpt lat="44.36147" lon="0.66469">
        <ele>193</ele>
        <time>2012-02-26T08:26:33Z</time>
      </trkpt>
      <trkpt lat="44.36139" lon="0.66467">
        <ele>193</ele>
        <time>2012-02-26T08:26:34Z</time>
      </trkpt>
      <trkpt lat="44.3613" lon="0.66466">
        <ele>193</ele>
        <time>2012-02-26T08:26:35Z</time>
      </trkpt>
      <trkpt lat="44.36122" lon="0.66465">
        <ele>192</ele>
        <time>2012-02-26T08:26:36Z</time>
      </trkpt>
      <trkpt lat="44.36113" lon="0.66462">
        <ele>192</ele>
        <time>2012-02-26T08:26:37Z</time>
      </trkpt>
      <trkpt lat="44.36105" lon="0.66459">
        <ele>192</ele>
        <time>2012-02-26T08:26:38Z</time>
      </trkpt>
      <trkpt lat="44.36097" lon="0.66454">
        <ele>191</ele>
        <time>2012-02-26T08:26:39Z</time>
      </trkpt>
      <trkpt lat="44.36089" lon="0.66449">
        <ele>191</ele>
        <time>2012-02-26T08:26:40Z</time>
      </trkpt>
      <trkpt lat="44.36082" lon="0.66444">
        <ele>190</ele>
        <time>2012-02-26T08:26:41Z</time>
      </trkpt>
      <trkpt lat="44.36074" lon="0.66439">
        <ele>190</ele>
        <time>2012-02-26T08:26:42Z</time>
      </trkpt>
      <trkpt lat="44.36066" lon="0.66434">
        <ele>189</ele>
        <time>2012-02-26T08:26:43Z</time>
      </trkpt>
      <trkpt lat="44.36058" lon="0.66429">
        <ele>188</ele>
        <time>2012-02-26T08:26:44Z</time>
      </trkpt>
      <trkpt lat="44.3605" lon="0.66425">
        <ele>188</ele>
        <time>2012-02-26T08:26:45Z</time>
      </trkpt>
      <trkpt lat="44.36043" lon="0.66421">
        <ele>187</ele>
        <time>2012-02-26T08:26:46Z</time>
      </trkpt>
      <trkpt lat="44.36035" lon="0.66417">
        <ele>187</ele>
        <time>2012-02-26T08:26:47Z</time>
      </trkpt>
      <trkpt lat="44.36027" lon="0.66412">
        <ele>186</ele>
        <time>2012-02-26T08:26:48Z</time>
      </trkpt>
      <trkpt lat="44.3602" lon="0.66408">
        <ele>186</ele>
        <time>2012-02-26T08:26:49Z</time>
      </trkpt>
      <trkpt lat="44.36014" lon="0.66402">
        <ele>185</ele>
        <time>2012-02-26T08:26:50Z</time>
      </trkpt>
      <trkpt lat="44.36009" lon="0.66395">
        <ele>185</ele>
        <time>2012-02-26T08:26:51Z</time>
      </trkpt>
      <trkpt lat="44.36007" lon="0.66387">
        <ele>184</ele>
        <time>2012-02-26T08:26:52Z</time>
      </trkpt>
      <trkpt lat="44.36005" lon="0.66377">
        <ele>184</ele>
        <time>2012-02-26T08:26:53Z</time>
      </trkpt>
      <trkpt lat="44.36005" lon="0.66367">
        <ele>183</ele>
        <time>2012-02-26T08:26:54Z</time>
      </trkpt>
      <trkpt lat="44.36005" lon="0.66357">
        <ele>183</ele>
        <time>2012-02-26T08:26:55Z</time>
      </trkpt>
      <trkpt lat="44.36005" lon="0.66347">
        <ele>183</ele>
        <time>2012-02-26T08:26:56Z</time>
      </trkpt>
      <trkpt lat="44.36005" lon="0.66338">
        <ele>183</ele>
        <time>2012-02-26T08:26:57Z</time>
      </trkpt>
      <trkpt lat="44.36006" lon="0.66328">
        <ele>183</ele>
        <time>2012-02-26T08:26:58Z</time>
      </trkpt>
      <trkpt lat="44.36006" lon="0.66319">
        <ele>183</ele>
        <time>2012-02-26T08:26:59Z</time>
      </trkpt>
      <trkpt lat="44.36007" lon="0.6631">
        <ele>183</ele>
        <time>2012-02-26T08:27:00Z</time>
      </trkpt>
      <trkpt lat="44.36007" lon="0.66302">
        <ele>183</ele>
        <time>2012-02-26T08:27:01Z</time>
      </trkpt>
      <trkpt lat="44.36006" lon="0.66293">
        <ele>183</ele>
        <time>2012-02-26T08:27:02Z</time>
      </trkpt>
      <trkpt lat="44.36006" lon="0.66285">
        <ele>183</ele>
        <time>2012-02-26T08:27:03Z</time>
      </trkpt>
      <trkpt lat="44.36006" lon="0.66277">
        <ele>183</ele>
        <time>2012-02-26T08:27:04Z</time>
      </trkpt>
      <trkpt lat="44.36005" lon="0.6627">
        <ele>183</ele>
        <time>2012-02-26T08:27:05Z</time>
      </trkpt>
      <trkpt lat="44.36005" lon="0.66262">
        <ele>183</ele>
        <time>2012-02-26T08:27:06Z</time>
      </trkpt>
      <trkpt lat="44.36005" lon="0.66255">
        <ele>183</ele>
        <time>2012-02-26T08:27:07Z</time>
      </trkpt>
      <trkpt lat="44.36004" lon="0.66247">
        <ele>183</ele>
        <time>2012-02-26T08:27:08Z</time>
      </trkpt>
      <trkpt lat="44.36004" lon="0.6624">
        <ele>183</ele>
        <time>2012-02-26T08:27:09Z</time>
      </trkpt>
      <trkpt lat="44.36004" lon="0.66232">
        <ele>183</ele>
        <time>2012-02-26T08:27:10Z</time>
      </trkpt>
      <trkpt lat="44.36003" lon="0.66224">
        <ele>183</ele>
        <time>2012-02-26T08:27:11Z</time>
      </trkpt>
      <trkpt lat="44.36002" lon="0.66217">
        <ele>183</ele>
        <time>2012-02-26T08:27:12Z</time>
      </trkpt>
      <trkpt lat="44.36001" lon="0.66209">
        <ele>183</ele>
        <time>2012-02-26T08:27:13Z</time>
      </trkpt>
      <trkpt lat="44.36" lon="0.66202">
        <ele>183</ele>
        <time>2012-02-26T08:27:14Z</time>
      </trkpt>
      <trkpt lat="44.36" lon="0.66194">
        <ele>183</ele>
        <time>2012-02-26T08:27:15Z</time>
      </trkpt>
      <trkpt lat="44.35999" lon="0.66187">
        <ele>183</ele>
        <time>2012-02-26T08:27:16Z</time>
      </trkpt>
      <trkpt lat="44.35998" lon="0.6618">
        <ele>183</ele>
        <time>2012-02-26T08:27:17Z</time>
      </trkpt>
      <trkpt lat="44.35997" lon="0.66172">
        <ele>183</ele>
        <time>2012-02-26T08:27:18Z</time>
      </trkpt>
      <trkpt lat="44.35995" lon="0.66165">
        <ele>183</ele>
        <time>2012-02-26T08:27:19Z</time>
      </trkpt>
      <trkpt lat="44.35994" lon="0.66158">
        <ele>183</ele>
        <time>2012-02-26T08:27:20Z</time>
      </trkpt>
      <trkpt lat="44.35992" lon="0.66151">
        <ele>183</ele>
        <time>2012-02-26T08:27:21Z</time>
      </trkpt>
      <trkpt lat="44.3599" lon="0.66144">
        <ele>183</ele>
        <time>2012-02-26T08:27:22Z</time>
      </trkpt>
      <trkpt lat="44.35989" lon="0.66137">
        <ele>183</ele>
        <time>2012-02-26T08:27:23Z</time>
      </trkpt>
      <trkpt lat="44.35987" lon="0.6613">
        <ele>183</ele>
        <time>2012-02-26T08:27:24Z</time>
      </trkpt>
      <trkpt lat="44.35985" lon="0.66123">
        <ele>183</ele>
        <time>2012-02-26T08:27:25Z</time>
      </trkpt>
      <trkpt lat="44.35984" lon="0.66115">
        <ele>183</ele>
        <time>2012-02-26T08:27:26Z</time>
      </trkpt>
      <trkpt lat="44.35983" lon="0.66108">
        <ele>183</ele>
        <time>2012-02-26T08:27:27Z</time>
      </trkpt>
      <trkpt lat="44.35982" lon="0.66101">
        <ele>183</ele>
        <time>2012-02-26T08:27:28Z</time>
      </trkpt>
      <trkpt lat="44.35981" lon="0.66094">
        <ele>183</ele>
        <time>2012-02-26T08:27:29Z</time>
      </trkpt>
      <trkpt lat="44.3598" lon="0.66088">
        <ele>183</ele>
        <time>2012-02-26T08:27:30Z</time>
      </trkpt>
      <trkpt lat="44.35978" lon="0.66081">
        <ele>183</ele>
        <time>2012-02-26T08:27:31Z</time>
      </trkpt>
      <trkpt lat="44.35976" lon="0.66074">
        <ele>183</ele>
        <time>2012-02-26T08:27:32Z</time>
      </trkpt>
      <trkpt lat="44.35974" lon="0.66067">
        <ele>183</ele>
        <time>2012-02-26T08:27:33Z</time>
      </trkpt>
      <trkpt lat="44.35972" lon="0.6606">
        <ele>183</ele>
        <time>2012-02-26T08:27:34Z</time>
      </trkpt>
      <trkpt lat="44.35968" lon="0.66054">
        <ele>183</ele>
        <time>2012-02-26T08:27:35Z</time>
      </trkpt>
      <trkpt lat="44.35966" lon="0.66047">
        <ele>183</ele>
        <time>2012-02-26T08:27:36Z</time>
      </trkpt>
      <trkpt lat="44.35963" lon="0.6604">
        <ele>183</ele>
        <time>2012-02-26T08:27:37Z</time>
      </trkpt>
      <trkpt lat="44.35961" lon="0.66032">
        <ele>183</ele>
        <time>2012-02-26T08:27:38Z</time>
      </trkpt>
      <trkpt lat="44.35958" lon="0.66024">
        <ele>183</ele>
        <time>2012-02-26T08:27:39Z</time>
      </trkpt>
      <trkpt lat="44.35956" lon="0.66017">
        <ele>183</ele>
        <time>2012-02-26T08:27:40Z</time>
      </trkpt>
      <trkpt lat="44.35953" lon="0.66009">
        <ele>183</ele>
        <time>2012-02-26T08:27:41Z</time>
      </trkpt>
      <trkpt lat="44.35951" lon="0.66001">
        <ele>183</ele>
        <time>2012-02-26T08:27:42Z</time>
      </trkpt>
      <trkpt lat="44.35948" lon="0.65995">
        <ele>183</ele>
        <time>2012-02-26T08:27:43Z</time>
      </trkpt>
      <trkpt lat="44.35946" lon="0.65987">
        <ele>183</ele>
        <time>2012-02-26T08:27:44Z</time>
      </trkpt>
      <trkpt lat="44.35944" lon="0.6598">
        <ele>183</ele>
        <time>2012-02-26T08:27:45Z</time>
      </trkpt>
      <trkpt lat="44.35942" lon="0.65973">
        <ele>183</ele>
        <time>2012-02-26T08:27:46Z</time>
      </trkpt>
      <trkpt lat="44.35941" lon="0.65967">
        <ele>183</ele>
        <time>2012-02-26T08:27:47Z</time>
      </trkpt>
      <trkpt lat="44.35939" lon="0.65959">
        <ele>183</ele>
        <time>2012-02-26T08:27:49Z</time>
      </trkpt>
      <trkpt lat="44.35939" lon="0.65952">
        <ele>183</ele>
        <time>2012-02-26T08:27:49Z</time>
      </trkpt>
      <trkpt lat="44.3594" lon="0.65945">
        <ele>183</ele>
        <time>2012-02-26T08:27:50Z</time>
      </trkpt>
      <trkpt lat="44.35942" lon="0.65939">
        <ele>183</ele>
        <time>2012-02-26T08:27:51Z</time>
      </trkpt>
      <trkpt lat="44.35946" lon="0.65933">
        <ele>183</ele>
        <time>2012-02-26T08:27:52Z</time>
      </trkpt>
      <trkpt lat="44.35949" lon="0.65926">
        <ele>183</ele>
        <time>2012-02-26T08:27:53Z</time>
      </trkpt>
      <trkpt lat="44.35951" lon="0.65918">
        <ele>183</ele>
        <time>2012-02-26T08:27:54Z</time>
      </trkpt>
      <trkpt lat="44.35952" lon="0.65911">
        <ele>183</ele>
        <time>2012-02-26T08:27:55Z</time>
      </trkpt>
      <trkpt lat="44.35954" lon="0.65903">
        <ele>183</ele>
        <time>2012-02-26T08:27:56Z</time>
      </trkpt>
      <trkpt lat="44.35956" lon="0.65895">
        <ele>183</ele>
        <time>2012-02-26T08:27:57Z</time>
      </trkpt>
      <trkpt lat="44.35958" lon="0.65888">
        <ele>183</ele>
        <time>2012-02-26T08:27:58Z</time>
      </trkpt>
      <trkpt lat="44.3596" lon="0.65882">
        <ele>183</ele>
        <time>2012-02-26T08:27:59Z</time>
      </trkpt>
      <trkpt lat="44.35962" lon="0.65874">
        <ele>183</ele>
        <time>2012-02-26T08:28:00Z</time>
      </trkpt>
      <trkpt lat="44.35963" lon="0.65867">
        <ele>182</ele>
        <time>2012-02-26T08:28:01Z</time>
      </trkpt>
      <trkpt lat="44.35964" lon="0.6586">
        <ele>182</ele>
        <time>2012-02-26T08:28:02Z</time>
      </trkpt>
      <trkpt lat="44.35965" lon="0.65852">
        <ele>181</ele>
        <time>2012-02-26T08:28:03Z</time>
      </trkpt>
      <trkpt lat="44.35964" lon="0.65845">
        <ele>180</ele>
        <time>2012-02-26T08:28:04Z</time>
      </trkpt>
      <trkpt lat="44.35963" lon="0.65837">
        <ele>180</ele>
        <time>2012-02-26T08:28:05Z</time>
      </trkpt>
      <trkpt lat="44.35964" lon="0.65828">
        <ele>179</ele>
        <time>2012-02-26T08:28:06Z</time>
      </trkpt>
      <trkpt lat="44.35965" lon="0.6582">
        <ele>178</ele>
        <time>2012-02-26T08:28:07Z</time>
      </trkpt>
      <trkpt lat="44.35966" lon="0.65811">
        <ele>177</ele>
        <time>2012-02-26T08:28:08Z</time>
      </trkpt>
      <trkpt lat="44.35968" lon="0.65801">
        <ele>176</ele>
        <time>2012-02-26T08:28:09Z</time>
      </trkpt>
      <trkpt lat="44.3597" lon="0.6579">
        <ele>176</ele>
        <time>2012-02-26T08:28:10Z</time>
      </trkpt>
      <trkpt lat="44.35971" lon="0.65781">
        <ele>175</ele>
        <time>2012-02-26T08:28:11Z</time>
      </trkpt>
      <trkpt lat="44.35973" lon="0.65771">
        <ele>174</ele>
        <time>2012-02-26T08:28:12Z</time>
      </trkpt>
      <trkpt lat="44.35975" lon="0.65761">
        <ele>174</ele>
        <time>2012-02-26T08:28:13Z</time>
      </trkpt>
      <trkpt lat="44.35979" lon="0.65753">
        <ele>173</ele>
        <time>2012-02-26T08:28:14Z</time>
      </trkpt>
      <trkpt lat="44.35982" lon="0.65743">
        <ele>173</ele>
        <time>2012-02-26T08:28:15Z</time>
      </trkpt>
      <trkpt lat="44.35984" lon="0.65733">
        <ele>173</ele>
        <time>2012-02-26T08:28:16Z</time>
      </trkpt>
      <trkpt lat="44.35985" lon="0.65724">
        <ele>173</ele>
        <time>2012-02-26T08:28:17Z</time>
      </trkpt>
      <trkpt lat="44.35986" lon="0.65715">
        <ele>173</ele>
        <time>2012-02-26T08:28:18Z</time>
      </trkpt>
      <trkpt lat="44.35986" lon="0.65706">
        <ele>173</ele>
        <time>2012-02-26T08:28:19Z</time>
      </trkpt>
      <trkpt lat="44.35986" lon="0.65699">
        <ele>173</ele>
        <time>2012-02-26T08:28:20Z</time>
      </trkpt>
      <trkpt lat="44.35985" lon="0.65692">
        <ele>173</ele>
        <time>2012-02-26T08:28:21Z</time>
      </trkpt>
      <trkpt lat="44.35984" lon="0.65686">
        <ele>173</ele>
        <time>2012-02-26T08:28:22Z</time>
      </trkpt>
      <trkpt lat="44.35983" lon="0.6568">
        <ele>173</ele>
        <time>2012-02-26T08:28:23Z</time>
      </trkpt>
      <trkpt lat="44.35983" lon="0.65675">
        <ele>173</ele>
        <time>2012-02-26T08:28:24Z</time>
      </trkpt>
      <trkpt lat="44.35982" lon="0.65671">
        <ele>173</ele>
        <time>2012-02-26T08:28:25Z</time>
      </trkpt>
      <trkpt lat="44.35981" lon="0.65667">
        <ele>173</ele>
        <time>2012-02-26T08:28:26Z</time>
      </trkpt>
      <trkpt lat="44.3598" lon="0.65662">
        <ele>174</ele>
        <time>2012-02-26T08:28:27Z</time>
      </trkpt>
      <trkpt lat="44.35978" lon="0.65655">
        <ele>175</ele>
        <time>2012-02-26T08:28:28Z</time>
      </trkpt>
      <trkpt lat="44.35977" lon="0.6565">
        <ele>176</ele>
        <time>2012-02-26T08:28:29Z</time>
      </trkpt>
      <trkpt lat="44.35976" lon="0.65646">
        <ele>177</ele>
        <time>2012-02-26T08:28:30Z</time>
      </trkpt>
      <trkpt lat="44.35975" lon="0.65641">
        <ele>178</ele>
        <time>2012-02-26T08:28:31Z</time>
      </trkpt>
      <trkpt lat="44.35973" lon="0.65636">
        <ele>179</ele>
        <time>2012-02-26T08:28:32Z</time>
      </trkpt>
      <trkpt lat="44.35972" lon="0.65629">
        <ele>179</ele>
        <time>2012-02-26T08:28:33Z</time>
      </trkpt>
      <trkpt lat="44.35971" lon="0.65625">
        <ele>179</ele>
        <time>2012-02-26T08:28:34Z</time>
      </trkpt>
      <trkpt lat="44.35969" lon="0.6562">
        <ele>179</ele>
        <time>2012-02-26T08:28:35Z</time>
      </trkpt>
      <trkpt lat="44.35968" lon="0.65615">
        <ele>180</ele>
        <time>2012-02-26T08:28:36Z</time>
      </trkpt>
      <trkpt lat="44.35967" lon="0.65611">
        <ele>180</ele>
        <time>2012-02-26T08:28:37Z</time>
      </trkpt>
      <trkpt lat="44.35965" lon="0.65607">
        <ele>180</ele>
        <time>2012-02-26T08:28:38Z</time>
      </trkpt>
      <trkpt lat="44.35964" lon="0.65603">
        <ele>180</ele>
        <time>2012-02-26T08:28:39Z</time>
      </trkpt>
      <trkpt lat="44.35962" lon="0.65599">
        <ele>181</ele>
        <time>2012-02-26T08:28:40Z</time>
      </trkpt>
      <trkpt lat="44.35961" lon="0.65595">
        <ele>181</ele>
        <time>2012-02-26T08:28:41Z</time>
      </trkpt>
      <trkpt lat="44.35959" lon="0.65591">
        <ele>181</ele>
        <time>2012-02-26T08:28:42Z</time>
      </trkpt>
      <trkpt lat="44.35957" lon="0.65587">
        <ele>181</ele>
        <time>2012-02-26T08:28:43Z</time>
      </trkpt>
      <trkpt lat="44.35955" lon="0.65584">
        <ele>181</ele>
        <time>2012-02-26T08:28:44Z</time>
      </trkpt>
      <trkpt lat="44.35954" lon="0.65581">
        <ele>181</ele>
        <time>2012-02-26T08:28:45Z</time>
      </trkpt>
      <trkpt lat="44.35952" lon="0.65578">
        <ele>181</ele>
        <time>2012-02-26T08:28:46Z</time>
      </trkpt>
      <trkpt lat="44.3595" lon="0.65575">
        <ele>181</ele>
        <time>2012-02-26T08:28:47Z</time>
      </trkpt>
      <trkpt lat="44.35949" lon="0.65573">
        <ele>181</ele>
        <time>2012-02-26T08:28:48Z</time>
      </trkpt>
      <trkpt lat="44.35947" lon="0.65569">
        <ele>181</ele>
        <time>2012-02-26T08:28:49Z</time>
      </trkpt>
      <trkpt lat="44.35946" lon="0.65566">
        <ele>181</ele>
        <time>2012-02-26T08:28:50Z</time>
      </trkpt>
      <trkpt lat="44.35945" lon="0.65562">
        <ele>181</ele>
        <time>2012-02-26T08:28:51Z</time>
      </trkpt>
      <trkpt lat="44.35944" lon="0.6556">
        <ele>181</ele>
        <time>2012-02-26T08:28:52Z</time>
      </trkpt>
      <trkpt lat="44.35943" lon="0.65557">
        <ele>181</ele>
        <time>2012-02-26T08:28:53Z</time>
      </trkpt>
      <trkpt lat="44.35942" lon="0.65554">
        <ele>181</ele>
        <time>2012-02-26T08:28:54Z</time>
      </trkpt>
      <trkpt lat="44.35941" lon="0.65551">
        <ele>181</ele>
        <time>2012-02-26T08:28:55Z</time>
      </trkpt>
      <trkpt lat="44.35941" lon="0.65548">
        <ele>181</ele>
        <time>2012-02-26T08:28:56Z</time>
      </trkpt>
      <trkpt lat="44.3594" lon="0.65544">
        <ele>181</ele>
        <time>2012-02-26T08:28:57Z</time>
      </trkpt>
      <trkpt lat="44.35939" lon="0.65542">
        <ele>181</ele>
        <time>2012-02-26T08:28:58Z</time>
      </trkpt>
      <trkpt lat="44.35938" lon="0.65539">
        <ele>181</ele>
        <time>2012-02-26T08:28:59Z</time>
      </trkpt>
      <trkpt lat="44.35937" lon="0.65537">
        <ele>181</ele>
        <time>2012-02-26T08:29:00Z</time>
      </trkpt>
      <trkpt lat="44.35936" lon="0.65535">
        <ele>181</ele>
        <time>2012-02-26T08:29:01Z</time>
      </trkpt>
      <trkpt lat="44.35935" lon="0.65532">
        <ele>181</ele>
        <time>2012-02-26T08:29:02Z</time>
      </trkpt>
      <trkpt lat="44.35934" lon="0.65531">
        <ele>181</ele>
        <time>2012-02-26T08:29:03Z</time>
      </trkpt>
      <trkpt lat="44.35934" lon="0.65529">
        <ele>181</ele>
        <time>2012-02-26T08:29:04Z</time>
      </trkpt>
      <trkpt lat="44.35933" lon="0.65527">
        <ele>181</ele>
        <time>2012-02-26T08:29:05Z</time>
      </trkpt>
      <trkpt lat="44.35933" lon="0.65526">
        <ele>181</ele>
        <time>2012-02-26T08:29:06Z</time>
      </trkpt>
      <trkpt lat="44.35932" lon="0.65523">
        <ele>181</ele>
        <time>2012-02-26T08:29:07Z</time>
      </trkpt>
      <trkpt lat="44.35932" lon="0.65521">
        <ele>181</ele>
        <time>2012-02-26T08:29:08Z</time>
      </trkpt>
      <trkpt lat="44.35931" lon="0.65519">
        <ele>181</ele>
        <time>2012-02-26T08:29:09Z</time>
      </trkpt>
      <trkpt lat="44.35931" lon="0.65516">
        <ele>181</ele>
        <time>2012-02-26T08:29:10Z</time>
      </trkpt>
      <trkpt lat="44.35931" lon="0.65514">
        <ele>181</ele>
        <time>2012-02-26T08:29:11Z</time>
      </trkpt>
      <trkpt lat="44.3593" lon="0.65511">
        <ele>180</ele>
        <time>2012-02-26T08:29:12Z</time>
      </trkpt>
      <trkpt lat="44.35929" lon="0.65509">
        <ele>180</ele>
        <time>2012-02-26T08:29:13Z</time>
      </trkpt>
      <trkpt lat="44.35929" lon="0.65505">
        <ele>179</ele>
        <time>2012-02-26T08:29:14Z</time>
      </trkpt>
      <trkpt lat="44.35928" lon="0.65503">
        <ele>179</ele>
        <time>2012-02-26T08:29:15Z</time>
      </trkpt>
      <trkpt lat="44.35928" lon="0.65499">
        <ele>178</ele>
        <time>2012-02-26T08:29:16Z</time>
      </trkpt>
      <trkpt lat="44.35926" lon="0.65496">
        <ele>178</ele>
        <time>2012-02-26T08:29:17Z</time>
      </trkpt>
      <trkpt lat="44.35925" lon="0.65493">
        <ele>177</ele>
        <time>2012-02-26T08:29:18Z</time>
      </trkpt>
      <trkpt lat="44.35924" lon="0.6549">
        <ele>177</ele>
        <time>2012-02-26T08:29:19Z</time>
      </trkpt>
      <trkpt lat="44.35923" lon="0.65487">
        <ele>176</ele>
        <time>2012-02-26T08:29:20Z</time>
      </trkpt>
      <trkpt lat="44.35923" lon="0.65484">
        <ele>175</ele>
        <time>2012-02-26T08:29:21Z</time>
      </trkpt>
      <trkpt lat="44.35922" lon="0.65482">
        <ele>175</ele>
        <time>2012-02-26T08:29:22Z</time>
      </trkpt>
      <trkpt lat="44.35922" lon="0.65479">
        <ele>175</ele>
        <time>2012-02-26T08:29:23Z</time>
      </trkpt>
      <trkpt lat="44.35921" lon="0.65476">
        <ele>174</ele>
        <time>2012-02-26T08:29:24Z</time>
      </trkpt>
      <trkpt lat="44.3592" lon="0.65472">
        <ele>174</ele>
        <time>2012-02-26T08:29:25Z</time>
      </trkpt>
      <trkpt lat="44.35919" lon="0.65468">
        <ele>174</ele>
        <time>2012-02-26T08:29:26Z</time>
      </trkpt>
      <trkpt lat="44.35918" lon="0.65463">
        <ele>173</ele>
        <time>2012-02-26T08:29:27Z</time>
      </trkpt>
      <trkpt lat="44.35917" lon="0.65457">
        <ele>173</ele>
        <time>2012-02-26T08:29:28Z</time>
      </trkpt>
      <trkpt lat="44.35915" lon="0.65452">
        <ele>173</ele>
        <time>2012-02-26T08:29:29Z</time>
      </trkpt>
      <trkpt lat="44.35914" lon="0.65446">
        <ele>173</ele>
        <time>2012-02-26T08:29:30Z</time>
      </trkpt>
      <trkpt lat="44.35913" lon="0.6544">
        <ele>173</ele>
        <time>2012-02-26T08:29:31Z</time>
      </trkpt>
      <trkpt lat="44.35912" lon="0.65434">
        <ele>173</ele>
        <time>2012-02-26T08:29:32Z</time>
      </trkpt>
      <trkpt lat="44.3591" lon="0.65429">
        <ele>173</ele>
        <time>2012-02-26T08:29:33Z</time>
      </trkpt>
      <trkpt lat="44.35909" lon="0.65422">
        <ele>173</ele>
        <time>2012-02-26T08:29:34Z</time>
      </trkpt>
      <trkpt lat="44.35908" lon="0.65416">
        <ele>173</ele>
        <time>2012-02-26T08:29:35Z</time>
      </trkpt>
      <trkpt lat="44.35906" lon="0.65409">
        <ele>173</ele>
        <time>2012-02-26T08:29:36Z</time>
      </trkpt>
      <trkpt lat="44.35904" lon="0.65402">
        <ele>173</ele>
        <time>2012-02-26T08:29:37Z</time>
      </trkpt>
      <trkpt lat="44.35902" lon="0.65395">
        <ele>173</ele>
        <time>2012-02-26T08:29:38Z</time>
      </trkpt>
      <trkpt lat="44.359" lon="0.65388">
        <ele>173</ele>
        <time>2012-02-26T08:29:39Z</time>
      </trkpt>
      <trkpt lat="44.35897" lon="0.6538">
        <ele>173</ele>
        <time>2012-02-26T08:29:40Z</time>
      </trkpt>
      <trkpt lat="44.35894" lon="0.65373">
        <ele>172</ele>
        <time>2012-02-26T08:29:41Z</time>
      </trkpt>
      <trkpt lat="44.35892" lon="0.65366">
        <ele>172</ele>
        <time>2012-02-26T08:29:42Z</time>
      </trkpt>
      <trkpt lat="44.3589" lon="0.6536">
        <ele>172</ele>
        <time>2012-02-26T08:29:43Z</time>
      </trkpt>
      <trkpt lat="44.35889" lon="0.65354">
        <ele>172</ele>
        <time>2012-02-26T08:29:44Z</time>
      </trkpt>
      <trkpt lat="44.35888" lon="0.65348">
        <ele>172</ele>
        <time>2012-02-26T08:29:45Z</time>
      </trkpt>
      <trkpt lat="44.35887" lon="0.65343">
        <ele>172</ele>
        <time>2012-02-26T08:29:46Z</time>
      </trkpt>
      <trkpt lat="44.35886" lon="0.65338">
        <ele>172</ele>
        <time>2012-02-26T08:29:47Z</time>
      </trkpt>
      <trkpt lat="44.35884" lon="0.65334">
        <ele>172</ele>
        <time>2012-02-26T08:29:48Z</time>
      </trkpt>
      <trkpt lat="44.35881" lon="0.65332">
        <ele>171</ele>
        <time>2012-02-26T08:29:49Z</time>
      </trkpt>
      <trkpt lat="44.35879" lon="0.65328">
        <ele>171</ele>
        <time>2012-02-26T08:29:50Z</time>
      </trkpt>
      <trkpt lat="44.35877" lon="0.65324">
        <ele>170</ele>
        <time>2012-02-26T08:29:51Z</time>
      </trkpt>
      <trkpt lat="44.35874" lon="0.65321">
        <ele>170</ele>
        <time>2012-02-26T08:29:52Z</time>
      </trkpt>
      <trkpt lat="44.35872" lon="0.65317">
        <ele>170</ele>
        <time>2012-02-26T08:29:53Z</time>
      </trkpt>
      <trkpt lat="44.3587" lon="0.65313">
        <ele>170</ele>
        <time>2012-02-26T08:29:54Z</time>
      </trkpt>
      <trkpt lat="44.35868" lon="0.65307">
        <ele>170</ele>
        <time>2012-02-26T08:29:55Z</time>
      </trkpt>
      <trkpt lat="44.35865" lon="0.65299">
        <ele>170</ele>
        <time>2012-02-26T08:29:56Z</time>
      </trkpt>
      <trkpt lat="44.35862" lon="0.65293">
        <ele>170</ele>
        <time>2012-02-26T08:29:57Z</time>
      </trkpt>
      <trkpt lat="44.35859" lon="0.65288">
        <ele>170</ele>
        <time>2012-02-26T08:29:58Z</time>
      </trkpt>
      <trkpt lat="44.35856" lon="0.65283">
        <ele>170</ele>
        <time>2012-02-26T08:29:59Z</time>
      </trkpt>
      <trkpt lat="44.35852" lon="0.65277">
        <ele>171</ele>
        <time>2012-02-26T08:30:00Z</time>
      </trkpt>
      <trkpt lat="44.3585" lon="0.65273">
        <ele>172</ele>
        <time>2012-02-26T08:30:01Z</time>
      </trkpt>
      <trkpt lat="44.35848" lon="0.65268">
        <ele>172</ele>
        <time>2012-02-26T08:30:02Z</time>
      </trkpt>
      <trkpt lat="44.35846" lon="0.65264">
        <ele>173</ele>
        <time>2012-02-26T08:30:03Z</time>
      </trkpt>
      <trkpt lat="44.35844" lon="0.65261">
        <ele>173</ele>
        <time>2012-02-26T08:30:04Z</time>
      </trkpt>
      <trkpt lat="44.35841" lon="0.65258">
        <ele>174</ele>
        <time>2012-02-26T08:30:05Z</time>
      </trkpt>
      <trkpt lat="44.35839" lon="0.65254">
        <ele>174</ele>
        <time>2012-02-26T08:30:06Z</time>
      </trkpt>
      <trkpt lat="44.35837" lon="0.65251">
        <ele>174</ele>
        <time>2012-02-26T08:30:07Z</time>
      </trkpt>
      <trkpt lat="44.35834" lon="0.65248">
        <ele>175</ele>
        <time>2012-02-26T08:30:08Z</time>
      </trkpt>
      <trkpt lat="44.35832" lon="0.65244">
        <ele>175</ele>
        <time>2012-02-26T08:30:09Z</time>
      </trkpt>
      <trkpt lat="44.35829" lon="0.65241">
        <ele>175</ele>
        <time>2012-02-26T08:30:10Z</time>
      </trkpt>
      <trkpt lat="44.35827" lon="0.65237">
        <ele>175</ele>
        <time>2012-02-26T08:30:11Z</time>
      </trkpt>
      <trkpt lat="44.35824" lon="0.65234">
        <ele>175</ele>
        <time>2012-02-26T08:30:12Z</time>
      </trkpt>
      <trkpt lat="44.35822" lon="0.65229">
        <ele>175</ele>
        <time>2012-02-26T08:30:13Z</time>
      </trkpt>
      <trkpt lat="44.3582" lon="0.65225">
        <ele>175</ele>
        <time>2012-02-26T08:30:14Z</time>
      </trkpt>
      <trkpt lat="44.35817" lon="0.65217">
        <ele>175</ele>
        <time>2012-02-26T08:30:15Z</time>
      </trkpt>
      <trkpt lat="44.35815" lon="0.6521">
        <ele>175</ele>
        <time>2012-02-26T08:30:16Z</time>
      </trkpt>
      <trkpt lat="44.35813" lon="0.65205">
        <ele>175</ele>
        <time>2012-02-26T08:30:17Z</time>
      </trkpt>
      <trkpt lat="44.35811" lon="0.652">
        <ele>175</ele>
        <time>2012-02-26T08:30:18Z</time>
      </trkpt>
      <trkpt lat="44.35809" lon="0.65195">
        <ele>176</ele>
        <time>2012-02-26T08:30:19Z</time>
      </trkpt>
      <trkpt lat="44.35807" lon="0.6519">
        <ele>176</ele>
        <time>2012-02-26T08:30:20Z</time>
      </trkpt>
      <trkpt lat="44.35805" lon="0.65185">
        <ele>176</ele>
        <time>2012-02-26T08:30:21Z</time>
      </trkpt>
      <trkpt lat="44.35803" lon="0.65181">
        <ele>177</ele>
        <time>2012-02-26T08:30:22Z</time>
      </trkpt>
      <trkpt lat="44.35801" lon="0.65176">
        <ele>177</ele>
        <time>2012-02-26T08:30:23Z</time>
      </trkpt>
      <trkpt lat="44.35799" lon="0.65172">
        <ele>177</ele>
        <time>2012-02-26T08:30:24Z</time>
      </trkpt>
      <trkpt lat="44.35796" lon="0.65168">
        <ele>177</ele>
        <time>2012-02-26T08:30:25Z</time>
      </trkpt>
      <trkpt lat="44.35793" lon="0.65164">
        <ele>177</ele>
        <time>2012-02-26T08:30:26Z</time>
      </trkpt>
      <trkpt lat="44.35791" lon="0.6516">
        <ele>177</ele>
        <time>2012-02-26T08:30:27Z</time>
      </trkpt>
      <trkpt lat="44.35788" lon="0.65158">
        <ele>177</ele>
        <time>2012-02-26T08:30:28Z</time>
      </trkpt>
      <trkpt lat="44.35787" lon="0.65154">
        <ele>177</ele>
        <time>2012-02-26T08:30:29Z</time>
      </trkpt>
      <trkpt lat="44.35785" lon="0.65151">
        <ele>177</ele>
        <time>2012-02-26T08:30:30Z</time>
      </trkpt>
      <trkpt lat="44.35783" lon="0.65148">
        <ele>177</ele>
        <time>2012-02-26T08:30:31Z</time>
      </trkpt>
      <trkpt lat="44.3578" lon="0.65145">
        <ele>177</ele>
        <time>2012-02-26T08:30:32Z</time>
      </trkpt>
      <trkpt lat="44.35778" lon="0.65143">
        <ele>177</ele>
        <time>2012-02-26T08:30:33Z</time>
      </trkpt>
      <trkpt lat="44.35775" lon="0.6514">
        <ele>177</ele>
        <time>2012-02-26T08:30:34Z</time>
      </trkpt>
      <trkpt lat="44.35772" lon="0.65139">
        <ele>177</ele>
        <time>2012-02-26T08:30:35Z</time>
      </trkpt>
      <trkpt lat="44.35769" lon="0.65137">
        <ele>177</ele>
        <time>2012-02-26T08:30:36Z</time>
      </trkpt>
      <trkpt lat="44.35765" lon="0.65135">
        <ele>177</ele>
        <time>2012-02-26T08:30:37Z</time>
      </trkpt>
      <trkpt lat="44.35762" lon="0.65134">
        <ele>177</ele>
        <time>2012-02-26T08:30:38Z</time>
      </trkpt>
      <trkpt lat="44.35759" lon="0.65132">
        <ele>177</ele>
        <time>2012-02-26T08:30:39Z</time>
      </trkpt>
      <trkpt lat="44.35755" lon="0.65131">
        <ele>177</ele>
        <time>2012-02-26T08:30:40Z</time>
      </trkpt>
      <trkpt lat="44.35751" lon="0.65131">
        <ele>177</ele>
        <time>2012-02-26T08:30:41Z</time>
      </trkpt>
      <trkpt lat="44.35747" lon="0.6513">
        <ele>177</ele>
        <time>2012-02-26T08:30:42Z</time>
      </trkpt>
      <trkpt lat="44.35744" lon="0.6513">
        <ele>177</ele>
        <time>2012-02-26T08:30:43Z</time>
      </trkpt>
      <trkpt lat="44.35741" lon="0.6513">
        <ele>177</ele>
        <time>2012-02-26T08:30:44Z</time>
      </trkpt>
      <trkpt lat="44.35737" lon="0.65129">
        <ele>177</ele>
        <time>2012-02-26T08:30:45Z</time>
      </trkpt>
      <trkpt lat="44.35733" lon="0.6513">
        <ele>177</ele>
        <time>2012-02-26T08:30:46Z</time>
      </trkpt>
      <trkpt lat="44.3573" lon="0.65129">
        <ele>177</ele>
        <time>2012-02-26T08:30:47Z</time>
      </trkpt>
      <trkpt lat="44.35727" lon="0.65129">
        <ele>177</ele>
        <time>2012-02-26T08:30:48Z</time>
      </trkpt>
      <trkpt lat="44.35723" lon="0.65129">
        <ele>177</ele>
        <time>2012-02-26T08:30:49Z</time>
      </trkpt>
      <trkpt lat="44.3572" lon="0.65129">
        <ele>177</ele>
        <time>2012-02-26T08:30:50Z</time>
      </trkpt>
      <trkpt lat="44.35716" lon="0.65129">
        <ele>177</ele>
        <time>2012-02-26T08:30:51Z</time>
      </trkpt>
      <trkpt lat="44.35712" lon="0.6513">
        <ele>177</ele>
        <time>2012-02-26T08:30:52Z</time>
      </trkpt>
      <trkpt lat="44.35709" lon="0.6513">
        <ele>177</ele>
        <time>2012-02-26T08:30:53Z</time>
      </trkpt>
      <trkpt lat="44.35706" lon="0.65131">
        <ele>177</ele>
        <time>2012-02-26T08:30:54Z</time>
      </trkpt>
      <trkpt lat="44.35703" lon="0.65132">
        <ele>177</ele>
        <time>2012-02-26T08:30:55Z</time>
      </trkpt>
      <trkpt lat="44.35699" lon="0.65134">
        <ele>177</ele>
        <time>2012-02-26T08:30:56Z</time>
      </trkpt>
      <trkpt lat="44.35696" lon="0.65136">
        <ele>177</ele>
        <time>2012-02-26T08:30:57Z</time>
      </trkpt>
      <trkpt lat="44.35693" lon="0.65138">
        <ele>177</ele>
        <time>2012-02-26T08:30:58Z</time>
      </trkpt>
      <trkpt lat="44.35691" lon="0.6514">
        <ele>177</ele>
        <time>2012-02-26T08:30:59Z</time>
      </trkpt>
      <trkpt lat="44.35688" lon="0.65143">
        <ele>177</ele>
        <time>2012-02-26T08:31:00Z</time>
      </trkpt>
      <trkpt lat="44.35685" lon="0.65145">
        <ele>177</ele>
        <time>2012-02-26T08:31:01Z</time>
      </trkpt>
      <trkpt lat="44.35683" lon="0.65147">
        <ele>177</ele>
        <time>2012-02-26T08:31:02Z</time>
      </trkpt>
      <trkpt lat="44.3568" lon="0.6515">
        <ele>177</ele>
        <time>2012-02-26T08:31:03Z</time>
      </trkpt>
      <trkpt lat="44.35677" lon="0.65152">
        <ele>177</ele>
        <time>2012-02-26T08:31:04Z</time>
      </trkpt>
      <trkpt lat="44.35674" lon="0.65154">
        <ele>177</ele>
        <time>2012-02-26T08:31:05Z</time>
      </trkpt>
      <trkpt lat="44.3567" lon="0.65157">
        <ele>177</ele>
        <time>2012-02-26T08:31:06Z</time>
      </trkpt>
      <trkpt lat="44.35667" lon="0.65159">
        <ele>178</ele>
        <time>2012-02-26T08:31:07Z</time>
      </trkpt>
      <trkpt lat="44.35664" lon="0.65161">
        <ele>178</ele>
        <time>2012-02-26T08:31:08Z</time>
      </trkpt>
      <trkpt lat="44.35662" lon="0.65162">
        <ele>178</ele>
        <time>2012-02-26T08:31:09Z</time>
      </trkpt>
      <trkpt lat="44.35659" lon="0.65164">
        <ele>178</ele>
        <time>2012-02-26T08:31:10Z</time>
      </trkpt>
      <trkpt lat="44.35655" lon="0.65165">
        <ele>179</ele>
        <time>2012-02-26T08:31:11Z</time>
      </trkpt>
      <trkpt lat="44.35652" lon="0.65166">
        <ele>179</ele>
        <time>2012-02-26T08:31:12Z</time>
      </trkpt>
      <trkpt lat="44.35649" lon="0.65167">
        <ele>180</ele>
        <time>2012-02-26T08:31:13Z</time>
      </trkpt>
      <trkpt lat="44.35646" lon="0.65167">
        <ele>180</ele>
        <time>2012-02-26T08:31:14Z</time>
      </trkpt>
      <trkpt lat="44.35642" lon="0.65168">
        <ele>181</ele>
        <time>2012-02-26T08:31:15Z</time>
      </trkpt>
      <trkpt lat="44.35639" lon="0.65169">
        <ele>181</ele>
        <time>2012-02-26T08:31:16Z</time>
      </trkpt>
      <trkpt lat="44.35636" lon="0.6517">
        <ele>181</ele>
        <time>2012-02-26T08:31:17Z</time>
      </trkpt>
      <trkpt lat="44.35633" lon="0.65171">
        <ele>181</ele>
        <time>2012-02-26T08:31:18Z</time>
      </trkpt>
      <trkpt lat="44.3563" lon="0.65172">
        <ele>182</ele>
        <time>2012-02-26T08:31:19Z</time>
      </trkpt>
      <trkpt lat="44.35626" lon="0.65173">
        <ele>182</ele>
        <time>2012-02-26T08:31:20Z</time>
      </trkpt>
      <trkpt lat="44.35623" lon="0.65174">
        <ele>182</ele>
        <time>2012-02-26T08:31:21Z</time>
      </trkpt>
      <trkpt lat="44.3562" lon="0.65174">
        <ele>182</ele>
        <time>2012-02-26T08:31:22Z</time>
      </trkpt>
      <trkpt lat="44.35617" lon="0.65175">
        <ele>182</ele>
        <time>2012-02-26T08:31:23Z</time>
      </trkpt>
      <trkpt lat="44.35613" lon="0.65175">
        <ele>183</ele>
        <time>2012-02-26T08:31:24Z</time>
      </trkpt>
      <trkpt lat="44.35609" lon="0.65176">
        <ele>183</ele>
        <time>2012-02-26T08:31:25Z</time>
      </trkpt>
      <trkpt lat="44.35605" lon="0.65177">
        <ele>183</ele>
        <time>2012-02-26T08:31:26Z</time>
      </trkpt>
      <trkpt lat="44.35602" lon="0.65177">
        <ele>183</ele>
        <time>2012-02-26T08:31:27Z</time>
      </trkpt>
      <trkpt lat="44.35599" lon="0.65177">
        <ele>183</ele>
        <time>2012-02-26T08:31:28Z</time>
      </trkpt>
      <trkpt lat="44.35596" lon="0.65177">
        <ele>183</ele>
        <time>2012-02-26T08:31:29Z</time>
      </trkpt>
      <trkpt lat="44.35593" lon="0.65177">
        <ele>183</ele>
        <time>2012-02-26T08:31:30Z</time>
      </trkpt>
      <trkpt lat="44.3559" lon="0.65176">
        <ele>183</ele>
        <time>2012-02-26T08:31:31Z</time>
      </trkpt>
      <trkpt lat="44.35586" lon="0.65176">
        <ele>183</ele>
        <time>2012-02-26T08:31:32Z</time>
      </trkpt>
      <trkpt lat="44.35583" lon="0.65176">
        <ele>183</ele>
        <time>2012-02-26T08:31:33Z</time>
      </trkpt>
      <trkpt lat="44.3558" lon="0.65176">
        <ele>183</ele>
        <time>2012-02-26T08:31:34Z</time>
      </trkpt>
      <trkpt lat="44.35577" lon="0.65178">
        <ele>183</ele>
        <time>2012-02-26T08:31:35Z</time>
      </trkpt>
      <trkpt lat="44.35574" lon="0.65179">
        <ele>183</ele>
        <time>2012-02-26T08:31:36Z</time>
      </trkpt>
      <trkpt lat="44.35571" lon="0.6518">
        <ele>183</ele>
        <time>2012-02-26T08:31:37Z</time>
      </trkpt>
      <trkpt lat="44.35569" lon="0.65182">
        <ele>183</ele>
        <time>2012-02-26T08:31:38Z</time>
      </trkpt>
      <trkpt lat="44.35567" lon="0.65184">
        <ele>183</ele>
        <time>2012-02-26T08:31:39Z</time>
      </trkpt>
      <trkpt lat="44.35566" lon="0.65187">
        <ele>183</ele>
        <time>2012-02-26T08:31:40Z</time>
      </trkpt>
      <trkpt lat="44.35565" lon="0.65191">
        <ele>183</ele>
        <time>2012-02-26T08:31:41Z</time>
      </trkpt>
      <trkpt lat="44.35564" lon="0.65196">
        <ele>183</ele>
        <time>2012-02-26T08:31:42Z</time>
      </trkpt>
      <trkpt lat="44.35563" lon="0.65201">
        <ele>183</ele>
        <time>2012-02-26T08:31:43Z</time>
      </trkpt>
      <trkpt lat="44.35562" lon="0.65206">
        <ele>183</ele>
        <time>2012-02-26T08:31:44Z</time>
      </trkpt>
      <trkpt lat="44.35561" lon="0.65212">
        <ele>183</ele>
        <time>2012-02-26T08:31:45Z</time>
      </trkpt>
      <trkpt lat="44.3556" lon="0.65219">
        <ele>183</ele>
        <time>2012-02-26T08:31:46Z</time>
      </trkpt>
      <trkpt lat="44.3556" lon="0.65225">
        <ele>183</ele>
        <time>2012-02-26T08:31:47Z</time>
      </trkpt>
      <trkpt lat="44.35559" lon="0.65232">
        <ele>182</ele>
        <time>2012-02-26T08:31:48Z</time>
      </trkpt>
      <trkpt lat="44.35558" lon="0.6524">
        <ele>182</ele>
        <time>2012-02-26T08:31:49Z</time>
      </trkpt>
      <trkpt lat="44.35557" lon="0.65249">
        <ele>182</ele>
        <time>2012-02-26T08:31:50Z</time>
      </trkpt>
      <trkpt lat="44.35555" lon="0.65256">
        <ele>181</ele>
        <time>2012-02-26T08:31:51Z</time>
      </trkpt>
      <trkpt lat="44.35553" lon="0.65264">
        <ele>181</ele>
        <time>2012-02-26T08:31:52Z</time>
      </trkpt>
      <trkpt lat="44.35551" lon="0.65271">
        <ele>180</ele>
        <time>2012-02-26T08:31:53Z</time>
      </trkpt>
      <trkpt lat="44.35549" lon="0.65277">
        <ele>180</ele>
        <time>2012-02-26T08:31:54Z</time>
      </trkpt>
      <trkpt lat="44.35546" lon="0.65282">
        <ele>180</ele>
        <time>2012-02-26T08:31:55Z</time>
      </trkpt>
      <trkpt lat="44.35542" lon="0.65285">
        <ele>180</ele>
        <time>2012-02-26T08:31:56Z</time>
      </trkpt>
      <trkpt lat="44.35537" lon="0.65287">
        <ele>180</ele>
        <time>2012-02-26T08:31:57Z</time>
      </trkpt>
      <trkpt lat="44.3553" lon="0.65288">
        <ele>180</ele>
        <time>2012-02-26T08:31:58Z</time>
      </trkpt>
      <trkpt lat="44.35523" lon="0.65288">
        <ele>180</ele>
        <time>2012-02-26T08:31:59Z</time>
      </trkpt>
      <trkpt lat="44.35517" lon="0.65286">
        <ele>180</ele>
        <time>2012-02-26T08:32:00Z</time>
      </trkpt>
      <trkpt lat="44.35513" lon="0.65283">
        <ele>180</ele>
        <time>2012-02-26T08:32:01Z</time>
      </trkpt>
      <trkpt lat="44.35509" lon="0.65279">
        <ele>180</ele>
        <time>2012-02-26T08:32:02Z</time>
      </trkpt>
      <trkpt lat="44.35505" lon="0.65273">
        <ele>180</ele>
        <time>2012-02-26T08:32:03Z</time>
      </trkpt>
      <trkpt lat="44.35501" lon="0.65268">
        <ele>179</ele>
        <time>2012-02-26T08:32:04Z</time>
      </trkpt>
      <trkpt lat="44.35498" lon="0.65263">
        <ele>179</ele>
        <time>2012-02-26T08:32:05Z</time>
      </trkpt>
      <trkpt lat="44.35495" lon="0.65257">
        <ele>179</ele>
        <time>2012-02-26T08:32:06Z</time>
      </trkpt>
      <trkpt lat="44.35491" lon="0.65252">
        <ele>179</ele>
        <time>2012-02-26T08:32:07Z</time>
      </trkpt>
      <trkpt lat="44.35487" lon="0.65247">
        <ele>179</ele>
        <time>2012-02-26T08:32:08Z</time>
      </trkpt>
      <trkpt lat="44.35482" lon="0.65244">
        <ele>179</ele>
        <time>2012-02-26T08:32:09Z</time>
      </trkpt>
      <trkpt lat="44.35476" lon="0.65242">
        <ele>179</ele>
        <time>2012-02-26T08:32:10Z</time>
      </trkpt>
      <trkpt lat="44.35469" lon="0.6524">
        <ele>179</ele>
        <time>2012-02-26T08:32:11Z</time>
      </trkpt>
      <trkpt lat="44.35461" lon="0.6524">
        <ele>179</ele>
        <time>2012-02-26T08:32:12Z</time>
      </trkpt>
      <trkpt lat="44.35452" lon="0.65239">
        <ele>179</ele>
        <time>2012-02-26T08:32:13Z</time>
      </trkpt>
      <trkpt lat="44.35443" lon="0.65238">
        <ele>179</ele>
        <time>2012-02-26T08:32:14Z</time>
      </trkpt>
      <trkpt lat="44.35434" lon="0.65238">
        <ele>178</ele>
        <time>2012-02-26T08:32:15Z</time>
      </trkpt>
      <trkpt lat="44.35425" lon="0.65238">
        <ele>177</ele>
        <time>2012-02-26T08:32:16Z</time>
      </trkpt>
      <trkpt lat="44.35416" lon="0.65241">
        <ele>177</ele>
        <time>2012-02-26T08:32:17Z</time>
      </trkpt>
      <trkpt lat="44.35409" lon="0.65244">
        <ele>177</ele>
        <time>2012-02-26T08:32:18Z</time>
      </trkpt>
      <trkpt lat="44.35402" lon="0.65249">
        <ele>177</ele>
        <time>2012-02-26T08:32:19Z</time>
      </trkpt>
      <trkpt lat="44.35395" lon="0.65254">
        <ele>177</ele>
        <time>2012-02-26T08:32:20Z</time>
      </trkpt>
      <trkpt lat="44.35388" lon="0.65257">
        <ele>177</ele>
        <time>2012-02-26T08:32:21Z</time>
      </trkpt>
      <trkpt lat="44.35381" lon="0.65258">
        <ele>177</ele>
        <time>2012-02-26T08:32:22Z</time>
      </trkpt>
      <trkpt lat="44.35375" lon="0.65258">
        <ele>177</ele>
        <time>2012-02-26T08:32:23Z</time>
      </trkpt>
      <trkpt lat="44.35369" lon="0.65257">
        <ele>177</ele>
        <time>2012-02-26T08:32:24Z</time>
      </trkpt>
      <trkpt lat="44.35363" lon="0.65255">
        <ele>177</ele>
        <time>2012-02-26T08:32:25Z</time>
      </trkpt>
      <trkpt lat="44.35358" lon="0.65253">
        <ele>177</ele>
        <time>2012-02-26T08:32:26Z</time>
      </trkpt>
      <trkpt lat="44.35352" lon="0.65252">
        <ele>177</ele>
        <time>2012-02-26T08:32:27Z</time>
      </trkpt>
      <trkpt lat="44.35347" lon="0.65251">
        <ele>177</ele>
        <time>2012-02-26T08:32:28Z</time>
      </trkpt>
      <trkpt lat="44.35342" lon="0.6525">
        <ele>177</ele>
        <time>2012-02-26T08:32:29Z</time>
      </trkpt>
      <trkpt lat="44.35337" lon="0.6525">
        <ele>177</ele>
        <time>2012-02-26T08:32:30Z</time>
      </trkpt>
      <trkpt lat="44.35332" lon="0.6525">
        <ele>177</ele>
        <time>2012-02-26T08:32:31Z</time>
      </trkpt>
      <trkpt lat="44.35328" lon="0.6525">
        <ele>177</ele>
        <time>2012-02-26T08:32:32Z</time>
      </trkpt>
      <trkpt lat="44.35324" lon="0.6525">
        <ele>177</ele>
        <time>2012-02-26T08:32:33Z</time>
      </trkpt>
      <trkpt lat="44.35319" lon="0.65251">
        <ele>177</ele>
        <time>2012-02-26T08:32:34Z</time>
      </trkpt>
      <trkpt lat="44.35315" lon="0.65251">
        <ele>178</ele>
        <time>2012-02-26T08:32:35Z</time>
      </trkpt>
      <trkpt lat="44.35311" lon="0.65252">
        <ele>179</ele>
        <time>2012-02-26T08:32:36Z</time>
      </trkpt>
      <trkpt lat="44.35307" lon="0.65253">
        <ele>179</ele>
        <time>2012-02-26T08:32:37Z</time>
      </trkpt>
      <trkpt lat="44.35302" lon="0.65253">
        <ele>180</ele>
        <time>2012-02-26T08:32:38Z</time>
      </trkpt>
      <trkpt lat="44.35298" lon="0.65254">
        <ele>180</ele>
        <time>2012-02-26T08:32:39Z</time>
      </trkpt>
      <trkpt lat="44.35294" lon="0.65255">
        <ele>181</ele>
        <time>2012-02-26T08:32:40Z</time>
      </trkpt>
      <trkpt lat="44.3529" lon="0.65256">
        <ele>181</ele>
        <time>2012-02-26T08:32:41Z</time>
      </trkpt>
      <trkpt lat="44.35286" lon="0.65257">
        <ele>181</ele>
        <time>2012-02-26T08:32:42Z</time>
      </trkpt>
      <trkpt lat="44.35281" lon="0.65257">
        <ele>181</ele>
        <time>2012-02-26T08:32:43Z</time>
      </trkpt>
      <trkpt lat="44.35277" lon="0.65259">
        <ele>182</ele>
        <time>2012-02-26T08:32:44Z</time>
      </trkpt>
      <trkpt lat="44.35273" lon="0.6526">
        <ele>182</ele>
        <time>2012-02-26T08:32:45Z</time>
      </trkpt>
      <trkpt lat="44.35269" lon="0.65261">
        <ele>182</ele>
        <time>2012-02-26T08:32:46Z</time>
      </trkpt>
      <trkpt lat="44.35265" lon="0.65262">
        <ele>182</ele>
        <time>2012-02-26T08:32:47Z</time>
      </trkpt>
      <trkpt lat="44.3526" lon="0.65263">
        <ele>182</ele>
        <time>2012-02-26T08:32:48Z</time>
      </trkpt>
      <trkpt lat="44.35256" lon="0.65264">
        <ele>182</ele>
        <time>2012-02-26T08:32:49Z</time>
      </trkpt>
      <trkpt lat="44.35252" lon="0.65265">
        <ele>182</ele>
        <time>2012-02-26T08:32:50Z</time>
      </trkpt>
      <trkpt lat="44.35247" lon="0.65266">
        <ele>182</ele>
        <time>2012-02-26T08:32:51Z</time>
      </trkpt>
      <trkpt lat="44.35243" lon="0.65267">
        <ele>183</ele>
        <time>2012-02-26T08:32:52Z</time>
      </trkpt>
      <trkpt lat="44.35239" lon="0.65268">
        <ele>183</ele>
        <time>2012-02-26T08:32:53Z</time>
      </trkpt>
      <trkpt lat="44.35234" lon="0.65269">
        <ele>183</ele>
        <time>2012-02-26T08:32:54Z</time>
      </trkpt>
      <trkpt lat="44.3523" lon="0.6527">
        <ele>183</ele>
        <time>2012-02-26T08:32:55Z</time>
      </trkpt>
      <trkpt lat="44.35225" lon="0.65272">
        <ele>183</ele>
        <time>2012-02-26T08:32:56Z</time>
      </trkpt>
      <trkpt lat="44.3522" lon="0.65273">
        <ele>183</ele>
        <time>2012-02-26T08:32:57Z</time>
      </trkpt>
      <trkpt lat="44.35216" lon="0.65274">
        <ele>183</ele>
        <time>2012-02-26T08:32:58Z</time>
      </trkpt>
      <trkpt lat="44.35212" lon="0.65275">
        <ele>183</ele>
        <time>2012-02-26T08:32:59Z</time>
      </trkpt>
      <trkpt lat="44.35207" lon="0.65276">
        <ele>183</ele>
        <time>2012-02-26T08:33:00Z</time>
      </trkpt>
      <trkpt lat="44.35202" lon="0.65277">
        <ele>183</ele>
        <time>2012-02-26T08:33:01Z</time>
      </trkpt>
      <trkpt lat="44.35199" lon="0.65278">
        <ele>183</ele>
        <time>2012-02-26T08:33:02Z</time>
      </trkpt>
      <trkpt lat="44.35194" lon="0.65279">
        <ele>183</ele>
        <time>2012-02-26T08:33:03Z</time>
      </trkpt>
      <trkpt lat="44.35191" lon="0.65281">
        <ele>183</ele>
        <time>2012-02-26T08:33:04Z</time>
      </trkpt>
      <trkpt lat="44.35187" lon="0.65284">
        <ele>183</ele>
        <time>2012-02-26T08:33:05Z</time>
      </trkpt>
      <trkpt lat="44.35183" lon="0.65287">
        <ele>183</ele>
        <time>2012-02-26T08:33:06Z</time>
      </trkpt>
      <trkpt lat="44.3518" lon="0.6529">
        <ele>183</ele>
        <time>2012-02-26T08:33:07Z</time>
      </trkpt>
      <trkpt lat="44.35176" lon="0.65293">
        <ele>183</ele>
        <time>2012-02-26T08:33:08Z</time>
      </trkpt>
      <trkpt lat="44.35173" lon="0.65296">
        <ele>183</ele>
        <time>2012-02-26T08:33:09Z</time>
      </trkpt>
      <trkpt lat="44.35169" lon="0.65298">
        <ele>183</ele>
        <time>2012-02-26T08:33:10Z</time>
      </trkpt>
      <trkpt lat="44.35165" lon="0.65302">
        <ele>183</ele>
        <time>2012-02-26T08:33:11Z</time>
      </trkpt>
      <trkpt lat="44.35162" lon="0.65304">
        <ele>183</ele>
        <time>2012-02-26T08:33:12Z</time>
      </trkpt>
      <trkpt lat="44.35158" lon="0.65307">
        <ele>183</ele>
        <time>2012-02-26T08:33:13Z</time>
      </trkpt>
      <trkpt lat="44.35154" lon="0.6531">
        <ele>183</ele>
        <time>2012-02-26T08:33:14Z</time>
      </trkpt>
      <trkpt lat="44.3515" lon="0.65313">
        <ele>183</ele>
        <time>2012-02-26T08:33:15Z</time>
      </trkpt>
      <trkpt lat="44.35146" lon="0.65316">
        <ele>184</ele>
        <time>2012-02-26T08:33:16Z</time>
      </trkpt>
      <trkpt lat="44.35143" lon="0.65318">
        <ele>184</ele>
        <time>2012-02-26T08:33:17Z</time>
      </trkpt>
      <trkpt lat="44.35138" lon="0.6532">
        <ele>184</ele>
        <time>2012-02-26T08:33:18Z</time>
      </trkpt>
      <trkpt lat="44.35134" lon="0.65323">
        <ele>184</ele>
        <time>2012-02-26T08:33:19Z</time>
      </trkpt>
      <trkpt lat="44.3513" lon="0.65325">
        <ele>185</ele>
        <time>2012-02-26T08:33:20Z</time>
      </trkpt>
      <trkpt lat="44.35125" lon="0.65327">
        <ele>185</ele>
        <time>2012-02-26T08:33:21Z</time>
      </trkpt>
      <trkpt lat="44.35121" lon="0.65329">
        <ele>185</ele>
        <time>2012-02-26T08:33:22Z</time>
      </trkpt>
      <trkpt lat="44.35115" lon="0.65333">
        <ele>185</ele>
        <time>2012-02-26T08:33:23Z</time>
      </trkpt>
      <trkpt lat="44.35109" lon="0.65335">
        <ele>185</ele>
        <time>2012-02-26T08:33:24Z</time>
      </trkpt>
      <trkpt lat="44.35104" lon="0.65337">
        <ele>185</ele>
        <time>2012-02-26T08:33:25Z</time>
      </trkpt>
      <trkpt lat="44.35099" lon="0.65339">
        <ele>185</ele>
        <time>2012-02-26T08:33:26Z</time>
      </trkpt>
      <trkpt lat="44.35094" lon="0.65341">
        <ele>185</ele>
        <time>2012-02-26T08:33:27Z</time>
      </trkpt>
      <trkpt lat="44.35089" lon="0.65342">
        <ele>185</ele>
        <time>2012-02-26T08:33:28Z</time>
      </trkpt>
      <trkpt lat="44.35083" lon="0.65344">
        <ele>185</ele>
        <time>2012-02-26T08:33:29Z</time>
      </trkpt>
      <trkpt lat="44.35078" lon="0.65345">
        <ele>185</ele>
        <time>2012-02-26T08:33:30Z</time>
      </trkpt>
      <trkpt lat="44.35072" lon="0.65347">
        <ele>185</ele>
        <time>2012-02-26T08:33:31Z</time>
      </trkpt>
      <trkpt lat="44.35066" lon="0.65349">
        <ele>185</ele>
        <time>2012-02-26T08:33:32Z</time>
      </trkpt>
      <trkpt lat="44.3506" lon="0.65351">
        <ele>185</ele>
        <time>2012-02-26T08:33:33Z</time>
      </trkpt>
      <trkpt lat="44.35054" lon="0.65354">
        <ele>185</ele>
        <time>2012-02-26T08:33:34Z</time>
      </trkpt>
      <trkpt lat="44.35047" lon="0.65357">
        <ele>185</ele>
        <time>2012-02-26T08:33:35Z</time>
      </trkpt>
      <trkpt lat="44.35041" lon="0.65361">
        <ele>185</ele>
        <time>2012-02-26T08:33:36Z</time>
      </trkpt>
      <trkpt lat="44.35035" lon="0.65366">
        <ele>185</ele>
        <time>2012-02-26T08:33:37Z</time>
      </trkpt>
      <trkpt lat="44.3503" lon="0.65372">
        <ele>185</ele>
        <time>2012-02-26T08:33:38Z</time>
      </trkpt>
      <trkpt lat="44.35024" lon="0.65378">
        <ele>185</ele>
        <time>2012-02-26T08:33:39Z</time>
      </trkpt>
      <trkpt lat="44.35019" lon="0.65386">
        <ele>185</ele>
        <time>2012-02-26T08:33:40Z</time>
      </trkpt>
      <trkpt lat="44.35014" lon="0.65395">
        <ele>185</ele>
        <time>2012-02-26T08:33:41Z</time>
      </trkpt>
      <trkpt lat="44.35009" lon="0.65405">
        <ele>185</ele>
        <time>2012-02-26T08:33:42Z</time>
      </trkpt>
      <trkpt lat="44.35005" lon="0.65416">
        <ele>185</ele>
        <time>2012-02-26T08:33:43Z</time>
      </trkpt>
      <trkpt lat="44.35" lon="0.65426">
        <ele>185</ele>
        <time>2012-02-26T08:33:44Z</time>
      </trkpt>
      <trkpt lat="44.34995" lon="0.65437">
        <ele>184</ele>
        <time>2012-02-26T08:33:45Z</time>
      </trkpt>
      <trkpt lat="44.34989" lon="0.65447">
        <ele>183</ele>
        <time>2012-02-26T08:33:46Z</time>
      </trkpt>
      <trkpt lat="44.34983" lon="0.65458">
        <ele>182</ele>
        <time>2012-02-26T08:33:47Z</time>
      </trkpt>
      <trkpt lat="44.34977" lon="0.65468">
        <ele>181</ele>
        <time>2012-02-26T08:33:48Z</time>
      </trkpt>
      <trkpt lat="44.3497" lon="0.65478">
        <ele>180</ele>
        <time>2012-02-26T08:33:49Z</time>
      </trkpt>
      <trkpt lat="44.34963" lon="0.65487">
        <ele>179</ele>
        <time>2012-02-26T08:33:50Z</time>
      </trkpt>
      <trkpt lat="44.34955" lon="0.65495">
        <ele>179</ele>
        <time>2012-02-26T08:33:51Z</time>
      </trkpt>
      <trkpt lat="44.34948" lon="0.65502">
        <ele>179</ele>
        <time>2012-02-26T08:33:52Z</time>
      </trkpt>
      <trkpt lat="44.3494" lon="0.65509">
        <ele>179</ele>
        <time>2012-02-26T08:33:53Z</time>
      </trkpt>
      <trkpt lat="44.34933" lon="0.65515">
        <ele>179</ele>
        <time>2012-02-26T08:33:54Z</time>
      </trkpt>
      <trkpt lat="44.34926" lon="0.65522">
        <ele>179</ele>
        <time>2012-02-26T08:33:55Z</time>
      </trkpt>
      <trkpt lat="44.34919" lon="0.65528">
        <ele>178</ele>
        <time>2012-02-26T08:33:56Z</time>
      </trkpt>
      <trkpt lat="44.34911" lon="0.65534">
        <ele>178</ele>
        <time>2012-02-26T08:33:57Z</time>
      </trkpt>
      <trkpt lat="44.34905" lon="0.65539">
        <ele>178</ele>
        <time>2012-02-26T08:33:58Z</time>
      </trkpt>
      <trkpt lat="44.34898" lon="0.65545">
        <ele>178</ele>
        <time>2012-02-26T08:33:59Z</time>
      </trkpt>
      <trkpt lat="44.34892" lon="0.6555">
        <ele>178</ele>
        <time>2012-02-26T08:34:00Z</time>
      </trkpt>
      <trkpt lat="44.34885" lon="0.65555">
        <ele>178</ele>
        <time>2012-02-26T08:34:01Z</time>
      </trkpt>
      <trkpt lat="44.34878" lon="0.65558">
        <ele>178</ele>
        <time>2012-02-26T08:34:02Z</time>
      </trkpt>
      <trkpt lat="44.34871" lon="0.65562">
        <ele>178</ele>
        <time>2012-02-26T08:34:03Z</time>
      </trkpt>
      <trkpt lat="44.34864" lon="0.65565">
        <ele>178</ele>
        <time>2012-02-26T08:34:04Z</time>
      </trkpt>
      <trkpt lat="44.34857" lon="0.65567">
        <ele>178</ele>
        <time>2012-02-26T08:34:05Z</time>
      </trkpt>
      <trkpt lat="44.3485" lon="0.65568">
        <ele>178</ele>
        <time>2012-02-26T08:34:06Z</time>
      </trkpt>
      <trkpt lat="44.34843" lon="0.65569">
        <ele>178</ele>
        <time>2012-02-26T08:34:07Z</time>
      </trkpt>
      <trkpt lat="44.34836" lon="0.65569">
        <ele>178</ele>
        <time>2012-02-26T08:34:08Z</time>
      </trkpt>
      <trkpt lat="44.34829" lon="0.65569">
        <ele>178</ele>
        <time>2012-02-26T08:34:09Z</time>
      </trkpt>
      <trkpt lat="44.34822" lon="0.65568">
        <ele>178</ele>
        <time>2012-02-26T08:34:10Z</time>
      </trkpt>
      <trkpt lat="44.34816" lon="0.65568">
        <ele>179</ele>
        <time>2012-02-26T08:34:11Z</time>
      </trkpt>
      <trkpt lat="44.34809" lon="0.65567">
        <ele>179</ele>
        <time>2012-02-26T08:34:12Z</time>
      </trkpt>
      <trkpt lat="44.34803" lon="0.65567">
        <ele>179</ele>
        <time>2012-02-26T08:34:13Z</time>
      </trkpt>
      <trkpt lat="44.34797" lon="0.65567">
        <ele>180</ele>
        <time>2012-02-26T08:34:14Z</time>
      </trkpt>
      <trkpt lat="44.34791" lon="0.65566">
        <ele>180</ele>
        <time>2012-02-26T08:34:15Z</time>
      </trkpt>
      <trkpt lat="44.34785" lon="0.65566">
        <ele>181</ele>
        <time>2012-02-26T08:34:16Z</time>
      </trkpt>
      <trkpt lat="44.3478" lon="0.65566">
        <ele>181</ele>
        <time>2012-02-26T08:34:17Z</time>
      </trkpt>
      <trkpt lat="44.34774" lon="0.65565">
        <ele>182</ele>
        <time>2012-02-26T08:34:18Z</time>
      </trkpt>
      <trkpt lat="44.34769" lon="0.65565">
        <ele>182</ele>
        <time>2012-02-26T08:34:19Z</time>
      </trkpt>
      <trkpt lat="44.34764" lon="0.65564">
        <ele>182</ele>
        <time>2012-02-26T08:34:20Z</time>
      </trkpt>
      <trkpt lat="44.3476" lon="0.65563">
        <ele>182</ele>
        <time>2012-02-26T08:34:21Z</time>
      </trkpt>
      <trkpt lat="44.34755" lon="0.65562">
        <ele>183</ele>
        <time>2012-02-26T08:34:22Z</time>
      </trkpt>
      <trkpt lat="44.34749" lon="0.65562">
        <ele>183</ele>
        <time>2012-02-26T08:34:23Z</time>
      </trkpt>
      <trkpt lat="44.34744" lon="0.65561">
        <ele>183</ele>
        <time>2012-02-26T08:34:24Z</time>
      </trkpt>
      <trkpt lat="44.34739" lon="0.6556">
        <ele>183</ele>
        <time>2012-02-26T08:34:25Z</time>
      </trkpt>
      <trkpt lat="44.34734" lon="0.65557">
        <ele>183</ele>
        <time>2012-02-26T08:34:26Z</time>
      </trkpt>
      <trkpt lat="44.34729" lon="0.65554">
        <ele>183</ele>
        <time>2012-02-26T08:34:27Z</time>
      </trkpt>
      <trkpt lat="44.34725" lon="0.65551">
        <ele>183</ele>
        <time>2012-02-26T08:34:28Z</time>
      </trkpt>
      <trkpt lat="44.34722" lon="0.65546">
        <ele>183</ele>
        <time>2012-02-26T08:34:29Z</time>
      </trkpt>
      <trkpt lat="44.34718" lon="0.65541">
        <ele>183</ele>
        <time>2012-02-26T08:34:30Z</time>
      </trkpt>
      <trkpt lat="44.34715" lon="0.65537">
        <ele>183</ele>
        <time>2012-02-26T08:34:31Z</time>
      </trkpt>
      <trkpt lat="44.34712" lon="0.65531">
        <ele>183</ele>
        <time>2012-02-26T08:34:32Z</time>
      </trkpt>
      <trkpt lat="44.34709" lon="0.65526">
        <ele>183</ele>
        <time>2012-02-26T08:34:33Z</time>
      </trkpt>
      <trkpt lat="44.34706" lon="0.6552">
        <ele>183</ele>
        <time>2012-02-26T08:34:34Z</time>
      </trkpt>
      <trkpt lat="44.34703" lon="0.65515">
        <ele>183</ele>
        <time>2012-02-26T08:34:35Z</time>
      </trkpt>
      <trkpt lat="44.347" lon="0.6551">
        <ele>183</ele>
        <time>2012-02-26T08:34:36Z</time>
      </trkpt>
      <trkpt lat="44.34697" lon="0.65505">
        <ele>183</ele>
        <time>2012-02-26T08:34:37Z</time>
      </trkpt>
      <trkpt lat="44.34694" lon="0.655">
        <ele>183</ele>
        <time>2012-02-26T08:34:38Z</time>
      </trkpt>
      <trkpt lat="44.3469" lon="0.65495">
        <ele>183</ele>
        <time>2012-02-26T08:34:39Z</time>
      </trkpt>
      <trkpt lat="44.34687" lon="0.65491">
        <ele>183</ele>
        <time>2012-02-26T08:34:40Z</time>
      </trkpt>
      <trkpt lat="44.34684" lon="0.65486">
        <ele>183</ele>
        <time>2012-02-26T08:34:41Z</time>
      </trkpt>
      <trkpt lat="44.34681" lon="0.65482">
        <ele>183</ele>
        <time>2012-02-26T08:34:42Z</time>
      </trkpt>
      <trkpt lat="44.34677" lon="0.65478">
        <ele>183</ele>
        <time>2012-02-26T08:34:43Z</time>
      </trkpt>
      <trkpt lat="44.34673" lon="0.65474">
        <ele>183</ele>
        <time>2012-02-26T08:34:44Z</time>
      </trkpt>
      <trkpt lat="44.34668" lon="0.65471">
        <ele>183</ele>
        <time>2012-02-26T08:34:45Z</time>
      </trkpt>
      <trkpt lat="44.34665" lon="0.65468">
        <ele>183</ele>
        <time>2012-02-26T08:34:46Z</time>
      </trkpt>
      <trkpt lat="44.3466" lon="0.65466">
        <ele>183</ele>
        <time>2012-02-26T08:34:47Z</time>
      </trkpt>
      <trkpt lat="44.34656" lon="0.65464">
        <ele>183</ele>
        <time>2012-02-26T08:34:48Z</time>
      </trkpt>
      <trkpt lat="44.34652" lon="0.65461">
        <ele>183</ele>
        <time>2012-02-26T08:34:49Z</time>
      </trkpt>
      <trkpt lat="44.34649" lon="0.65458">
        <ele>183</ele>
        <time>2012-02-26T08:34:50Z</time>
      </trkpt>
      <trkpt lat="44.34646" lon="0.65455">
        <ele>183</ele>
        <time>2012-02-26T08:34:51Z</time>
      </trkpt>
      <trkpt lat="44.34644" lon="0.65452">
        <ele>183</ele>
        <time>2012-02-26T08:34:52Z</time>
      </trkpt>
      <trkpt lat="44.34642" lon="0.6545">
        <ele>183</ele>
        <time>2012-02-26T08:34:53Z</time>
      </trkpt>
      <trkpt lat="44.3464" lon="0.65448">
        <ele>183</ele>
        <time>2012-02-26T08:34:54Z</time>
      </trkpt>
      <trkpt lat="44.34638" lon="0.65446">
        <ele>183</ele>
        <time>2012-02-26T08:34:55Z</time>
      </trkpt>
      <trkpt lat="44.34636" lon="0.65444">
        <ele>183</ele>
        <time>2012-02-26T08:34:56Z</time>
      </trkpt>
      <trkpt lat="44.34634" lon="0.65442">
        <ele>183</ele>
        <time>2012-02-26T08:34:57Z</time>
      </trkpt>
      <trkpt lat="44.34632" lon="0.6544">
        <ele>183</ele>
        <time>2012-02-26T08:34:58Z</time>
      </trkpt>
      <trkpt lat="44.34631" lon="0.65438">
        <ele>183</ele>
        <time>2012-02-26T08:34:59Z</time>
      </trkpt>
      <trkpt lat="44.34629" lon="0.65436">
        <ele>183</ele>
        <time>2012-02-26T08:35:00Z</time>
      </trkpt>
      <trkpt lat="44.34629" lon="0.65434">
        <ele>183</ele>
        <time>2012-02-26T08:35:01Z</time>
      </trkpt>
      <trkpt lat="44.34628" lon="0.65431">
        <ele>183</ele>
        <time>2012-02-26T08:35:02Z</time>
      </trkpt>
      <trkpt lat="44.34626" lon="0.6543">
        <ele>183</ele>
        <time>2012-02-26T08:35:03Z</time>
      </trkpt>
      <trkpt lat="44.34625" lon="0.6543">
        <ele>183</ele>
        <time>2012-02-26T08:35:04Z</time>
      </trkpt>
      <trkpt lat="44.34626" lon="0.6543">
        <ele>183</ele>
        <time>2012-02-26T08:35:14Z</time>
      </trkpt>
      <trkpt lat="44.34627" lon="0.65429">
        <ele>184</ele>
        <time>2012-02-26T08:35:20Z</time>
      </trkpt>
      <trkpt lat="44.34628" lon="0.65427">
        <ele>187</ele>
        <time>2012-02-26T08:35:25Z</time>
      </trkpt>
      <trkpt lat="44.34628" lon="0.65426">
        <ele>191</ele>
        <time>2012-02-26T08:35:32Z</time>
      </trkpt>
      <trkpt lat="44.34628" lon="0.65428">
        <ele>192</ele>
        <time>2012-02-26T08:35:37Z</time>
      </trkpt>
      <trkpt lat="44.34629" lon="0.65429">
        <ele>193</ele>
        <time>2012-02-26T08:35:40Z</time>
      </trkpt>
      <trkpt lat="44.34629" lon="0.6543">
        <ele>195</ele>
        <time>2012-02-26T08:35:46Z</time>
      </trkpt>
      <trkpt lat="44.3463" lon="0.65429">
        <ele>199</ele>
        <time>2012-02-26T08:36:47Z</time>
      </trkpt>
      <trkpt lat="44.3463" lon="0.65428">
        <ele>199</ele>
        <time>2012-02-26T08:36:54Z</time>
      </trkpt>
      <trkpt lat="44.34631" lon="0.65426">
        <ele>199</ele>
        <time>2012-02-26T08:37:02Z</time>
      </trkpt>
      <trkpt lat="44.34632" lon="0.65425">
        <ele>199</ele>
        <time>2012-02-26T08:37:14Z</time>
      </trkpt>
      <trkpt lat="44.34633" lon="0.65425">
        <ele>199</ele>
        <time>2012-02-26T08:37:56Z</time>
      </trkpt>
      <trkpt lat="44.34633" lon="0.65426">
        <ele>199</ele>
        <time>2012-02-26T08:38:51Z</time>
      </trkpt>
      <trkpt lat="44.34631" lon="0.65424">
        <ele>200</ele>
        <time>2012-02-26T08:39:17Z</time>
      </trkpt>
      <trkpt lat="44.3463" lon="0.65422">
        <ele>200</ele>
        <time>2012-02-26T08:39:19Z</time>
      </trkpt>
      <trkpt lat="44.34629" lon="0.65421">
        <ele>202</ele>
        <time>2012-02-26T08:39:22Z</time>
      </trkpt>
      <trkpt lat="44.34627" lon="0.65419">
        <ele>204</ele>
        <time>2012-02-26T08:39:25Z</time>
      </trkpt>
      <trkpt lat="44.34626" lon="0.65418">
        <ele>205</ele>
        <time>2012-02-26T08:39:28Z</time>
      </trkpt>
      <trkpt lat="44.34626" lon="0.65416">
        <ele>206</ele>
        <time>2012-02-26T08:39:31Z</time>
      </trkpt>
      <trkpt lat="44.34627" lon="0.65417">
        <ele>206</ele>
        <time>2012-02-26T08:39:32Z</time>
      </trkpt>
      <trkpt lat="44.34628" lon="0.65419">
        <ele>206</ele>
        <time>2012-02-26T08:39:34Z</time>
      </trkpt>
      <trkpt lat="44.34629" lon="0.65421">
        <ele>206</ele>
        <time>2012-02-26T08:39:36Z</time>
      </trkpt>
      <trkpt lat="44.34631" lon="0.6542">
        <ele>206</ele>
        <time>2012-02-26T08:39:38Z</time>
      </trkpt>
      <trkpt lat="44.34632" lon="0.65418">
        <ele>206</ele>
        <time>2012-02-26T08:39:39Z</time>
      </trkpt>
      <trkpt lat="44.34633" lon="0.65416">
        <ele>206</ele>
        <time>2012-02-26T08:39:40Z</time>
      </trkpt>
      <trkpt lat="44.34634" lon="0.65413">
        <ele>206</ele>
        <time>2012-02-26T08:39:41Z</time>
      </trkpt>
      <trkpt lat="44.34635" lon="0.65411">
        <ele>206</ele>
        <time>2012-02-26T08:39:42Z</time>
      </trkpt>
      <trkpt lat="44.34636" lon="0.65408">
        <ele>206</ele>
        <time>2012-02-26T08:39:43Z</time>
      </trkpt>
      <trkpt lat="44.34637" lon="0.65405">
        <ele>206</ele>
        <time>2012-02-26T08:39:44Z</time>
      </trkpt>
      <trkpt lat="44.34638" lon="0.65402">
        <ele>206</ele>
        <time>2012-02-26T08:39:45Z</time>
      </trkpt>
      <trkpt lat="44.34639" lon="0.65398">
        <ele>206</ele>
        <time>2012-02-26T08:39:46Z</time>
      </trkpt>
      <trkpt lat="44.34639" lon="0.65394">
        <ele>206</ele>
        <time>2012-02-26T08:39:47Z</time>
      </trkpt>
      <trkpt lat="44.3464" lon="0.6539">
        <ele>206</ele>
        <time>2012-02-26T08:39:48Z</time>
      </trkpt>
      <trkpt lat="44.34641" lon="0.65386">
        <ele>206</ele>
        <time>2012-02-26T08:39:49Z</time>
      </trkpt>
      <trkpt lat="44.34642" lon="0.65383">
        <ele>206</ele>
        <time>2012-02-26T08:39:50Z</time>
      </trkpt>
      <trkpt lat="44.34643" lon="0.65379">
        <ele>206</ele>
        <time>2012-02-26T08:39:51Z</time>
      </trkpt>
      <trkpt lat="44.34644" lon="0.65375">
        <ele>206</ele>
        <time>2012-02-26T08:39:52Z</time>
      </trkpt>
      <trkpt lat="44.34645" lon="0.65372">
        <ele>206</ele>
        <time>2012-02-26T08:39:53Z</time>
      </trkpt>
      <trkpt lat="44.34646" lon="0.65368">
        <ele>206</ele>
        <time>2012-02-26T08:39:54Z</time>
      </trkpt>
      <trkpt lat="44.34648" lon="0.65365">
        <ele>206</ele>
        <time>2012-02-26T08:39:55Z</time>
      </trkpt>
      <trkpt lat="44.34649" lon="0.65361">
        <ele>206</ele>
        <time>2012-02-26T08:39:56Z</time>
      </trkpt>
      <trkpt lat="44.3465" lon="0.65357">
        <ele>206</ele>
        <time>2012-02-26T08:39:57Z</time>
      </trkpt>
      <trkpt lat="44.34652" lon="0.65353">
        <ele>206</ele>
        <time>2012-02-26T08:39:58Z</time>
      </trkpt>
      <trkpt lat="44.34653" lon="0.65349">
        <ele>206</ele>
        <time>2012-02-26T08:39:59Z</time>
      </trkpt>
      <trkpt lat="44.34655" lon="0.65344">
        <ele>206</ele>
        <time>2012-02-26T08:40:00Z</time>
      </trkpt>
      <trkpt lat="44.34657" lon="0.6534">
        <ele>206</ele>
        <time>2012-02-26T08:40:01Z</time>
      </trkpt>
      <trkpt lat="44.34658" lon="0.65335">
        <ele>206</ele>
        <time>2012-02-26T08:40:02Z</time>
      </trkpt>
      <trkpt lat="44.34659" lon="0.65331">
        <ele>206</ele>
        <time>2012-02-26T08:40:03Z</time>
      </trkpt>
      <trkpt lat="44.34661" lon="0.65326">
        <ele>206</ele>
        <time>2012-02-26T08:40:04Z</time>
      </trkpt>
      <trkpt lat="44.34662" lon="0.65322">
        <ele>206</ele>
        <time>2012-02-26T08:40:05Z</time>
      </trkpt>
      <trkpt lat="44.34663" lon="0.65317">
        <ele>206</ele>
        <time>2012-02-26T08:40:06Z</time>
      </trkpt>
      <trkpt lat="44.34665" lon="0.65312">
        <ele>206</ele>
        <time>2012-02-26T08:40:07Z</time>
      </trkpt>
      <trkpt lat="44.34666" lon="0.65307">
        <ele>206</ele>
        <time>2012-02-26T08:40:08Z</time>
      </trkpt>
      <trkpt lat="44.34668" lon="0.65302">
        <ele>206</ele>
        <time>2012-02-26T08:40:09Z</time>
      </trkpt>
      <trkpt lat="44.34669" lon="0.65297">
        <ele>205</ele>
        <time>2012-02-26T08:40:10Z</time>
      </trkpt>
      <trkpt lat="44.3467" lon="0.65292">
        <ele>205</ele>
        <time>2012-02-26T08:40:11Z</time>
      </trkpt>
      <trkpt lat="44.34672" lon="0.65287">
        <ele>205</ele>
        <time>2012-02-26T08:40:12Z</time>
      </trkpt>
      <trkpt lat="44.34673" lon="0.65281">
        <ele>205</ele>
        <time>2012-02-26T08:40:13Z</time>
      </trkpt>
      <trkpt lat="44.34674" lon="0.65276">
        <ele>205</ele>
        <time>2012-02-26T08:40:14Z</time>
      </trkpt>
      <trkpt lat="44.34675" lon="0.65272">
        <ele>205</ele>
        <time>2012-02-26T08:40:15Z</time>
      </trkpt>
      <trkpt lat="44.34676" lon="0.65267">
        <ele>205</ele>
        <time>2012-02-26T08:40:16Z</time>
      </trkpt>
      <trkpt lat="44.34677" lon="0.65263">
        <ele>205</ele>
        <time>2012-02-26T08:40:17Z</time>
      </trkpt>
      <trkpt lat="44.34678" lon="0.65258">
        <ele>204</ele>
        <time>2012-02-26T08:40:18Z</time>
      </trkpt>
      <trkpt lat="44.34678" lon="0.65254">
        <ele>204</ele>
        <time>2012-02-26T08:40:19Z</time>
      </trkpt>
      <trkpt lat="44.34679" lon="0.65249">
        <ele>204</ele>
        <time>2012-02-26T08:40:20Z</time>
      </trkpt>
      <trkpt lat="44.34679" lon="0.65244">
        <ele>204</ele>
        <time>2012-02-26T08:40:21Z</time>
      </trkpt>
      <trkpt lat="44.34679" lon="0.65239">
        <ele>203</ele>
        <time>2012-02-26T08:40:22Z</time>
      </trkpt>
      <trkpt lat="44.34679" lon="0.65235">
        <ele>203</ele>
        <time>2012-02-26T08:40:23Z</time>
      </trkpt>
      <trkpt lat="44.34679" lon="0.6523">
        <ele>203</ele>
        <time>2012-02-26T08:40:24Z</time>
      </trkpt>
      <trkpt lat="44.34679" lon="0.65225">
        <ele>203</ele>
        <time>2012-02-26T08:40:25Z</time>
      </trkpt>
      <trkpt lat="44.3468" lon="0.6522">
        <ele>203</ele>
        <time>2012-02-26T08:40:26Z</time>
      </trkpt>
      <trkpt lat="44.3468" lon="0.65216">
        <ele>203</ele>
        <time>2012-02-26T08:40:27Z</time>
      </trkpt>
      <trkpt lat="44.3468" lon="0.65211">
        <ele>202</ele>
        <time>2012-02-26T08:40:28Z</time>
      </trkpt>
      <trkpt lat="44.3468" lon="0.65206">
        <ele>202</ele>
        <time>2012-02-26T08:40:29Z</time>
      </trkpt>
      <trkpt lat="44.3468" lon="0.65201">
        <ele>202</ele>
        <time>2012-02-26T08:40:30Z</time>
      </trkpt>
      <trkpt lat="44.34679" lon="0.65196">
        <ele>202</ele>
        <time>2012-02-26T08:40:31Z</time>
      </trkpt>
      <trkpt lat="44.34679" lon="0.65191">
        <ele>202</ele>
        <time>2012-02-26T08:40:32Z</time>
      </trkpt>
      <trkpt lat="44.34679" lon="0.65186">
        <ele>202</ele>
        <time>2012-02-26T08:40:33Z</time>
      </trkpt>
      <trkpt lat="44.34679" lon="0.6518">
        <ele>202</ele>
        <time>2012-02-26T08:40:34Z</time>
      </trkpt>
      <trkpt lat="44.34679" lon="0.65175">
        <ele>202</ele>
        <time>2012-02-26T08:40:35Z</time>
      </trkpt>
      <trkpt lat="44.34679" lon="0.6517">
        <ele>202</ele>
        <time>2012-02-26T08:40:36Z</time>
      </trkpt>
      <trkpt lat="44.34679" lon="0.65165">
        <ele>202</ele>
        <time>2012-02-26T08:40:37Z</time>
      </trkpt>
      <trkpt lat="44.3468" lon="0.6516">
        <ele>202</ele>
        <time>2012-02-26T08:40:38Z</time>
      </trkpt>
      <trkpt lat="44.3468" lon="0.65154">
        <ele>202</ele>
        <time>2012-02-26T08:40:39Z</time>
      </trkpt>
      <trkpt lat="44.3468" lon="0.65149">
        <ele>202</ele>
        <time>2012-02-26T08:40:40Z</time>
      </trkpt>
      <trkpt lat="44.34681" lon="0.65143">
        <ele>202</ele>
        <time>2012-02-26T08:40:41Z</time>
      </trkpt>
      <trkpt lat="44.34681" lon="0.65137">
        <ele>202</ele>
        <time>2012-02-26T08:40:42Z</time>
      </trkpt>
      <trkpt lat="44.34682" lon="0.65131">
        <ele>201</ele>
        <time>2012-02-26T08:40:43Z</time>
      </trkpt>
      <trkpt lat="44.34683" lon="0.65126">
        <ele>201</ele>
        <time>2012-02-26T08:40:44Z</time>
      </trkpt>
      <trkpt lat="44.34684" lon="0.65119">
        <ele>201</ele>
        <time>2012-02-26T08:40:45Z</time>
      </trkpt>
      <trkpt lat="44.34686" lon="0.65113">
        <ele>201</ele>
        <time>2012-02-26T08:40:46Z</time>
      </trkpt>
      <trkpt lat="44.34688" lon="0.65107">
        <ele>200</ele>
        <time>2012-02-26T08:40:47Z</time>
      </trkpt>
      <trkpt lat="44.3469" lon="0.65101">
        <ele>200</ele>
        <time>2012-02-26T08:40:48Z</time>
      </trkpt>
      <trkpt lat="44.34692" lon="0.65095">
        <ele>200</ele>
        <time>2012-02-26T08:40:49Z</time>
      </trkpt>
      <trkpt lat="44.34694" lon="0.65089">
        <ele>200</ele>
        <time>2012-02-26T08:40:50Z</time>
      </trkpt>
      <trkpt lat="44.34696" lon="0.65083">
        <ele>199</ele>
        <time>2012-02-26T08:40:51Z</time>
      </trkpt>
      <trkpt lat="44.34698" lon="0.65077">
        <ele>199</ele>
        <time>2012-02-26T08:40:52Z</time>
      </trkpt>
      <trkpt lat="44.347" lon="0.65071">
        <ele>199</ele>
        <time>2012-02-26T08:40:53Z</time>
      </trkpt>
      <trkpt lat="44.34703" lon="0.65065">
        <ele>199</ele>
        <time>2012-02-26T08:40:54Z</time>
      </trkpt>
      <trkpt lat="44.34705" lon="0.65059">
        <ele>199</ele>
        <time>2012-02-26T08:40:55Z</time>
      </trkpt>
      <trkpt lat="44.34707" lon="0.65052">
        <ele>198</ele>
        <time>2012-02-26T08:40:56Z</time>
      </trkpt>
      <trkpt lat="44.3471" lon="0.65047">
        <ele>198</ele>
        <time>2012-02-26T08:40:57Z</time>
      </trkpt>
      <trkpt lat="44.34711" lon="0.6504">
        <ele>198</ele>
        <time>2012-02-26T08:40:58Z</time>
      </trkpt>
      <trkpt lat="44.34714" lon="0.65035">
        <ele>198</ele>
        <time>2012-02-26T08:40:59Z</time>
      </trkpt>
      <trkpt lat="44.34715" lon="0.65029">
        <ele>197</ele>
        <time>2012-02-26T08:41:00Z</time>
      </trkpt>
      <trkpt lat="44.34717" lon="0.65023">
        <ele>197</ele>
        <time>2012-02-26T08:41:01Z</time>
      </trkpt>
      <trkpt lat="44.34717" lon="0.65017">
        <ele>197</ele>
        <time>2012-02-26T08:41:02Z</time>
      </trkpt>
      <trkpt lat="44.34717" lon="0.65011">
        <ele>196</ele>
        <time>2012-02-26T08:41:03Z</time>
      </trkpt>
      <trkpt lat="44.34715" lon="0.65006">
        <ele>196</ele>
        <time>2012-02-26T08:41:04Z</time>
      </trkpt>
      <trkpt lat="44.34712" lon="0.65001">
        <ele>196</ele>
        <time>2012-02-26T08:41:05Z</time>
      </trkpt>
      <trkpt lat="44.34708" lon="0.64999">
        <ele>196</ele>
        <time>2012-02-26T08:41:06Z</time>
      </trkpt>
      <trkpt lat="44.34705" lon="0.64996">
        <ele>195</ele>
        <time>2012-02-26T08:41:07Z</time>
      </trkpt>
      <trkpt lat="44.34701" lon="0.64994">
        <ele>195</ele>
        <time>2012-02-26T08:41:08Z</time>
      </trkpt>
      <trkpt lat="44.34697" lon="0.64992">
        <ele>195</ele>
        <time>2012-02-26T08:41:09Z</time>
      </trkpt>
      <trkpt lat="44.34693" lon="0.6499">
        <ele>194</ele>
        <time>2012-02-26T08:41:10Z</time>
      </trkpt>
      <trkpt lat="44.34689" lon="0.64987">
        <ele>194</ele>
        <time>2012-02-26T08:41:11Z</time>
      </trkpt>
      <trkpt lat="44.34685" lon="0.64985">
        <ele>194</ele>
        <time>2012-02-26T08:41:12Z</time>
      </trkpt>
      <trkpt lat="44.34681" lon="0.64982">
        <ele>193</ele>
        <time>2012-02-26T08:41:13Z</time>
      </trkpt>
      <trkpt lat="44.34677" lon="0.6498">
        <ele>193</ele>
        <time>2012-02-26T08:41:14Z</time>
      </trkpt>
      <trkpt lat="44.34673" lon="0.64978">
        <ele>193</ele>
        <time>2012-02-26T08:41:15Z</time>
      </trkpt>
      <trkpt lat="44.34668" lon="0.64976">
        <ele>193</ele>
        <time>2012-02-26T08:41:16Z</time>
      </trkpt>
      <trkpt lat="44.34665" lon="0.64974">
        <ele>193</ele>
        <time>2012-02-26T08:41:17Z</time>
      </trkpt>
      <trkpt lat="44.34661" lon="0.64972">
        <ele>193</ele>
        <time>2012-02-26T08:41:18Z</time>
      </trkpt>
      <trkpt lat="44.34658" lon="0.6497">
        <ele>192</ele>
        <time>2012-02-26T08:41:19Z</time>
      </trkpt>
      <trkpt lat="44.34654" lon="0.64968">
        <ele>192</ele>
        <time>2012-02-26T08:41:20Z</time>
      </trkpt>
      <trkpt lat="44.3465" lon="0.64965">
        <ele>192</ele>
        <time>2012-02-26T08:41:21Z</time>
      </trkpt>
      <trkpt lat="44.34647" lon="0.64963">
        <ele>192</ele>
        <time>2012-02-26T08:41:22Z</time>
      </trkpt>
      <trkpt lat="44.34643" lon="0.6496">
        <ele>192</ele>
        <time>2012-02-26T08:41:23Z</time>
      </trkpt>
      <trkpt lat="44.3464" lon="0.64958">
        <ele>192</ele>
        <time>2012-02-26T08:41:24Z</time>
      </trkpt>
      <trkpt lat="44.34636" lon="0.64956">
        <ele>192</ele>
        <time>2012-02-26T08:41:25Z</time>
      </trkpt>
      <trkpt lat="44.34633" lon="0.64954">
        <ele>192</ele>
        <time>2012-02-26T08:41:26Z</time>
      </trkpt>
      <trkpt lat="44.34629" lon="0.64951">
        <ele>192</ele>
        <time>2012-02-26T08:41:27Z</time>
      </trkpt>
      <trkpt lat="44.34626" lon="0.6495">
        <ele>192</ele>
        <time>2012-02-26T08:41:28Z</time>
      </trkpt>
      <trkpt lat="44.34623" lon="0.64948">
        <ele>192</ele>
        <time>2012-02-26T08:41:29Z</time>
      </trkpt>
      <trkpt lat="44.34619" lon="0.64946">
        <ele>192</ele>
        <time>2012-02-26T08:41:30Z</time>
      </trkpt>
      <trkpt lat="44.34616" lon="0.64943">
        <ele>192</ele>
        <time>2012-02-26T08:41:31Z</time>
      </trkpt>
      <trkpt lat="44.34613" lon="0.64942">
        <ele>192</ele>
        <time>2012-02-26T08:41:32Z</time>
      </trkpt>
      <trkpt lat="44.34609" lon="0.6494">
        <ele>192</ele>
        <time>2012-02-26T08:41:33Z</time>
      </trkpt>
      <trkpt lat="44.34606" lon="0.64938">
        <ele>192</ele>
        <time>2012-02-26T08:41:34Z</time>
      </trkpt>
      <trkpt lat="44.34603" lon="0.64937">
        <ele>192</ele>
        <time>2012-02-26T08:41:35Z</time>
      </trkpt>
      <trkpt lat="44.346" lon="0.64936">
        <ele>192</ele>
        <time>2012-02-26T08:41:36Z</time>
      </trkpt>
      <trkpt lat="44.34597" lon="0.64934">
        <ele>192</ele>
        <time>2012-02-26T08:41:37Z</time>
      </trkpt>
      <trkpt lat="44.34595" lon="0.64933">
        <ele>192</ele>
        <time>2012-02-26T08:41:38Z</time>
      </trkpt>
      <trkpt lat="44.34592" lon="0.64933">
        <ele>192</ele>
        <time>2012-02-26T08:41:39Z</time>
      </trkpt>
      <trkpt lat="44.34589" lon="0.64933">
        <ele>192</ele>
        <time>2012-02-26T08:41:40Z</time>
      </trkpt>
      <trkpt lat="44.34587" lon="0.64932">
        <ele>192</ele>
        <time>2012-02-26T08:41:41Z</time>
      </trkpt>
      <trkpt lat="44.34585" lon="0.64931">
        <ele>192</ele>
        <time>2012-02-26T08:41:42Z</time>
      </trkpt>
      <trkpt lat="44.34583" lon="0.6493">
        <ele>192</ele>
        <time>2012-02-26T08:41:43Z</time>
      </trkpt>
      <trkpt lat="44.34581" lon="0.6493">
        <ele>192</ele>
        <time>2012-02-26T08:41:44Z</time>
      </trkpt>
      <trkpt lat="44.34579" lon="0.64929">
        <ele>192</ele>
        <time>2012-02-26T08:41:45Z</time>
      </trkpt>
      <trkpt lat="44.34577" lon="0.64928">
        <ele>192</ele>
        <time>2012-02-26T08:41:46Z</time>
      </trkpt>
      <trkpt lat="44.34575" lon="0.64927">
        <ele>192</ele>
        <time>2012-02-26T08:41:47Z</time>
      </trkpt>
      <trkpt lat="44.34574" lon="0.64926">
        <ele>192</ele>
        <time>2012-02-26T08:41:48Z</time>
      </trkpt>
      <trkpt lat="44.34572" lon="0.64926">
        <ele>192</ele>
        <time>2012-02-26T08:41:49Z</time>
      </trkpt>
      <trkpt lat="44.34571" lon="0.64925">
        <ele>192</ele>
        <time>2012-02-26T08:41:50Z</time>
      </trkpt>
      <trkpt lat="44.34569" lon="0.64923">
        <ele>192</ele>
        <time>2012-02-26T08:41:52Z</time>
      </trkpt>
      <trkpt lat="44.34568" lon="0.64922">
        <ele>193</ele>
        <time>2012-02-26T08:41:53Z</time>
      </trkpt>
      <trkpt lat="44.34565" lon="0.6492">
        <ele>194</ele>
        <time>2012-02-26T08:41:54Z</time>
      </trkpt>
      <trkpt lat="44.34564" lon="0.6492">
        <ele>195</ele>
        <time>2012-02-26T08:41:55Z</time>
      </trkpt>
      <trkpt lat="44.34562" lon="0.64919">
        <ele>195</ele>
        <time>2012-02-26T08:41:56Z</time>
      </trkpt>
      <trkpt lat="44.3456" lon="0.64918">
        <ele>196</ele>
        <time>2012-02-26T08:41:57Z</time>
      </trkpt>
      <trkpt lat="44.34558" lon="0.64918">
        <ele>197</ele>
        <time>2012-02-26T08:41:58Z</time>
      </trkpt>
      <trkpt lat="44.34557" lon="0.64917">
        <ele>197</ele>
        <time>2012-02-26T08:41:59Z</time>
      </trkpt>
      <trkpt lat="44.34555" lon="0.64916">
        <ele>198</ele>
        <time>2012-02-26T08:42:00Z</time>
      </trkpt>
      <trkpt lat="44.34553" lon="0.64915">
        <ele>198</ele>
        <time>2012-02-26T08:42:01Z</time>
      </trkpt>
      <trkpt lat="44.34551" lon="0.64914">
        <ele>199</ele>
        <time>2012-02-26T08:42:02Z</time>
      </trkpt>
      <trkpt lat="44.34549" lon="0.64913">
        <ele>199</ele>
        <time>2012-02-26T08:42:03Z</time>
      </trkpt>
      <trkpt lat="44.34547" lon="0.64912">
        <ele>199</ele>
        <time>2012-02-26T08:42:04Z</time>
      </trkpt>
      <trkpt lat="44.34545" lon="0.64911">
        <ele>200</ele>
        <time>2012-02-26T08:42:05Z</time>
      </trkpt>
      <trkpt lat="44.34543" lon="0.64909">
        <ele>200</ele>
        <time>2012-02-26T08:42:06Z</time>
      </trkpt>
      <trkpt lat="44.34541" lon="0.64907">
        <ele>200</ele>
        <time>2012-02-26T08:42:07Z</time>
      </trkpt>
      <trkpt lat="44.34539" lon="0.64906">
        <ele>200</ele>
        <time>2012-02-26T08:42:08Z</time>
      </trkpt>
      <trkpt lat="44.34537" lon="0.64904">
        <ele>200</ele>
        <time>2012-02-26T08:42:09Z</time>
      </trkpt>
      <trkpt lat="44.34535" lon="0.64902">
        <ele>201</ele>
        <time>2012-02-26T08:42:10Z</time>
      </trkpt>
      <trkpt lat="44.34533" lon="0.649">
        <ele>201</ele>
        <time>2012-02-26T08:42:11Z</time>
      </trkpt>
      <trkpt lat="44.34531" lon="0.64898">
        <ele>202</ele>
        <time>2012-02-26T08:42:12Z</time>
      </trkpt>
      <trkpt lat="44.34528" lon="0.64896">
        <ele>202</ele>
        <time>2012-02-26T08:42:13Z</time>
      </trkpt>
      <trkpt lat="44.34526" lon="0.64894">
        <ele>203</ele>
        <time>2012-02-26T08:42:14Z</time>
      </trkpt>
      <trkpt lat="44.34523" lon="0.64891">
        <ele>204</ele>
        <time>2012-02-26T08:42:15Z</time>
      </trkpt>
      <trkpt lat="44.34521" lon="0.64889">
        <ele>204</ele>
        <time>2012-02-26T08:42:16Z</time>
      </trkpt>
      <trkpt lat="44.34519" lon="0.64887">
        <ele>204</ele>
        <time>2012-02-26T08:42:17Z</time>
      </trkpt>
      <trkpt lat="44.34516" lon="0.64884">
        <ele>205</ele>
        <time>2012-02-26T08:42:18Z</time>
      </trkpt>
      <trkpt lat="44.34514" lon="0.64881">
        <ele>205</ele>
        <time>2012-02-26T08:42:19Z</time>
      </trkpt>
      <trkpt lat="44.34511" lon="0.64878">
        <ele>205</ele>
        <time>2012-02-26T08:42:20Z</time>
      </trkpt>
      <trkpt lat="44.34507" lon="0.64874">
        <ele>206</ele>
        <time>2012-02-26T08:42:21Z</time>
      </trkpt>
      <trkpt lat="44.34504" lon="0.64868">
        <ele>206</ele>
        <time>2012-02-26T08:42:22Z</time>
      </trkpt>
      <trkpt lat="44.34501" lon="0.64862">
        <ele>206</ele>
        <time>2012-02-26T08:42:23Z</time>
      </trkpt>
      <trkpt lat="44.34499" lon="0.64856">
        <ele>206</ele>
        <time>2012-02-26T08:42:24Z</time>
      </trkpt>
      <trkpt lat="44.34496" lon="0.6485">
        <ele>206</ele>
        <time>2012-02-26T08:42:25Z</time>
      </trkpt>
      <trkpt lat="44.34493" lon="0.64845">
        <ele>206</ele>
        <time>2012-02-26T08:42:26Z</time>
      </trkpt>
      <trkpt lat="44.34489" lon="0.64839">
        <ele>206</ele>
        <time>2012-02-26T08:42:27Z</time>
      </trkpt>
      <trkpt lat="44.34485" lon="0.64833">
        <ele>206</ele>
        <time>2012-02-26T08:42:28Z</time>
      </trkpt>
      <trkpt lat="44.34481" lon="0.64828">
        <ele>206</ele>
        <time>2012-02-26T08:42:29Z</time>
      </trkpt>
      <trkpt lat="44.34477" lon="0.64821">
        <ele>206</ele>
        <time>2012-02-26T08:42:30Z</time>
      </trkpt>
      <trkpt lat="44.34474" lon="0.64815">
        <ele>206</ele>
        <time>2012-02-26T08:42:31Z</time>
      </trkpt>
      <trkpt lat="44.3447" lon="0.64809">
        <ele>206</ele>
        <time>2012-02-26T08:42:32Z</time>
      </trkpt>
      <trkpt lat="44.34466" lon="0.64803">
        <ele>206</ele>
        <time>2012-02-26T08:42:33Z</time>
      </trkpt>
      <trkpt lat="44.34462" lon="0.64799">
        <ele>206</ele>
        <time>2012-02-26T08:42:34Z</time>
      </trkpt>
      <trkpt lat="44.34457" lon="0.64795">
        <ele>206</ele>
        <time>2012-02-26T08:42:35Z</time>
      </trkpt>
      <trkpt lat="44.34453" lon="0.6479">
        <ele>206</ele>
        <time>2012-02-26T08:42:36Z</time>
      </trkpt>
      <trkpt lat="44.34449" lon="0.64785">
        <ele>206</ele>
        <time>2012-02-26T08:42:37Z</time>
      </trkpt>
      <trkpt lat="44.34445" lon="0.64779">
        <ele>206</ele>
        <time>2012-02-26T08:42:38Z</time>
      </trkpt>
      <trkpt lat="44.34441" lon="0.64774">
        <ele>206</ele>
        <time>2012-02-26T08:42:39Z</time>
      </trkpt>
      <trkpt lat="44.34436" lon="0.64769">
        <ele>206</ele>
        <time>2012-02-26T08:42:40Z</time>
      </trkpt>
      <trkpt lat="44.34432" lon="0.64764">
        <ele>205</ele>
        <time>2012-02-26T08:42:41Z</time>
      </trkpt>
      <trkpt lat="44.34428" lon="0.6476">
        <ele>205</ele>
        <time>2012-02-26T08:42:42Z</time>
      </trkpt>
      <trkpt lat="44.34425" lon="0.64757">
        <ele>205</ele>
        <time>2012-02-26T08:42:43Z</time>
      </trkpt>
      <trkpt lat="44.34423" lon="0.64752">
        <ele>205</ele>
        <time>2012-02-26T08:42:44Z</time>
      </trkpt>
      <trkpt lat="44.34422" lon="0.64747">
        <ele>204</ele>
        <time>2012-02-26T08:42:45Z</time>
      </trkpt>
      <trkpt lat="44.3442" lon="0.6474">
        <ele>204</ele>
        <time>2012-02-26T08:42:46Z</time>
      </trkpt>
      <trkpt lat="44.34419" lon="0.64731">
        <ele>204</ele>
        <time>2012-02-26T08:42:47Z</time>
      </trkpt>
      <trkpt lat="44.34419" lon="0.64723">
        <ele>204</ele>
        <time>2012-02-26T08:42:48Z</time>
      </trkpt>
      <trkpt lat="44.34422" lon="0.64715">
        <ele>204</ele>
        <time>2012-02-26T08:42:49Z</time>
      </trkpt>
      <trkpt lat="44.34425" lon="0.64706">
        <ele>204</ele>
        <time>2012-02-26T08:42:50Z</time>
      </trkpt>
      <trkpt lat="44.34427" lon="0.64699">
        <ele>204</ele>
        <time>2012-02-26T08:42:51Z</time>
      </trkpt>
      <trkpt lat="44.34428" lon="0.6469">
        <ele>204</ele>
        <time>2012-02-26T08:42:52Z</time>
      </trkpt>
      <trkpt lat="44.3443" lon="0.64682">
        <ele>204</ele>
        <time>2012-02-26T08:42:53Z</time>
      </trkpt>
      <trkpt lat="44.3443" lon="0.64671">
        <ele>204</ele>
        <time>2012-02-26T08:42:54Z</time>
      </trkpt>
      <trkpt lat="44.34431" lon="0.64663">
        <ele>203</ele>
        <time>2012-02-26T08:42:55Z</time>
      </trkpt>
      <trkpt lat="44.34432" lon="0.64655">
        <ele>202</ele>
        <time>2012-02-26T08:42:56Z</time>
      </trkpt>
      <trkpt lat="44.34434" lon="0.64646">
        <ele>201</ele>
        <time>2012-02-26T08:42:57Z</time>
      </trkpt>
      <trkpt lat="44.34436" lon="0.64638">
        <ele>201</ele>
        <time>2012-02-26T08:42:58Z</time>
      </trkpt>
      <trkpt lat="44.34438" lon="0.64631">
        <ele>201</ele>
        <time>2012-02-26T08:42:59Z</time>
      </trkpt>
      <trkpt lat="44.3444" lon="0.64623">
        <ele>201</ele>
        <time>2012-02-26T08:43:00Z</time>
      </trkpt>
      <trkpt lat="44.34441" lon="0.64615">
        <ele>201</ele>
        <time>2012-02-26T08:43:01Z</time>
      </trkpt>
      <trkpt lat="44.34441" lon="0.64607">
        <ele>201</ele>
        <time>2012-02-26T08:43:02Z</time>
      </trkpt>
      <trkpt lat="44.34441" lon="0.64599">
        <ele>201</ele>
        <time>2012-02-26T08:43:03Z</time>
      </trkpt>
      <trkpt lat="44.34441" lon="0.64592">
        <ele>200</ele>
        <time>2012-02-26T08:43:04Z</time>
      </trkpt>
      <trkpt lat="44.3444" lon="0.64588">
        <ele>200</ele>
        <time>2012-02-26T08:43:05Z</time>
      </trkpt>
      <trkpt lat="44.34439" lon="0.64586">
        <ele>199</ele>
        <time>2012-02-26T08:43:06Z</time>
      </trkpt>
      <trkpt lat="44.34436" lon="0.64587">
        <ele>199</ele>
        <time>2012-02-26T08:43:07Z</time>
      </trkpt>
      <trkpt lat="44.34432" lon="0.64589">
        <ele>198</ele>
        <time>2012-02-26T08:43:08Z</time>
      </trkpt>
      <trkpt lat="44.34428" lon="0.64591">
        <ele>198</ele>
        <time>2012-02-26T08:43:09Z</time>
      </trkpt>
      <trkpt lat="44.34424" lon="0.64594">
        <ele>198</ele>
        <time>2012-02-26T08:43:10Z</time>
      </trkpt>
      <trkpt lat="44.3442" lon="0.64596">
        <ele>197</ele>
        <time>2012-02-26T08:43:11Z</time>
      </trkpt>
      <trkpt lat="44.34414" lon="0.64599">
        <ele>197</ele>
        <time>2012-02-26T08:43:12Z</time>
      </trkpt>
      <trkpt lat="44.34407" lon="0.64601">
        <ele>196</ele>
        <time>2012-02-26T08:43:13Z</time>
      </trkpt>
      <trkpt lat="44.34399" lon="0.64604">
        <ele>196</ele>
        <time>2012-02-26T08:43:14Z</time>
      </trkpt>
      <trkpt lat="44.34393" lon="0.64606">
        <ele>195</ele>
        <time>2012-02-26T08:43:15Z</time>
      </trkpt>
      <trkpt lat="44.34387" lon="0.64607">
        <ele>195</ele>
        <time>2012-02-26T08:43:16Z</time>
      </trkpt>
      <trkpt lat="44.34381" lon="0.64609">
        <ele>195</ele>
        <time>2012-02-26T08:43:17Z</time>
      </trkpt>
      <trkpt lat="44.34376" lon="0.64611">
        <ele>195</ele>
        <time>2012-02-26T08:43:18Z</time>
      </trkpt>
      <trkpt lat="44.34373" lon="0.64612">
        <ele>195</ele>
        <time>2012-02-26T08:43:19Z</time>
      </trkpt>
      <trkpt lat="44.34369" lon="0.64612">
        <ele>195</ele>
        <time>2012-02-26T08:43:20Z</time>
      </trkpt>
      <trkpt lat="44.34365" lon="0.64612">
        <ele>195</ele>
        <time>2012-02-26T08:43:21Z</time>
      </trkpt>
      <trkpt lat="44.34362" lon="0.64613">
        <ele>195</ele>
        <time>2012-02-26T08:43:22Z</time>
      </trkpt>
      <trkpt lat="44.3436" lon="0.64613">
        <ele>195</ele>
        <time>2012-02-26T08:43:23Z</time>
      </trkpt>
      <trkpt lat="44.34357" lon="0.64614">
        <ele>195</ele>
        <time>2012-02-26T08:43:24Z</time>
      </trkpt>
      <trkpt lat="44.34353" lon="0.64614">
        <ele>195</ele>
        <time>2012-02-26T08:43:25Z</time>
      </trkpt>
      <trkpt lat="44.34348" lon="0.64616">
        <ele>195</ele>
        <time>2012-02-26T08:43:26Z</time>
      </trkpt>
      <trkpt lat="44.34343" lon="0.64618">
        <ele>195</ele>
        <time>2012-02-26T08:43:27Z</time>
      </trkpt>
      <trkpt lat="44.34339" lon="0.64621">
        <ele>195</ele>
        <time>2012-02-26T08:43:28Z</time>
      </trkpt>
      <trkpt lat="44.34335" lon="0.64623">
        <ele>195</ele>
        <time>2012-02-26T08:43:29Z</time>
      </trkpt>
      <trkpt lat="44.3433" lon="0.64627">
        <ele>195</ele>
        <time>2012-02-26T08:43:30Z</time>
      </trkpt>
      <trkpt lat="44.34326" lon="0.6463">
        <ele>195</ele>
        <time>2012-02-26T08:43:31Z</time>
      </trkpt>
      <trkpt lat="44.34321" lon="0.64633">
        <ele>195</ele>
        <time>2012-02-26T08:43:32Z</time>
      </trkpt>
      <trkpt lat="44.34317" lon="0.64635">
        <ele>195</ele>
        <time>2012-02-26T08:43:33Z</time>
      </trkpt>
      <trkpt lat="44.34312" lon="0.64638">
        <ele>195</ele>
        <time>2012-02-26T08:43:34Z</time>
      </trkpt>
      <trkpt lat="44.34308" lon="0.6464">
        <ele>195</ele>
        <time>2012-02-26T08:43:35Z</time>
      </trkpt>
      <trkpt lat="44.34304" lon="0.64643">
        <ele>195</ele>
        <time>2012-02-26T08:43:36Z</time>
      </trkpt>
      <trkpt lat="44.34299" lon="0.64646">
        <ele>195</ele>
        <time>2012-02-26T08:43:37Z</time>
      </trkpt>
      <trkpt lat="44.34295" lon="0.64649">
        <ele>195</ele>
        <time>2012-02-26T08:43:38Z</time>
      </trkpt>
      <trkpt lat="44.3429" lon="0.64653">
        <ele>195</ele>
        <time>2012-02-26T08:43:39Z</time>
      </trkpt>
      <trkpt lat="44.34286" lon="0.64656">
        <ele>195</ele>
        <time>2012-02-26T08:43:40Z</time>
      </trkpt>
      <trkpt lat="44.34282" lon="0.6466">
        <ele>195</ele>
        <time>2012-02-26T08:43:41Z</time>
      </trkpt>
      <trkpt lat="44.34278" lon="0.64663">
        <ele>195</ele>
        <time>2012-02-26T08:43:42Z</time>
      </trkpt>
      <trkpt lat="44.34274" lon="0.64666">
        <ele>195</ele>
        <time>2012-02-26T08:43:43Z</time>
      </trkpt>
      <trkpt lat="44.34269" lon="0.64669">
        <ele>195</ele>
        <time>2012-02-26T08:43:44Z</time>
      </trkpt>
      <trkpt lat="44.34264" lon="0.64672">
        <ele>195</ele>
        <time>2012-02-26T08:43:45Z</time>
      </trkpt>
      <trkpt lat="44.34259" lon="0.64674">
        <ele>195</ele>
        <time>2012-02-26T08:43:46Z</time>
      </trkpt>
      <trkpt lat="44.34254" lon="0.64676">
        <ele>195</ele>
        <time>2012-02-26T08:43:47Z</time>
      </trkpt>
      <trkpt lat="44.34248" lon="0.64679">
        <ele>195</ele>
        <time>2012-02-26T08:43:48Z</time>
      </trkpt>
      <trkpt lat="44.34243" lon="0.64681">
        <ele>195</ele>
        <time>2012-02-26T08:43:49Z</time>
      </trkpt>
      <trkpt lat="44.34238" lon="0.64683">
        <ele>195</ele>
        <time>2012-02-26T08:43:50Z</time>
      </trkpt>
      <trkpt lat="44.34232" lon="0.64685">
        <ele>195</ele>
        <time>2012-02-26T08:43:51Z</time>
      </trkpt>
      <trkpt lat="44.34227" lon="0.64687">
        <ele>195</ele>
        <time>2012-02-26T08:43:52Z</time>
      </trkpt>
      <trkpt lat="44.34222" lon="0.6469">
        <ele>195</ele>
        <time>2012-02-26T08:43:53Z</time>
      </trkpt>
      <trkpt lat="44.34217" lon="0.64693">
        <ele>195</ele>
        <time>2012-02-26T08:43:54Z</time>
      </trkpt>
      <trkpt lat="44.34212" lon="0.64696">
        <ele>195</ele>
        <time>2012-02-26T08:43:55Z</time>
      </trkpt>
      <trkpt lat="44.34206" lon="0.64698">
        <ele>195</ele>
        <time>2012-02-26T08:43:56Z</time>
      </trkpt>
      <trkpt lat="44.34201" lon="0.647">
        <ele>195</ele>
        <time>2012-02-26T08:43:57Z</time>
      </trkpt>
      <trkpt lat="44.34195" lon="0.64701">
        <ele>195</ele>
        <time>2012-02-26T08:43:58Z</time>
      </trkpt>
      <trkpt lat="44.3419" lon="0.64702">
        <ele>195</ele>
        <time>2012-02-26T08:43:59Z</time>
      </trkpt>
      <trkpt lat="44.34184" lon="0.64704">
        <ele>195</ele>
        <time>2012-02-26T08:44:00Z</time>
      </trkpt>
      <trkpt lat="44.34179" lon="0.64705">
        <ele>195</ele>
        <time>2012-02-26T08:44:01Z</time>
      </trkpt>
      <trkpt lat="44.34174" lon="0.64704">
        <ele>195</ele>
        <time>2012-02-26T08:44:02Z</time>
      </trkpt>
      <trkpt lat="44.34167" lon="0.64704">
        <ele>195</ele>
        <time>2012-02-26T08:44:03Z</time>
      </trkpt>
      <trkpt lat="44.34161" lon="0.64703">
        <ele>195</ele>
        <time>2012-02-26T08:44:04Z</time>
      </trkpt>
      <trkpt lat="44.34155" lon="0.64701">
        <ele>195</ele>
        <time>2012-02-26T08:44:05Z</time>
      </trkpt>
      <trkpt lat="44.34148" lon="0.647">
        <ele>195</ele>
        <time>2012-02-26T08:44:06Z</time>
      </trkpt>
      <trkpt lat="44.34142" lon="0.64698">
        <ele>194</ele>
        <time>2012-02-26T08:44:07Z</time>
      </trkpt>
      <trkpt lat="44.34136" lon="0.64697">
        <ele>193</ele>
        <time>2012-02-26T08:44:08Z</time>
      </trkpt>
      <trkpt lat="44.3413" lon="0.64696">
        <ele>193</ele>
        <time>2012-02-26T08:44:09Z</time>
      </trkpt>
      <trkpt lat="44.34124" lon="0.64695">
        <ele>192</ele>
        <time>2012-02-26T08:44:10Z</time>
      </trkpt>
      <trkpt lat="44.34118" lon="0.64694">
        <ele>192</ele>
        <time>2012-02-26T08:44:11Z</time>
      </trkpt>
      <trkpt lat="44.34112" lon="0.64693">
        <ele>192</ele>
        <time>2012-02-26T08:44:12Z</time>
      </trkpt>
      <trkpt lat="44.34106" lon="0.64692">
        <ele>192</ele>
        <time>2012-02-26T08:44:13Z</time>
      </trkpt>
      <trkpt lat="44.34101" lon="0.64692">
        <ele>192</ele>
        <time>2012-02-26T08:44:14Z</time>
      </trkpt>
      <trkpt lat="44.34096" lon="0.64692">
        <ele>192</ele>
        <time>2012-02-26T08:44:15Z</time>
      </trkpt>
      <trkpt lat="44.34092" lon="0.64691">
        <ele>192</ele>
        <time>2012-02-26T08:44:16Z</time>
      </trkpt>
      <trkpt lat="44.34087" lon="0.6469">
        <ele>192</ele>
        <time>2012-02-26T08:44:17Z</time>
      </trkpt>
      <trkpt lat="44.34082" lon="0.64689">
        <ele>192</ele>
        <time>2012-02-26T08:44:18Z</time>
      </trkpt>
      <trkpt lat="44.34077" lon="0.64688">
        <ele>192</ele>
        <time>2012-02-26T08:44:19Z</time>
      </trkpt>
      <trkpt lat="44.34072" lon="0.64687">
        <ele>192</ele>
        <time>2012-02-26T08:44:20Z</time>
      </trkpt>
      <trkpt lat="44.34068" lon="0.64685">
        <ele>192</ele>
        <time>2012-02-26T08:44:21Z</time>
      </trkpt>
      <trkpt lat="44.34063" lon="0.64683">
        <ele>192</ele>
        <time>2012-02-26T08:44:22Z</time>
      </trkpt>
      <trkpt lat="44.34058" lon="0.64682">
        <ele>192</ele>
        <time>2012-02-26T08:44:23Z</time>
      </trkpt>
      <trkpt lat="44.34053" lon="0.64681">
        <ele>192</ele>
        <time>2012-02-26T08:44:24Z</time>
      </trkpt>
      <trkpt lat="44.34048" lon="0.6468">
        <ele>192</ele>
        <time>2012-02-26T08:44:25Z</time>
      </trkpt>
      <trkpt lat="44.34043" lon="0.64679">
        <ele>192</ele>
        <time>2012-02-26T08:44:26Z</time>
      </trkpt>
      <trkpt lat="44.34038" lon="0.64678">
        <ele>192</ele>
        <time>2012-02-26T08:44:27Z</time>
      </trkpt>
      <trkpt lat="44.34033" lon="0.64678">
        <ele>192</ele>
        <time>2012-02-26T08:44:28Z</time>
      </trkpt>
      <trkpt lat="44.34027" lon="0.64678">
        <ele>192</ele>
        <time>2012-02-26T08:44:29Z</time>
      </trkpt>
      <trkpt lat="44.34021" lon="0.64678">
        <ele>192</ele>
        <time>2012-02-26T08:44:30Z</time>
      </trkpt>
      <trkpt lat="44.34015" lon="0.64678">
        <ele>192</ele>
        <time>2012-02-26T08:44:31Z</time>
      </trkpt>
      <trkpt lat="44.34009" lon="0.64678">
        <ele>192</ele>
        <time>2012-02-26T08:44:32Z</time>
      </trkpt>
      <trkpt lat="44.34003" lon="0.64678">
        <ele>192</ele>
        <time>2012-02-26T08:44:33Z</time>
      </trkpt>
      <trkpt lat="44.33997" lon="0.64676">
        <ele>192</ele>
        <time>2012-02-26T08:44:34Z</time>
      </trkpt>
      <trkpt lat="44.33992" lon="0.64675">
        <ele>192</ele>
        <time>2012-02-26T08:44:35Z</time>
      </trkpt>
      <trkpt lat="44.33986" lon="0.64675">
        <ele>192</ele>
        <time>2012-02-26T08:44:36Z</time>
      </trkpt>
      <trkpt lat="44.3398" lon="0.64674">
        <ele>192</ele>
        <time>2012-02-26T08:44:37Z</time>
      </trkpt>
      <trkpt lat="44.33975" lon="0.64672">
        <ele>192</ele>
        <time>2012-02-26T08:44:38Z</time>
      </trkpt>
      <trkpt lat="44.3397" lon="0.64671">
        <ele>192</ele>
        <time>2012-02-26T08:44:39Z</time>
      </trkpt>
      <trkpt lat="44.33965" lon="0.6467">
        <ele>192</ele>
        <time>2012-02-26T08:44:40Z</time>
      </trkpt>
      <trkpt lat="44.3396" lon="0.6467">
        <ele>192</ele>
        <time>2012-02-26T08:44:41Z</time>
      </trkpt>
      <trkpt lat="44.33955" lon="0.6467">
        <ele>192</ele>
        <time>2012-02-26T08:44:42Z</time>
      </trkpt>
      <trkpt lat="44.3395" lon="0.64671">
        <ele>192</ele>
        <time>2012-02-26T08:44:43Z</time>
      </trkpt>
      <trkpt lat="44.33946" lon="0.64672">
        <ele>192</ele>
        <time>2012-02-26T08:44:44Z</time>
      </trkpt>
      <trkpt lat="44.33941" lon="0.64674">
        <ele>192</ele>
        <time>2012-02-26T08:44:45Z</time>
      </trkpt>
      <trkpt lat="44.33937" lon="0.64676">
        <ele>192</ele>
        <time>2012-02-26T08:44:46Z</time>
      </trkpt>
      <trkpt lat="44.33933" lon="0.6468">
        <ele>192</ele>
        <time>2012-02-26T08:44:47Z</time>
      </trkpt>
      <trkpt lat="44.33929" lon="0.64684">
        <ele>192</ele>
        <time>2012-02-26T08:44:48Z</time>
      </trkpt>
      <trkpt lat="44.33925" lon="0.6469">
        <ele>192</ele>
        <time>2012-02-26T08:44:49Z</time>
      </trkpt>
      <trkpt lat="44.33921" lon="0.64695">
        <ele>192</ele>
        <time>2012-02-26T08:44:50Z</time>
      </trkpt>
      <trkpt lat="44.33916" lon="0.64699">
        <ele>192</ele>
        <time>2012-02-26T08:44:51Z</time>
      </trkpt>
      <trkpt lat="44.33912" lon="0.64703">
        <ele>192</ele>
        <time>2012-02-26T08:44:52Z</time>
      </trkpt>
      <trkpt lat="44.33907" lon="0.64707">
        <ele>192</ele>
        <time>2012-02-26T08:44:53Z</time>
      </trkpt>
      <trkpt lat="44.33904" lon="0.64712">
        <ele>192</ele>
        <time>2012-02-26T08:44:54Z</time>
      </trkpt>
      <trkpt lat="44.339" lon="0.64716">
        <ele>192</ele>
        <time>2012-02-26T08:44:55Z</time>
      </trkpt>
      <trkpt lat="44.33896" lon="0.64721">
        <ele>192</ele>
        <time>2012-02-26T08:44:56Z</time>
      </trkpt>
      <trkpt lat="44.33893" lon="0.64725">
        <ele>192</ele>
        <time>2012-02-26T08:44:57Z</time>
      </trkpt>
      <trkpt lat="44.33889" lon="0.6473">
        <ele>192</ele>
        <time>2012-02-26T08:44:58Z</time>
      </trkpt>
      <trkpt lat="44.33886" lon="0.64735">
        <ele>192</ele>
        <time>2012-02-26T08:44:59Z</time>
      </trkpt>
      <trkpt lat="44.33883" lon="0.6474">
        <ele>192</ele>
        <time>2012-02-26T08:45:00Z</time>
      </trkpt>
      <trkpt lat="44.33881" lon="0.64746">
        <ele>192</ele>
        <time>2012-02-26T08:45:01Z</time>
      </trkpt>
      <trkpt lat="44.33878" lon="0.64751">
        <ele>192</ele>
        <time>2012-02-26T08:45:02Z</time>
      </trkpt>
      <trkpt lat="44.33874" lon="0.64756">
        <ele>192</ele>
        <time>2012-02-26T08:45:03Z</time>
      </trkpt>
      <trkpt lat="44.33871" lon="0.64762">
        <ele>192</ele>
        <time>2012-02-26T08:45:04Z</time>
      </trkpt>
      <trkpt lat="44.33868" lon="0.64767">
        <ele>192</ele>
        <time>2012-02-26T08:45:05Z</time>
      </trkpt>
      <trkpt lat="44.33865" lon="0.64772">
        <ele>192</ele>
        <time>2012-02-26T08:45:06Z</time>
      </trkpt>
      <trkpt lat="44.33862" lon="0.64777">
        <ele>192</ele>
        <time>2012-02-26T08:45:07Z</time>
      </trkpt>
      <trkpt lat="44.33859" lon="0.64782">
        <ele>192</ele>
        <time>2012-02-26T08:45:08Z</time>
      </trkpt>
      <trkpt lat="44.33857" lon="0.64788">
        <ele>192</ele>
        <time>2012-02-26T08:45:09Z</time>
      </trkpt>
      <trkpt lat="44.33854" lon="0.64793">
        <ele>192</ele>
        <time>2012-02-26T08:45:10Z</time>
      </trkpt>
      <trkpt lat="44.33851" lon="0.64798">
        <ele>192</ele>
        <time>2012-02-26T08:45:11Z</time>
      </trkpt>
      <trkpt lat="44.33848" lon="0.64803">
        <ele>192</ele>
        <time>2012-02-26T08:45:12Z</time>
      </trkpt>
      <trkpt lat="44.33845" lon="0.64808">
        <ele>192</ele>
        <time>2012-02-26T08:45:13Z</time>
      </trkpt>
      <trkpt lat="44.33842" lon="0.64814">
        <ele>192</ele>
        <time>2012-02-26T08:45:14Z</time>
      </trkpt>
      <trkpt lat="44.3384" lon="0.64819">
        <ele>192</ele>
        <time>2012-02-26T08:45:15Z</time>
      </trkpt>
      <trkpt lat="44.33837" lon="0.64824">
        <ele>192</ele>
        <time>2012-02-26T08:45:16Z</time>
      </trkpt>
      <trkpt lat="44.33834" lon="0.64829">
        <ele>192</ele>
        <time>2012-02-26T08:45:17Z</time>
      </trkpt>
      <trkpt lat="44.33832" lon="0.64834">
        <ele>192</ele>
        <time>2012-02-26T08:45:18Z</time>
      </trkpt>
      <trkpt lat="44.33829" lon="0.6484">
        <ele>192</ele>
        <time>2012-02-26T08:45:19Z</time>
      </trkpt>
      <trkpt lat="44.33827" lon="0.64845">
        <ele>192</ele>
        <time>2012-02-26T08:45:20Z</time>
      </trkpt>
      <trkpt lat="44.33826" lon="0.6485">
        <ele>192</ele>
        <time>2012-02-26T08:45:21Z</time>
      </trkpt>
      <trkpt lat="44.33824" lon="0.64855">
        <ele>192</ele>
        <time>2012-02-26T08:45:22Z</time>
      </trkpt>
      <trkpt lat="44.33822" lon="0.6486">
        <ele>192</ele>
        <time>2012-02-26T08:45:23Z</time>
      </trkpt>
      <trkpt lat="44.3382" lon="0.64864">
        <ele>192</ele>
        <time>2012-02-26T08:45:24Z</time>
      </trkpt>
      <trkpt lat="44.33819" lon="0.64869">
        <ele>192</ele>
        <time>2012-02-26T08:45:25Z</time>
      </trkpt>
      <trkpt lat="44.33818" lon="0.64874">
        <ele>192</ele>
        <time>2012-02-26T08:45:26Z</time>
      </trkpt>
      <trkpt lat="44.33816" lon="0.64879">
        <ele>192</ele>
        <time>2012-02-26T08:45:27Z</time>
      </trkpt>
      <trkpt lat="44.33815" lon="0.64884">
        <ele>192</ele>
        <time>2012-02-26T08:45:28Z</time>
      </trkpt>
      <trkpt lat="44.33813" lon="0.64889">
        <ele>192</ele>
        <time>2012-02-26T08:45:29Z</time>
      </trkpt>
      <trkpt lat="44.33812" lon="0.64893">
        <ele>192</ele>
        <time>2012-02-26T08:45:30Z</time>
      </trkpt>
      <trkpt lat="44.3381" lon="0.64898">
        <ele>192</ele>
        <time>2012-02-26T08:45:31Z</time>
      </trkpt>
      <trkpt lat="44.33808" lon="0.64903">
        <ele>192</ele>
        <time>2012-02-26T08:45:32Z</time>
      </trkpt>
      <trkpt lat="44.33807" lon="0.64908">
        <ele>192</ele>
        <time>2012-02-26T08:45:33Z</time>
      </trkpt>
      <trkpt lat="44.33806" lon="0.64913">
        <ele>192</ele>
        <time>2012-02-26T08:45:34Z</time>
      </trkpt>
      <trkpt lat="44.33804" lon="0.64918">
        <ele>192</ele>
        <time>2012-02-26T08:45:35Z</time>
      </trkpt>
      <trkpt lat="44.33803" lon="0.64923">
        <ele>192</ele>
        <time>2012-02-26T08:45:36Z</time>
      </trkpt>
      <trkpt lat="44.33801" lon="0.64928">
        <ele>192</ele>
        <time>2012-02-26T08:45:37Z</time>
      </trkpt>
      <trkpt lat="44.33799" lon="0.64933">
        <ele>192</ele>
        <time>2012-02-26T08:45:38Z</time>
      </trkpt>
      <trkpt lat="44.33798" lon="0.64938">
        <ele>192</ele>
        <time>2012-02-26T08:45:39Z</time>
      </trkpt>
      <trkpt lat="44.33796" lon="0.64943">
        <ele>192</ele>
        <time>2012-02-26T08:45:40Z</time>
      </trkpt>
      <trkpt lat="44.33795" lon="0.64948">
        <ele>192</ele>
        <time>2012-02-26T08:45:41Z</time>
      </trkpt>
      <trkpt lat="44.33793" lon="0.64953">
        <ele>192</ele>
        <time>2012-02-26T08:45:42Z</time>
      </trkpt>
      <trkpt lat="44.33792" lon="0.64958">
        <ele>192</ele>
        <time>2012-02-26T08:45:43Z</time>
      </trkpt>
      <trkpt lat="44.33791" lon="0.64963">
        <ele>192</ele>
        <time>2012-02-26T08:45:44Z</time>
      </trkpt>
      <trkpt lat="44.33789" lon="0.64967">
        <ele>192</ele>
        <time>2012-02-26T08:45:45Z</time>
      </trkpt>
      <trkpt lat="44.33787" lon="0.64972">
        <ele>192</ele>
        <time>2012-02-26T08:45:46Z</time>
      </trkpt>
      <trkpt lat="44.33785" lon="0.64977">
        <ele>192</ele>
        <time>2012-02-26T08:45:47Z</time>
      </trkpt>
      <trkpt lat="44.33783" lon="0.64981">
        <ele>192</ele>
        <time>2012-02-26T08:45:48Z</time>
      </trkpt>
      <trkpt lat="44.33782" lon="0.64985">
        <ele>192</ele>
        <time>2012-02-26T08:45:49Z</time>
      </trkpt>
      <trkpt lat="44.3378" lon="0.6499">
        <ele>192</ele>
        <time>2012-02-26T08:45:50Z</time>
      </trkpt>
      <trkpt lat="44.33778" lon="0.64994">
        <ele>192</ele>
        <time>2012-02-26T08:45:51Z</time>
      </trkpt>
      <trkpt lat="44.33775" lon="0.64999">
        <ele>192</ele>
        <time>2012-02-26T08:45:52Z</time>
      </trkpt>
      <trkpt lat="44.33773" lon="0.65003">
        <ele>192</ele>
        <time>2012-02-26T08:45:53Z</time>
      </trkpt>
      <trkpt lat="44.3377" lon="0.65008">
        <ele>192</ele>
        <time>2012-02-26T08:45:54Z</time>
      </trkpt>
      <trkpt lat="44.33767" lon="0.65013">
        <ele>192</ele>
        <time>2012-02-26T08:45:55Z</time>
      </trkpt>
      <trkpt lat="44.33764" lon="0.65019">
        <ele>192</ele>
        <time>2012-02-26T08:45:56Z</time>
      </trkpt>
      <trkpt lat="44.3376" lon="0.65025">
        <ele>192</ele>
        <time>2012-02-26T08:45:57Z</time>
      </trkpt>
      <trkpt lat="44.33757" lon="0.6503">
        <ele>192</ele>
        <time>2012-02-26T08:45:58Z</time>
      </trkpt>
      <trkpt lat="44.33752" lon="0.65037">
        <ele>192</ele>
        <time>2012-02-26T08:45:59Z</time>
      </trkpt>
      <trkpt lat="44.33748" lon="0.65043">
        <ele>192</ele>
        <time>2012-02-26T08:46:00Z</time>
      </trkpt>
      <trkpt lat="44.33744" lon="0.6505">
        <ele>192</ele>
        <time>2012-02-26T08:46:01Z</time>
      </trkpt>
      <trkpt lat="44.3374" lon="0.65057">
        <ele>192</ele>
        <time>2012-02-26T08:46:02Z</time>
      </trkpt>
      <trkpt lat="44.33736" lon="0.65064">
        <ele>192</ele>
        <time>2012-02-26T08:46:03Z</time>
      </trkpt>
      <trkpt lat="44.33733" lon="0.65071">
        <ele>192</ele>
        <time>2012-02-26T08:46:04Z</time>
      </trkpt>
      <trkpt lat="44.3373" lon="0.65078">
        <ele>192</ele>
        <time>2012-02-26T08:46:05Z</time>
      </trkpt>
      <trkpt lat="44.33727" lon="0.65085">
        <ele>192</ele>
        <time>2012-02-26T08:46:06Z</time>
      </trkpt>
      <trkpt lat="44.33723" lon="0.65092">
        <ele>192</ele>
        <time>2012-02-26T08:46:07Z</time>
      </trkpt>
      <trkpt lat="44.3372" lon="0.65097">
        <ele>192</ele>
        <time>2012-02-26T08:46:08Z</time>
      </trkpt>
      <trkpt lat="44.33717" lon="0.65104">
        <ele>192</ele>
        <time>2012-02-26T08:46:09Z</time>
      </trkpt>
      <trkpt lat="44.33714" lon="0.65109">
        <ele>192</ele>
        <time>2012-02-26T08:46:10Z</time>
      </trkpt>
      <trkpt lat="44.3371" lon="0.65115">
        <ele>192</ele>
        <time>2012-02-26T08:46:11Z</time>
      </trkpt>
      <trkpt lat="44.33707" lon="0.6512">
        <ele>192</ele>
        <time>2012-02-26T08:46:12Z</time>
      </trkpt>
      <trkpt lat="44.33704" lon="0.65126">
        <ele>193</ele>
        <time>2012-02-26T08:46:13Z</time>
      </trkpt>
      <trkpt lat="44.33701" lon="0.65131">
        <ele>193</ele>
        <time>2012-02-26T08:46:14Z</time>
      </trkpt>
      <trkpt lat="44.33698" lon="0.65136">
        <ele>193</ele>
        <time>2012-02-26T08:46:15Z</time>
      </trkpt>
      <trkpt lat="44.33696" lon="0.65141">
        <ele>194</ele>
        <time>2012-02-26T08:46:16Z</time>
      </trkpt>
      <trkpt lat="44.33693" lon="0.65146">
        <ele>194</ele>
        <time>2012-02-26T08:46:17Z</time>
      </trkpt>
      <trkpt lat="44.3369" lon="0.65151">
        <ele>194</ele>
        <time>2012-02-26T08:46:18Z</time>
      </trkpt>
      <trkpt lat="44.33688" lon="0.65156">
        <ele>194</ele>
        <time>2012-02-26T08:46:19Z</time>
      </trkpt>
      <trkpt lat="44.33685" lon="0.65161">
        <ele>194</ele>
        <time>2012-02-26T08:46:20Z</time>
      </trkpt>
      <trkpt lat="44.33683" lon="0.65167">
        <ele>194</ele>
        <time>2012-02-26T08:46:21Z</time>
      </trkpt>
      <trkpt lat="44.33681" lon="0.65172">
        <ele>194</ele>
        <time>2012-02-26T08:46:22Z</time>
      </trkpt>
      <trkpt lat="44.3368" lon="0.65178">
        <ele>194</ele>
        <time>2012-02-26T08:46:23Z</time>
      </trkpt>
      <trkpt lat="44.33679" lon="0.65184">
        <ele>194</ele>
        <time>2012-02-26T08:46:24Z</time>
      </trkpt>
      <trkpt lat="44.33678" lon="0.65189">
        <ele>194</ele>
        <time>2012-02-26T08:46:25Z</time>
      </trkpt>
      <trkpt lat="44.33677" lon="0.65195">
        <ele>194</ele>
        <time>2012-02-26T08:46:26Z</time>
      </trkpt>
      <trkpt lat="44.33676" lon="0.65201">
        <ele>194</ele>
        <time>2012-02-26T08:46:27Z</time>
      </trkpt>
      <trkpt lat="44.33675" lon="0.65206">
        <ele>194</ele>
        <time>2012-02-26T08:46:28Z</time>
      </trkpt>
      <trkpt lat="44.33674" lon="0.65212">
        <ele>194</ele>
        <time>2012-02-26T08:46:29Z</time>
      </trkpt>
      <trkpt lat="44.33672" lon="0.65218">
        <ele>194</ele>
        <time>2012-02-26T08:46:30Z</time>
      </trkpt>
      <trkpt lat="44.3367" lon="0.65224">
        <ele>194</ele>
        <time>2012-02-26T08:46:31Z</time>
      </trkpt>
      <trkpt lat="44.33669" lon="0.65229">
        <ele>194</ele>
        <time>2012-02-26T08:46:32Z</time>
      </trkpt>
      <trkpt lat="44.33666" lon="0.65234">
        <ele>194</ele>
        <time>2012-02-26T08:46:33Z</time>
      </trkpt>
      <trkpt lat="44.33664" lon="0.6524">
        <ele>194</ele>
        <time>2012-02-26T08:46:34Z</time>
      </trkpt>
      <trkpt lat="44.33662" lon="0.65246">
        <ele>194</ele>
        <time>2012-02-26T08:46:35Z</time>
      </trkpt>
      <trkpt lat="44.33659" lon="0.65251">
        <ele>194</ele>
        <time>2012-02-26T08:46:36Z</time>
      </trkpt>
      <trkpt lat="44.33657" lon="0.65257">
        <ele>194</ele>
        <time>2012-02-26T08:46:37Z</time>
      </trkpt>
      <trkpt lat="44.33654" lon="0.65263">
        <ele>194</ele>
        <time>2012-02-26T08:46:38Z</time>
      </trkpt>
      <trkpt lat="44.33651" lon="0.65269">
        <ele>194</ele>
        <time>2012-02-26T08:46:39Z</time>
      </trkpt>
      <trkpt lat="44.33649" lon="0.65275">
        <ele>194</ele>
        <time>2012-02-26T08:46:40Z</time>
      </trkpt>
      <trkpt lat="44.33647" lon="0.6528">
        <ele>194</ele>
        <time>2012-02-26T08:46:41Z</time>
      </trkpt>
      <trkpt lat="44.33644" lon="0.65286">
        <ele>194</ele>
        <time>2012-02-26T08:46:42Z</time>
      </trkpt>
      <trkpt lat="44.33641" lon="0.65291">
        <ele>194</ele>
        <time>2012-02-26T08:46:43Z</time>
      </trkpt>
      <trkpt lat="44.33639" lon="0.65296">
        <ele>195</ele>
        <time>2012-02-26T08:46:44Z</time>
      </trkpt>
      <trkpt lat="44.33636" lon="0.65301">
        <ele>195</ele>
        <time>2012-02-26T08:46:45Z</time>
      </trkpt>
      <trkpt lat="44.33633" lon="0.65306">
        <ele>195</ele>
        <time>2012-02-26T08:46:46Z</time>
      </trkpt>
      <trkpt lat="44.3363" lon="0.6531">
        <ele>195</ele>
        <time>2012-02-26T08:46:47Z</time>
      </trkpt>
      <trkpt lat="44.33628" lon="0.65315">
        <ele>195</ele>
        <time>2012-02-26T08:46:48Z</time>
      </trkpt>
      <trkpt lat="44.33625" lon="0.6532">
        <ele>195</ele>
        <time>2012-02-26T08:46:49Z</time>
      </trkpt>
      <trkpt lat="44.33623" lon="0.65325">
        <ele>195</ele>
        <time>2012-02-26T08:46:50Z</time>
      </trkpt>
      <trkpt lat="44.3362" lon="0.6533">
        <ele>195</ele>
        <time>2012-02-26T08:46:51Z</time>
      </trkpt>
      <trkpt lat="44.33618" lon="0.65336">
        <ele>195</ele>
        <time>2012-02-26T08:46:52Z</time>
      </trkpt>
      <trkpt lat="44.33615" lon="0.65341">
        <ele>195</ele>
        <time>2012-02-26T08:46:53Z</time>
      </trkpt>
      <trkpt lat="44.33612" lon="0.65346">
        <ele>195</ele>
        <time>2012-02-26T08:46:54Z</time>
      </trkpt>
      <trkpt lat="44.33609" lon="0.65352">
        <ele>195</ele>
        <time>2012-02-26T08:46:55Z</time>
      </trkpt>
      <trkpt lat="44.33605" lon="0.65359">
        <ele>195</ele>
        <time>2012-02-26T08:46:56Z</time>
      </trkpt>
      <trkpt lat="44.33602" lon="0.65364">
        <ele>195</ele>
        <time>2012-02-26T08:46:57Z</time>
      </trkpt>
      <trkpt lat="44.33599" lon="0.6537">
        <ele>195</ele>
        <time>2012-02-26T08:46:58Z</time>
      </trkpt>
      <trkpt lat="44.33596" lon="0.65376">
        <ele>195</ele>
        <time>2012-02-26T08:46:59Z</time>
      </trkpt>
      <trkpt lat="44.33594" lon="0.65383">
        <ele>195</ele>
        <time>2012-02-26T08:47:00Z</time>
      </trkpt>
      <trkpt lat="44.33591" lon="0.65389">
        <ele>195</ele>
        <time>2012-02-26T08:47:01Z</time>
      </trkpt>
      <trkpt lat="44.33588" lon="0.65395">
        <ele>195</ele>
        <time>2012-02-26T08:47:02Z</time>
      </trkpt>
      <trkpt lat="44.33585" lon="0.65402">
        <ele>195</ele>
        <time>2012-02-26T08:47:03Z</time>
      </trkpt>
      <trkpt lat="44.33582" lon="0.65408">
        <ele>195</ele>
        <time>2012-02-26T08:47:04Z</time>
      </trkpt>
      <trkpt lat="44.33579" lon="0.65414">
        <ele>195</ele>
        <time>2012-02-26T08:47:05Z</time>
      </trkpt>
      <trkpt lat="44.33576" lon="0.65421">
        <ele>195</ele>
        <time>2012-02-26T08:47:06Z</time>
      </trkpt>
      <trkpt lat="44.33572" lon="0.65428">
        <ele>195</ele>
        <time>2012-02-26T08:47:07Z</time>
      </trkpt>
      <trkpt lat="44.33569" lon="0.65434">
        <ele>195</ele>
        <time>2012-02-26T08:47:08Z</time>
      </trkpt>
      <trkpt lat="44.33566" lon="0.65441">
        <ele>195</ele>
        <time>2012-02-26T08:47:09Z</time>
      </trkpt>
      <trkpt lat="44.33563" lon="0.65448">
        <ele>195</ele>
        <time>2012-02-26T08:47:10Z</time>
      </trkpt>
      <trkpt lat="44.3356" lon="0.65456">
        <ele>194</ele>
        <time>2012-02-26T08:47:11Z</time>
      </trkpt>
      <trkpt lat="44.33557" lon="0.65464">
        <ele>194</ele>
        <time>2012-02-26T08:47:12Z</time>
      </trkpt>
      <trkpt lat="44.33554" lon="0.65472">
        <ele>193</ele>
        <time>2012-02-26T08:47:13Z</time>
      </trkpt>
      <trkpt lat="44.3355" lon="0.65481">
        <ele>193</ele>
        <time>2012-02-26T08:47:14Z</time>
      </trkpt>
      <trkpt lat="44.33547" lon="0.6549">
        <ele>192</ele>
        <time>2012-02-26T08:47:15Z</time>
      </trkpt>
      <trkpt lat="44.33544" lon="0.65499">
        <ele>192</ele>
        <time>2012-02-26T08:47:16Z</time>
      </trkpt>
      <trkpt lat="44.33542" lon="0.65509">
        <ele>192</ele>
        <time>2012-02-26T08:47:17Z</time>
      </trkpt>
      <trkpt lat="44.3354" lon="0.65518">
        <ele>192</ele>
        <time>2012-02-26T08:47:18Z</time>
      </trkpt>
      <trkpt lat="44.3354" lon="0.65528">
        <ele>192</ele>
        <time>2012-02-26T08:47:19Z</time>
      </trkpt>
      <trkpt lat="44.33538" lon="0.65537">
        <ele>192</ele>
        <time>2012-02-26T08:47:20Z</time>
      </trkpt>
      <trkpt lat="44.33537" lon="0.65546">
        <ele>192</ele>
        <time>2012-02-26T08:47:21Z</time>
      </trkpt>
      <trkpt lat="44.33535" lon="0.65555">
        <ele>192</ele>
        <time>2012-02-26T08:47:22Z</time>
      </trkpt>
      <trkpt lat="44.33532" lon="0.65564">
        <ele>192</ele>
        <time>2012-02-26T08:47:23Z</time>
      </trkpt>
      <trkpt lat="44.33529" lon="0.65572">
        <ele>192</ele>
        <time>2012-02-26T08:47:24Z</time>
      </trkpt>
      <trkpt lat="44.33526" lon="0.65579">
        <ele>192</ele>
        <time>2012-02-26T08:47:25Z</time>
      </trkpt>
      <trkpt lat="44.33522" lon="0.65586">
        <ele>192</ele>
        <time>2012-02-26T08:47:26Z</time>
      </trkpt>
      <trkpt lat="44.33517" lon="0.65594">
        <ele>192</ele>
        <time>2012-02-26T08:47:27Z</time>
      </trkpt>
      <trkpt lat="44.33512" lon="0.65601">
        <ele>192</ele>
        <time>2012-02-26T08:47:28Z</time>
      </trkpt>
      <trkpt lat="44.33508" lon="0.65607">
        <ele>192</ele>
        <time>2012-02-26T08:47:29Z</time>
      </trkpt>
      <trkpt lat="44.33503" lon="0.65614">
        <ele>192</ele>
        <time>2012-02-26T08:47:30Z</time>
      </trkpt>
      <trkpt lat="44.33499" lon="0.65622">
        <ele>193</ele>
        <time>2012-02-26T08:47:31Z</time>
      </trkpt>
      <trkpt lat="44.33495" lon="0.65629">
        <ele>193</ele>
        <time>2012-02-26T08:47:32Z</time>
      </trkpt>
      <trkpt lat="44.33492" lon="0.65636">
        <ele>194</ele>
        <time>2012-02-26T08:47:33Z</time>
      </trkpt>
      <trkpt lat="44.33489" lon="0.65644">
        <ele>195</ele>
        <time>2012-02-26T08:47:34Z</time>
      </trkpt>
      <trkpt lat="44.33486" lon="0.6565">
        <ele>195</ele>
        <time>2012-02-26T08:47:35Z</time>
      </trkpt>
      <trkpt lat="44.33483" lon="0.65656">
        <ele>195</ele>
        <time>2012-02-26T08:47:36Z</time>
      </trkpt>
      <trkpt lat="44.3348" lon="0.65663">
        <ele>196</ele>
        <time>2012-02-26T08:47:37Z</time>
      </trkpt>
      <trkpt lat="44.33477" lon="0.6567">
        <ele>196</ele>
        <time>2012-02-26T08:47:38Z</time>
      </trkpt>
      <trkpt lat="44.33475" lon="0.65677">
        <ele>197</ele>
        <time>2012-02-26T08:47:39Z</time>
      </trkpt>
      <trkpt lat="44.33473" lon="0.65683">
        <ele>197</ele>
        <time>2012-02-26T08:47:40Z</time>
      </trkpt>
      <trkpt lat="44.33471" lon="0.6569">
        <ele>197</ele>
        <time>2012-02-26T08:47:41Z</time>
      </trkpt>
      <trkpt lat="44.3347" lon="0.65696">
        <ele>198</ele>
        <time>2012-02-26T08:47:42Z</time>
      </trkpt>
      <trkpt lat="44.33467" lon="0.65703">
        <ele>198</ele>
        <time>2012-02-26T08:47:43Z</time>
      </trkpt>
      <trkpt lat="44.33467" lon="0.6571">
        <ele>198</ele>
        <time>2012-02-26T08:47:44Z</time>
      </trkpt>
      <trkpt lat="44.33465" lon="0.65717">
        <ele>198</ele>
        <time>2012-02-26T08:47:45Z</time>
      </trkpt>
      <trkpt lat="44.33464" lon="0.65722">
        <ele>198</ele>
        <time>2012-02-26T08:47:46Z</time>
      </trkpt>
      <trkpt lat="44.33464" lon="0.65728">
        <ele>198</ele>
        <time>2012-02-26T08:47:47Z</time>
      </trkpt>
      <trkpt lat="44.33465" lon="0.65735">
        <ele>198</ele>
        <time>2012-02-26T08:47:48Z</time>
      </trkpt>
      <trkpt lat="44.33465" lon="0.65741">
        <ele>198</ele>
        <time>2012-02-26T08:47:49Z</time>
      </trkpt>
      <trkpt lat="44.33465" lon="0.65747">
        <ele>198</ele>
        <time>2012-02-26T08:47:50Z</time>
      </trkpt>
      <trkpt lat="44.33466" lon="0.65753">
        <ele>198</ele>
        <time>2012-02-26T08:47:51Z</time>
      </trkpt>
      <trkpt lat="44.33466" lon="0.65759">
        <ele>198</ele>
        <time>2012-02-26T08:47:52Z</time>
      </trkpt>
      <trkpt lat="44.33465" lon="0.65766">
        <ele>198</ele>
        <time>2012-02-26T08:47:53Z</time>
      </trkpt>
      <trkpt lat="44.33465" lon="0.65772">
        <ele>198</ele>
        <time>2012-02-26T08:47:54Z</time>
      </trkpt>
      <trkpt lat="44.33464" lon="0.65779">
        <ele>198</ele>
        <time>2012-02-26T08:47:55Z</time>
      </trkpt>
      <trkpt lat="44.33463" lon="0.65785">
        <ele>198</ele>
        <time>2012-02-26T08:47:56Z</time>
      </trkpt>
      <trkpt lat="44.3346" lon="0.6579">
        <ele>198</ele>
        <time>2012-02-26T08:47:57Z</time>
      </trkpt>
      <trkpt lat="44.33458" lon="0.65795">
        <ele>198</ele>
        <time>2012-02-26T08:47:58Z</time>
      </trkpt>
      <trkpt lat="44.33455" lon="0.65801">
        <ele>198</ele>
        <time>2012-02-26T08:47:59Z</time>
      </trkpt>
      <trkpt lat="44.33452" lon="0.65806">
        <ele>198</ele>
        <time>2012-02-26T08:48:00Z</time>
      </trkpt>
      <trkpt lat="44.33449" lon="0.65811">
        <ele>198</ele>
        <time>2012-02-26T08:48:01Z</time>
      </trkpt>
      <trkpt lat="44.33446" lon="0.65815">
        <ele>198</ele>
        <time>2012-02-26T08:48:02Z</time>
      </trkpt>
      <trkpt lat="44.33443" lon="0.65818">
        <ele>198</ele>
        <time>2012-02-26T08:48:03Z</time>
      </trkpt>
      <trkpt lat="44.3344" lon="0.65821">
        <ele>198</ele>
        <time>2012-02-26T08:48:04Z</time>
      </trkpt>
      <trkpt lat="44.33438" lon="0.65825">
        <ele>198</ele>
        <time>2012-02-26T08:48:05Z</time>
      </trkpt>
      <trkpt lat="44.33435" lon="0.65828">
        <ele>198</ele>
        <time>2012-02-26T08:48:06Z</time>
      </trkpt>
      <trkpt lat="44.33432" lon="0.65832">
        <ele>198</ele>
        <time>2012-02-26T08:48:07Z</time>
      </trkpt>
      <trkpt lat="44.3343" lon="0.65836">
        <ele>198</ele>
        <time>2012-02-26T08:48:08Z</time>
      </trkpt>
      <trkpt lat="44.33428" lon="0.65841">
        <ele>198</ele>
        <time>2012-02-26T08:48:09Z</time>
      </trkpt>
      <trkpt lat="44.33426" lon="0.65845">
        <ele>198</ele>
        <time>2012-02-26T08:48:10Z</time>
      </trkpt>
      <trkpt lat="44.33424" lon="0.65849">
        <ele>198</ele>
        <time>2012-02-26T08:48:11Z</time>
      </trkpt>
      <trkpt lat="44.33423" lon="0.65852">
        <ele>198</ele>
        <time>2012-02-26T08:48:12Z</time>
      </trkpt>
      <trkpt lat="44.33421" lon="0.65856">
        <ele>198</ele>
        <time>2012-02-26T08:48:13Z</time>
      </trkpt>
      <trkpt lat="44.33419" lon="0.6586">
        <ele>198</ele>
        <time>2012-02-26T08:48:14Z</time>
      </trkpt>
      <trkpt lat="44.33418" lon="0.65863">
        <ele>198</ele>
        <time>2012-02-26T08:48:15Z</time>
      </trkpt>
      <trkpt lat="44.33417" lon="0.65866">
        <ele>198</ele>
        <time>2012-02-26T08:48:16Z</time>
      </trkpt>
      <trkpt lat="44.33415" lon="0.65869">
        <ele>198</ele>
        <time>2012-02-26T08:48:17Z</time>
      </trkpt>
      <trkpt lat="44.33414" lon="0.65873">
        <ele>198</ele>
        <time>2012-02-26T08:48:18Z</time>
      </trkpt>
      <trkpt lat="44.33413" lon="0.65876">
        <ele>198</ele>
        <time>2012-02-26T08:48:19Z</time>
      </trkpt>
      <trkpt lat="44.33412" lon="0.65879">
        <ele>199</ele>
        <time>2012-02-26T08:48:20Z</time>
      </trkpt>
      <trkpt lat="44.3341" lon="0.65882">
        <ele>200</ele>
        <time>2012-02-26T08:48:21Z</time>
      </trkpt>
      <trkpt lat="44.33408" lon="0.65886">
        <ele>200</ele>
        <time>2012-02-26T08:48:22Z</time>
      </trkpt>
      <trkpt lat="44.33406" lon="0.65889">
        <ele>201</ele>
        <time>2012-02-26T08:48:23Z</time>
      </trkpt>
      <trkpt lat="44.33404" lon="0.65893">
        <ele>202</ele>
        <time>2012-02-26T08:48:24Z</time>
      </trkpt>
      <trkpt lat="44.33403" lon="0.65895">
        <ele>203</ele>
        <time>2012-02-26T08:48:25Z</time>
      </trkpt>
      <trkpt lat="44.334" lon="0.65898">
        <ele>204</ele>
        <time>2012-02-26T08:48:26Z</time>
      </trkpt>
      <trkpt lat="44.33398" lon="0.65901">
        <ele>205</ele>
        <time>2012-02-26T08:48:27Z</time>
      </trkpt>
      <trkpt lat="44.33397" lon="0.65903">
        <ele>206</ele>
        <time>2012-02-26T08:48:28Z</time>
      </trkpt>
      <trkpt lat="44.33396" lon="0.65906">
        <ele>207</ele>
        <time>2012-02-26T08:48:29Z</time>
      </trkpt>
      <trkpt lat="44.33394" lon="0.65908">
        <ele>207</ele>
        <time>2012-02-26T08:48:30Z</time>
      </trkpt>
      <trkpt lat="44.33392" lon="0.65908">
        <ele>208</ele>
        <time>2012-02-26T08:48:31Z</time>
      </trkpt>
      <trkpt lat="44.33389" lon="0.65911">
        <ele>208</ele>
        <time>2012-02-26T08:48:32Z</time>
      </trkpt>
      <trkpt lat="44.33387" lon="0.65913">
        <ele>209</ele>
        <time>2012-02-26T08:48:33Z</time>
      </trkpt>
      <trkpt lat="44.33385" lon="0.65916">
        <ele>209</ele>
        <time>2012-02-26T08:48:34Z</time>
      </trkpt>
      <trkpt lat="44.33384" lon="0.6592">
        <ele>209</ele>
        <time>2012-02-26T08:48:35Z</time>
      </trkpt>
      <trkpt lat="44.33383" lon="0.65922">
        <ele>210</ele>
        <time>2012-02-26T08:48:36Z</time>
      </trkpt>
      <trkpt lat="44.33382" lon="0.65925">
        <ele>210</ele>
        <time>2012-02-26T08:48:37Z</time>
      </trkpt>
      <trkpt lat="44.3338" lon="0.65928">
        <ele>210</ele>
        <time>2012-02-26T08:48:38Z</time>
      </trkpt>
      <trkpt lat="44.33378" lon="0.65931">
        <ele>210</ele>
        <time>2012-02-26T08:48:39Z</time>
      </trkpt>
      <trkpt lat="44.33376" lon="0.65934">
        <ele>210</ele>
        <time>2012-02-26T08:48:40Z</time>
      </trkpt>
      <trkpt lat="44.33374" lon="0.65938">
        <ele>210</ele>
        <time>2012-02-26T08:48:41Z</time>
      </trkpt>
      <trkpt lat="44.33373" lon="0.65942">
        <ele>210</ele>
        <time>2012-02-26T08:48:42Z</time>
      </trkpt>
      <trkpt lat="44.33371" lon="0.65947">
        <ele>210</ele>
        <time>2012-02-26T08:48:43Z</time>
      </trkpt>
      <trkpt lat="44.33369" lon="0.65952">
        <ele>210</ele>
        <time>2012-02-26T08:48:44Z</time>
      </trkpt>
      <trkpt lat="44.33368" lon="0.65956">
        <ele>210</ele>
        <time>2012-02-26T08:48:45Z</time>
      </trkpt>
      <trkpt lat="44.33368" lon="0.65961">
        <ele>210</ele>
        <time>2012-02-26T08:48:46Z</time>
      </trkpt>
      <trkpt lat="44.33366" lon="0.65965">
        <ele>210</ele>
        <time>2012-02-26T08:48:47Z</time>
      </trkpt>
      <trkpt lat="44.33365" lon="0.65969">
        <ele>210</ele>
        <time>2012-02-26T08:48:48Z</time>
      </trkpt>
      <trkpt lat="44.33363" lon="0.65973">
        <ele>210</ele>
        <time>2012-02-26T08:48:49Z</time>
      </trkpt>
      <trkpt lat="44.33362" lon="0.65976">
        <ele>210</ele>
        <time>2012-02-26T08:48:50Z</time>
      </trkpt>
      <trkpt lat="44.33361" lon="0.6598">
        <ele>210</ele>
        <time>2012-02-26T08:48:51Z</time>
      </trkpt>
      <trkpt lat="44.33359" lon="0.65984">
        <ele>209</ele>
        <time>2012-02-26T08:48:52Z</time>
      </trkpt>
      <trkpt lat="44.33358" lon="0.65988">
        <ele>209</ele>
        <time>2012-02-26T08:48:53Z</time>
      </trkpt>
      <trkpt lat="44.33356" lon="0.65992">
        <ele>209</ele>
        <time>2012-02-26T08:48:54Z</time>
      </trkpt>
      <trkpt lat="44.33354" lon="0.65996">
        <ele>208</ele>
        <time>2012-02-26T08:48:55Z</time>
      </trkpt>
      <trkpt lat="44.33353" lon="0.65999">
        <ele>208</ele>
        <time>2012-02-26T08:48:56Z</time>
      </trkpt>
      <trkpt lat="44.33353" lon="0.66003">
        <ele>208</ele>
        <time>2012-02-26T08:48:57Z</time>
      </trkpt>
      <trkpt lat="44.33351" lon="0.66006">
        <ele>208</ele>
        <time>2012-02-26T08:48:58Z</time>
      </trkpt>
      <trkpt lat="44.33349" lon="0.6601">
        <ele>207</ele>
        <time>2012-02-26T08:48:59Z</time>
      </trkpt>
      <trkpt lat="44.33348" lon="0.66014">
        <ele>207</ele>
        <time>2012-02-26T08:49:00Z</time>
      </trkpt>
      <trkpt lat="44.33347" lon="0.66018">
        <ele>206</ele>
        <time>2012-02-26T08:49:01Z</time>
      </trkpt>
      <trkpt lat="44.33346" lon="0.66021">
        <ele>206</ele>
        <time>2012-02-26T08:49:02Z</time>
      </trkpt>
      <trkpt lat="44.33344" lon="0.66026">
        <ele>205</ele>
        <time>2012-02-26T08:49:03Z</time>
      </trkpt>
      <trkpt lat="44.33343" lon="0.66031">
        <ele>205</ele>
        <time>2012-02-26T08:49:04Z</time>
      </trkpt>
      <trkpt lat="44.33342" lon="0.66035">
        <ele>205</ele>
        <time>2012-02-26T08:49:05Z</time>
      </trkpt>
      <trkpt lat="44.33341" lon="0.66039">
        <ele>204</ele>
        <time>2012-02-26T08:49:06Z</time>
      </trkpt>
      <trkpt lat="44.3334" lon="0.66044">
        <ele>204</ele>
        <time>2012-02-26T08:49:07Z</time>
      </trkpt>
      <trkpt lat="44.33338" lon="0.66049">
        <ele>204</ele>
        <time>2012-02-26T08:49:08Z</time>
      </trkpt>
      <trkpt lat="44.33337" lon="0.66053">
        <ele>204</ele>
        <time>2012-02-26T08:49:09Z</time>
      </trkpt>
      <trkpt lat="44.33336" lon="0.66058">
        <ele>203</ele>
        <time>2012-02-26T08:49:10Z</time>
      </trkpt>
      <trkpt lat="44.33335" lon="0.66062">
        <ele>203</ele>
        <time>2012-02-26T08:49:11Z</time>
      </trkpt>
      <trkpt lat="44.33334" lon="0.66067">
        <ele>202</ele>
        <time>2012-02-26T08:49:12Z</time>
      </trkpt>
      <trkpt lat="44.33332" lon="0.66072">
        <ele>202</ele>
        <time>2012-02-26T08:49:13Z</time>
      </trkpt>
      <trkpt lat="44.33331" lon="0.66077">
        <ele>202</ele>
        <time>2012-02-26T08:49:14Z</time>
      </trkpt>
      <trkpt lat="44.3333" lon="0.66083">
        <ele>201</ele>
        <time>2012-02-26T08:49:15Z</time>
      </trkpt>
      <trkpt lat="44.33329" lon="0.66088">
        <ele>201</ele>
        <time>2012-02-26T08:49:16Z</time>
      </trkpt>
      <trkpt lat="44.33327" lon="0.66093">
        <ele>201</ele>
        <time>2012-02-26T08:49:17Z</time>
      </trkpt>
      <trkpt lat="44.33325" lon="0.66098">
        <ele>201</ele>
        <time>2012-02-26T08:49:18Z</time>
      </trkpt>
      <trkpt lat="44.33323" lon="0.66102">
        <ele>201</ele>
        <time>2012-02-26T08:49:19Z</time>
      </trkpt>
      <trkpt lat="44.33322" lon="0.66107">
        <ele>201</ele>
        <time>2012-02-26T08:49:20Z</time>
      </trkpt>
      <trkpt lat="44.33321" lon="0.66113">
        <ele>201</ele>
        <time>2012-02-26T08:49:21Z</time>
      </trkpt>
      <trkpt lat="44.33321" lon="0.66118">
        <ele>201</ele>
        <time>2012-02-26T08:49:22Z</time>
      </trkpt>
      <trkpt lat="44.33318" lon="0.66124">
        <ele>201</ele>
        <time>2012-02-26T08:49:23Z</time>
      </trkpt>
      <trkpt lat="44.33316" lon="0.66131">
        <ele>201</ele>
        <time>2012-02-26T08:49:24Z</time>
      </trkpt>
      <trkpt lat="44.33312" lon="0.66137">
        <ele>201</ele>
        <time>2012-02-26T08:49:25Z</time>
      </trkpt>
      <trkpt lat="44.33309" lon="0.66144">
        <ele>201</ele>
        <time>2012-02-26T08:49:26Z</time>
      </trkpt>
      <trkpt lat="44.33307" lon="0.6615">
        <ele>202</ele>
        <time>2012-02-26T08:49:27Z</time>
      </trkpt>
      <trkpt lat="44.33306" lon="0.66157">
        <ele>203</ele>
        <time>2012-02-26T08:49:28Z</time>
      </trkpt>
      <trkpt lat="44.33305" lon="0.66163">
        <ele>204</ele>
        <time>2012-02-26T08:49:29Z</time>
      </trkpt>
      <trkpt lat="44.33305" lon="0.6617">
        <ele>205</ele>
        <time>2012-02-26T08:49:30Z</time>
      </trkpt>
      <trkpt lat="44.33304" lon="0.66177">
        <ele>205</ele>
        <time>2012-02-26T08:49:31Z</time>
      </trkpt>
      <trkpt lat="44.33303" lon="0.66184">
        <ele>205</ele>
        <time>2012-02-26T08:49:32Z</time>
      </trkpt>
      <trkpt lat="44.33302" lon="0.6619">
        <ele>205</ele>
        <time>2012-02-26T08:49:33Z</time>
      </trkpt>
      <trkpt lat="44.33302" lon="0.66196">
        <ele>205</ele>
        <time>2012-02-26T08:49:34Z</time>
      </trkpt>
      <trkpt lat="44.33301" lon="0.66202">
        <ele>205</ele>
        <time>2012-02-26T08:49:35Z</time>
      </trkpt>
      <trkpt lat="44.33301" lon="0.66208">
        <ele>205</ele>
        <time>2012-02-26T08:49:36Z</time>
      </trkpt>
      <trkpt lat="44.33302" lon="0.66215">
        <ele>205</ele>
        <time>2012-02-26T08:49:37Z</time>
      </trkpt>
      <trkpt lat="44.33302" lon="0.66222">
        <ele>205</ele>
        <time>2012-02-26T08:49:38Z</time>
      </trkpt>
      <trkpt lat="44.33303" lon="0.66228">
        <ele>206</ele>
        <time>2012-02-26T08:49:39Z</time>
      </trkpt>
      <trkpt lat="44.33304" lon="0.66234">
        <ele>206</ele>
        <time>2012-02-26T08:49:40Z</time>
      </trkpt>
      <trkpt lat="44.33305" lon="0.6624">
        <ele>207</ele>
        <time>2012-02-26T08:49:41Z</time>
      </trkpt>
      <trkpt lat="44.33307" lon="0.66246">
        <ele>207</ele>
        <time>2012-02-26T08:49:42Z</time>
      </trkpt>
      <trkpt lat="44.33309" lon="0.66253">
        <ele>208</ele>
        <time>2012-02-26T08:49:43Z</time>
      </trkpt>
      <trkpt lat="44.3331" lon="0.66258">
        <ele>208</ele>
        <time>2012-02-26T08:49:44Z</time>
      </trkpt>
      <trkpt lat="44.33312" lon="0.66264">
        <ele>208</ele>
        <time>2012-02-26T08:49:45Z</time>
      </trkpt>
      <trkpt lat="44.33313" lon="0.66271">
        <ele>208</ele>
        <time>2012-02-26T08:49:46Z</time>
      </trkpt>
      <trkpt lat="44.33315" lon="0.66277">
        <ele>208</ele>
        <time>2012-02-26T08:49:47Z</time>
      </trkpt>
      <trkpt lat="44.33317" lon="0.66284">
        <ele>208</ele>
        <time>2012-02-26T08:49:48Z</time>
      </trkpt>
      <trkpt lat="44.33318" lon="0.66292">
        <ele>208</ele>
        <time>2012-02-26T08:49:49Z</time>
      </trkpt>
      <trkpt lat="44.33319" lon="0.66301">
        <ele>208</ele>
        <time>2012-02-26T08:49:50Z</time>
      </trkpt>
      <trkpt lat="44.33319" lon="0.66308">
        <ele>208</ele>
        <time>2012-02-26T08:49:51Z</time>
      </trkpt>
      <trkpt lat="44.3332" lon="0.66316">
        <ele>208</ele>
        <time>2012-02-26T08:49:52Z</time>
      </trkpt>
      <trkpt lat="44.33321" lon="0.66322">
        <ele>208</ele>
        <time>2012-02-26T08:49:53Z</time>
      </trkpt>
      <trkpt lat="44.33322" lon="0.66327">
        <ele>208</ele>
        <time>2012-02-26T08:49:54Z</time>
      </trkpt>
      <trkpt lat="44.33324" lon="0.66333">
        <ele>208</ele>
        <time>2012-02-26T08:49:55Z</time>
      </trkpt>
      <trkpt lat="44.33324" lon="0.66338">
        <ele>207</ele>
        <time>2012-02-26T08:49:56Z</time>
      </trkpt>
      <trkpt lat="44.33325" lon="0.66344">
        <ele>207</ele>
        <time>2012-02-26T08:49:57Z</time>
      </trkpt>
      <trkpt lat="44.33325" lon="0.66351">
        <ele>206</ele>
        <time>2012-02-26T08:49:58Z</time>
      </trkpt>
      <trkpt lat="44.33324" lon="0.66358">
        <ele>206</ele>
        <time>2012-02-26T08:49:59Z</time>
      </trkpt>
      <trkpt lat="44.33322" lon="0.66365">
        <ele>206</ele>
        <time>2012-02-26T08:50:00Z</time>
      </trkpt>
      <trkpt lat="44.33322" lon="0.66372">
        <ele>206</ele>
        <time>2012-02-26T08:50:01Z</time>
      </trkpt>
      <trkpt lat="44.33322" lon="0.66379">
        <ele>206</ele>
        <time>2012-02-26T08:50:02Z</time>
      </trkpt>
      <trkpt lat="44.33323" lon="0.66386">
        <ele>206</ele>
        <time>2012-02-26T08:50:03Z</time>
      </trkpt>
      <trkpt lat="44.33324" lon="0.66394">
        <ele>206</ele>
        <time>2012-02-26T08:50:04Z</time>
      </trkpt>
      <trkpt lat="44.33324" lon="0.66401">
        <ele>206</ele>
        <time>2012-02-26T08:50:05Z</time>
      </trkpt>
      <trkpt lat="44.33324" lon="0.66409">
        <ele>206</ele>
        <time>2012-02-26T08:50:06Z</time>
      </trkpt>
      <trkpt lat="44.33324" lon="0.66417">
        <ele>206</ele>
        <time>2012-02-26T08:50:07Z</time>
      </trkpt>
      <trkpt lat="44.33324" lon="0.66425">
        <ele>206</ele>
        <time>2012-02-26T08:50:08Z</time>
      </trkpt>
      <trkpt lat="44.33324" lon="0.66432">
        <ele>206</ele>
        <time>2012-02-26T08:50:09Z</time>
      </trkpt>
      <trkpt lat="44.33323" lon="0.6644">
        <ele>206</ele>
        <time>2012-02-26T08:50:10Z</time>
      </trkpt>
      <trkpt lat="44.33322" lon="0.66449">
        <ele>206</ele>
        <time>2012-02-26T08:50:11Z</time>
      </trkpt>
      <trkpt lat="44.33321" lon="0.66457">
        <ele>206</ele>
        <time>2012-02-26T08:50:12Z</time>
      </trkpt>
      <trkpt lat="44.33319" lon="0.66466">
        <ele>206</ele>
        <time>2012-02-26T08:50:13Z</time>
      </trkpt>
      <trkpt lat="44.33318" lon="0.66474">
        <ele>206</ele>
        <time>2012-02-26T08:50:14Z</time>
      </trkpt>
      <trkpt lat="44.33316" lon="0.66482">
        <ele>206</ele>
        <time>2012-02-26T08:50:15Z</time>
      </trkpt>
      <trkpt lat="44.33313" lon="0.66491">
        <ele>206</ele>
        <time>2012-02-26T08:50:16Z</time>
      </trkpt>
      <trkpt lat="44.33311" lon="0.665">
        <ele>206</ele>
        <time>2012-02-26T08:50:17Z</time>
      </trkpt>
      <trkpt lat="44.33308" lon="0.66509">
        <ele>206</ele>
        <time>2012-02-26T08:50:18Z</time>
      </trkpt>
      <trkpt lat="44.33305" lon="0.66517">
        <ele>205</ele>
        <time>2012-02-26T08:50:19Z</time>
      </trkpt>
      <trkpt lat="44.33303" lon="0.66526">
        <ele>205</ele>
        <time>2012-02-26T08:50:20Z</time>
      </trkpt>
      <trkpt lat="44.333" lon="0.66536">
        <ele>205</ele>
        <time>2012-02-26T08:50:21Z</time>
      </trkpt>
      <trkpt lat="44.33297" lon="0.66545">
        <ele>205</ele>
        <time>2012-02-26T08:50:22Z</time>
      </trkpt>
      <trkpt lat="44.33294" lon="0.66554">
        <ele>205</ele>
        <time>2012-02-26T08:50:23Z</time>
      </trkpt>
      <trkpt lat="44.33291" lon="0.66563">
        <ele>205</ele>
        <time>2012-02-26T08:50:24Z</time>
      </trkpt>
      <trkpt lat="44.33288" lon="0.66572">
        <ele>205</ele>
        <time>2012-02-26T08:50:25Z</time>
      </trkpt>
      <trkpt lat="44.33285" lon="0.66581">
        <ele>204</ele>
        <time>2012-02-26T08:50:26Z</time>
      </trkpt>
      <trkpt lat="44.33282" lon="0.6659">
        <ele>204</ele>
        <time>2012-02-26T08:50:27Z</time>
      </trkpt>
      <trkpt lat="44.33279" lon="0.66599">
        <ele>204</ele>
        <time>2012-02-26T08:50:28Z</time>
      </trkpt>
      <trkpt lat="44.33276" lon="0.66608">
        <ele>204</ele>
        <time>2012-02-26T08:50:29Z</time>
      </trkpt>
      <trkpt lat="44.33273" lon="0.66617">
        <ele>204</ele>
        <time>2012-02-26T08:50:30Z</time>
      </trkpt>
      <trkpt lat="44.3327" lon="0.66627">
        <ele>204</ele>
        <time>2012-02-26T08:50:31Z</time>
      </trkpt>
      <trkpt lat="44.33266" lon="0.66636">
        <ele>204</ele>
        <time>2012-02-26T08:50:32Z</time>
      </trkpt>
      <trkpt lat="44.33263" lon="0.66645">
        <ele>204</ele>
        <time>2012-02-26T08:50:33Z</time>
      </trkpt>
      <trkpt lat="44.3326" lon="0.66654">
        <ele>204</ele>
        <time>2012-02-26T08:50:34Z</time>
      </trkpt>
      <trkpt lat="44.33257" lon="0.66663">
        <ele>204</ele>
        <time>2012-02-26T08:50:35Z</time>
      </trkpt>
      <trkpt lat="44.33254" lon="0.66673">
        <ele>203</ele>
        <time>2012-02-26T08:50:36Z</time>
      </trkpt>
      <trkpt lat="44.3325" lon="0.66682">
        <ele>203</ele>
        <time>2012-02-26T08:50:37Z</time>
      </trkpt>
      <trkpt lat="44.33247" lon="0.66691">
        <ele>203</ele>
        <time>2012-02-26T08:50:38Z</time>
      </trkpt>
      <trkpt lat="44.33244" lon="0.66699">
        <ele>202</ele>
        <time>2012-02-26T08:50:39Z</time>
      </trkpt>
      <trkpt lat="44.33241" lon="0.66707">
        <ele>202</ele>
        <time>2012-02-26T08:50:40Z</time>
      </trkpt>
      <trkpt lat="44.33237" lon="0.66714">
        <ele>202</ele>
        <time>2012-02-26T08:50:41Z</time>
      </trkpt>
      <trkpt lat="44.33234" lon="0.6672">
        <ele>202</ele>
        <time>2012-02-26T08:50:42Z</time>
      </trkpt>
      <trkpt lat="44.33232" lon="0.66727">
        <ele>201</ele>
        <time>2012-02-26T08:50:43Z</time>
      </trkpt>
      <trkpt lat="44.3323" lon="0.66733">
        <ele>201</ele>
        <time>2012-02-26T08:50:44Z</time>
      </trkpt>
      <trkpt lat="44.33227" lon="0.66739">
        <ele>201</ele>
        <time>2012-02-26T08:50:45Z</time>
      </trkpt>
      <trkpt lat="44.33224" lon="0.66746">
        <ele>200</ele>
        <time>2012-02-26T08:50:46Z</time>
      </trkpt>
      <trkpt lat="44.33221" lon="0.66753">
        <ele>199</ele>
        <time>2012-02-26T08:50:47Z</time>
      </trkpt>
      <trkpt lat="44.3322" lon="0.66761">
        <ele>199</ele>
        <time>2012-02-26T08:50:48Z</time>
      </trkpt>
      <trkpt lat="44.33217" lon="0.6677">
        <ele>198</ele>
        <time>2012-02-26T08:50:49Z</time>
      </trkpt>
      <trkpt lat="44.33215" lon="0.66778">
        <ele>198</ele>
        <time>2012-02-26T08:50:50Z</time>
      </trkpt>
      <trkpt lat="44.33213" lon="0.66786">
        <ele>197</ele>
        <time>2012-02-26T08:50:51Z</time>
      </trkpt>
      <trkpt lat="44.3321" lon="0.66793">
        <ele>197</ele>
        <time>2012-02-26T08:50:52Z</time>
      </trkpt>
      <trkpt lat="44.33208" lon="0.668">
        <ele>197</ele>
        <time>2012-02-26T08:50:53Z</time>
      </trkpt>
      <trkpt lat="44.33205" lon="0.66808">
        <ele>197</ele>
        <time>2012-02-26T08:50:54Z</time>
      </trkpt>
      <trkpt lat="44.33201" lon="0.66816">
        <ele>196</ele>
        <time>2012-02-26T08:50:55Z</time>
      </trkpt>
      <trkpt lat="44.33199" lon="0.66822">
        <ele>196</ele>
        <time>2012-02-26T08:50:56Z</time>
      </trkpt>
      <trkpt lat="44.33198" lon="0.66829">
        <ele>196</ele>
        <time>2012-02-26T08:50:57Z</time>
      </trkpt>
      <trkpt lat="44.33197" lon="0.66834">
        <ele>195</ele>
        <time>2012-02-26T08:50:58Z</time>
      </trkpt>
      <trkpt lat="44.33197" lon="0.66836">
        <ele>195</ele>
        <time>2012-02-26T08:50:59Z</time>
      </trkpt>
      <trkpt lat="44.33199" lon="0.66836">
        <ele>194</ele>
        <time>2012-02-26T08:51:00Z</time>
      </trkpt>
      <trkpt lat="44.332" lon="0.66836">
        <ele>194</ele>
        <time>2012-02-26T08:51:01Z</time>
      </trkpt>
      <trkpt lat="44.33202" lon="0.66839">
        <ele>194</ele>
        <time>2012-02-26T08:51:02Z</time>
      </trkpt>
      <trkpt lat="44.33203" lon="0.66842">
        <ele>194</ele>
        <time>2012-02-26T08:51:03Z</time>
      </trkpt>
      <trkpt lat="44.33204" lon="0.66846">
        <ele>194</ele>
        <time>2012-02-26T08:51:04Z</time>
      </trkpt>
      <trkpt lat="44.33203" lon="0.66851">
        <ele>194</ele>
        <time>2012-02-26T08:51:05Z</time>
      </trkpt>
      <trkpt lat="44.33202" lon="0.66856">
        <ele>194</ele>
        <time>2012-02-26T08:51:06Z</time>
      </trkpt>
      <trkpt lat="44.33201" lon="0.66862">
        <ele>194</ele>
        <time>2012-02-26T08:51:07Z</time>
      </trkpt>
      <trkpt lat="44.33199" lon="0.66868">
        <ele>194</ele>
        <time>2012-02-26T08:51:08Z</time>
      </trkpt>
      <trkpt lat="44.33198" lon="0.66874">
        <ele>194</ele>
        <time>2012-02-26T08:51:09Z</time>
      </trkpt>
      <trkpt lat="44.33197" lon="0.6688">
        <ele>195</ele>
        <time>2012-02-26T08:51:10Z</time>
      </trkpt>
      <trkpt lat="44.33195" lon="0.66886">
        <ele>195</ele>
        <time>2012-02-26T08:51:11Z</time>
      </trkpt>
      <trkpt lat="44.33194" lon="0.66893">
        <ele>195</ele>
        <time>2012-02-26T08:51:12Z</time>
      </trkpt>
      <trkpt lat="44.33193" lon="0.669">
        <ele>195</ele>
        <time>2012-02-26T08:51:13Z</time>
      </trkpt>
      <trkpt lat="44.33192" lon="0.66906">
        <ele>196</ele>
        <time>2012-02-26T08:51:14Z</time>
      </trkpt>
      <trkpt lat="44.33191" lon="0.66914">
        <ele>196</ele>
        <time>2012-02-26T08:51:15Z</time>
      </trkpt>
      <trkpt lat="44.33189" lon="0.66921">
        <ele>196</ele>
        <time>2012-02-26T08:51:16Z</time>
      </trkpt>
      <trkpt lat="44.33188" lon="0.66929">
        <ele>196</ele>
        <time>2012-02-26T08:51:17Z</time>
      </trkpt>
      <trkpt lat="44.33186" lon="0.66937">
        <ele>196</ele>
        <time>2012-02-26T08:51:18Z</time>
      </trkpt>
      <trkpt lat="44.33185" lon="0.66944">
        <ele>196</ele>
        <time>2012-02-26T08:51:19Z</time>
      </trkpt>
      <trkpt lat="44.33184" lon="0.66953">
        <ele>196</ele>
        <time>2012-02-26T08:51:20Z</time>
      </trkpt>
      <trkpt lat="44.33183" lon="0.6696">
        <ele>196</ele>
        <time>2012-02-26T08:51:21Z</time>
      </trkpt>
      <trkpt lat="44.33181" lon="0.66968">
        <ele>196</ele>
        <time>2012-02-26T08:51:22Z</time>
      </trkpt>
      <trkpt lat="44.3318" lon="0.66976">
        <ele>196</ele>
        <time>2012-02-26T08:51:23Z</time>
      </trkpt>
      <trkpt lat="44.33178" lon="0.66984">
        <ele>196</ele>
        <time>2012-02-26T08:51:24Z</time>
      </trkpt>
      <trkpt lat="44.33177" lon="0.66992">
        <ele>196</ele>
        <time>2012-02-26T08:51:25Z</time>
      </trkpt>
      <trkpt lat="44.33175" lon="0.66999">
        <ele>196</ele>
        <time>2012-02-26T08:51:26Z</time>
      </trkpt>
      <trkpt lat="44.33173" lon="0.67007">
        <ele>196</ele>
        <time>2012-02-26T08:51:27Z</time>
      </trkpt>
      <trkpt lat="44.33171" lon="0.67014">
        <ele>196</ele>
        <time>2012-02-26T08:51:28Z</time>
      </trkpt>
      <trkpt lat="44.33169" lon="0.67021">
        <ele>197</ele>
        <time>2012-02-26T08:51:29Z</time>
      </trkpt>
      <trkpt lat="44.33166" lon="0.67027">
        <ele>197</ele>
        <time>2012-02-26T08:51:30Z</time>
      </trkpt>
      <trkpt lat="44.33163" lon="0.67034">
        <ele>197</ele>
        <time>2012-02-26T08:51:31Z</time>
      </trkpt>
      <trkpt lat="44.33159" lon="0.6704">
        <ele>197</ele>
        <time>2012-02-26T08:51:32Z</time>
      </trkpt>
      <trkpt lat="44.33155" lon="0.67045">
        <ele>197</ele>
        <time>2012-02-26T08:51:33Z</time>
      </trkpt>
      <trkpt lat="44.33152" lon="0.67051">
        <ele>197</ele>
        <time>2012-02-26T08:51:34Z</time>
      </trkpt>
      <trkpt lat="44.33147" lon="0.67056">
        <ele>197</ele>
        <time>2012-02-26T08:51:35Z</time>
      </trkpt>
      <trkpt lat="44.33144" lon="0.67061">
        <ele>197</ele>
        <time>2012-02-26T08:51:36Z</time>
      </trkpt>
      <trkpt lat="44.33141" lon="0.67066">
        <ele>198</ele>
        <time>2012-02-26T08:51:37Z</time>
      </trkpt>
      <trkpt lat="44.33139" lon="0.67072">
        <ele>198</ele>
        <time>2012-02-26T08:51:38Z</time>
      </trkpt>
      <trkpt lat="44.33139" lon="0.67078">
        <ele>198</ele>
        <time>2012-02-26T08:51:39Z</time>
      </trkpt>
      <trkpt lat="44.33142" lon="0.67083">
        <ele>198</ele>
        <time>2012-02-26T08:51:40Z</time>
      </trkpt>
      <trkpt lat="44.33146" lon="0.67087">
        <ele>198</ele>
        <time>2012-02-26T08:51:41Z</time>
      </trkpt>
      <trkpt lat="44.33152" lon="0.6709">
        <ele>198</ele>
        <time>2012-02-26T08:51:42Z</time>
      </trkpt>
      <trkpt lat="44.33157" lon="0.67091">
        <ele>198</ele>
        <time>2012-02-26T08:51:43Z</time>
      </trkpt>
      <trkpt lat="44.33164" lon="0.67093">
        <ele>198</ele>
        <time>2012-02-26T08:51:44Z</time>
      </trkpt>
      <trkpt lat="44.3317" lon="0.67093">
        <ele>198</ele>
        <time>2012-02-26T08:51:45Z</time>
      </trkpt>
      <trkpt lat="44.33177" lon="0.67094">
        <ele>198</ele>
        <time>2012-02-26T08:51:46Z</time>
      </trkpt>
      <trkpt lat="44.33184" lon="0.67095">
        <ele>198</ele>
        <time>2012-02-26T08:51:47Z</time>
      </trkpt>
      <trkpt lat="44.33191" lon="0.67096">
        <ele>198</ele>
        <time>2012-02-26T08:51:48Z</time>
      </trkpt>
      <trkpt lat="44.33198" lon="0.67097">
        <ele>198</ele>
        <time>2012-02-26T08:51:49Z</time>
      </trkpt>
      <trkpt lat="44.33205" lon="0.67098">
        <ele>198</ele>
        <time>2012-02-26T08:51:50Z</time>
      </trkpt>
      <trkpt lat="44.33213" lon="0.67099">
        <ele>198</ele>
        <time>2012-02-26T08:51:51Z</time>
      </trkpt>
      <trkpt lat="44.3322" lon="0.67101">
        <ele>198</ele>
        <time>2012-02-26T08:51:52Z</time>
      </trkpt>
      <trkpt lat="44.33227" lon="0.67102">
        <ele>198</ele>
        <time>2012-02-26T08:51:53Z</time>
      </trkpt>
      <trkpt lat="44.33234" lon="0.67104">
        <ele>198</ele>
        <time>2012-02-26T08:51:54Z</time>
      </trkpt>
      <trkpt lat="44.33242" lon="0.67105">
        <ele>198</ele>
        <time>2012-02-26T08:51:55Z</time>
      </trkpt>
      <trkpt lat="44.33249" lon="0.67105">
        <ele>198</ele>
        <time>2012-02-26T08:51:56Z</time>
      </trkpt>
      <trkpt lat="44.33255" lon="0.67103">
        <ele>198</ele>
        <time>2012-02-26T08:51:57Z</time>
      </trkpt>
      <trkpt lat="44.33262" lon="0.671">
        <ele>198</ele>
        <time>2012-02-26T08:51:58Z</time>
      </trkpt>
      <trkpt lat="44.33269" lon="0.67096">
        <ele>198</ele>
        <time>2012-02-26T08:51:59Z</time>
      </trkpt>
      <trkpt lat="44.33276" lon="0.67091">
        <ele>198</ele>
        <time>2012-02-26T08:52:00Z</time>
      </trkpt>
      <trkpt lat="44.33283" lon="0.67086">
        <ele>197</ele>
        <time>2012-02-26T08:52:01Z</time>
      </trkpt>
      <trkpt lat="44.3329" lon="0.67082">
        <ele>197</ele>
        <time>2012-02-26T08:52:02Z</time>
      </trkpt>
      <trkpt lat="44.33297" lon="0.67077">
        <ele>197</ele>
        <time>2012-02-26T08:52:03Z</time>
      </trkpt>
      <trkpt lat="44.33303" lon="0.67073">
        <ele>197</ele>
        <time>2012-02-26T08:52:04Z</time>
      </trkpt>
      <trkpt lat="44.33308" lon="0.67069">
        <ele>197</ele>
        <time>2012-02-26T08:52:05Z</time>
      </trkpt>
      <trkpt lat="44.33314" lon="0.67065">
        <ele>197</ele>
        <time>2012-02-26T08:52:06Z</time>
      </trkpt>
      <trkpt lat="44.3332" lon="0.67061">
        <ele>197</ele>
        <time>2012-02-26T08:52:07Z</time>
      </trkpt>
      <trkpt lat="44.33325" lon="0.67058">
        <ele>197</ele>
        <time>2012-02-26T08:52:08Z</time>
      </trkpt>
      <trkpt lat="44.3333" lon="0.67055">
        <ele>197</ele>
        <time>2012-02-26T08:52:09Z</time>
      </trkpt>
      <trkpt lat="44.33335" lon="0.67053">
        <ele>197</ele>
        <time>2012-02-26T08:52:10Z</time>
      </trkpt>
      <trkpt lat="44.3334" lon="0.6705">
        <ele>197</ele>
        <time>2012-02-26T08:52:11Z</time>
      </trkpt>
      <trkpt lat="44.33345" lon="0.67048">
        <ele>197</ele>
        <time>2012-02-26T08:52:12Z</time>
      </trkpt>
      <trkpt lat="44.3335" lon="0.67045">
        <ele>197</ele>
        <time>2012-02-26T08:52:13Z</time>
      </trkpt>
      <trkpt lat="44.33355" lon="0.67042">
        <ele>197</ele>
        <time>2012-02-26T08:52:14Z</time>
      </trkpt>
      <trkpt lat="44.3336" lon="0.6704">
        <ele>197</ele>
        <time>2012-02-26T08:52:15Z</time>
      </trkpt>
      <trkpt lat="44.33365" lon="0.67037">
        <ele>197</ele>
        <time>2012-02-26T08:52:16Z</time>
      </trkpt>
      <trkpt lat="44.3337" lon="0.67033">
        <ele>197</ele>
        <time>2012-02-26T08:52:17Z</time>
      </trkpt>
      <trkpt lat="44.33375" lon="0.6703">
        <ele>197</ele>
        <time>2012-02-26T08:52:18Z</time>
      </trkpt>
      <trkpt lat="44.3338" lon="0.67027">
        <ele>197</ele>
        <time>2012-02-26T08:52:19Z</time>
      </trkpt>
      <trkpt lat="44.33384" lon="0.67025">
        <ele>197</ele>
        <time>2012-02-26T08:52:20Z</time>
      </trkpt>
      <trkpt lat="44.33389" lon="0.67022">
        <ele>197</ele>
        <time>2012-02-26T08:52:21Z</time>
      </trkpt>
      <trkpt lat="44.33394" lon="0.67019">
        <ele>197</ele>
        <time>2012-02-26T08:52:22Z</time>
      </trkpt>
      <trkpt lat="44.33399" lon="0.67016">
        <ele>197</ele>
        <time>2012-02-26T08:52:23Z</time>
      </trkpt>
      <trkpt lat="44.33403" lon="0.67014">
        <ele>197</ele>
        <time>2012-02-26T08:52:24Z</time>
      </trkpt>
      <trkpt lat="44.33409" lon="0.67012">
        <ele>197</ele>
        <time>2012-02-26T08:52:25Z</time>
      </trkpt>
      <trkpt lat="44.33413" lon="0.6701">
        <ele>197</ele>
        <time>2012-02-26T08:52:26Z</time>
      </trkpt>
      <trkpt lat="44.33418" lon="0.67008">
        <ele>197</ele>
        <time>2012-02-26T08:52:27Z</time>
      </trkpt>
      <trkpt lat="44.33422" lon="0.67005">
        <ele>197</ele>
        <time>2012-02-26T08:52:28Z</time>
      </trkpt>
      <trkpt lat="44.33426" lon="0.67002">
        <ele>197</ele>
        <time>2012-02-26T08:52:29Z</time>
      </trkpt>
      <trkpt lat="44.3343" lon="0.66999">
        <ele>197</ele>
        <time>2012-02-26T08:52:30Z</time>
      </trkpt>
      <trkpt lat="44.33433" lon="0.66997">
        <ele>197</ele>
        <time>2012-02-26T08:52:31Z</time>
      </trkpt>
      <trkpt lat="44.33437" lon="0.66995">
        <ele>197</ele>
        <time>2012-02-26T08:52:32Z</time>
      </trkpt>
      <trkpt lat="44.3344" lon="0.66993">
        <ele>197</ele>
        <time>2012-02-26T08:52:33Z</time>
      </trkpt>
      <trkpt lat="44.33443" lon="0.66992">
        <ele>197</ele>
        <time>2012-02-26T08:52:34Z</time>
      </trkpt>
      <trkpt lat="44.33445" lon="0.66989">
        <ele>197</ele>
        <time>2012-02-26T08:52:35Z</time>
      </trkpt>
      <trkpt lat="44.33448" lon="0.66988">
        <ele>197</ele>
        <time>2012-02-26T08:52:36Z</time>
      </trkpt>
      <trkpt lat="44.33451" lon="0.66987">
        <ele>197</ele>
        <time>2012-02-26T08:52:37Z</time>
      </trkpt>
      <trkpt lat="44.33455" lon="0.66987">
        <ele>197</ele>
        <time>2012-02-26T08:52:38Z</time>
      </trkpt>
      <trkpt lat="44.33458" lon="0.66987">
        <ele>197</ele>
        <time>2012-02-26T08:52:39Z</time>
      </trkpt>
      <trkpt lat="44.33462" lon="0.66986">
        <ele>197</ele>
        <time>2012-02-26T08:52:40Z</time>
      </trkpt>
      <trkpt lat="44.33466" lon="0.66986">
        <ele>197</ele>
        <time>2012-02-26T08:52:41Z</time>
      </trkpt>
      <trkpt lat="44.33469" lon="0.66986">
        <ele>197</ele>
        <time>2012-02-26T08:52:42Z</time>
      </trkpt>
      <trkpt lat="44.33473" lon="0.66987">
        <ele>197</ele>
        <time>2012-02-26T08:52:43Z</time>
      </trkpt>
      <trkpt lat="44.33476" lon="0.66988">
        <ele>197</ele>
        <time>2012-02-26T08:52:44Z</time>
      </trkpt>
      <trkpt lat="44.33479" lon="0.66988">
        <ele>197</ele>
        <time>2012-02-26T08:52:45Z</time>
      </trkpt>
      <trkpt lat="44.33482" lon="0.66988">
        <ele>197</ele>
        <time>2012-02-26T08:52:46Z</time>
      </trkpt>
      <trkpt lat="44.33485" lon="0.66989">
        <ele>197</ele>
        <time>2012-02-26T08:52:47Z</time>
      </trkpt>
      <trkpt lat="44.33489" lon="0.66989">
        <ele>197</ele>
        <time>2012-02-26T08:52:48Z</time>
      </trkpt>
      <trkpt lat="44.33492" lon="0.6699">
        <ele>197</ele>
        <time>2012-02-26T08:52:49Z</time>
      </trkpt>
      <trkpt lat="44.33495" lon="0.66991">
        <ele>197</ele>
        <time>2012-02-26T08:52:50Z</time>
      </trkpt>
      <trkpt lat="44.33499" lon="0.66991">
        <ele>197</ele>
        <time>2012-02-26T08:52:51Z</time>
      </trkpt>
      <trkpt lat="44.33502" lon="0.66991">
        <ele>197</ele>
        <time>2012-02-26T08:52:52Z</time>
      </trkpt>
      <trkpt lat="44.33506" lon="0.66992">
        <ele>197</ele>
        <time>2012-02-26T08:52:53Z</time>
      </trkpt>
      <trkpt lat="44.33509" lon="0.66992">
        <ele>197</ele>
        <time>2012-02-26T08:52:54Z</time>
      </trkpt>
      <trkpt lat="44.33514" lon="0.66992">
        <ele>197</ele>
        <time>2012-02-26T08:52:55Z</time>
      </trkpt>
      <trkpt lat="44.33518" lon="0.66992">
        <ele>197</ele>
        <time>2012-02-26T08:52:56Z</time>
      </trkpt>
      <trkpt lat="44.33522" lon="0.66992">
        <ele>197</ele>
        <time>2012-02-26T08:52:57Z</time>
      </trkpt>
      <trkpt lat="44.33525" lon="0.66992">
        <ele>197</ele>
        <time>2012-02-26T08:52:58Z</time>
      </trkpt>
      <trkpt lat="44.33529" lon="0.66991">
        <ele>197</ele>
        <time>2012-02-26T08:52:59Z</time>
      </trkpt>
      <trkpt lat="44.33533" lon="0.66989">
        <ele>197</ele>
        <time>2012-02-26T08:53:00Z</time>
      </trkpt>
      <trkpt lat="44.33537" lon="0.66987">
        <ele>197</ele>
        <time>2012-02-26T08:53:01Z</time>
      </trkpt>
      <trkpt lat="44.3354" lon="0.66986">
        <ele>197</ele>
        <time>2012-02-26T08:53:02Z</time>
      </trkpt>
      <trkpt lat="44.33545" lon="0.66984">
        <ele>197</ele>
        <time>2012-02-26T08:53:03Z</time>
      </trkpt>
      <trkpt lat="44.33549" lon="0.66983">
        <ele>197</ele>
        <time>2012-02-26T08:53:04Z</time>
      </trkpt>
      <trkpt lat="44.33553" lon="0.66982">
        <ele>196</ele>
        <time>2012-02-26T08:53:05Z</time>
      </trkpt>
      <trkpt lat="44.33557" lon="0.6698">
        <ele>196</ele>
        <time>2012-02-26T08:53:06Z</time>
      </trkpt>
      <trkpt lat="44.33561" lon="0.66978">
        <ele>196</ele>
        <time>2012-02-26T08:53:07Z</time>
      </trkpt>
      <trkpt lat="44.33567" lon="0.66975">
        <ele>195</ele>
        <time>2012-02-26T08:53:08Z</time>
      </trkpt>
      <trkpt lat="44.33572" lon="0.66974">
        <ele>195</ele>
        <time>2012-02-26T08:53:09Z</time>
      </trkpt>
      <trkpt lat="44.33576" lon="0.66972">
        <ele>195</ele>
        <time>2012-02-26T08:53:10Z</time>
      </trkpt>
      <trkpt lat="44.3358" lon="0.66971">
        <ele>194</ele>
        <time>2012-02-26T08:53:11Z</time>
      </trkpt>
      <trkpt lat="44.33585" lon="0.6697">
        <ele>194</ele>
        <time>2012-02-26T08:53:12Z</time>
      </trkpt>
      <trkpt lat="44.3359" lon="0.66969">
        <ele>193</ele>
        <time>2012-02-26T08:53:13Z</time>
      </trkpt>
      <trkpt lat="44.33594" lon="0.66968">
        <ele>193</ele>
        <time>2012-02-26T08:53:14Z</time>
      </trkpt>
      <trkpt lat="44.33599" lon="0.66967">
        <ele>193</ele>
        <time>2012-02-26T08:53:15Z</time>
      </trkpt>
      <trkpt lat="44.33604" lon="0.66965">
        <ele>193</ele>
        <time>2012-02-26T08:53:16Z</time>
      </trkpt>
      <trkpt lat="44.33609" lon="0.66964">
        <ele>193</ele>
        <time>2012-02-26T08:53:17Z</time>
      </trkpt>
      <trkpt lat="44.33614" lon="0.66963">
        <ele>192</ele>
        <time>2012-02-26T08:53:18Z</time>
      </trkpt>
      <trkpt lat="44.33618" lon="0.66961">
        <ele>192</ele>
        <time>2012-02-26T08:53:19Z</time>
      </trkpt>
      <trkpt lat="44.33623" lon="0.6696">
        <ele>192</ele>
        <time>2012-02-26T08:53:20Z</time>
      </trkpt>
      <trkpt lat="44.33627" lon="0.6696">
        <ele>192</ele>
        <time>2012-02-26T08:53:21Z</time>
      </trkpt>
      <trkpt lat="44.33633" lon="0.66958">
        <ele>191</ele>
        <time>2012-02-26T08:53:22Z</time>
      </trkpt>
      <trkpt lat="44.33639" lon="0.66957">
        <ele>191</ele>
        <time>2012-02-26T08:53:23Z</time>
      </trkpt>
      <trkpt lat="44.33643" lon="0.66956">
        <ele>191</ele>
        <time>2012-02-26T08:53:24Z</time>
      </trkpt>
      <trkpt lat="44.33648" lon="0.66954">
        <ele>190</ele>
        <time>2012-02-26T08:53:25Z</time>
      </trkpt>
      <trkpt lat="44.33652" lon="0.66953">
        <ele>190</ele>
        <time>2012-02-26T08:53:26Z</time>
      </trkpt>
      <trkpt lat="44.33657" lon="0.66952">
        <ele>190</ele>
        <time>2012-02-26T08:53:27Z</time>
      </trkpt>
      <trkpt lat="44.33663" lon="0.6695">
        <ele>190</ele>
        <time>2012-02-26T08:53:28Z</time>
      </trkpt>
      <trkpt lat="44.33668" lon="0.66949">
        <ele>190</ele>
        <time>2012-02-26T08:53:29Z</time>
      </trkpt>
      <trkpt lat="44.33673" lon="0.66948">
        <ele>190</ele>
        <time>2012-02-26T08:53:30Z</time>
      </trkpt>
      <trkpt lat="44.33678" lon="0.66946">
        <ele>190</ele>
        <time>2012-02-26T08:53:31Z</time>
      </trkpt>
      <trkpt lat="44.33683" lon="0.66944">
        <ele>189</ele>
        <time>2012-02-26T08:53:32Z</time>
      </trkpt>
      <trkpt lat="44.33688" lon="0.66942">
        <ele>189</ele>
        <time>2012-02-26T08:53:33Z</time>
      </trkpt>
      <trkpt lat="44.33693" lon="0.66941">
        <ele>189</ele>
        <time>2012-02-26T08:53:34Z</time>
      </trkpt>
      <trkpt lat="44.33698" lon="0.6694">
        <ele>189</ele>
        <time>2012-02-26T08:53:35Z</time>
      </trkpt>
      <trkpt lat="44.33703" lon="0.66939">
        <ele>188</ele>
        <time>2012-02-26T08:53:36Z</time>
      </trkpt>
      <trkpt lat="44.33709" lon="0.66939">
        <ele>188</ele>
        <time>2012-02-26T08:53:37Z</time>
      </trkpt>
      <trkpt lat="44.33714" lon="0.66939">
        <ele>188</ele>
        <time>2012-02-26T08:53:38Z</time>
      </trkpt>
      <trkpt lat="44.33719" lon="0.66939">
        <ele>188</ele>
        <time>2012-02-26T08:53:39Z</time>
      </trkpt>
      <trkpt lat="44.33724" lon="0.6694">
        <ele>188</ele>
        <time>2012-02-26T08:53:40Z</time>
      </trkpt>
      <trkpt lat="44.33729" lon="0.66942">
        <ele>188</ele>
        <time>2012-02-26T08:53:41Z</time>
      </trkpt>
      <trkpt lat="44.33734" lon="0.66944">
        <ele>188</ele>
        <time>2012-02-26T08:53:42Z</time>
      </trkpt>
      <trkpt lat="44.33739" lon="0.66947">
        <ele>188</ele>
        <time>2012-02-26T08:53:43Z</time>
      </trkpt>
      <trkpt lat="44.33745" lon="0.6695">
        <ele>188</ele>
        <time>2012-02-26T08:53:44Z</time>
      </trkpt>
      <trkpt lat="44.33749" lon="0.66954">
        <ele>188</ele>
        <time>2012-02-26T08:53:45Z</time>
      </trkpt>
      <trkpt lat="44.33754" lon="0.66958">
        <ele>188</ele>
        <time>2012-02-26T08:53:46Z</time>
      </trkpt>
      <trkpt lat="44.33759" lon="0.66961">
        <ele>188</ele>
        <time>2012-02-26T08:53:47Z</time>
      </trkpt>
      <trkpt lat="44.33764" lon="0.66965">
        <ele>188</ele>
        <time>2012-02-26T08:53:48Z</time>
      </trkpt>
      <trkpt lat="44.33768" lon="0.66968">
        <ele>188</ele>
        <time>2012-02-26T08:53:49Z</time>
      </trkpt>
      <trkpt lat="44.33773" lon="0.66971">
        <ele>188</ele>
        <time>2012-02-26T08:53:50Z</time>
      </trkpt>
      <trkpt lat="44.33778" lon="0.66975">
        <ele>188</ele>
        <time>2012-02-26T08:53:51Z</time>
      </trkpt>
      <trkpt lat="44.33783" lon="0.66978">
        <ele>188</ele>
        <time>2012-02-26T08:53:52Z</time>
      </trkpt>
      <trkpt lat="44.33788" lon="0.66981">
        <ele>188</ele>
        <time>2012-02-26T08:53:53Z</time>
      </trkpt>
      <trkpt lat="44.33792" lon="0.66984">
        <ele>188</ele>
        <time>2012-02-26T08:53:54Z</time>
      </trkpt>
      <trkpt lat="44.33798" lon="0.66987">
        <ele>188</ele>
        <time>2012-02-26T08:53:55Z</time>
      </trkpt>
      <trkpt lat="44.33803" lon="0.6699">
        <ele>188</ele>
        <time>2012-02-26T08:53:56Z</time>
      </trkpt>
      <trkpt lat="44.33809" lon="0.66993">
        <ele>188</ele>
        <time>2012-02-26T08:53:57Z</time>
      </trkpt>
      <trkpt lat="44.33814" lon="0.66996">
        <ele>188</ele>
        <time>2012-02-26T08:53:58Z</time>
      </trkpt>
      <trkpt lat="44.3382" lon="0.67">
        <ele>188</ele>
        <time>2012-02-26T08:53:59Z</time>
      </trkpt>
      <trkpt lat="44.33825" lon="0.67003">
        <ele>188</ele>
        <time>2012-02-26T08:54:00Z</time>
      </trkpt>
      <trkpt lat="44.33831" lon="0.67006">
        <ele>188</ele>
        <time>2012-02-26T08:54:01Z</time>
      </trkpt>
      <trkpt lat="44.33837" lon="0.67009">
        <ele>188</ele>
        <time>2012-02-26T08:54:02Z</time>
      </trkpt>
      <trkpt lat="44.33844" lon="0.67012">
        <ele>188</ele>
        <time>2012-02-26T08:54:03Z</time>
      </trkpt>
      <trkpt lat="44.3385" lon="0.67015">
        <ele>188</ele>
        <time>2012-02-26T08:54:04Z</time>
      </trkpt>
      <trkpt lat="44.33856" lon="0.67018">
        <ele>188</ele>
        <time>2012-02-26T08:54:05Z</time>
      </trkpt>
      <trkpt lat="44.33862" lon="0.6702">
        <ele>188</ele>
        <time>2012-02-26T08:54:06Z</time>
      </trkpt>
      <trkpt lat="44.33868" lon="0.67023">
        <ele>188</ele>
        <time>2012-02-26T08:54:07Z</time>
      </trkpt>
      <trkpt lat="44.33874" lon="0.67026">
        <ele>188</ele>
        <time>2012-02-26T08:54:08Z</time>
      </trkpt>
      <trkpt lat="44.3388" lon="0.67029">
        <ele>188</ele>
        <time>2012-02-26T08:54:09Z</time>
      </trkpt>
      <trkpt lat="44.33886" lon="0.67032">
        <ele>188</ele>
        <time>2012-02-26T08:54:10Z</time>
      </trkpt>
      <trkpt lat="44.33892" lon="0.67034">
        <ele>188</ele>
        <time>2012-02-26T08:54:11Z</time>
      </trkpt>
      <trkpt lat="44.33897" lon="0.67037">
        <ele>188</ele>
        <time>2012-02-26T08:54:12Z</time>
      </trkpt>
      <trkpt lat="44.33903" lon="0.6704">
        <ele>188</ele>
        <time>2012-02-26T08:54:13Z</time>
      </trkpt>
      <trkpt lat="44.33908" lon="0.67043">
        <ele>188</ele>
        <time>2012-02-26T08:54:14Z</time>
      </trkpt>
      <trkpt lat="44.33914" lon="0.67047">
        <ele>188</ele>
        <time>2012-02-26T08:54:15Z</time>
      </trkpt>
      <trkpt lat="44.33919" lon="0.6705">
        <ele>188</ele>
        <time>2012-02-26T08:54:16Z</time>
      </trkpt>
      <trkpt lat="44.33925" lon="0.67054">
        <ele>188</ele>
        <time>2012-02-26T08:54:17Z</time>
      </trkpt>
      <trkpt lat="44.3393" lon="0.67057">
        <ele>188</ele>
        <time>2012-02-26T08:54:18Z</time>
      </trkpt>
      <trkpt lat="44.33935" lon="0.6706">
        <ele>188</ele>
        <time>2012-02-26T08:54:19Z</time>
      </trkpt>
      <trkpt lat="44.3394" lon="0.67062">
        <ele>188</ele>
        <time>2012-02-26T08:54:20Z</time>
      </trkpt>
      <trkpt lat="44.33946" lon="0.67064">
        <ele>188</ele>
        <time>2012-02-26T08:54:21Z</time>
      </trkpt>
      <trkpt lat="44.33951" lon="0.67064">
        <ele>188</ele>
        <time>2012-02-26T08:54:22Z</time>
      </trkpt>
      <trkpt lat="44.33956" lon="0.67063">
        <ele>188</ele>
        <time>2012-02-26T08:54:23Z</time>
      </trkpt>
      <trkpt lat="44.33962" lon="0.67062">
        <ele>188</ele>
        <time>2012-02-26T08:54:24Z</time>
      </trkpt>
      <trkpt lat="44.33967" lon="0.67062">
        <ele>188</ele>
        <time>2012-02-26T08:54:25Z</time>
      </trkpt>
      <trkpt lat="44.33972" lon="0.67061">
        <ele>188</ele>
        <time>2012-02-26T08:54:26Z</time>
      </trkpt>
      <trkpt lat="44.33978" lon="0.6706">
        <ele>188</ele>
        <time>2012-02-26T08:54:27Z</time>
      </trkpt>
      <trkpt lat="44.33983" lon="0.6706">
        <ele>188</ele>
        <time>2012-02-26T08:54:28Z</time>
      </trkpt>
      <trkpt lat="44.33988" lon="0.67061">
        <ele>188</ele>
        <time>2012-02-26T08:54:29Z</time>
      </trkpt>
      <trkpt lat="44.33994" lon="0.67062">
        <ele>188</ele>
        <time>2012-02-26T08:54:30Z</time>
      </trkpt>
      <trkpt lat="44.33999" lon="0.67062">
        <ele>188</ele>
        <time>2012-02-26T08:54:31Z</time>
      </trkpt>
      <trkpt lat="44.34005" lon="0.67063">
        <ele>188</ele>
        <time>2012-02-26T08:54:32Z</time>
      </trkpt>
      <trkpt lat="44.3401" lon="0.67063">
        <ele>188</ele>
        <time>2012-02-26T08:54:33Z</time>
      </trkpt>
      <trkpt lat="44.34015" lon="0.67064">
        <ele>187</ele>
        <time>2012-02-26T08:54:34Z</time>
      </trkpt>
      <trkpt lat="44.34021" lon="0.67065">
        <ele>187</ele>
        <time>2012-02-26T08:54:35Z</time>
      </trkpt>
      <trkpt lat="44.34026" lon="0.67066">
        <ele>187</ele>
        <time>2012-02-26T08:54:36Z</time>
      </trkpt>
      <trkpt lat="44.34032" lon="0.67067">
        <ele>187</ele>
        <time>2012-02-26T08:54:37Z</time>
      </trkpt>
      <trkpt lat="44.34037" lon="0.67067">
        <ele>187</ele>
        <time>2012-02-26T08:54:38Z</time>
      </trkpt>
      <trkpt lat="44.34043" lon="0.67068">
        <ele>187</ele>
        <time>2012-02-26T08:54:39Z</time>
      </trkpt>
      <trkpt lat="44.34048" lon="0.67069">
        <ele>187</ele>
        <time>2012-02-26T08:54:40Z</time>
      </trkpt>
      <trkpt lat="44.34054" lon="0.6707">
        <ele>187</ele>
        <time>2012-02-26T08:54:41Z</time>
      </trkpt>
      <trkpt lat="44.34059" lon="0.67071">
        <ele>187</ele>
        <time>2012-02-26T08:54:42Z</time>
      </trkpt>
      <trkpt lat="44.34065" lon="0.67072">
        <ele>187</ele>
        <time>2012-02-26T08:54:43Z</time>
      </trkpt>
      <trkpt lat="44.3407" lon="0.67074">
        <ele>187</ele>
        <time>2012-02-26T08:54:44Z</time>
      </trkpt>
      <trkpt lat="44.34075" lon="0.67075">
        <ele>187</ele>
        <time>2012-02-26T08:54:45Z</time>
      </trkpt>
      <trkpt lat="44.3408" lon="0.67076">
        <ele>187</ele>
        <time>2012-02-26T08:54:46Z</time>
      </trkpt>
      <trkpt lat="44.34084" lon="0.67077">
        <ele>187</ele>
        <time>2012-02-26T08:54:47Z</time>
      </trkpt>
      <trkpt lat="44.34089" lon="0.67077">
        <ele>187</ele>
        <time>2012-02-26T08:54:48Z</time>
      </trkpt>
      <trkpt lat="44.34094" lon="0.67078">
        <ele>187</ele>
        <time>2012-02-26T08:54:49Z</time>
      </trkpt>
      <trkpt lat="44.34099" lon="0.67079">
        <ele>187</ele>
        <time>2012-02-26T08:54:50Z</time>
      </trkpt>
      <trkpt lat="44.34104" lon="0.6708">
        <ele>187</ele>
        <time>2012-02-26T08:54:51Z</time>
      </trkpt>
      <trkpt lat="44.34109" lon="0.67081">
        <ele>187</ele>
        <time>2012-02-26T08:54:52Z</time>
      </trkpt>
      <trkpt lat="44.34114" lon="0.67082">
        <ele>187</ele>
        <time>2012-02-26T08:54:53Z</time>
      </trkpt>
      <trkpt lat="44.34119" lon="0.67083">
        <ele>187</ele>
        <time>2012-02-26T08:54:54Z</time>
      </trkpt>
      <trkpt lat="44.34125" lon="0.67084">
        <ele>187</ele>
        <time>2012-02-26T08:54:55Z</time>
      </trkpt>
      <trkpt lat="44.3413" lon="0.67085">
        <ele>187</ele>
        <time>2012-02-26T08:54:56Z</time>
      </trkpt>
      <trkpt lat="44.34136" lon="0.67086">
        <ele>187</ele>
        <time>2012-02-26T08:54:57Z</time>
      </trkpt>
      <trkpt lat="44.34142" lon="0.67088">
        <ele>187</ele>
        <time>2012-02-26T08:54:58Z</time>
      </trkpt>
      <trkpt lat="44.34148" lon="0.67089">
        <ele>187</ele>
        <time>2012-02-26T08:54:59Z</time>
      </trkpt>
      <trkpt lat="44.34154" lon="0.67091">
        <ele>186</ele>
        <time>2012-02-26T08:55:00Z</time>
      </trkpt>
      <trkpt lat="44.3416" lon="0.67092">
        <ele>186</ele>
        <time>2012-02-26T08:55:01Z</time>
      </trkpt>
      <trkpt lat="44.34166" lon="0.67094">
        <ele>186</ele>
        <time>2012-02-26T08:55:02Z</time>
      </trkpt>
      <trkpt lat="44.34171" lon="0.67097">
        <ele>186</ele>
        <time>2012-02-26T08:55:03Z</time>
      </trkpt>
      <trkpt lat="44.34177" lon="0.67099">
        <ele>186</ele>
        <time>2012-02-26T08:55:04Z</time>
      </trkpt>
      <trkpt lat="44.34182" lon="0.67101">
        <ele>186</ele>
        <time>2012-02-26T08:55:05Z</time>
      </trkpt>
      <trkpt lat="44.34188" lon="0.67102">
        <ele>186</ele>
        <time>2012-02-26T08:55:06Z</time>
      </trkpt>
      <trkpt lat="44.34194" lon="0.67102">
        <ele>186</ele>
        <time>2012-02-26T08:55:07Z</time>
      </trkpt>
      <trkpt lat="44.34199" lon="0.67103">
        <ele>185</ele>
        <time>2012-02-26T08:55:08Z</time>
      </trkpt>
      <trkpt lat="44.34205" lon="0.67103">
        <ele>185</ele>
        <time>2012-02-26T08:55:09Z</time>
      </trkpt>
      <trkpt lat="44.3421" lon="0.67103">
        <ele>185</ele>
        <time>2012-02-26T08:55:10Z</time>
      </trkpt>
      <trkpt lat="44.34215" lon="0.67103">
        <ele>185</ele>
        <time>2012-02-26T08:55:11Z</time>
      </trkpt>
      <trkpt lat="44.3422" lon="0.67102">
        <ele>185</ele>
        <time>2012-02-26T08:55:12Z</time>
      </trkpt>
      <trkpt lat="44.34225" lon="0.67101">
        <ele>185</ele>
        <time>2012-02-26T08:55:13Z</time>
      </trkpt>
      <trkpt lat="44.3423" lon="0.67101">
        <ele>185</ele>
        <time>2012-02-26T08:55:14Z</time>
      </trkpt>
      <trkpt lat="44.34235" lon="0.67101">
        <ele>185</ele>
        <time>2012-02-26T08:55:15Z</time>
      </trkpt>
      <trkpt lat="44.3424" lon="0.67102">
        <ele>185</ele>
        <time>2012-02-26T08:55:16Z</time>
      </trkpt>
      <trkpt lat="44.34244" lon="0.67103">
        <ele>185</ele>
        <time>2012-02-26T08:55:17Z</time>
      </trkpt>
      <trkpt lat="44.34249" lon="0.67105">
        <ele>185</ele>
        <time>2012-02-26T08:55:18Z</time>
      </trkpt>
      <trkpt lat="44.34253" lon="0.67106">
        <ele>185</ele>
        <time>2012-02-26T08:55:19Z</time>
      </trkpt>
      <trkpt lat="44.34257" lon="0.67107">
        <ele>185</ele>
        <time>2012-02-26T08:55:20Z</time>
      </trkpt>
      <trkpt lat="44.34261" lon="0.67109">
        <ele>185</ele>
        <time>2012-02-26T08:55:21Z</time>
      </trkpt>
      <trkpt lat="44.34266" lon="0.67111">
        <ele>185</ele>
        <time>2012-02-26T08:55:22Z</time>
      </trkpt>
      <trkpt lat="44.3427" lon="0.67113">
        <ele>185</ele>
        <time>2012-02-26T08:55:23Z</time>
      </trkpt>
      <trkpt lat="44.34274" lon="0.67117">
        <ele>185</ele>
        <time>2012-02-26T08:55:24Z</time>
      </trkpt>
      <trkpt lat="44.34278" lon="0.67121">
        <ele>185</ele>
        <time>2012-02-26T08:55:25Z</time>
      </trkpt>
      <trkpt lat="44.34281" lon="0.67127">
        <ele>185</ele>
        <time>2012-02-26T08:55:26Z</time>
      </trkpt>
      <trkpt lat="44.34284" lon="0.67132">
        <ele>185</ele>
        <time>2012-02-26T08:55:27Z</time>
      </trkpt>
      <trkpt lat="44.34287" lon="0.67137">
        <ele>185</ele>
        <time>2012-02-26T08:55:28Z</time>
      </trkpt>
      <trkpt lat="44.3429" lon="0.67143">
        <ele>185</ele>
        <time>2012-02-26T08:55:29Z</time>
      </trkpt>
      <trkpt lat="44.34293" lon="0.67148">
        <ele>185</ele>
        <time>2012-02-26T08:55:30Z</time>
      </trkpt>
      <trkpt lat="44.34296" lon="0.67154">
        <ele>185</ele>
        <time>2012-02-26T08:55:31Z</time>
      </trkpt>
      <trkpt lat="44.343" lon="0.67159">
        <ele>185</ele>
        <time>2012-02-26T08:55:32Z</time>
      </trkpt>
      <trkpt lat="44.34303" lon="0.67165">
        <ele>185</ele>
        <time>2012-02-26T08:55:33Z</time>
      </trkpt>
      <trkpt lat="44.34307" lon="0.6717">
        <ele>185</ele>
        <time>2012-02-26T08:55:34Z</time>
      </trkpt>
      <trkpt lat="44.3431" lon="0.67175">
        <ele>185</ele>
        <time>2012-02-26T08:55:35Z</time>
      </trkpt>
      <trkpt lat="44.34311" lon="0.6718">
        <ele>185</ele>
        <time>2012-02-26T08:55:36Z</time>
      </trkpt>
      <trkpt lat="44.34311" lon="0.67185">
        <ele>185</ele>
        <time>2012-02-26T08:55:37Z</time>
      </trkpt>
      <trkpt lat="44.34309" lon="0.6719">
        <ele>185</ele>
        <time>2012-02-26T08:55:38Z</time>
      </trkpt>
      <trkpt lat="44.34307" lon="0.67193">
        <ele>185</ele>
        <time>2012-02-26T08:55:39Z</time>
      </trkpt>
      <trkpt lat="44.34305" lon="0.67197">
        <ele>185</ele>
        <time>2012-02-26T08:55:40Z</time>
      </trkpt>
      <trkpt lat="44.34303" lon="0.67202">
        <ele>185</ele>
        <time>2012-02-26T08:55:41Z</time>
      </trkpt>
      <trkpt lat="44.34301" lon="0.67206">
        <ele>185</ele>
        <time>2012-02-26T08:55:42Z</time>
      </trkpt>
      <trkpt lat="44.34299" lon="0.67211">
        <ele>185</ele>
        <time>2012-02-26T08:55:43Z</time>
      </trkpt>
      <trkpt lat="44.34298" lon="0.67216">
        <ele>185</ele>
        <time>2012-02-26T08:55:44Z</time>
      </trkpt>
      <trkpt lat="44.34296" lon="0.67221">
        <ele>185</ele>
        <time>2012-02-26T08:55:45Z</time>
      </trkpt>
      <trkpt lat="44.34294" lon="0.67226">
        <ele>185</ele>
        <time>2012-02-26T08:55:46Z</time>
      </trkpt>
      <trkpt lat="44.34292" lon="0.67231">
        <ele>185</ele>
        <time>2012-02-26T08:55:47Z</time>
      </trkpt>
      <trkpt lat="44.34291" lon="0.67235">
        <ele>185</ele>
        <time>2012-02-26T08:55:48Z</time>
      </trkpt>
      <trkpt lat="44.34289" lon="0.6724">
        <ele>185</ele>
        <time>2012-02-26T08:55:49Z</time>
      </trkpt>
      <trkpt lat="44.34287" lon="0.67245">
        <ele>185</ele>
        <time>2012-02-26T08:55:50Z</time>
      </trkpt>
      <trkpt lat="44.34285" lon="0.6725">
        <ele>185</ele>
        <time>2012-02-26T08:55:51Z</time>
      </trkpt>
      <trkpt lat="44.34284" lon="0.67255">
        <ele>185</ele>
        <time>2012-02-26T08:55:52Z</time>
      </trkpt>
      <trkpt lat="44.34282" lon="0.67259">
        <ele>185</ele>
        <time>2012-02-26T08:55:53Z</time>
      </trkpt>
      <trkpt lat="44.3428" lon="0.67264">
        <ele>185</ele>
        <time>2012-02-26T08:55:54Z</time>
      </trkpt>
      <trkpt lat="44.34278" lon="0.67269">
        <ele>185</ele>
        <time>2012-02-26T08:55:55Z</time>
      </trkpt>
      <trkpt lat="44.34276" lon="0.67274">
        <ele>185</ele>
        <time>2012-02-26T08:55:56Z</time>
      </trkpt>
      <trkpt lat="44.34275" lon="0.67279">
        <ele>185</ele>
        <time>2012-02-26T08:55:57Z</time>
      </trkpt>
      <trkpt lat="44.34273" lon="0.67284">
        <ele>185</ele>
        <time>2012-02-26T08:55:58Z</time>
      </trkpt>
      <trkpt lat="44.3427" lon="0.67289">
        <ele>185</ele>
        <time>2012-02-26T08:55:59Z</time>
      </trkpt>
      <trkpt lat="44.34269" lon="0.67294">
        <ele>185</ele>
        <time>2012-02-26T08:56:00Z</time>
      </trkpt>
      <trkpt lat="44.34267" lon="0.67299">
        <ele>185</ele>
        <time>2012-02-26T08:56:01Z</time>
      </trkpt>
      <trkpt lat="44.34265" lon="0.67304">
        <ele>185</ele>
        <time>2012-02-26T08:56:02Z</time>
      </trkpt>
      <trkpt lat="44.34263" lon="0.6731">
        <ele>184</ele>
        <time>2012-02-26T08:56:03Z</time>
      </trkpt>
      <trkpt lat="44.34261" lon="0.67316">
        <ele>184</ele>
        <time>2012-02-26T08:56:04Z</time>
      </trkpt>
      <trkpt lat="44.34259" lon="0.67321">
        <ele>184</ele>
        <time>2012-02-26T08:56:05Z</time>
      </trkpt>
      <trkpt lat="44.34257" lon="0.67326">
        <ele>184</ele>
        <time>2012-02-26T08:56:06Z</time>
      </trkpt>
      <trkpt lat="44.34254" lon="0.67332">
        <ele>183</ele>
        <time>2012-02-26T08:56:07Z</time>
      </trkpt>
      <trkpt lat="44.34253" lon="0.67339">
        <ele>183</ele>
        <time>2012-02-26T08:56:08Z</time>
      </trkpt>
      <trkpt lat="44.34251" lon="0.67345">
        <ele>182</ele>
        <time>2012-02-26T08:56:09Z</time>
      </trkpt>
      <trkpt lat="44.34248" lon="0.67351">
        <ele>182</ele>
        <time>2012-02-26T08:56:10Z</time>
      </trkpt>
      <trkpt lat="44.34246" lon="0.67358">
        <ele>181</ele>
        <time>2012-02-26T08:56:11Z</time>
      </trkpt>
      <trkpt lat="44.34244" lon="0.67365">
        <ele>181</ele>
        <time>2012-02-26T08:56:12Z</time>
      </trkpt>
      <trkpt lat="44.34241" lon="0.67372">
        <ele>181</ele>
        <time>2012-02-26T08:56:13Z</time>
      </trkpt>
      <trkpt lat="44.34239" lon="0.67379">
        <ele>180</ele>
        <time>2012-02-26T08:56:14Z</time>
      </trkpt>
      <trkpt lat="44.34237" lon="0.67386">
        <ele>180</ele>
        <time>2012-02-26T08:56:15Z</time>
      </trkpt>
      <trkpt lat="44.34235" lon="0.67393">
        <ele>179</ele>
        <time>2012-02-26T08:56:16Z</time>
      </trkpt>
      <trkpt lat="44.34233" lon="0.67401">
        <ele>178</ele>
        <time>2012-02-26T08:56:17Z</time>
      </trkpt>
      <trkpt lat="44.3423" lon="0.67409">
        <ele>178</ele>
        <time>2012-02-26T08:56:18Z</time>
      </trkpt>
      <trkpt lat="44.34228" lon="0.67415">
        <ele>178</ele>
        <time>2012-02-26T08:56:19Z</time>
      </trkpt>
      <trkpt lat="44.34226" lon="0.67421">
        <ele>177</ele>
        <time>2012-02-26T08:56:20Z</time>
      </trkpt>
      <trkpt lat="44.34224" lon="0.67426">
        <ele>177</ele>
        <time>2012-02-26T08:56:21Z</time>
      </trkpt>
      <trkpt lat="44.34222" lon="0.67431">
        <ele>177</ele>
        <time>2012-02-26T08:56:22Z</time>
      </trkpt>
      <trkpt lat="44.3422" lon="0.67436">
        <ele>177</ele>
        <time>2012-02-26T08:56:23Z</time>
      </trkpt>
      <trkpt lat="44.34219" lon="0.67439">
        <ele>177</ele>
        <time>2012-02-26T08:56:24Z</time>
      </trkpt>
      <trkpt lat="44.34219" lon="0.67443">
        <ele>177</ele>
        <time>2012-02-26T08:56:25Z</time>
      </trkpt>
      <trkpt lat="44.34219" lon="0.67448">
        <ele>177</ele>
        <time>2012-02-26T08:56:26Z</time>
      </trkpt>
      <trkpt lat="44.34219" lon="0.67454">
        <ele>177</ele>
        <time>2012-02-26T08:56:27Z</time>
      </trkpt>
      <trkpt lat="44.34219" lon="0.6746">
        <ele>177</ele>
        <time>2012-02-26T08:56:28Z</time>
      </trkpt>
      <trkpt lat="44.34221" lon="0.67466">
        <ele>177</ele>
        <time>2012-02-26T08:56:29Z</time>
      </trkpt>
      <trkpt lat="44.34222" lon="0.67472">
        <ele>176</ele>
        <time>2012-02-26T08:56:30Z</time>
      </trkpt>
      <trkpt lat="44.34223" lon="0.6748">
        <ele>175</ele>
        <time>2012-02-26T08:56:31Z</time>
      </trkpt>
      <trkpt lat="44.34224" lon="0.67488">
        <ele>175</ele>
        <time>2012-02-26T08:56:32Z</time>
      </trkpt>
      <trkpt lat="44.34225" lon="0.67497">
        <ele>174</ele>
        <time>2012-02-26T08:56:33Z</time>
      </trkpt>
      <trkpt lat="44.34226" lon="0.67505">
        <ele>173</ele>
        <time>2012-02-26T08:56:34Z</time>
      </trkpt>
      <trkpt lat="44.34227" lon="0.67513">
        <ele>173</ele>
        <time>2012-02-26T08:56:35Z</time>
      </trkpt>
      <trkpt lat="44.34227" lon="0.67519">
        <ele>172</ele>
        <time>2012-02-26T08:56:36Z</time>
      </trkpt>
      <trkpt lat="44.34227" lon="0.67525">
        <ele>171</ele>
        <time>2012-02-26T08:56:37Z</time>
      </trkpt>
      <trkpt lat="44.34229" lon="0.6753">
        <ele>171</ele>
        <time>2012-02-26T08:56:38Z</time>
      </trkpt>
      <trkpt lat="44.34229" lon="0.67532">
        <ele>170</ele>
        <time>2012-02-26T08:56:39Z</time>
      </trkpt>
      <trkpt lat="44.34228" lon="0.67535">
        <ele>169</ele>
        <time>2012-02-26T08:56:40Z</time>
      </trkpt>
      <trkpt lat="44.34227" lon="0.67536">
        <ele>168</ele>
        <time>2012-02-26T08:56:41Z</time>
      </trkpt>
      <trkpt lat="44.34225" lon="0.67535">
        <ele>167</ele>
        <time>2012-02-26T08:56:43Z</time>
      </trkpt>
      <trkpt lat="44.34222" lon="0.67535">
        <ele>166</ele>
        <time>2012-02-26T08:56:44Z</time>
      </trkpt>
      <trkpt lat="44.3422" lon="0.67534">
        <ele>165</ele>
        <time>2012-02-26T08:56:45Z</time>
      </trkpt>
      <trkpt lat="44.34218" lon="0.67532">
        <ele>164</ele>
        <time>2012-02-26T08:56:46Z</time>
      </trkpt>
      <trkpt lat="44.34216" lon="0.67529">
        <ele>163</ele>
        <time>2012-02-26T08:56:47Z</time>
      </trkpt>
      <trkpt lat="44.34214" lon="0.67527">
        <ele>163</ele>
        <time>2012-02-26T08:56:48Z</time>
      </trkpt>
      <trkpt lat="44.34212" lon="0.67527">
        <ele>162</ele>
        <time>2012-02-26T08:56:49Z</time>
      </trkpt>
      <trkpt lat="44.34212" lon="0.67528">
        <ele>161</ele>
        <time>2012-02-26T08:56:50Z</time>
      </trkpt>
      <trkpt lat="44.34212" lon="0.67531">
        <ele>161</ele>
        <time>2012-02-26T08:56:52Z</time>
      </trkpt>
      <trkpt lat="44.34214" lon="0.67534">
        <ele>160</ele>
        <time>2012-02-26T08:56:53Z</time>
      </trkpt>
      <trkpt lat="44.34217" lon="0.67539">
        <ele>160</ele>
        <time>2012-02-26T08:56:54Z</time>
      </trkpt>
      <trkpt lat="44.34219" lon="0.67543">
        <ele>160</ele>
        <time>2012-02-26T08:56:55Z</time>
      </trkpt>
      <trkpt lat="44.34222" lon="0.6755">
        <ele>159</ele>
        <time>2012-02-26T08:56:56Z</time>
      </trkpt>
      <trkpt lat="44.34225" lon="0.67556">
        <ele>159</ele>
        <time>2012-02-26T08:56:57Z</time>
      </trkpt>
      <trkpt lat="44.34228" lon="0.67564">
        <ele>159</ele>
        <time>2012-02-26T08:56:58Z</time>
      </trkpt>
      <trkpt lat="44.34231" lon="0.67572">
        <ele>158</ele>
        <time>2012-02-26T08:56:59Z</time>
      </trkpt>
      <trkpt lat="44.34235" lon="0.67581">
        <ele>158</ele>
        <time>2012-02-26T08:57:00Z</time>
      </trkpt>
      <trkpt lat="44.34238" lon="0.67588">
        <ele>157</ele>
        <time>2012-02-26T08:57:01Z</time>
      </trkpt>
      <trkpt lat="44.34242" lon="0.67593">
        <ele>156</ele>
        <time>2012-02-26T08:57:02Z</time>
      </trkpt>
      <trkpt lat="44.34246" lon="0.67598">
        <ele>156</ele>
        <time>2012-02-26T08:57:03Z</time>
      </trkpt>
      <trkpt lat="44.34249" lon="0.67602">
        <ele>155</ele>
        <time>2012-02-26T08:57:04Z</time>
      </trkpt>
      <trkpt lat="44.34253" lon="0.67606">
        <ele>155</ele>
        <time>2012-02-26T08:57:05Z</time>
      </trkpt>
      <trkpt lat="44.34256" lon="0.67611">
        <ele>155</ele>
        <time>2012-02-26T08:57:06Z</time>
      </trkpt>
      <trkpt lat="44.34259" lon="0.67615">
        <ele>155</ele>
        <time>2012-02-26T08:57:07Z</time>
      </trkpt>
      <trkpt lat="44.34262" lon="0.6762">
        <ele>155</ele>
        <time>2012-02-26T08:57:08Z</time>
      </trkpt>
      <trkpt lat="44.34266" lon="0.67624">
        <ele>155</ele>
        <time>2012-02-26T08:57:09Z</time>
      </trkpt>
      <trkpt lat="44.34269" lon="0.67627">
        <ele>155</ele>
        <time>2012-02-26T08:57:10Z</time>
      </trkpt>
      <trkpt lat="44.34272" lon="0.67629">
        <ele>155</ele>
        <time>2012-02-26T08:57:11Z</time>
      </trkpt>
      <trkpt lat="44.34275" lon="0.67632">
        <ele>155</ele>
        <time>2012-02-26T08:57:12Z</time>
      </trkpt>
      <trkpt lat="44.34277" lon="0.67634">
        <ele>155</ele>
        <time>2012-02-26T08:57:13Z</time>
      </trkpt>
      <trkpt lat="44.3428" lon="0.67636">
        <ele>155</ele>
        <time>2012-02-26T08:57:14Z</time>
      </trkpt>
      <trkpt lat="44.34283" lon="0.6764">
        <ele>155</ele>
        <time>2012-02-26T08:57:15Z</time>
      </trkpt>
      <trkpt lat="44.34286" lon="0.67642">
        <ele>155</ele>
        <time>2012-02-26T08:57:16Z</time>
      </trkpt>
      <trkpt lat="44.34289" lon="0.67646">
        <ele>155</ele>
        <time>2012-02-26T08:57:17Z</time>
      </trkpt>
      <trkpt lat="44.34293" lon="0.67648">
        <ele>155</ele>
        <time>2012-02-26T08:57:18Z</time>
      </trkpt>
      <trkpt lat="44.34296" lon="0.67651">
        <ele>155</ele>
        <time>2012-02-26T08:57:19Z</time>
      </trkpt>
      <trkpt lat="44.34299" lon="0.67653">
        <ele>155</ele>
        <time>2012-02-26T08:57:20Z</time>
      </trkpt>
      <trkpt lat="44.34303" lon="0.67654">
        <ele>155</ele>
        <time>2012-02-26T08:57:21Z</time>
      </trkpt>
      <trkpt lat="44.34307" lon="0.67656">
        <ele>155</ele>
        <time>2012-02-26T08:57:22Z</time>
      </trkpt>
      <trkpt lat="44.3431" lon="0.67657">
        <ele>155</ele>
        <time>2012-02-26T08:57:23Z</time>
      </trkpt>
      <trkpt lat="44.34313" lon="0.67658">
        <ele>155</ele>
        <time>2012-02-26T08:57:24Z</time>
      </trkpt>
      <trkpt lat="44.34316" lon="0.67658">
        <ele>155</ele>
        <time>2012-02-26T08:57:25Z</time>
      </trkpt>
      <trkpt lat="44.3432" lon="0.6766">
        <ele>155</ele>
        <time>2012-02-26T08:57:26Z</time>
      </trkpt>
      <trkpt lat="44.34323" lon="0.67662">
        <ele>155</ele>
        <time>2012-02-26T08:57:27Z</time>
      </trkpt>
      <trkpt lat="44.34327" lon="0.67663">
        <ele>156</ele>
        <time>2012-02-26T08:57:28Z</time>
      </trkpt>
      <trkpt lat="44.3433" lon="0.67664">
        <ele>156</ele>
        <time>2012-02-26T08:57:29Z</time>
      </trkpt>
      <trkpt lat="44.34334" lon="0.67663">
        <ele>156</ele>
        <time>2012-02-26T08:57:30Z</time>
      </trkpt>
      <trkpt lat="44.34338" lon="0.67662">
        <ele>157</ele>
        <time>2012-02-26T08:57:31Z</time>
      </trkpt>
      <trkpt lat="44.34341" lon="0.67661">
        <ele>157</ele>
        <time>2012-02-26T08:57:32Z</time>
      </trkpt>
      <trkpt lat="44.34345" lon="0.67659">
        <ele>157</ele>
        <time>2012-02-26T08:57:33Z</time>
      </trkpt>
      <trkpt lat="44.34349" lon="0.67658">
        <ele>158</ele>
        <time>2012-02-26T08:57:34Z</time>
      </trkpt>
      <trkpt lat="44.34353" lon="0.67657">
        <ele>158</ele>
        <time>2012-02-26T08:57:35Z</time>
      </trkpt>
      <trkpt lat="44.34357" lon="0.67656">
        <ele>159</ele>
        <time>2012-02-26T08:57:36Z</time>
      </trkpt>
      <trkpt lat="44.3436" lon="0.67656">
        <ele>159</ele>
        <time>2012-02-26T08:57:37Z</time>
      </trkpt>
      <trkpt lat="44.34364" lon="0.67657">
        <ele>159</ele>
        <time>2012-02-26T08:57:38Z</time>
      </trkpt>
      <trkpt lat="44.34367" lon="0.67659">
        <ele>160</ele>
        <time>2012-02-26T08:57:39Z</time>
      </trkpt>
      <trkpt lat="44.3437" lon="0.67662">
        <ele>160</ele>
        <time>2012-02-26T08:57:40Z</time>
      </trkpt>
      <trkpt lat="44.34374" lon="0.67666">
        <ele>160</ele>
        <time>2012-02-26T08:57:41Z</time>
      </trkpt>
      <trkpt lat="44.34379" lon="0.67671">
        <ele>160</ele>
        <time>2012-02-26T08:57:42Z</time>
      </trkpt>
      <trkpt lat="44.34383" lon="0.6768">
        <ele>160</ele>
        <time>2012-02-26T08:57:43Z</time>
      </trkpt>
      <trkpt lat="44.34387" lon="0.67686">
        <ele>160</ele>
        <time>2012-02-26T08:57:44Z</time>
      </trkpt>
      <trkpt lat="44.34391" lon="0.67693">
        <ele>160</ele>
        <time>2012-02-26T08:57:45Z</time>
      </trkpt>
      <trkpt lat="44.34394" lon="0.677">
        <ele>160</ele>
        <time>2012-02-26T08:57:46Z</time>
      </trkpt>
      <trkpt lat="44.34397" lon="0.67707">
        <ele>160</ele>
        <time>2012-02-26T08:57:47Z</time>
      </trkpt>
      <trkpt lat="44.34401" lon="0.67712">
        <ele>160</ele>
        <time>2012-02-26T08:57:48Z</time>
      </trkpt>
      <trkpt lat="44.34405" lon="0.67718">
        <ele>160</ele>
        <time>2012-02-26T08:57:49Z</time>
      </trkpt>
      <trkpt lat="44.34409" lon="0.67722">
        <ele>160</ele>
        <time>2012-02-26T08:57:50Z</time>
      </trkpt>
      <trkpt lat="44.34414" lon="0.67727">
        <ele>160</ele>
        <time>2012-02-26T08:57:51Z</time>
      </trkpt>
      <trkpt lat="44.34417" lon="0.6773">
        <ele>160</ele>
        <time>2012-02-26T08:57:52Z</time>
      </trkpt>
      <trkpt lat="44.34419" lon="0.67735">
        <ele>160</ele>
        <time>2012-02-26T08:57:53Z</time>
      </trkpt>
      <trkpt lat="44.3442" lon="0.67739">
        <ele>160</ele>
        <time>2012-02-26T08:57:54Z</time>
      </trkpt>
      <trkpt lat="44.34421" lon="0.67743">
        <ele>160</ele>
        <time>2012-02-26T08:57:55Z</time>
      </trkpt>
      <trkpt lat="44.34424" lon="0.67744">
        <ele>160</ele>
        <time>2012-02-26T08:57:56Z</time>
      </trkpt>
      <trkpt lat="44.34428" lon="0.67742">
        <ele>160</ele>
        <time>2012-02-26T08:57:57Z</time>
      </trkpt>
      <trkpt lat="44.34431" lon="0.67739">
        <ele>160</ele>
        <time>2012-02-26T08:57:58Z</time>
      </trkpt>
      <trkpt lat="44.34435" lon="0.67736">
        <ele>159</ele>
        <time>2012-02-26T08:57:59Z</time>
      </trkpt>
      <trkpt lat="44.34439" lon="0.67734">
        <ele>158</ele>
        <time>2012-02-26T08:58:00Z</time>
      </trkpt>
      <trkpt lat="44.34442" lon="0.6773">
        <ele>157</ele>
        <time>2012-02-26T08:58:01Z</time>
      </trkpt>
      <trkpt lat="44.34446" lon="0.67726">
        <ele>157</ele>
        <time>2012-02-26T08:58:02Z</time>
      </trkpt>
      <trkpt lat="44.3445" lon="0.67721">
        <ele>157</ele>
        <time>2012-02-26T08:58:03Z</time>
      </trkpt>
      <trkpt lat="44.34453" lon="0.67716">
        <ele>157</ele>
        <time>2012-02-26T08:58:04Z</time>
      </trkpt>
      <trkpt lat="44.34457" lon="0.67712">
        <ele>157</ele>
        <time>2012-02-26T08:58:05Z</time>
      </trkpt>
      <trkpt lat="44.3446" lon="0.67708">
        <ele>157</ele>
        <time>2012-02-26T08:58:06Z</time>
      </trkpt>
      <trkpt lat="44.34463" lon="0.67704">
        <ele>156</ele>
        <time>2012-02-26T08:58:07Z</time>
      </trkpt>
      <trkpt lat="44.34466" lon="0.67699">
        <ele>156</ele>
        <time>2012-02-26T08:58:08Z</time>
      </trkpt>
      <trkpt lat="44.34469" lon="0.67696">
        <ele>155</ele>
        <time>2012-02-26T08:58:09Z</time>
      </trkpt>
      <trkpt lat="44.34472" lon="0.67692">
        <ele>155</ele>
        <time>2012-02-26T08:58:10Z</time>
      </trkpt>
      <trkpt lat="44.34475" lon="0.6769">
        <ele>155</ele>
        <time>2012-02-26T08:58:11Z</time>
      </trkpt>
      <trkpt lat="44.34478" lon="0.67689">
        <ele>155</ele>
        <time>2012-02-26T08:58:12Z</time>
      </trkpt>
      <trkpt lat="44.34482" lon="0.67687">
        <ele>155</ele>
        <time>2012-02-26T08:58:13Z</time>
      </trkpt>
      <trkpt lat="44.34487" lon="0.67685">
        <ele>155</ele>
        <time>2012-02-26T08:58:14Z</time>
      </trkpt>
      <trkpt lat="44.34492" lon="0.67683">
        <ele>155</ele>
        <time>2012-02-26T08:58:15Z</time>
      </trkpt>
      <trkpt lat="44.34497" lon="0.67681">
        <ele>155</ele>
        <time>2012-02-26T08:58:16Z</time>
      </trkpt>
      <trkpt lat="44.34502" lon="0.6768">
        <ele>154</ele>
        <time>2012-02-26T08:58:17Z</time>
      </trkpt>
      <trkpt lat="44.34507" lon="0.67678">
        <ele>154</ele>
        <time>2012-02-26T08:58:18Z</time>
      </trkpt>
      <trkpt lat="44.34512" lon="0.67676">
        <ele>153</ele>
        <time>2012-02-26T08:58:19Z</time>
      </trkpt>
      <trkpt lat="44.34517" lon="0.67676">
        <ele>152</ele>
        <time>2012-02-26T08:58:20Z</time>
      </trkpt>
      <trkpt lat="44.34521" lon="0.67674">
        <ele>151</ele>
        <time>2012-02-26T08:58:21Z</time>
      </trkpt>
      <trkpt lat="44.34525" lon="0.67673">
        <ele>150</ele>
        <time>2012-02-26T08:58:22Z</time>
      </trkpt>
      <trkpt lat="44.3453" lon="0.67672">
        <ele>149</ele>
        <time>2012-02-26T08:58:23Z</time>
      </trkpt>
      <trkpt lat="44.34534" lon="0.6767">
        <ele>148</ele>
        <time>2012-02-26T08:58:24Z</time>
      </trkpt>
      <trkpt lat="44.3454" lon="0.67667">
        <ele>148</ele>
        <time>2012-02-26T08:58:25Z</time>
      </trkpt>
      <trkpt lat="44.34544" lon="0.67663">
        <ele>148</ele>
        <time>2012-02-26T08:58:26Z</time>
      </trkpt>
      <trkpt lat="44.34548" lon="0.67659">
        <ele>148</ele>
        <time>2012-02-26T08:58:27Z</time>
      </trkpt>
      <trkpt lat="44.34552" lon="0.67656">
        <ele>148</ele>
        <time>2012-02-26T08:58:28Z</time>
      </trkpt>
      <trkpt lat="44.34555" lon="0.67652">
        <ele>148</ele>
        <time>2012-02-26T08:58:29Z</time>
      </trkpt>
      <trkpt lat="44.34559" lon="0.67649">
        <ele>148</ele>
        <time>2012-02-26T08:58:30Z</time>
      </trkpt>
      <trkpt lat="44.34563" lon="0.67646">
        <ele>148</ele>
        <time>2012-02-26T08:58:31Z</time>
      </trkpt>
      <trkpt lat="44.34566" lon="0.67643">
        <ele>148</ele>
        <time>2012-02-26T08:58:32Z</time>
      </trkpt>
      <trkpt lat="44.3457" lon="0.67641">
        <ele>148</ele>
        <time>2012-02-26T08:58:33Z</time>
      </trkpt>
      <trkpt lat="44.34573" lon="0.67639">
        <ele>149</ele>
        <time>2012-02-26T08:58:34Z</time>
      </trkpt>
      <trkpt lat="44.34577" lon="0.67636">
        <ele>149</ele>
        <time>2012-02-26T08:58:35Z</time>
      </trkpt>
      <trkpt lat="44.3458" lon="0.67634">
        <ele>150</ele>
        <time>2012-02-26T08:58:36Z</time>
      </trkpt>
      <trkpt lat="44.34583" lon="0.67632">
        <ele>150</ele>
        <time>2012-02-26T08:58:38Z</time>
      </trkpt>
      <trkpt lat="44.34586" lon="0.6763">
        <ele>151</ele>
        <time>2012-02-26T08:58:38Z</time>
      </trkpt>
      <trkpt lat="44.34588" lon="0.67628">
        <ele>151</ele>
        <time>2012-02-26T08:58:39Z</time>
      </trkpt>
      <trkpt lat="44.34591" lon="0.67626">
        <ele>151</ele>
        <time>2012-02-26T08:58:40Z</time>
      </trkpt>
      <trkpt lat="44.34594" lon="0.67625">
        <ele>151</ele>
        <time>2012-02-26T08:58:41Z</time>
      </trkpt>
      <trkpt lat="44.34596" lon="0.67625">
        <ele>152</ele>
        <time>2012-02-26T08:58:42Z</time>
      </trkpt>
      <trkpt lat="44.34598" lon="0.67625">
        <ele>152</ele>
        <time>2012-02-26T08:58:43Z</time>
      </trkpt>
      <trkpt lat="44.34601" lon="0.67625">
        <ele>152</ele>
        <time>2012-02-26T08:58:44Z</time>
      </trkpt>
      <trkpt lat="44.34603" lon="0.67626">
        <ele>152</ele>
        <time>2012-02-26T08:58:45Z</time>
      </trkpt>
      <trkpt lat="44.34606" lon="0.67626">
        <ele>152</ele>
        <time>2012-02-26T08:58:46Z</time>
      </trkpt>
      <trkpt lat="44.34609" lon="0.67627">
        <ele>152</ele>
        <time>2012-02-26T08:58:47Z</time>
      </trkpt>
      <trkpt lat="44.34612" lon="0.67627">
        <ele>152</ele>
        <time>2012-02-26T08:58:48Z</time>
      </trkpt>
      <trkpt lat="44.34615" lon="0.67628">
        <ele>152</ele>
        <time>2012-02-26T08:58:49Z</time>
      </trkpt>
      <trkpt lat="44.34618" lon="0.67628">
        <ele>153</ele>
        <time>2012-02-26T08:58:50Z</time>
      </trkpt>
      <trkpt lat="44.34621" lon="0.67628">
        <ele>153</ele>
        <time>2012-02-26T08:58:51Z</time>
      </trkpt>
      <trkpt lat="44.34623" lon="0.67628">
        <ele>153</ele>
        <time>2012-02-26T08:58:52Z</time>
      </trkpt>
      <trkpt lat="44.34625" lon="0.67629">
        <ele>154</ele>
        <time>2012-02-26T08:58:53Z</time>
      </trkpt>
      <trkpt lat="44.34628" lon="0.67629">
        <ele>154</ele>
        <time>2012-02-26T08:58:54Z</time>
      </trkpt>
      <trkpt lat="44.3463" lon="0.6763">
        <ele>155</ele>
        <time>2012-02-26T08:58:55Z</time>
      </trkpt>
      <trkpt lat="44.34632" lon="0.67632">
        <ele>155</ele>
        <time>2012-02-26T08:58:56Z</time>
      </trkpt>
      <trkpt lat="44.34634" lon="0.67632">
        <ele>156</ele>
        <time>2012-02-26T08:58:57Z</time>
      </trkpt>
      <trkpt lat="44.34637" lon="0.67633">
        <ele>157</ele>
        <time>2012-02-26T08:58:58Z</time>
      </trkpt>
      <trkpt lat="44.34639" lon="0.67633">
        <ele>157</ele>
        <time>2012-02-26T08:58:59Z</time>
      </trkpt>
      <trkpt lat="44.34642" lon="0.67635">
        <ele>158</ele>
        <time>2012-02-26T08:59:00Z</time>
      </trkpt>
      <trkpt lat="44.34645" lon="0.67635">
        <ele>158</ele>
        <time>2012-02-26T08:59:01Z</time>
      </trkpt>
      <trkpt lat="44.34647" lon="0.67636">
        <ele>158</ele>
        <time>2012-02-26T08:59:02Z</time>
      </trkpt>
      <trkpt lat="44.34649" lon="0.67636">
        <ele>158</ele>
        <time>2012-02-26T08:59:03Z</time>
      </trkpt>
      <trkpt lat="44.34651" lon="0.67636">
        <ele>158</ele>
        <time>2012-02-26T08:59:04Z</time>
      </trkpt>
      <trkpt lat="44.34653" lon="0.67638">
        <ele>158</ele>
        <time>2012-02-26T08:59:05Z</time>
      </trkpt>
      <trkpt lat="44.34656" lon="0.67639">
        <ele>158</ele>
        <time>2012-02-26T08:59:06Z</time>
      </trkpt>
      <trkpt lat="44.34658" lon="0.67639">
        <ele>158</ele>
        <time>2012-02-26T08:59:07Z</time>
      </trkpt>
      <trkpt lat="44.3466" lon="0.67641">
        <ele>158</ele>
        <time>2012-02-26T08:59:08Z</time>
      </trkpt>
      <trkpt lat="44.34662" lon="0.67642">
        <ele>158</ele>
        <time>2012-02-26T08:59:09Z</time>
      </trkpt>
      <trkpt lat="44.34665" lon="0.67642">
        <ele>158</ele>
        <time>2012-02-26T08:59:10Z</time>
      </trkpt>
      <trkpt lat="44.34667" lon="0.67643">
        <ele>158</ele>
        <time>2012-02-26T08:59:11Z</time>
      </trkpt>
      <trkpt lat="44.34669" lon="0.67643">
        <ele>158</ele>
        <time>2012-02-26T08:59:12Z</time>
      </trkpt>
      <trkpt lat="44.34671" lon="0.67643">
        <ele>158</ele>
        <time>2012-02-26T08:59:13Z</time>
      </trkpt>
      <trkpt lat="44.34674" lon="0.67642">
        <ele>158</ele>
        <time>2012-02-26T08:59:14Z</time>
      </trkpt>
      <trkpt lat="44.34677" lon="0.67642">
        <ele>158</ele>
        <time>2012-02-26T08:59:15Z</time>
      </trkpt>
      <trkpt lat="44.34681" lon="0.67642">
        <ele>158</ele>
        <time>2012-02-26T08:59:16Z</time>
      </trkpt>
      <trkpt lat="44.34686" lon="0.67642">
        <ele>158</ele>
        <time>2012-02-26T08:59:17Z</time>
      </trkpt>
      <trkpt lat="44.34692" lon="0.67642">
        <ele>158</ele>
        <time>2012-02-26T08:59:18Z</time>
      </trkpt>
      <trkpt lat="44.34699" lon="0.67643">
        <ele>158</ele>
        <time>2012-02-26T08:59:19Z</time>
      </trkpt>
      <trkpt lat="44.34706" lon="0.67645">
        <ele>158</ele>
        <time>2012-02-26T08:59:20Z</time>
      </trkpt>
      <trkpt lat="44.34714" lon="0.67648">
        <ele>158</ele>
        <time>2012-02-26T08:59:21Z</time>
      </trkpt>
      <trkpt lat="44.34721" lon="0.67651">
        <ele>158</ele>
        <time>2012-02-26T08:59:22Z</time>
      </trkpt>
      <trkpt lat="44.34729" lon="0.67655">
        <ele>157</ele>
        <time>2012-02-26T08:59:23Z</time>
      </trkpt>
      <trkpt lat="44.34737" lon="0.67658">
        <ele>156</ele>
        <time>2012-02-26T08:59:24Z</time>
      </trkpt>
      <trkpt lat="44.34744" lon="0.6766">
        <ele>155</ele>
        <time>2012-02-26T08:59:25Z</time>
      </trkpt>
      <trkpt lat="44.34752" lon="0.67663">
        <ele>154</ele>
        <time>2012-02-26T08:59:26Z</time>
      </trkpt>
      <trkpt lat="44.34759" lon="0.67664">
        <ele>153</ele>
        <time>2012-02-26T08:59:27Z</time>
      </trkpt>
      <trkpt lat="44.34767" lon="0.67666">
        <ele>152</ele>
        <time>2012-02-26T08:59:28Z</time>
      </trkpt>
      <trkpt lat="44.34774" lon="0.67668">
        <ele>151</ele>
        <time>2012-02-26T08:59:29Z</time>
      </trkpt>
      <trkpt lat="44.3478" lon="0.67671">
        <ele>150</ele>
        <time>2012-02-26T08:59:30Z</time>
      </trkpt>
      <trkpt lat="44.34786" lon="0.67674">
        <ele>149</ele>
        <time>2012-02-26T08:59:31Z</time>
      </trkpt>
      <trkpt lat="44.34792" lon="0.67677">
        <ele>148</ele>
        <time>2012-02-26T08:59:32Z</time>
      </trkpt>
      <trkpt lat="44.34798" lon="0.6768">
        <ele>147</ele>
        <time>2012-02-26T08:59:33Z</time>
      </trkpt>
      <trkpt lat="44.34805" lon="0.67684">
        <ele>146</ele>
        <time>2012-02-26T08:59:34Z</time>
      </trkpt>
      <trkpt lat="44.34812" lon="0.67687">
        <ele>146</ele>
        <time>2012-02-26T08:59:35Z</time>
      </trkpt>
      <trkpt lat="44.34818" lon="0.67691">
        <ele>146</ele>
        <time>2012-02-26T08:59:36Z</time>
      </trkpt>
      <trkpt lat="44.34824" lon="0.67695">
        <ele>146</ele>
        <time>2012-02-26T08:59:37Z</time>
      </trkpt>
      <trkpt lat="44.3483" lon="0.67699">
        <ele>145</ele>
        <time>2012-02-26T08:59:38Z</time>
      </trkpt>
      <trkpt lat="44.34835" lon="0.67704">
        <ele>145</ele>
        <time>2012-02-26T08:59:39Z</time>
      </trkpt>
      <trkpt lat="44.3484" lon="0.67709">
        <ele>145</ele>
        <time>2012-02-26T08:59:40Z</time>
      </trkpt>
      <trkpt lat="44.34845" lon="0.67714">
        <ele>145</ele>
        <time>2012-02-26T08:59:41Z</time>
      </trkpt>
      <trkpt lat="44.3485" lon="0.6772">
        <ele>145</ele>
        <time>2012-02-26T08:59:42Z</time>
      </trkpt>
      <trkpt lat="44.34854" lon="0.67725">
        <ele>145</ele>
        <time>2012-02-26T08:59:43Z</time>
      </trkpt>
      <trkpt lat="44.3486" lon="0.67729">
        <ele>145</ele>
        <time>2012-02-26T08:59:44Z</time>
      </trkpt>
      <trkpt lat="44.34865" lon="0.67733">
        <ele>145</ele>
        <time>2012-02-26T08:59:45Z</time>
      </trkpt>
      <trkpt lat="44.34871" lon="0.67737">
        <ele>145</ele>
        <time>2012-02-26T08:59:46Z</time>
      </trkpt>
      <trkpt lat="44.34877" lon="0.67739">
        <ele>145</ele>
        <time>2012-02-26T08:59:47Z</time>
      </trkpt>
      <trkpt lat="44.34883" lon="0.67741">
        <ele>145</ele>
        <time>2012-02-26T08:59:48Z</time>
      </trkpt>
      <trkpt lat="44.34888" lon="0.67742">
        <ele>145</ele>
        <time>2012-02-26T08:59:49Z</time>
      </trkpt>
      <trkpt lat="44.34893" lon="0.67743">
        <ele>144</ele>
        <time>2012-02-26T08:59:50Z</time>
      </trkpt>
      <trkpt lat="44.34898" lon="0.67742">
        <ele>144</ele>
        <time>2012-02-26T08:59:51Z</time>
      </trkpt>
      <trkpt lat="44.34903" lon="0.67743">
        <ele>144</ele>
        <time>2012-02-26T08:59:52Z</time>
      </trkpt>
      <trkpt lat="44.34909" lon="0.67743">
        <ele>143</ele>
        <time>2012-02-26T08:59:53Z</time>
      </trkpt>
      <trkpt lat="44.34915" lon="0.67743">
        <ele>143</ele>
        <time>2012-02-26T08:59:54Z</time>
      </trkpt>
      <trkpt lat="44.34922" lon="0.67741">
        <ele>142</ele>
        <time>2012-02-26T08:59:55Z</time>
      </trkpt>
      <trkpt lat="44.34929" lon="0.6774">
        <ele>141</ele>
        <time>2012-02-26T08:59:56Z</time>
      </trkpt>
      <trkpt lat="44.34936" lon="0.67739">
        <ele>140</ele>
        <time>2012-02-26T08:59:57Z</time>
      </trkpt>
      <trkpt lat="44.34944" lon="0.67738">
        <ele>139</ele>
        <time>2012-02-26T08:59:58Z</time>
      </trkpt>
      <trkpt lat="44.34952" lon="0.67736">
        <ele>138</ele>
        <time>2012-02-26T08:59:59Z</time>
      </trkpt>
      <trkpt lat="44.34961" lon="0.67734">
        <ele>137</ele>
        <time>2012-02-26T09:00:00Z</time>
      </trkpt>
      <trkpt lat="44.34969" lon="0.67735">
        <ele>136</ele>
        <time>2012-02-26T09:00:01Z</time>
      </trkpt>
      <trkpt lat="44.34977" lon="0.67735">
        <ele>135</ele>
        <time>2012-02-26T09:00:02Z</time>
      </trkpt>
      <trkpt lat="44.34986" lon="0.67736">
        <ele>134</ele>
        <time>2012-02-26T09:00:03Z</time>
      </trkpt>
      <trkpt lat="44.34995" lon="0.67738">
        <ele>133</ele>
        <time>2012-02-26T09:00:04Z</time>
      </trkpt>
      <trkpt lat="44.35004" lon="0.67738">
        <ele>132</ele>
        <time>2012-02-26T09:00:05Z</time>
      </trkpt>
      <trkpt lat="44.35012" lon="0.67739">
        <ele>131</ele>
        <time>2012-02-26T09:00:06Z</time>
      </trkpt>
      <trkpt lat="44.35021" lon="0.67742">
        <ele>130</ele>
        <time>2012-02-26T09:00:07Z</time>
      </trkpt>
      <trkpt lat="44.3503" lon="0.67743">
        <ele>129</ele>
        <time>2012-02-26T09:00:08Z</time>
      </trkpt>
      <trkpt lat="44.35039" lon="0.67745">
        <ele>128</ele>
        <time>2012-02-26T09:00:09Z</time>
      </trkpt>
      <trkpt lat="44.35048" lon="0.67748">
        <ele>127</ele>
        <time>2012-02-26T09:00:10Z</time>
      </trkpt>
      <trkpt lat="44.35058" lon="0.67751">
        <ele>126</ele>
        <time>2012-02-26T09:00:11Z</time>
      </trkpt>
      <trkpt lat="44.35068" lon="0.67753">
        <ele>125</ele>
        <time>2012-02-26T09:00:12Z</time>
      </trkpt>
      <trkpt lat="44.35077" lon="0.67756">
        <ele>124</ele>
        <time>2012-02-26T09:00:13Z</time>
      </trkpt>
      <trkpt lat="44.35086" lon="0.67758">
        <ele>124</ele>
        <time>2012-02-26T09:00:14Z</time>
      </trkpt>
      <trkpt lat="44.35096" lon="0.6776">
        <ele>123</ele>
        <time>2012-02-26T09:00:15Z</time>
      </trkpt>
      <trkpt lat="44.35105" lon="0.67763">
        <ele>122</ele>
        <time>2012-02-26T09:00:16Z</time>
      </trkpt>
      <trkpt lat="44.35114" lon="0.67765">
        <ele>122</ele>
        <time>2012-02-26T09:00:17Z</time>
      </trkpt>
      <trkpt lat="44.35123" lon="0.67767">
        <ele>121</ele>
        <time>2012-02-26T09:00:18Z</time>
      </trkpt>
      <trkpt lat="44.35131" lon="0.67769">
        <ele>120</ele>
        <time>2012-02-26T09:00:19Z</time>
      </trkpt>
      <trkpt lat="44.3514" lon="0.6777">
        <ele>120</ele>
        <time>2012-02-26T09:00:20Z</time>
      </trkpt>
      <trkpt lat="44.35149" lon="0.67773">
        <ele>119</ele>
        <time>2012-02-26T09:00:21Z</time>
      </trkpt>
      <trkpt lat="44.35156" lon="0.67776">
        <ele>118</ele>
        <time>2012-02-26T09:00:22Z</time>
      </trkpt>
      <trkpt lat="44.35164" lon="0.67778">
        <ele>118</ele>
        <time>2012-02-26T09:00:23Z</time>
      </trkpt>
      <trkpt lat="44.35172" lon="0.67782">
        <ele>117</ele>
        <time>2012-02-26T09:00:24Z</time>
      </trkpt>
      <trkpt lat="44.3518" lon="0.67785">
        <ele>117</ele>
        <time>2012-02-26T09:00:25Z</time>
      </trkpt>
      <trkpt lat="44.35187" lon="0.67789">
        <ele>116</ele>
        <time>2012-02-26T09:00:26Z</time>
      </trkpt>
      <trkpt lat="44.35194" lon="0.67794">
        <ele>115</ele>
        <time>2012-02-26T09:00:27Z</time>
      </trkpt>
      <trkpt lat="44.35202" lon="0.67799">
        <ele>115</ele>
        <time>2012-02-26T09:00:28Z</time>
      </trkpt>
      <trkpt lat="44.35209" lon="0.67804">
        <ele>114</ele>
        <time>2012-02-26T09:00:29Z</time>
      </trkpt>
      <trkpt lat="44.35217" lon="0.67809">
        <ele>113</ele>
        <time>2012-02-26T09:00:30Z</time>
      </trkpt>
      <trkpt lat="44.35224" lon="0.67814">
        <ele>112</ele>
        <time>2012-02-26T09:00:31Z</time>
      </trkpt>
      <trkpt lat="44.35231" lon="0.67819">
        <ele>111</ele>
        <time>2012-02-26T09:00:32Z</time>
      </trkpt>
      <trkpt lat="44.35238" lon="0.67825">
        <ele>110</ele>
        <time>2012-02-26T09:00:33Z</time>
      </trkpt>
      <trkpt lat="44.35245" lon="0.67829">
        <ele>109</ele>
        <time>2012-02-26T09:00:34Z</time>
      </trkpt>
      <trkpt lat="44.35253" lon="0.67834">
        <ele>108</ele>
        <time>2012-02-26T09:00:35Z</time>
      </trkpt>
      <trkpt lat="44.3526" lon="0.67839">
        <ele>108</ele>
        <time>2012-02-26T09:00:36Z</time>
      </trkpt>
      <trkpt lat="44.35266" lon="0.67844">
        <ele>107</ele>
        <time>2012-02-26T09:00:37Z</time>
      </trkpt>
      <trkpt lat="44.35273" lon="0.67849">
        <ele>106</ele>
        <time>2012-02-26T09:00:38Z</time>
      </trkpt>
      <trkpt lat="44.35279" lon="0.67853">
        <ele>106</ele>
        <time>2012-02-26T09:00:39Z</time>
      </trkpt>
      <trkpt lat="44.35286" lon="0.67857">
        <ele>105</ele>
        <time>2012-02-26T09:00:40Z</time>
      </trkpt>
      <trkpt lat="44.35292" lon="0.67861">
        <ele>105</ele>
        <time>2012-02-26T09:00:41Z</time>
      </trkpt>
      <trkpt lat="44.35298" lon="0.67865">
        <ele>104</ele>
        <time>2012-02-26T09:00:42Z</time>
      </trkpt>
      <trkpt lat="44.35305" lon="0.67869">
        <ele>104</ele>
        <time>2012-02-26T09:00:43Z</time>
      </trkpt>
      <trkpt lat="44.35311" lon="0.67872">
        <ele>103</ele>
        <time>2012-02-26T09:00:44Z</time>
      </trkpt>
      <trkpt lat="44.35318" lon="0.67876">
        <ele>102</ele>
        <time>2012-02-26T09:00:45Z</time>
      </trkpt>
      <trkpt lat="44.35324" lon="0.67881">
        <ele>102</ele>
        <time>2012-02-26T09:00:46Z</time>
      </trkpt>
      <trkpt lat="44.35331" lon="0.67886">
        <ele>101</ele>
        <time>2012-02-26T09:00:47Z</time>
      </trkpt>
      <trkpt lat="44.35336" lon="0.67891">
        <ele>101</ele>
        <time>2012-02-26T09:00:48Z</time>
      </trkpt>
      <trkpt lat="44.35341" lon="0.67898">
        <ele>101</ele>
        <time>2012-02-26T09:00:49Z</time>
      </trkpt>
      <trkpt lat="44.35345" lon="0.67904">
        <ele>101</ele>
        <time>2012-02-26T09:00:50Z</time>
      </trkpt>
      <trkpt lat="44.3535" lon="0.67911">
        <ele>100</ele>
        <time>2012-02-26T09:00:51Z</time>
      </trkpt>
      <trkpt lat="44.35355" lon="0.67917">
        <ele>100</ele>
        <time>2012-02-26T09:00:52Z</time>
      </trkpt>
      <trkpt lat="44.3536" lon="0.67921">
        <ele>100</ele>
        <time>2012-02-26T09:00:53Z</time>
      </trkpt>
      <trkpt lat="44.35365" lon="0.67924">
        <ele>100</ele>
        <time>2012-02-26T09:00:54Z</time>
      </trkpt>
      <trkpt lat="44.35369" lon="0.67927">
        <ele>100</ele>
        <time>2012-02-26T09:00:55Z</time>
      </trkpt>
      <trkpt lat="44.35375" lon="0.67928">
        <ele>99</ele>
        <time>2012-02-26T09:00:56Z</time>
      </trkpt>
      <trkpt lat="44.3538" lon="0.6793">
        <ele>99</ele>
        <time>2012-02-26T09:00:57Z</time>
      </trkpt>
      <trkpt lat="44.35387" lon="0.67931">
        <ele>99</ele>
        <time>2012-02-26T09:00:58Z</time>
      </trkpt>
      <trkpt lat="44.35394" lon="0.67934">
        <ele>98</ele>
        <time>2012-02-26T09:00:59Z</time>
      </trkpt>
      <trkpt lat="44.35401" lon="0.67935">
        <ele>97</ele>
        <time>2012-02-26T09:01:00Z</time>
      </trkpt>
      <trkpt lat="44.35408" lon="0.67936">
        <ele>96</ele>
        <time>2012-02-26T09:01:01Z</time>
      </trkpt>
      <trkpt lat="44.35416" lon="0.67936">
        <ele>95</ele>
        <time>2012-02-26T09:01:02Z</time>
      </trkpt>
      <trkpt lat="44.35424" lon="0.67938">
        <ele>94</ele>
        <time>2012-02-26T09:01:03Z</time>
      </trkpt>
      <trkpt lat="44.35431" lon="0.67941">
        <ele>93</ele>
        <time>2012-02-26T09:01:04Z</time>
      </trkpt>
      <trkpt lat="44.35439" lon="0.67942">
        <ele>92</ele>
        <time>2012-02-26T09:01:05Z</time>
      </trkpt>
      <trkpt lat="44.35446" lon="0.67945">
        <ele>91</ele>
        <time>2012-02-26T09:01:06Z</time>
      </trkpt>
      <trkpt lat="44.35453" lon="0.67947">
        <ele>90</ele>
        <time>2012-02-26T09:01:07Z</time>
      </trkpt>
      <trkpt lat="44.35458" lon="0.67949">
        <ele>89</ele>
        <time>2012-02-26T09:01:08Z</time>
      </trkpt>
      <trkpt lat="44.35463" lon="0.67953">
        <ele>88</ele>
        <time>2012-02-26T09:01:09Z</time>
      </trkpt>
      <trkpt lat="44.35467" lon="0.67959">
        <ele>87</ele>
        <time>2012-02-26T09:01:10Z</time>
      </trkpt>
      <trkpt lat="44.35468" lon="0.67967">
        <ele>86</ele>
        <time>2012-02-26T09:01:11Z</time>
      </trkpt>
      <trkpt lat="44.35469" lon="0.67972">
        <ele>86</ele>
        <time>2012-02-26T09:01:12Z</time>
      </trkpt>
      <trkpt lat="44.35472" lon="0.67976">
        <ele>85</ele>
        <time>2012-02-26T09:01:13Z</time>
      </trkpt>
      <trkpt lat="44.35476" lon="0.67978">
        <ele>84</ele>
        <time>2012-02-26T09:01:14Z</time>
      </trkpt>
      <trkpt lat="44.3548" lon="0.6798">
        <ele>84</ele>
        <time>2012-02-26T09:01:15Z</time>
      </trkpt>
      <trkpt lat="44.35485" lon="0.67981">
        <ele>84</ele>
        <time>2012-02-26T09:01:16Z</time>
      </trkpt>
      <trkpt lat="44.3549" lon="0.67983">
        <ele>84</ele>
        <time>2012-02-26T09:01:17Z</time>
      </trkpt>
      <trkpt lat="44.35495" lon="0.67985">
        <ele>84</ele>
        <time>2012-02-26T09:01:18Z</time>
      </trkpt>
      <trkpt lat="44.355" lon="0.67986">
        <ele>84</ele>
        <time>2012-02-26T09:01:19Z</time>
      </trkpt>
      <trkpt lat="44.35504" lon="0.67985">
        <ele>84</ele>
        <time>2012-02-26T09:01:20Z</time>
      </trkpt>
      <trkpt lat="44.35509" lon="0.67983">
        <ele>84</ele>
        <time>2012-02-26T09:01:21Z</time>
      </trkpt>
      <trkpt lat="44.35513" lon="0.67981">
        <ele>84</ele>
        <time>2012-02-26T09:01:22Z</time>
      </trkpt>
      <trkpt lat="44.35518" lon="0.6798">
        <ele>83</ele>
        <time>2012-02-26T09:01:23Z</time>
      </trkpt>
      <trkpt lat="44.35522" lon="0.6798">
        <ele>83</ele>
        <time>2012-02-26T09:01:24Z</time>
      </trkpt>
      <trkpt lat="44.35527" lon="0.67979">
        <ele>83</ele>
        <time>2012-02-26T09:01:25Z</time>
      </trkpt>
      <trkpt lat="44.35533" lon="0.6798">
        <ele>83</ele>
        <time>2012-02-26T09:01:26Z</time>
      </trkpt>
      <trkpt lat="44.35539" lon="0.6798">
        <ele>82</ele>
        <time>2012-02-26T09:01:27Z</time>
      </trkpt>
      <trkpt lat="44.35545" lon="0.67981">
        <ele>82</ele>
        <time>2012-02-26T09:01:28Z</time>
      </trkpt>
      <trkpt lat="44.35552" lon="0.67983">
        <ele>82</ele>
        <time>2012-02-26T09:01:29Z</time>
      </trkpt>
      <trkpt lat="44.35559" lon="0.67985">
        <ele>81</ele>
        <time>2012-02-26T09:01:30Z</time>
      </trkpt>
      <trkpt lat="44.35567" lon="0.67988">
        <ele>81</ele>
        <time>2012-02-26T09:01:31Z</time>
      </trkpt>
      <trkpt lat="44.35575" lon="0.67989">
        <ele>81</ele>
        <time>2012-02-26T09:01:32Z</time>
      </trkpt>
      <trkpt lat="44.35582" lon="0.67992">
        <ele>81</ele>
        <time>2012-02-26T09:01:33Z</time>
      </trkpt>
      <trkpt lat="44.3559" lon="0.67994">
        <ele>81</ele>
        <time>2012-02-26T09:01:34Z</time>
      </trkpt>
      <trkpt lat="44.35598" lon="0.67996">
        <ele>80</ele>
        <time>2012-02-26T09:01:35Z</time>
      </trkpt>
      <trkpt lat="44.35606" lon="0.67997">
        <ele>80</ele>
        <time>2012-02-26T09:01:36Z</time>
      </trkpt>
      <trkpt lat="44.35614" lon="0.68">
        <ele>80</ele>
        <time>2012-02-26T09:01:37Z</time>
      </trkpt>
      <trkpt lat="44.35622" lon="0.68002">
        <ele>80</ele>
        <time>2012-02-26T09:01:38Z</time>
      </trkpt>
      <trkpt lat="44.35629" lon="0.68004">
        <ele>80</ele>
        <time>2012-02-26T09:01:39Z</time>
      </trkpt>
      <trkpt lat="44.35637" lon="0.68006">
        <ele>80</ele>
        <time>2012-02-26T09:01:40Z</time>
      </trkpt>
      <trkpt lat="44.35645" lon="0.68008">
        <ele>80</ele>
        <time>2012-02-26T09:01:41Z</time>
      </trkpt>
      <trkpt lat="44.35652" lon="0.6801">
        <ele>79</ele>
        <time>2012-02-26T09:01:42Z</time>
      </trkpt>
      <trkpt lat="44.3566" lon="0.68012">
        <ele>79</ele>
        <time>2012-02-26T09:01:43Z</time>
      </trkpt>
      <trkpt lat="44.35667" lon="0.68015">
        <ele>79</ele>
        <time>2012-02-26T09:01:44Z</time>
      </trkpt>
      <trkpt lat="44.35674" lon="0.68018">
        <ele>79</ele>
        <time>2012-02-26T09:01:45Z</time>
      </trkpt>
      <trkpt lat="44.35681" lon="0.68021">
        <ele>79</ele>
        <time>2012-02-26T09:01:46Z</time>
      </trkpt>
      <trkpt lat="44.35688" lon="0.68025">
        <ele>79</ele>
        <time>2012-02-26T09:01:47Z</time>
      </trkpt>
      <trkpt lat="44.35695" lon="0.68029">
        <ele>79</ele>
        <time>2012-02-26T09:01:48Z</time>
      </trkpt>
      <trkpt lat="44.35702" lon="0.68033">
        <ele>79</ele>
        <time>2012-02-26T09:01:49Z</time>
      </trkpt>
      <trkpt lat="44.35708" lon="0.68037">
        <ele>79</ele>
        <time>2012-02-26T09:01:50Z</time>
      </trkpt>
      <trkpt lat="44.35714" lon="0.68041">
        <ele>79</ele>
        <time>2012-02-26T09:01:51Z</time>
      </trkpt>
      <trkpt lat="44.3572" lon="0.68045">
        <ele>79</ele>
        <time>2012-02-26T09:01:52Z</time>
      </trkpt>
      <trkpt lat="44.35725" lon="0.68048">
        <ele>79</ele>
        <time>2012-02-26T09:01:53Z</time>
      </trkpt>
      <trkpt lat="44.3573" lon="0.68052">
        <ele>79</ele>
        <time>2012-02-26T09:01:54Z</time>
      </trkpt>
      <trkpt lat="44.35733" lon="0.68056">
        <ele>79</ele>
        <time>2012-02-26T09:01:55Z</time>
      </trkpt>
      <trkpt lat="44.35735" lon="0.68061">
        <ele>79</ele>
        <time>2012-02-26T09:01:56Z</time>
      </trkpt>
      <trkpt lat="44.35734" lon="0.68066">
        <ele>79</ele>
        <time>2012-02-26T09:01:57Z</time>
      </trkpt>
      <trkpt lat="44.35732" lon="0.68071">
        <ele>79</ele>
        <time>2012-02-26T09:01:58Z</time>
      </trkpt>
      <trkpt lat="44.35729" lon="0.68076">
        <ele>79</ele>
        <time>2012-02-26T09:01:59Z</time>
      </trkpt>
      <trkpt lat="44.35726" lon="0.68082">
        <ele>79</ele>
        <time>2012-02-26T09:02:00Z</time>
      </trkpt>
      <trkpt lat="44.35724" lon="0.68089">
        <ele>79</ele>
        <time>2012-02-26T09:02:01Z</time>
      </trkpt>
      <trkpt lat="44.35722" lon="0.68095">
        <ele>79</ele>
        <time>2012-02-26T09:02:02Z</time>
      </trkpt>
      <trkpt lat="44.3572" lon="0.68102">
        <ele>79</ele>
        <time>2012-02-26T09:02:03Z</time>
      </trkpt>
      <trkpt lat="44.35718" lon="0.68108">
        <ele>79</ele>
        <time>2012-02-26T09:02:04Z</time>
      </trkpt>
      <trkpt lat="44.35716" lon="0.68116">
        <ele>79</ele>
        <time>2012-02-26T09:02:05Z</time>
      </trkpt>
      <trkpt lat="44.35714" lon="0.68123">
        <ele>79</ele>
        <time>2012-02-26T09:02:06Z</time>
      </trkpt>
      <trkpt lat="44.35712" lon="0.6813">
        <ele>79</ele>
        <time>2012-02-26T09:02:07Z</time>
      </trkpt>
      <trkpt lat="44.35711" lon="0.68137">
        <ele>79</ele>
        <time>2012-02-26T09:02:08Z</time>
      </trkpt>
      <trkpt lat="44.3571" lon="0.68143">
        <ele>79</ele>
        <time>2012-02-26T09:02:09Z</time>
      </trkpt>
      <trkpt lat="44.35709" lon="0.6815">
        <ele>79</ele>
        <time>2012-02-26T09:02:10Z</time>
      </trkpt>
      <trkpt lat="44.35708" lon="0.68156">
        <ele>79</ele>
        <time>2012-02-26T09:02:11Z</time>
      </trkpt>
      <trkpt lat="44.35707" lon="0.68163">
        <ele>79</ele>
        <time>2012-02-26T09:02:12Z</time>
      </trkpt>
      <trkpt lat="44.35706" lon="0.68169">
        <ele>79</ele>
        <time>2012-02-26T09:02:13Z</time>
      </trkpt>
      <trkpt lat="44.35705" lon="0.68176">
        <ele>79</ele>
        <time>2012-02-26T09:02:14Z</time>
      </trkpt>
      <trkpt lat="44.35705" lon="0.68183">
        <ele>79</ele>
        <time>2012-02-26T09:02:15Z</time>
      </trkpt>
      <trkpt lat="44.35704" lon="0.6819">
        <ele>79</ele>
        <time>2012-02-26T09:02:16Z</time>
      </trkpt>
      <trkpt lat="44.35703" lon="0.68196">
        <ele>79</ele>
        <time>2012-02-26T09:02:17Z</time>
      </trkpt>
      <trkpt lat="44.35702" lon="0.68203">
        <ele>79</ele>
        <time>2012-02-26T09:02:18Z</time>
      </trkpt>
      <trkpt lat="44.35701" lon="0.6821">
        <ele>79</ele>
        <time>2012-02-26T09:02:19Z</time>
      </trkpt>
      <trkpt lat="44.35701" lon="0.68216">
        <ele>79</ele>
        <time>2012-02-26T09:02:20Z</time>
      </trkpt>
      <trkpt lat="44.357" lon="0.68223">
        <ele>79</ele>
        <time>2012-02-26T09:02:21Z</time>
      </trkpt>
      <trkpt lat="44.35699" lon="0.68229">
        <ele>79</ele>
        <time>2012-02-26T09:02:22Z</time>
      </trkpt>
      <trkpt lat="44.35699" lon="0.68235">
        <ele>79</ele>
        <time>2012-02-26T09:02:23Z</time>
      </trkpt>
      <trkpt lat="44.35698" lon="0.6824">
        <ele>79</ele>
        <time>2012-02-26T09:02:24Z</time>
      </trkpt>
      <trkpt lat="44.35698" lon="0.68246">
        <ele>79</ele>
        <time>2012-02-26T09:02:25Z</time>
      </trkpt>
      <trkpt lat="44.35698" lon="0.68252">
        <ele>79</ele>
        <time>2012-02-26T09:02:26Z</time>
      </trkpt>
      <trkpt lat="44.35698" lon="0.68258">
        <ele>79</ele>
        <time>2012-02-26T09:02:27Z</time>
      </trkpt>
      <trkpt lat="44.35697" lon="0.68264">
        <ele>79</ele>
        <time>2012-02-26T09:02:28Z</time>
      </trkpt>
      <trkpt lat="44.35695" lon="0.68269">
        <ele>79</ele>
        <time>2012-02-26T09:02:29Z</time>
      </trkpt>
      <trkpt lat="44.35694" lon="0.68274">
        <ele>79</ele>
        <time>2012-02-26T09:02:30Z</time>
      </trkpt>
      <trkpt lat="44.35692" lon="0.6828">
        <ele>79</ele>
        <time>2012-02-26T09:02:31Z</time>
      </trkpt>
      <trkpt lat="44.35691" lon="0.68285">
        <ele>79</ele>
        <time>2012-02-26T09:02:32Z</time>
      </trkpt>
      <trkpt lat="44.3569" lon="0.68291">
        <ele>79</ele>
        <time>2012-02-26T09:02:33Z</time>
      </trkpt>
      <trkpt lat="44.3569" lon="0.68296">
        <ele>79</ele>
        <time>2012-02-26T09:02:34Z</time>
      </trkpt>
      <trkpt lat="44.35689" lon="0.68301">
        <ele>79</ele>
        <time>2012-02-26T09:02:35Z</time>
      </trkpt>
      <trkpt lat="44.35689" lon="0.68307">
        <ele>79</ele>
        <time>2012-02-26T09:02:36Z</time>
      </trkpt>
      <trkpt lat="44.35689" lon="0.68312">
        <ele>79</ele>
        <time>2012-02-26T09:02:37Z</time>
      </trkpt>
      <trkpt lat="44.35689" lon="0.68317">
        <ele>79</ele>
        <time>2012-02-26T09:02:38Z</time>
      </trkpt>
      <trkpt lat="44.3569" lon="0.68322">
        <ele>79</ele>
        <time>2012-02-26T09:02:39Z</time>
      </trkpt>
      <trkpt lat="44.35691" lon="0.68326">
        <ele>79</ele>
        <time>2012-02-26T09:02:40Z</time>
      </trkpt>
      <trkpt lat="44.35691" lon="0.68331">
        <ele>79</ele>
        <time>2012-02-26T09:02:41Z</time>
      </trkpt>
      <trkpt lat="44.35693" lon="0.68335">
        <ele>79</ele>
        <time>2012-02-26T09:02:42Z</time>
      </trkpt>
      <trkpt lat="44.35693" lon="0.68339">
        <ele>79</ele>
        <time>2012-02-26T09:02:43Z</time>
      </trkpt>
      <trkpt lat="44.35695" lon="0.68342">
        <ele>79</ele>
        <time>2012-02-26T09:02:44Z</time>
      </trkpt>
      <trkpt lat="44.35695" lon="0.68345">
        <ele>80</ele>
        <time>2012-02-26T09:02:45Z</time>
      </trkpt>
      <trkpt lat="44.35696" lon="0.68348">
        <ele>80</ele>
        <time>2012-02-26T09:02:46Z</time>
      </trkpt>
      <trkpt lat="44.35696" lon="0.68351">
        <ele>80</ele>
        <time>2012-02-26T09:02:47Z</time>
      </trkpt>
      <trkpt lat="44.35697" lon="0.68354">
        <ele>81</ele>
        <time>2012-02-26T09:02:48Z</time>
      </trkpt>
      <trkpt lat="44.35698" lon="0.68357">
        <ele>81</ele>
        <time>2012-02-26T09:02:49Z</time>
      </trkpt>
      <trkpt lat="44.35698" lon="0.6836">
        <ele>82</ele>
        <time>2012-02-26T09:02:50Z</time>
      </trkpt>
      <trkpt lat="44.35698" lon="0.68363">
        <ele>82</ele>
        <time>2012-02-26T09:02:51Z</time>
      </trkpt>
      <trkpt lat="44.35699" lon="0.68366">
        <ele>83</ele>
        <time>2012-02-26T09:02:52Z</time>
      </trkpt>
      <trkpt lat="44.35699" lon="0.68369">
        <ele>83</ele>
        <time>2012-02-26T09:02:53Z</time>
      </trkpt>
      <trkpt lat="44.357" lon="0.68372">
        <ele>84</ele>
        <time>2012-02-26T09:02:54Z</time>
      </trkpt>
      <trkpt lat="44.357" lon="0.68375">
        <ele>84</ele>
        <time>2012-02-26T09:02:55Z</time>
      </trkpt>
      <trkpt lat="44.35701" lon="0.68377">
        <ele>84</ele>
        <time>2012-02-26T09:02:56Z</time>
      </trkpt>
      <trkpt lat="44.35701" lon="0.68379">
        <ele>85</ele>
        <time>2012-02-26T09:02:57Z</time>
      </trkpt>
      <trkpt lat="44.35702" lon="0.68381">
        <ele>85</ele>
        <time>2012-02-26T09:02:58Z</time>
      </trkpt>
      <trkpt lat="44.35702" lon="0.68383">
        <ele>86</ele>
        <time>2012-02-26T09:02:59Z</time>
      </trkpt>
      <trkpt lat="44.35702" lon="0.68385">
        <ele>86</ele>
        <time>2012-02-26T09:03:00Z</time>
      </trkpt>
      <trkpt lat="44.35702" lon="0.68388">
        <ele>86</ele>
        <time>2012-02-26T09:03:01Z</time>
      </trkpt>
      <trkpt lat="44.35703" lon="0.6839">
        <ele>87</ele>
        <time>2012-02-26T09:03:02Z</time>
      </trkpt>
      <trkpt lat="44.35703" lon="0.68392">
        <ele>87</ele>
        <time>2012-02-26T09:03:03Z</time>
      </trkpt>
      <trkpt lat="44.35703" lon="0.68395">
        <ele>87</ele>
        <time>2012-02-26T09:03:04Z</time>
      </trkpt>
      <trkpt lat="44.35703" lon="0.68397">
        <ele>88</ele>
        <time>2012-02-26T09:03:05Z</time>
      </trkpt>
      <trkpt lat="44.35703" lon="0.68399">
        <ele>88</ele>
        <time>2012-02-26T09:03:06Z</time>
      </trkpt>
      <trkpt lat="44.35703" lon="0.68401">
        <ele>89</ele>
        <time>2012-02-26T09:03:07Z</time>
      </trkpt>
      <trkpt lat="44.35704" lon="0.68404">
        <ele>89</ele>
        <time>2012-02-26T09:03:08Z</time>
      </trkpt>
      <trkpt lat="44.35704" lon="0.68406">
        <ele>89</ele>
        <time>2012-02-26T09:03:09Z</time>
      </trkpt>
      <trkpt lat="44.35704" lon="0.68408">
        <ele>89</ele>
        <time>2012-02-26T09:03:10Z</time>
      </trkpt>
      <trkpt lat="44.35704" lon="0.6841">
        <ele>89</ele>
        <time>2012-02-26T09:03:11Z</time>
      </trkpt>
      <trkpt lat="44.35705" lon="0.68412">
        <ele>89</ele>
        <time>2012-02-26T09:03:12Z</time>
      </trkpt>
      <trkpt lat="44.35704" lon="0.68414">
        <ele>90</ele>
        <time>2012-02-26T09:03:13Z</time>
      </trkpt>
      <trkpt lat="44.35704" lon="0.68416">
        <ele>90</ele>
        <time>2012-02-26T09:03:14Z</time>
      </trkpt>
      <trkpt lat="44.35704" lon="0.68419">
        <ele>90</ele>
        <time>2012-02-26T09:03:15Z</time>
      </trkpt>
      <trkpt lat="44.35704" lon="0.68421">
        <ele>91</ele>
        <time>2012-02-26T09:03:16Z</time>
      </trkpt>
      <trkpt lat="44.35704" lon="0.68423">
        <ele>92</ele>
        <time>2012-02-26T09:03:17Z</time>
      </trkpt>
      <trkpt lat="44.35704" lon="0.68426">
        <ele>92</ele>
        <time>2012-02-26T09:03:18Z</time>
      </trkpt>
      <trkpt lat="44.35704" lon="0.68428">
        <ele>93</ele>
        <time>2012-02-26T09:03:19Z</time>
      </trkpt>
      <trkpt lat="44.35704" lon="0.68431">
        <ele>93</ele>
        <time>2012-02-26T09:03:20Z</time>
      </trkpt>
      <trkpt lat="44.35704" lon="0.68433">
        <ele>93</ele>
        <time>2012-02-26T09:03:21Z</time>
      </trkpt>
      <trkpt lat="44.35704" lon="0.68435">
        <ele>94</ele>
        <time>2012-02-26T09:03:22Z</time>
      </trkpt>
      <trkpt lat="44.35704" lon="0.68437">
        <ele>94</ele>
        <time>2012-02-26T09:03:23Z</time>
      </trkpt>
      <trkpt lat="44.35704" lon="0.6844">
        <ele>94</ele>
        <time>2012-02-26T09:03:24Z</time>
      </trkpt>
      <trkpt lat="44.35704" lon="0.68442">
        <ele>94</ele>
        <time>2012-02-26T09:03:25Z</time>
      </trkpt>
      <trkpt lat="44.35704" lon="0.68445">
        <ele>95</ele>
        <time>2012-02-26T09:03:26Z</time>
      </trkpt>
      <trkpt lat="44.35704" lon="0.68447">
        <ele>95</ele>
        <time>2012-02-26T09:03:27Z</time>
      </trkpt>
      <trkpt lat="44.35704" lon="0.68449">
        <ele>96</ele>
        <time>2012-02-26T09:03:28Z</time>
      </trkpt>
      <trkpt lat="44.35705" lon="0.68451">
        <ele>96</ele>
        <time>2012-02-26T09:03:29Z</time>
      </trkpt>
      <trkpt lat="44.35706" lon="0.68453">
        <ele>96</ele>
        <time>2012-02-26T09:03:30Z</time>
      </trkpt>
      <trkpt lat="44.35706" lon="0.68455">
        <ele>96</ele>
        <time>2012-02-26T09:03:31Z</time>
      </trkpt>
      <trkpt lat="44.35707" lon="0.68457">
        <ele>97</ele>
        <time>2012-02-26T09:03:32Z</time>
      </trkpt>
      <trkpt lat="44.35708" lon="0.68459">
        <ele>97</ele>
        <time>2012-02-26T09:03:33Z</time>
      </trkpt>
      <trkpt lat="44.35709" lon="0.68461">
        <ele>97</ele>
        <time>2012-02-26T09:03:34Z</time>
      </trkpt>
      <trkpt lat="44.35711" lon="0.68463">
        <ele>97</ele>
        <time>2012-02-26T09:03:35Z</time>
      </trkpt>
      <trkpt lat="44.35713" lon="0.68464">
        <ele>97</ele>
        <time>2012-02-26T09:03:36Z</time>
      </trkpt>
      <trkpt lat="44.35716" lon="0.68466">
        <ele>97</ele>
        <time>2012-02-26T09:03:37Z</time>
      </trkpt>
      <trkpt lat="44.35718" lon="0.68467">
        <ele>97</ele>
        <time>2012-02-26T09:03:38Z</time>
      </trkpt>
      <trkpt lat="44.35721" lon="0.68469">
        <ele>97</ele>
        <time>2012-02-26T09:03:39Z</time>
      </trkpt>
      <trkpt lat="44.35725" lon="0.6847">
        <ele>97</ele>
        <time>2012-02-26T09:03:40Z</time>
      </trkpt>
      <trkpt lat="44.35728" lon="0.68472">
        <ele>97</ele>
        <time>2012-02-26T09:03:41Z</time>
      </trkpt>
      <trkpt lat="44.35732" lon="0.68474">
        <ele>97</ele>
        <time>2012-02-26T09:03:42Z</time>
      </trkpt>
      <trkpt lat="44.35736" lon="0.68476">
        <ele>97</ele>
        <time>2012-02-26T09:03:43Z</time>
      </trkpt>
      <trkpt lat="44.35741" lon="0.68477">
        <ele>97</ele>
        <time>2012-02-26T09:03:44Z</time>
      </trkpt>
      <trkpt lat="44.35745" lon="0.68479">
        <ele>97</ele>
        <time>2012-02-26T09:03:45Z</time>
      </trkpt>
      <trkpt lat="44.35749" lon="0.68481">
        <ele>97</ele>
        <time>2012-02-26T09:03:46Z</time>
      </trkpt>
      <trkpt lat="44.35753" lon="0.68484">
        <ele>97</ele>
        <time>2012-02-26T09:03:47Z</time>
      </trkpt>
      <trkpt lat="44.35757" lon="0.68486">
        <ele>97</ele>
        <time>2012-02-26T09:03:48Z</time>
      </trkpt>
      <trkpt lat="44.35762" lon="0.68489">
        <ele>97</ele>
        <time>2012-02-26T09:03:49Z</time>
      </trkpt>
      <trkpt lat="44.35766" lon="0.68493">
        <ele>97</ele>
        <time>2012-02-26T09:03:50Z</time>
      </trkpt>
      <trkpt lat="44.3577" lon="0.68498">
        <ele>96</ele>
        <time>2012-02-26T09:03:51Z</time>
      </trkpt>
      <trkpt lat="44.35773" lon="0.68503">
        <ele>96</ele>
        <time>2012-02-26T09:03:52Z</time>
      </trkpt>
      <trkpt lat="44.35775" lon="0.68508">
        <ele>96</ele>
        <time>2012-02-26T09:03:53Z</time>
      </trkpt>
      <trkpt lat="44.35778" lon="0.68513">
        <ele>96</ele>
        <time>2012-02-26T09:03:54Z</time>
      </trkpt>
      <trkpt lat="44.3578" lon="0.68518">
        <ele>96</ele>
        <time>2012-02-26T09:03:55Z</time>
      </trkpt>
      <trkpt lat="44.35782" lon="0.68523">
        <ele>96</ele>
        <time>2012-02-26T09:03:56Z</time>
      </trkpt>
      <trkpt lat="44.35783" lon="0.68528">
        <ele>96</ele>
        <time>2012-02-26T09:03:57Z</time>
      </trkpt>
      <trkpt lat="44.35785" lon="0.68534">
        <ele>96</ele>
        <time>2012-02-26T09:03:58Z</time>
      </trkpt>
      <trkpt lat="44.35787" lon="0.68539">
        <ele>96</ele>
        <time>2012-02-26T09:03:59Z</time>
      </trkpt>
      <trkpt lat="44.3579" lon="0.68546">
        <ele>96</ele>
        <time>2012-02-26T09:04:00Z</time>
      </trkpt>
      <trkpt lat="44.35794" lon="0.68552">
        <ele>95</ele>
        <time>2012-02-26T09:04:01Z</time>
      </trkpt>
      <trkpt lat="44.35798" lon="0.68558">
        <ele>95</ele>
        <time>2012-02-26T09:04:02Z</time>
      </trkpt>
      <trkpt lat="44.35803" lon="0.68564">
        <ele>94</ele>
        <time>2012-02-26T09:04:03Z</time>
      </trkpt>
      <trkpt lat="44.35807" lon="0.68571">
        <ele>93</ele>
        <time>2012-02-26T09:04:04Z</time>
      </trkpt>
      <trkpt lat="44.35812" lon="0.68578">
        <ele>93</ele>
        <time>2012-02-26T09:04:05Z</time>
      </trkpt>
      <trkpt lat="44.35817" lon="0.68585">
        <ele>92</ele>
        <time>2012-02-26T09:04:06Z</time>
      </trkpt>
      <trkpt lat="44.35822" lon="0.68591">
        <ele>92</ele>
        <time>2012-02-26T09:04:07Z</time>
      </trkpt>
      <trkpt lat="44.35826" lon="0.68598">
        <ele>92</ele>
        <time>2012-02-26T09:04:08Z</time>
      </trkpt>
      <trkpt lat="44.35831" lon="0.68603">
        <ele>91</ele>
        <time>2012-02-26T09:04:09Z</time>
      </trkpt>
      <trkpt lat="44.35835" lon="0.6861">
        <ele>91</ele>
        <time>2012-02-26T09:04:10Z</time>
      </trkpt>
      <trkpt lat="44.35838" lon="0.68616">
        <ele>91</ele>
        <time>2012-02-26T09:04:11Z</time>
      </trkpt>
      <trkpt lat="44.35842" lon="0.68622">
        <ele>91</ele>
        <time>2012-02-26T09:04:12Z</time>
      </trkpt>
      <trkpt lat="44.35845" lon="0.68628">
        <ele>91</ele>
        <time>2012-02-26T09:04:13Z</time>
      </trkpt>
      <trkpt lat="44.35848" lon="0.68634">
        <ele>91</ele>
        <time>2012-02-26T09:04:14Z</time>
      </trkpt>
      <trkpt lat="44.35851" lon="0.6864">
        <ele>91</ele>
        <time>2012-02-26T09:04:15Z</time>
      </trkpt>
      <trkpt lat="44.35853" lon="0.68646">
        <ele>91</ele>
        <time>2012-02-26T09:04:16Z</time>
      </trkpt>
      <trkpt lat="44.35855" lon="0.68653">
        <ele>91</ele>
        <time>2012-02-26T09:04:17Z</time>
      </trkpt>
      <trkpt lat="44.35855" lon="0.68659">
        <ele>91</ele>
        <time>2012-02-26T09:04:18Z</time>
      </trkpt>
      <trkpt lat="44.35855" lon="0.68665">
        <ele>91</ele>
        <time>2012-02-26T09:04:19Z</time>
      </trkpt>
      <trkpt lat="44.35854" lon="0.6867">
        <ele>91</ele>
        <time>2012-02-26T09:04:20Z</time>
      </trkpt>
      <trkpt lat="44.35853" lon="0.68675">
        <ele>91</ele>
        <time>2012-02-26T09:04:21Z</time>
      </trkpt>
      <trkpt lat="44.35852" lon="0.6868">
        <ele>91</ele>
        <time>2012-02-26T09:04:22Z</time>
      </trkpt>
      <trkpt lat="44.35851" lon="0.68684">
        <ele>91</ele>
        <time>2012-02-26T09:04:23Z</time>
      </trkpt>
      <trkpt lat="44.3585" lon="0.68688">
        <ele>91</ele>
        <time>2012-02-26T09:04:24Z</time>
      </trkpt>
      <trkpt lat="44.35849" lon="0.68691">
        <ele>91</ele>
        <time>2012-02-26T09:04:25Z</time>
      </trkpt>
      <trkpt lat="44.35849" lon="0.68695">
        <ele>91</ele>
        <time>2012-02-26T09:04:26Z</time>
      </trkpt>
      <trkpt lat="44.35848" lon="0.68698">
        <ele>91</ele>
        <time>2012-02-26T09:04:27Z</time>
      </trkpt>
      <trkpt lat="44.35847" lon="0.68701">
        <ele>91</ele>
        <time>2012-02-26T09:04:28Z</time>
      </trkpt>
      <trkpt lat="44.35845" lon="0.68705">
        <ele>91</ele>
        <time>2012-02-26T09:04:29Z</time>
      </trkpt>
      <trkpt lat="44.35844" lon="0.68708">
        <ele>91</ele>
        <time>2012-02-26T09:04:30Z</time>
      </trkpt>
      <trkpt lat="44.35841" lon="0.68711">
        <ele>91</ele>
        <time>2012-02-26T09:04:31Z</time>
      </trkpt>
      <trkpt lat="44.35838" lon="0.68714">
        <ele>91</ele>
        <time>2012-02-26T09:04:32Z</time>
      </trkpt>
      <trkpt lat="44.35835" lon="0.68717">
        <ele>91</ele>
        <time>2012-02-26T09:04:33Z</time>
      </trkpt>
      <trkpt lat="44.35832" lon="0.68719">
        <ele>91</ele>
        <time>2012-02-26T09:04:34Z</time>
      </trkpt>
      <trkpt lat="44.35829" lon="0.68722">
        <ele>91</ele>
        <time>2012-02-26T09:04:35Z</time>
      </trkpt>
      <trkpt lat="44.35826" lon="0.68725">
        <ele>92</ele>
        <time>2012-02-26T09:04:36Z</time>
      </trkpt>
      <trkpt lat="44.35823" lon="0.68728">
        <ele>92</ele>
        <time>2012-02-26T09:04:37Z</time>
      </trkpt>
      <trkpt lat="44.35819" lon="0.68731">
        <ele>92</ele>
        <time>2012-02-26T09:04:38Z</time>
      </trkpt>
      <trkpt lat="44.35815" lon="0.68734">
        <ele>93</ele>
        <time>2012-02-26T09:04:39Z</time>
      </trkpt>
      <trkpt lat="44.35812" lon="0.68737">
        <ele>93</ele>
        <time>2012-02-26T09:04:40Z</time>
      </trkpt>
      <trkpt lat="44.35808" lon="0.6874">
        <ele>93</ele>
        <time>2012-02-26T09:04:41Z</time>
      </trkpt>
      <trkpt lat="44.35804" lon="0.68742">
        <ele>93</ele>
        <time>2012-02-26T09:04:42Z</time>
      </trkpt>
      <trkpt lat="44.35801" lon="0.68744">
        <ele>93</ele>
        <time>2012-02-26T09:04:43Z</time>
      </trkpt>
      <trkpt lat="44.35798" lon="0.68747">
        <ele>94</ele>
        <time>2012-02-26T09:04:44Z</time>
      </trkpt>
      <trkpt lat="44.35794" lon="0.68749">
        <ele>94</ele>
        <time>2012-02-26T09:04:45Z</time>
      </trkpt>
      <trkpt lat="44.35791" lon="0.68752">
        <ele>94</ele>
        <time>2012-02-26T09:04:46Z</time>
      </trkpt>
      <trkpt lat="44.35788" lon="0.68755">
        <ele>94</ele>
        <time>2012-02-26T09:04:47Z</time>
      </trkpt>
      <trkpt lat="44.35784" lon="0.68758">
        <ele>95</ele>
        <time>2012-02-26T09:04:48Z</time>
      </trkpt>
      <trkpt lat="44.3578" lon="0.68761">
        <ele>95</ele>
        <time>2012-02-26T09:04:49Z</time>
      </trkpt>
      <trkpt lat="44.35777" lon="0.68764">
        <ele>95</ele>
        <time>2012-02-26T09:04:50Z</time>
      </trkpt>
      <trkpt lat="44.35773" lon="0.68767">
        <ele>95</ele>
        <time>2012-02-26T09:04:51Z</time>
      </trkpt>
      <trkpt lat="44.3577" lon="0.6877">
        <ele>96</ele>
        <time>2012-02-26T09:04:52Z</time>
      </trkpt>
      <trkpt lat="44.35767" lon="0.68773">
        <ele>96</ele>
        <time>2012-02-26T09:04:53Z</time>
      </trkpt>
      <trkpt lat="44.35763" lon="0.68776">
        <ele>96</ele>
        <time>2012-02-26T09:04:54Z</time>
      </trkpt>
      <trkpt lat="44.3576" lon="0.68779">
        <ele>96</ele>
        <time>2012-02-26T09:04:55Z</time>
      </trkpt>
      <trkpt lat="44.35757" lon="0.68782">
        <ele>97</ele>
        <time>2012-02-26T09:04:56Z</time>
      </trkpt>
      <trkpt lat="44.35754" lon="0.68786">
        <ele>97</ele>
        <time>2012-02-26T09:04:57Z</time>
      </trkpt>
      <trkpt lat="44.35751" lon="0.68789">
        <ele>97</ele>
        <time>2012-02-26T09:04:58Z</time>
      </trkpt>
      <trkpt lat="44.35747" lon="0.68792">
        <ele>97</ele>
        <time>2012-02-26T09:04:59Z</time>
      </trkpt>
      <trkpt lat="44.35744" lon="0.68795">
        <ele>97</ele>
        <time>2012-02-26T09:05:00Z</time>
      </trkpt>
      <trkpt lat="44.35741" lon="0.68799">
        <ele>97</ele>
        <time>2012-02-26T09:05:01Z</time>
      </trkpt>
      <trkpt lat="44.35738" lon="0.68802">
        <ele>97</ele>
        <time>2012-02-26T09:05:02Z</time>
      </trkpt>
      <trkpt lat="44.35735" lon="0.68806">
        <ele>98</ele>
        <time>2012-02-26T09:05:03Z</time>
      </trkpt>
      <trkpt lat="44.35732" lon="0.68809">
        <ele>98</ele>
        <time>2012-02-26T09:05:04Z</time>
      </trkpt>
      <trkpt lat="44.35729" lon="0.68813">
        <ele>98</ele>
        <time>2012-02-26T09:05:05Z</time>
      </trkpt>
      <trkpt lat="44.35726" lon="0.68817">
        <ele>98</ele>
        <time>2012-02-26T09:05:06Z</time>
      </trkpt>
      <trkpt lat="44.35723" lon="0.68821">
        <ele>98</ele>
        <time>2012-02-26T09:05:07Z</time>
      </trkpt>
      <trkpt lat="44.3572" lon="0.68825">
        <ele>98</ele>
        <time>2012-02-26T09:05:08Z</time>
      </trkpt>
      <trkpt lat="44.35717" lon="0.68828">
        <ele>98</ele>
        <time>2012-02-26T09:05:09Z</time>
      </trkpt>
      <trkpt lat="44.35714" lon="0.68832">
        <ele>98</ele>
        <time>2012-02-26T09:05:10Z</time>
      </trkpt>
      <trkpt lat="44.35711" lon="0.68835">
        <ele>98</ele>
        <time>2012-02-26T09:05:11Z</time>
      </trkpt>
      <trkpt lat="44.35708" lon="0.68839">
        <ele>98</ele>
        <time>2012-02-26T09:05:12Z</time>
      </trkpt>
      <trkpt lat="44.35705" lon="0.68842">
        <ele>98</ele>
        <time>2012-02-26T09:05:13Z</time>
      </trkpt>
      <trkpt lat="44.35702" lon="0.68845">
        <ele>98</ele>
        <time>2012-02-26T09:05:14Z</time>
      </trkpt>
      <trkpt lat="44.35699" lon="0.68849">
        <ele>98</ele>
        <time>2012-02-26T09:05:15Z</time>
      </trkpt>
      <trkpt lat="44.35696" lon="0.68853">
        <ele>98</ele>
        <time>2012-02-26T09:05:16Z</time>
      </trkpt>
      <trkpt lat="44.35694" lon="0.68856">
        <ele>98</ele>
        <time>2012-02-26T09:05:17Z</time>
      </trkpt>
      <trkpt lat="44.35691" lon="0.6886">
        <ele>98</ele>
        <time>2012-02-26T09:05:18Z</time>
      </trkpt>
      <trkpt lat="44.35688" lon="0.68863">
        <ele>98</ele>
        <time>2012-02-26T09:05:19Z</time>
      </trkpt>
      <trkpt lat="44.35685" lon="0.68867">
        <ele>98</ele>
        <time>2012-02-26T09:05:20Z</time>
      </trkpt>
      <trkpt lat="44.35683" lon="0.6887">
        <ele>98</ele>
        <time>2012-02-26T09:05:21Z</time>
      </trkpt>
      <trkpt lat="44.3568" lon="0.68874">
        <ele>98</ele>
        <time>2012-02-26T09:05:22Z</time>
      </trkpt>
      <trkpt lat="44.35677" lon="0.68878">
        <ele>98</ele>
        <time>2012-02-26T09:05:23Z</time>
      </trkpt>
      <trkpt lat="44.35674" lon="0.68882">
        <ele>98</ele>
        <time>2012-02-26T09:05:24Z</time>
      </trkpt>
      <trkpt lat="44.35671" lon="0.68886">
        <ele>98</ele>
        <time>2012-02-26T09:05:25Z</time>
      </trkpt>
      <trkpt lat="44.35668" lon="0.68889">
        <ele>98</ele>
        <time>2012-02-26T09:05:26Z</time>
      </trkpt>
      <trkpt lat="44.35665" lon="0.68893">
        <ele>98</ele>
        <time>2012-02-26T09:05:27Z</time>
      </trkpt>
      <trkpt lat="44.35662" lon="0.68897">
        <ele>98</ele>
        <time>2012-02-26T09:05:28Z</time>
      </trkpt>
      <trkpt lat="44.35659" lon="0.68901">
        <ele>98</ele>
        <time>2012-02-26T09:05:29Z</time>
      </trkpt>
      <trkpt lat="44.35656" lon="0.68905">
        <ele>98</ele>
        <time>2012-02-26T09:05:30Z</time>
      </trkpt>
      <trkpt lat="44.35652" lon="0.68909">
        <ele>98</ele>
        <time>2012-02-26T09:05:31Z</time>
      </trkpt>
      <trkpt lat="44.35649" lon="0.68912">
        <ele>98</ele>
        <time>2012-02-26T09:05:32Z</time>
      </trkpt>
      <trkpt lat="44.35646" lon="0.68916">
        <ele>98</ele>
        <time>2012-02-26T09:05:33Z</time>
      </trkpt>
      <trkpt lat="44.35643" lon="0.6892">
        <ele>98</ele>
        <time>2012-02-26T09:05:34Z</time>
      </trkpt>
      <trkpt lat="44.35639" lon="0.68923">
        <ele>98</ele>
        <time>2012-02-26T09:05:35Z</time>
      </trkpt>
      <trkpt lat="44.35636" lon="0.68927">
        <ele>98</ele>
        <time>2012-02-26T09:05:36Z</time>
      </trkpt>
      <trkpt lat="44.35633" lon="0.6893">
        <ele>98</ele>
        <time>2012-02-26T09:05:37Z</time>
      </trkpt>
      <trkpt lat="44.3563" lon="0.68933">
        <ele>98</ele>
        <time>2012-02-26T09:05:38Z</time>
      </trkpt>
      <trkpt lat="44.35627" lon="0.68937">
        <ele>98</ele>
        <time>2012-02-26T09:05:39Z</time>
      </trkpt>
      <trkpt lat="44.35624" lon="0.6894">
        <ele>98</ele>
        <time>2012-02-26T09:05:40Z</time>
      </trkpt>
      <trkpt lat="44.3562" lon="0.68944">
        <ele>98</ele>
        <time>2012-02-26T09:05:41Z</time>
      </trkpt>
      <trkpt lat="44.35617" lon="0.68947">
        <ele>98</ele>
        <time>2012-02-26T09:05:42Z</time>
      </trkpt>
      <trkpt lat="44.35614" lon="0.6895">
        <ele>98</ele>
        <time>2012-02-26T09:05:43Z</time>
      </trkpt>
      <trkpt lat="44.3561" lon="0.68954">
        <ele>98</ele>
        <time>2012-02-26T09:05:44Z</time>
      </trkpt>
      <trkpt lat="44.35607" lon="0.68957">
        <ele>98</ele>
        <time>2012-02-26T09:05:45Z</time>
      </trkpt>
      <trkpt lat="44.35603" lon="0.68961">
        <ele>98</ele>
        <time>2012-02-26T09:05:46Z</time>
      </trkpt>
      <trkpt lat="44.35599" lon="0.68965">
        <ele>98</ele>
        <time>2012-02-26T09:05:47Z</time>
      </trkpt>
      <trkpt lat="44.35596" lon="0.6897">
        <ele>98</ele>
        <time>2012-02-26T09:05:48Z</time>
      </trkpt>
      <trkpt lat="44.35593" lon="0.68973">
        <ele>98</ele>
        <time>2012-02-26T09:05:49Z</time>
      </trkpt>
      <trkpt lat="44.35589" lon="0.68978">
        <ele>98</ele>
        <time>2012-02-26T09:05:50Z</time>
      </trkpt>
      <trkpt lat="44.35586" lon="0.68982">
        <ele>98</ele>
        <time>2012-02-26T09:05:51Z</time>
      </trkpt>
      <trkpt lat="44.35583" lon="0.68986">
        <ele>98</ele>
        <time>2012-02-26T09:05:52Z</time>
      </trkpt>
      <trkpt lat="44.35579" lon="0.68991">
        <ele>98</ele>
        <time>2012-02-26T09:05:53Z</time>
      </trkpt>
      <trkpt lat="44.35576" lon="0.68996">
        <ele>98</ele>
        <time>2012-02-26T09:05:54Z</time>
      </trkpt>
      <trkpt lat="44.35573" lon="0.69001">
        <ele>98</ele>
        <time>2012-02-26T09:05:55Z</time>
      </trkpt>
      <trkpt lat="44.35569" lon="0.69005">
        <ele>99</ele>
        <time>2012-02-26T09:05:56Z</time>
      </trkpt>
      <trkpt lat="44.35566" lon="0.6901">
        <ele>99</ele>
        <time>2012-02-26T09:05:57Z</time>
      </trkpt>
      <trkpt lat="44.35563" lon="0.69015">
        <ele>100</ele>
        <time>2012-02-26T09:05:58Z</time>
      </trkpt>
      <trkpt lat="44.3556" lon="0.6902">
        <ele>100</ele>
        <time>2012-02-26T09:05:59Z</time>
      </trkpt>
      <trkpt lat="44.35556" lon="0.69024">
        <ele>100</ele>
        <time>2012-02-26T09:06:00Z</time>
      </trkpt>
      <trkpt lat="44.35553" lon="0.69029">
        <ele>100</ele>
        <time>2012-02-26T09:06:01Z</time>
      </trkpt>
      <trkpt lat="44.3555" lon="0.69033">
        <ele>100</ele>
        <time>2012-02-26T09:06:02Z</time>
      </trkpt>
      <trkpt lat="44.35547" lon="0.69038">
        <ele>100</ele>
        <time>2012-02-26T09:06:03Z</time>
      </trkpt>
      <trkpt lat="44.35543" lon="0.69043">
        <ele>100</ele>
        <time>2012-02-26T09:06:04Z</time>
      </trkpt>
      <trkpt lat="44.3554" lon="0.69048">
        <ele>100</ele>
        <time>2012-02-26T09:06:05Z</time>
      </trkpt>
      <trkpt lat="44.35537" lon="0.69052">
        <ele>100</ele>
        <time>2012-02-26T09:06:06Z</time>
      </trkpt>
      <trkpt lat="44.35534" lon="0.69057">
        <ele>100</ele>
        <time>2012-02-26T09:06:07Z</time>
      </trkpt>
      <trkpt lat="44.3553" lon="0.69061">
        <ele>100</ele>
        <time>2012-02-26T09:06:08Z</time>
      </trkpt>
      <trkpt lat="44.35526" lon="0.69065">
        <ele>100</ele>
        <time>2012-02-26T09:06:09Z</time>
      </trkpt>
      <trkpt lat="44.35522" lon="0.69069">
        <ele>100</ele>
        <time>2012-02-26T09:06:10Z</time>
      </trkpt>
      <trkpt lat="44.35519" lon="0.69073">
        <ele>100</ele>
        <time>2012-02-26T09:06:11Z</time>
      </trkpt>
      <trkpt lat="44.35515" lon="0.69078">
        <ele>100</ele>
        <time>2012-02-26T09:06:12Z</time>
      </trkpt>
      <trkpt lat="44.35512" lon="0.69082">
        <ele>100</ele>
        <time>2012-02-26T09:06:13Z</time>
      </trkpt>
      <trkpt lat="44.35508" lon="0.69086">
        <ele>100</ele>
        <time>2012-02-26T09:06:14Z</time>
      </trkpt>
      <trkpt lat="44.35504" lon="0.6909">
        <ele>100</ele>
        <time>2012-02-26T09:06:15Z</time>
      </trkpt>
      <trkpt lat="44.355" lon="0.69094">
        <ele>100</ele>
        <time>2012-02-26T09:06:16Z</time>
      </trkpt>
      <trkpt lat="44.35497" lon="0.69098">
        <ele>100</ele>
        <time>2012-02-26T09:06:17Z</time>
      </trkpt>
      <trkpt lat="44.35493" lon="0.69103">
        <ele>100</ele>
        <time>2012-02-26T09:06:18Z</time>
      </trkpt>
      <trkpt lat="44.35489" lon="0.69107">
        <ele>100</ele>
        <time>2012-02-26T09:06:19Z</time>
      </trkpt>
      <trkpt lat="44.35485" lon="0.69111">
        <ele>100</ele>
        <time>2012-02-26T09:06:20Z</time>
      </trkpt>
      <trkpt lat="44.35482" lon="0.69115">
        <ele>100</ele>
        <time>2012-02-26T09:06:21Z</time>
      </trkpt>
      <trkpt lat="44.35478" lon="0.69118">
        <ele>100</ele>
        <time>2012-02-26T09:06:22Z</time>
      </trkpt>
      <trkpt lat="44.35474" lon="0.69122">
        <ele>100</ele>
        <time>2012-02-26T09:06:23Z</time>
      </trkpt>
      <trkpt lat="44.3547" lon="0.69127">
        <ele>100</ele>
        <time>2012-02-26T09:06:24Z</time>
      </trkpt>
      <trkpt lat="44.35466" lon="0.69131">
        <ele>100</ele>
        <time>2012-02-26T09:06:25Z</time>
      </trkpt>
      <trkpt lat="44.35463" lon="0.69135">
        <ele>100</ele>
        <time>2012-02-26T09:06:26Z</time>
      </trkpt>
      <trkpt lat="44.3546" lon="0.69139">
        <ele>101</ele>
        <time>2012-02-26T09:06:27Z</time>
      </trkpt>
      <trkpt lat="44.35456" lon="0.69143">
        <ele>101</ele>
        <time>2012-02-26T09:06:28Z</time>
      </trkpt>
      <trkpt lat="44.35452" lon="0.69147">
        <ele>101</ele>
        <time>2012-02-26T09:06:29Z</time>
      </trkpt>
      <trkpt lat="44.35449" lon="0.69151">
        <ele>101</ele>
        <time>2012-02-26T09:06:30Z</time>
      </trkpt>
      <trkpt lat="44.35445" lon="0.69155">
        <ele>101</ele>
        <time>2012-02-26T09:06:31Z</time>
      </trkpt>
      <trkpt lat="44.35442" lon="0.69159">
        <ele>102</ele>
        <time>2012-02-26T09:06:32Z</time>
      </trkpt>
      <trkpt lat="44.35438" lon="0.69162">
        <ele>102</ele>
        <time>2012-02-26T09:06:33Z</time>
      </trkpt>
      <trkpt lat="44.35435" lon="0.69166">
        <ele>102</ele>
        <time>2012-02-26T09:06:34Z</time>
      </trkpt>
      <trkpt lat="44.35431" lon="0.6917">
        <ele>102</ele>
        <time>2012-02-26T09:06:35Z</time>
      </trkpt>
      <trkpt lat="44.35428" lon="0.69174">
        <ele>102</ele>
        <time>2012-02-26T09:06:36Z</time>
      </trkpt>
      <trkpt lat="44.35425" lon="0.69178">
        <ele>103</ele>
        <time>2012-02-26T09:06:37Z</time>
      </trkpt>
      <trkpt lat="44.35421" lon="0.69182">
        <ele>103</ele>
        <time>2012-02-26T09:06:38Z</time>
      </trkpt>
      <trkpt lat="44.35418" lon="0.69185">
        <ele>103</ele>
        <time>2012-02-26T09:06:39Z</time>
      </trkpt>
      <trkpt lat="44.35415" lon="0.69189">
        <ele>103</ele>
        <time>2012-02-26T09:06:40Z</time>
      </trkpt>
      <trkpt lat="44.35412" lon="0.69193">
        <ele>103</ele>
        <time>2012-02-26T09:06:41Z</time>
      </trkpt>
      <trkpt lat="44.35408" lon="0.69197">
        <ele>103</ele>
        <time>2012-02-26T09:06:42Z</time>
      </trkpt>
      <trkpt lat="44.35405" lon="0.692">
        <ele>103</ele>
        <time>2012-02-26T09:06:43Z</time>
      </trkpt>
      <trkpt lat="44.35402" lon="0.69204">
        <ele>103</ele>
        <time>2012-02-26T09:06:44Z</time>
      </trkpt>
      <trkpt lat="44.35398" lon="0.69208">
        <ele>103</ele>
        <time>2012-02-26T09:06:45Z</time>
      </trkpt>
      <trkpt lat="44.35395" lon="0.69212">
        <ele>103</ele>
        <time>2012-02-26T09:06:46Z</time>
      </trkpt>
      <trkpt lat="44.35392" lon="0.69217">
        <ele>104</ele>
        <time>2012-02-26T09:06:47Z</time>
      </trkpt>
      <trkpt lat="44.35389" lon="0.69221">
        <ele>104</ele>
        <time>2012-02-26T09:06:48Z</time>
      </trkpt>
      <trkpt lat="44.35387" lon="0.69225">
        <ele>104</ele>
        <time>2012-02-26T09:06:49Z</time>
      </trkpt>
      <trkpt lat="44.35384" lon="0.6923">
        <ele>104</ele>
        <time>2012-02-26T09:06:50Z</time>
      </trkpt>
      <trkpt lat="44.35382" lon="0.69234">
        <ele>104</ele>
        <time>2012-02-26T09:06:51Z</time>
      </trkpt>
      <trkpt lat="44.3538" lon="0.69238">
        <ele>105</ele>
        <time>2012-02-26T09:06:52Z</time>
      </trkpt>
      <trkpt lat="44.35378" lon="0.69243">
        <ele>105</ele>
        <time>2012-02-26T09:06:53Z</time>
      </trkpt>
      <trkpt lat="44.35376" lon="0.69248">
        <ele>105</ele>
        <time>2012-02-26T09:06:54Z</time>
      </trkpt>
      <trkpt lat="44.35374" lon="0.69252">
        <ele>105</ele>
        <time>2012-02-26T09:06:55Z</time>
      </trkpt>
      <trkpt lat="44.35372" lon="0.69256">
        <ele>106</ele>
        <time>2012-02-26T09:06:56Z</time>
      </trkpt>
      <trkpt lat="44.3537" lon="0.69261">
        <ele>106</ele>
        <time>2012-02-26T09:06:57Z</time>
      </trkpt>
      <trkpt lat="44.35368" lon="0.69266">
        <ele>106</ele>
        <time>2012-02-26T09:06:58Z</time>
      </trkpt>
      <trkpt lat="44.35366" lon="0.6927">
        <ele>106</ele>
        <time>2012-02-26T09:06:59Z</time>
      </trkpt>
      <trkpt lat="44.35365" lon="0.69274">
        <ele>106</ele>
        <time>2012-02-26T09:07:00Z</time>
      </trkpt>
      <trkpt lat="44.35363" lon="0.69279">
        <ele>106</ele>
        <time>2012-02-26T09:07:01Z</time>
      </trkpt>
      <trkpt lat="44.35361" lon="0.69283">
        <ele>106</ele>
        <time>2012-02-26T09:07:02Z</time>
      </trkpt>
      <trkpt lat="44.3536" lon="0.69287">
        <ele>106</ele>
        <time>2012-02-26T09:07:03Z</time>
      </trkpt>
      <trkpt lat="44.35358" lon="0.69291">
        <ele>106</ele>
        <time>2012-02-26T09:07:04Z</time>
      </trkpt>
      <trkpt lat="44.35356" lon="0.69295">
        <ele>106</ele>
        <time>2012-02-26T09:07:05Z</time>
      </trkpt>
      <trkpt lat="44.35354" lon="0.69299">
        <ele>106</ele>
        <time>2012-02-26T09:07:06Z</time>
      </trkpt>
      <trkpt lat="44.35353" lon="0.69303">
        <ele>106</ele>
        <time>2012-02-26T09:07:07Z</time>
      </trkpt>
      <trkpt lat="44.35351" lon="0.69306">
        <ele>106</ele>
        <time>2012-02-26T09:07:08Z</time>
      </trkpt>
      <trkpt lat="44.35349" lon="0.6931">
        <ele>106</ele>
        <time>2012-02-26T09:07:09Z</time>
      </trkpt>
      <trkpt lat="44.35346" lon="0.69313">
        <ele>106</ele>
        <time>2012-02-26T09:07:10Z</time>
      </trkpt>
      <trkpt lat="44.35344" lon="0.69316">
        <ele>106</ele>
        <time>2012-02-26T09:07:11Z</time>
      </trkpt>
      <trkpt lat="44.35341" lon="0.69319">
        <ele>107</ele>
        <time>2012-02-26T09:07:12Z</time>
      </trkpt>
      <trkpt lat="44.35339" lon="0.69322">
        <ele>107</ele>
        <time>2012-02-26T09:07:13Z</time>
      </trkpt>
      <trkpt lat="44.35336" lon="0.69324">
        <ele>108</ele>
        <time>2012-02-26T09:07:14Z</time>
      </trkpt>
      <trkpt lat="44.35334" lon="0.69326">
        <ele>109</ele>
        <time>2012-02-26T09:07:15Z</time>
      </trkpt>
      <trkpt lat="44.35332" lon="0.69328">
        <ele>109</ele>
        <time>2012-02-26T09:07:16Z</time>
      </trkpt>
      <trkpt lat="44.35329" lon="0.6933">
        <ele>110</ele>
        <time>2012-02-26T09:07:17Z</time>
      </trkpt>
      <trkpt lat="44.35327" lon="0.69332">
        <ele>110</ele>
        <time>2012-02-26T09:07:18Z</time>
      </trkpt>
      <trkpt lat="44.35324" lon="0.69334">
        <ele>111</ele>
        <time>2012-02-26T09:07:19Z</time>
      </trkpt>
      <trkpt lat="44.35322" lon="0.69336">
        <ele>111</ele>
        <time>2012-02-26T09:07:20Z</time>
      </trkpt>
      <trkpt lat="44.3532" lon="0.69337">
        <ele>112</ele>
        <time>2012-02-26T09:07:21Z</time>
      </trkpt>
      <trkpt lat="44.35317" lon="0.69338">
        <ele>112</ele>
        <time>2012-02-26T09:07:22Z</time>
      </trkpt>
      <trkpt lat="44.35315" lon="0.6934">
        <ele>112</ele>
        <time>2012-02-26T09:07:23Z</time>
      </trkpt>
      <trkpt lat="44.35313" lon="0.69341">
        <ele>113</ele>
        <time>2012-02-26T09:07:24Z</time>
      </trkpt>
      <trkpt lat="44.35311" lon="0.69343">
        <ele>113</ele>
        <time>2012-02-26T09:07:25Z</time>
      </trkpt>
      <trkpt lat="44.35308" lon="0.69344">
        <ele>113</ele>
        <time>2012-02-26T09:07:26Z</time>
      </trkpt>
      <trkpt lat="44.35306" lon="0.69346">
        <ele>114</ele>
        <time>2012-02-26T09:07:27Z</time>
      </trkpt>
      <trkpt lat="44.35303" lon="0.69347">
        <ele>114</ele>
        <time>2012-02-26T09:07:28Z</time>
      </trkpt>
      <trkpt lat="44.35301" lon="0.69349">
        <ele>115</ele>
        <time>2012-02-26T09:07:29Z</time>
      </trkpt>
      <trkpt lat="44.35298" lon="0.6935">
        <ele>116</ele>
        <time>2012-02-26T09:07:30Z</time>
      </trkpt>
      <trkpt lat="44.35296" lon="0.69351">
        <ele>116</ele>
        <time>2012-02-26T09:07:31Z</time>
      </trkpt>
      <trkpt lat="44.35293" lon="0.69353">
        <ele>117</ele>
        <time>2012-02-26T09:07:32Z</time>
      </trkpt>
      <trkpt lat="44.35291" lon="0.69354">
        <ele>117</ele>
        <time>2012-02-26T09:07:33Z</time>
      </trkpt>
      <trkpt lat="44.35288" lon="0.69355">
        <ele>118</ele>
        <time>2012-02-26T09:07:34Z</time>
      </trkpt>
      <trkpt lat="44.35286" lon="0.69357">
        <ele>119</ele>
        <time>2012-02-26T09:07:35Z</time>
      </trkpt>
      <trkpt lat="44.35283" lon="0.69358">
        <ele>119</ele>
        <time>2012-02-26T09:07:36Z</time>
      </trkpt>
      <trkpt lat="44.35281" lon="0.6936">
        <ele>119</ele>
        <time>2012-02-26T09:07:37Z</time>
      </trkpt>
      <trkpt lat="44.35278" lon="0.69362">
        <ele>119</ele>
        <time>2012-02-26T09:07:38Z</time>
      </trkpt>
      <trkpt lat="44.35276" lon="0.69363">
        <ele>119</ele>
        <time>2012-02-26T09:07:39Z</time>
      </trkpt>
      <trkpt lat="44.35273" lon="0.69365">
        <ele>119</ele>
        <time>2012-02-26T09:07:40Z</time>
      </trkpt>
      <trkpt lat="44.35271" lon="0.69366">
        <ele>119</ele>
        <time>2012-02-26T09:07:41Z</time>
      </trkpt>
      <trkpt lat="44.35268" lon="0.69368">
        <ele>119</ele>
        <time>2012-02-26T09:07:42Z</time>
      </trkpt>
      <trkpt lat="44.35266" lon="0.69369">
        <ele>120</ele>
        <time>2012-02-26T09:07:43Z</time>
      </trkpt>
      <trkpt lat="44.35264" lon="0.69371">
        <ele>120</ele>
        <time>2012-02-26T09:07:44Z</time>
      </trkpt>
      <trkpt lat="44.35262" lon="0.69372">
        <ele>120</ele>
        <time>2012-02-26T09:07:45Z</time>
      </trkpt>
      <trkpt lat="44.35259" lon="0.69374">
        <ele>121</ele>
        <time>2012-02-26T09:07:46Z</time>
      </trkpt>
      <trkpt lat="44.35257" lon="0.69376">
        <ele>122</ele>
        <time>2012-02-26T09:07:47Z</time>
      </trkpt>
      <trkpt lat="44.35255" lon="0.69379">
        <ele>122</ele>
        <time>2012-02-26T09:07:48Z</time>
      </trkpt>
      <trkpt lat="44.35254" lon="0.69381">
        <ele>123</ele>
        <time>2012-02-26T09:07:49Z</time>
      </trkpt>
      <trkpt lat="44.35253" lon="0.69385">
        <ele>123</ele>
        <time>2012-02-26T09:07:50Z</time>
      </trkpt>
      <trkpt lat="44.35252" lon="0.69389">
        <ele>124</ele>
        <time>2012-02-26T09:07:51Z</time>
      </trkpt>
      <trkpt lat="44.35252" lon="0.69393">
        <ele>124</ele>
        <time>2012-02-26T09:07:52Z</time>
      </trkpt>
      <trkpt lat="44.35253" lon="0.69396">
        <ele>124</ele>
        <time>2012-02-26T09:07:53Z</time>
      </trkpt>
      <trkpt lat="44.35255" lon="0.69398">
        <ele>124</ele>
        <time>2012-02-26T09:07:54Z</time>
      </trkpt>
      <trkpt lat="44.35256" lon="0.694">
        <ele>125</ele>
        <time>2012-02-26T09:07:55Z</time>
      </trkpt>
      <trkpt lat="44.35258" lon="0.69402">
        <ele>125</ele>
        <time>2012-02-26T09:07:56Z</time>
      </trkpt>
      <trkpt lat="44.3526" lon="0.69403">
        <ele>125</ele>
        <time>2012-02-26T09:07:57Z</time>
      </trkpt>
      <trkpt lat="44.35263" lon="0.69405">
        <ele>126</ele>
        <time>2012-02-26T09:07:58Z</time>
      </trkpt>
      <trkpt lat="44.35265" lon="0.69405">
        <ele>126</ele>
        <time>2012-02-26T09:07:59Z</time>
      </trkpt>
      <trkpt lat="44.35267" lon="0.69406">
        <ele>126</ele>
        <time>2012-02-26T09:08:00Z</time>
      </trkpt>
      <trkpt lat="44.3527" lon="0.69407">
        <ele>126</ele>
        <time>2012-02-26T09:08:01Z</time>
      </trkpt>
      <trkpt lat="44.35273" lon="0.69408">
        <ele>126</ele>
        <time>2012-02-26T09:08:02Z</time>
      </trkpt>
      <trkpt lat="44.35275" lon="0.69409">
        <ele>126</ele>
        <time>2012-02-26T09:08:03Z</time>
      </trkpt>
      <trkpt lat="44.35277" lon="0.69411">
        <ele>126</ele>
        <time>2012-02-26T09:08:04Z</time>
      </trkpt>
      <trkpt lat="44.35279" lon="0.69412">
        <ele>126</ele>
        <time>2012-02-26T09:08:05Z</time>
      </trkpt>
      <trkpt lat="44.35281" lon="0.69414">
        <ele>126</ele>
        <time>2012-02-26T09:08:06Z</time>
      </trkpt>
      <trkpt lat="44.35284" lon="0.69415">
        <ele>126</ele>
        <time>2012-02-26T09:08:07Z</time>
      </trkpt>
      <trkpt lat="44.35287" lon="0.69418">
        <ele>126</ele>
        <time>2012-02-26T09:08:08Z</time>
      </trkpt>
      <trkpt lat="44.35289" lon="0.6942">
        <ele>126</ele>
        <time>2012-02-26T09:08:09Z</time>
      </trkpt>
      <trkpt lat="44.35291" lon="0.69422">
        <ele>126</ele>
        <time>2012-02-26T09:08:10Z</time>
      </trkpt>
      <trkpt lat="44.35294" lon="0.69424">
        <ele>126</ele>
        <time>2012-02-26T09:08:11Z</time>
      </trkpt>
      <trkpt lat="44.35295" lon="0.69427">
        <ele>126</ele>
        <time>2012-02-26T09:08:12Z</time>
      </trkpt>
      <trkpt lat="44.35297" lon="0.6943">
        <ele>126</ele>
        <time>2012-02-26T09:08:13Z</time>
      </trkpt>
      <trkpt lat="44.35299" lon="0.69432">
        <ele>126</ele>
        <time>2012-02-26T09:08:14Z</time>
      </trkpt>
      <trkpt lat="44.35301" lon="0.69435">
        <ele>126</ele>
        <time>2012-02-26T09:08:15Z</time>
      </trkpt>
      <trkpt lat="44.35303" lon="0.69438">
        <ele>126</ele>
        <time>2012-02-26T09:08:16Z</time>
      </trkpt>
      <trkpt lat="44.35305" lon="0.69441">
        <ele>126</ele>
        <time>2012-02-26T09:08:17Z</time>
      </trkpt>
      <trkpt lat="44.35306" lon="0.69444">
        <ele>126</ele>
        <time>2012-02-26T09:08:18Z</time>
      </trkpt>
      <trkpt lat="44.35308" lon="0.69447">
        <ele>126</ele>
        <time>2012-02-26T09:08:19Z</time>
      </trkpt>
      <trkpt lat="44.3531" lon="0.6945">
        <ele>126</ele>
        <time>2012-02-26T09:08:20Z</time>
      </trkpt>
      <trkpt lat="44.35311" lon="0.69453">
        <ele>126</ele>
        <time>2012-02-26T09:08:21Z</time>
      </trkpt>
      <trkpt lat="44.35312" lon="0.69456">
        <ele>126</ele>
        <time>2012-02-26T09:08:22Z</time>
      </trkpt>
      <trkpt lat="44.35313" lon="0.6946">
        <ele>126</ele>
        <time>2012-02-26T09:08:23Z</time>
      </trkpt>
      <trkpt lat="44.35314" lon="0.69463">
        <ele>126</ele>
        <time>2012-02-26T09:08:24Z</time>
      </trkpt>
      <trkpt lat="44.35315" lon="0.69467">
        <ele>126</ele>
        <time>2012-02-26T09:08:25Z</time>
      </trkpt>
      <trkpt lat="44.35316" lon="0.69471">
        <ele>127</ele>
        <time>2012-02-26T09:08:26Z</time>
      </trkpt>
      <trkpt lat="44.35316" lon="0.69474">
        <ele>127</ele>
        <time>2012-02-26T09:08:27Z</time>
      </trkpt>
      <trkpt lat="44.35317" lon="0.69477">
        <ele>127</ele>
        <time>2012-02-26T09:08:28Z</time>
      </trkpt>
      <trkpt lat="44.35318" lon="0.69481">
        <ele>128</ele>
        <time>2012-02-26T09:08:29Z</time>
      </trkpt>
      <trkpt lat="44.35318" lon="0.69485">
        <ele>128</ele>
        <time>2012-02-26T09:08:30Z</time>
      </trkpt>
      <trkpt lat="44.3532" lon="0.6949">
        <ele>129</ele>
        <time>2012-02-26T09:08:31Z</time>
      </trkpt>
      <trkpt lat="44.35321" lon="0.69494">
        <ele>129</ele>
        <time>2012-02-26T09:08:32Z</time>
      </trkpt>
      <trkpt lat="44.35321" lon="0.69498">
        <ele>129</ele>
        <time>2012-02-26T09:08:33Z</time>
      </trkpt>
      <trkpt lat="44.35322" lon="0.69503">
        <ele>129</ele>
        <time>2012-02-26T09:08:34Z</time>
      </trkpt>
      <trkpt lat="44.35322" lon="0.69506">
        <ele>129</ele>
        <time>2012-02-26T09:08:35Z</time>
      </trkpt>
      <trkpt lat="44.35322" lon="0.6951">
        <ele>129</ele>
        <time>2012-02-26T09:08:36Z</time>
      </trkpt>
      <trkpt lat="44.35322" lon="0.69514">
        <ele>129</ele>
        <time>2012-02-26T09:08:37Z</time>
      </trkpt>
      <trkpt lat="44.35322" lon="0.69518">
        <ele>129</ele>
        <time>2012-02-26T09:08:38Z</time>
      </trkpt>
      <trkpt lat="44.35323" lon="0.69522">
        <ele>129</ele>
        <time>2012-02-26T09:08:39Z</time>
      </trkpt>
      <trkpt lat="44.35323" lon="0.69525">
        <ele>129</ele>
        <time>2012-02-26T09:08:40Z</time>
      </trkpt>
      <trkpt lat="44.35323" lon="0.6953">
        <ele>129</ele>
        <time>2012-02-26T09:08:41Z</time>
      </trkpt>
      <trkpt lat="44.35324" lon="0.69534">
        <ele>129</ele>
        <time>2012-02-26T09:08:42Z</time>
      </trkpt>
      <trkpt lat="44.35324" lon="0.69538">
        <ele>129</ele>
        <time>2012-02-26T09:08:43Z</time>
      </trkpt>
      <trkpt lat="44.35325" lon="0.69543">
        <ele>129</ele>
        <time>2012-02-26T09:08:44Z</time>
      </trkpt>
      <trkpt lat="44.35325" lon="0.69547">
        <ele>129</ele>
        <time>2012-02-26T09:08:45Z</time>
      </trkpt>
      <trkpt lat="44.35325" lon="0.69552">
        <ele>129</ele>
        <time>2012-02-26T09:08:46Z</time>
      </trkpt>
      <trkpt lat="44.35325" lon="0.69556">
        <ele>129</ele>
        <time>2012-02-26T09:08:47Z</time>
      </trkpt>
      <trkpt lat="44.35326" lon="0.6956">
        <ele>129</ele>
        <time>2012-02-26T09:08:48Z</time>
      </trkpt>
      <trkpt lat="44.35326" lon="0.69564">
        <ele>129</ele>
        <time>2012-02-26T09:08:49Z</time>
      </trkpt>
      <trkpt lat="44.35326" lon="0.69568">
        <ele>129</ele>
        <time>2012-02-26T09:08:50Z</time>
      </trkpt>
      <trkpt lat="44.35327" lon="0.69572">
        <ele>129</ele>
        <time>2012-02-26T09:08:51Z</time>
      </trkpt>
      <trkpt lat="44.35327" lon="0.69576">
        <ele>130</ele>
        <time>2012-02-26T09:08:52Z</time>
      </trkpt>
      <trkpt lat="44.35327" lon="0.6958">
        <ele>130</ele>
        <time>2012-02-26T09:08:53Z</time>
      </trkpt>
      <trkpt lat="44.35328" lon="0.69584">
        <ele>130</ele>
        <time>2012-02-26T09:08:54Z</time>
      </trkpt>
      <trkpt lat="44.35328" lon="0.69588">
        <ele>131</ele>
        <time>2012-02-26T09:08:55Z</time>
      </trkpt>
      <trkpt lat="44.35329" lon="0.69591">
        <ele>131</ele>
        <time>2012-02-26T09:08:56Z</time>
      </trkpt>
      <trkpt lat="44.35329" lon="0.69595">
        <ele>132</ele>
        <time>2012-02-26T09:08:57Z</time>
      </trkpt>
      <trkpt lat="44.35329" lon="0.69599">
        <ele>132</ele>
        <time>2012-02-26T09:08:58Z</time>
      </trkpt>
      <trkpt lat="44.3533" lon="0.69603">
        <ele>132</ele>
        <time>2012-02-26T09:08:59Z</time>
      </trkpt>
      <trkpt lat="44.3533" lon="0.69606">
        <ele>133</ele>
        <time>2012-02-26T09:09:00Z</time>
      </trkpt>
      <trkpt lat="44.35331" lon="0.6961">
        <ele>133</ele>
        <time>2012-02-26T09:09:01Z</time>
      </trkpt>
      <trkpt lat="44.35331" lon="0.69614">
        <ele>133</ele>
        <time>2012-02-26T09:09:02Z</time>
      </trkpt>
      <trkpt lat="44.35331" lon="0.69618">
        <ele>134</ele>
        <time>2012-02-26T09:09:03Z</time>
      </trkpt>
      <trkpt lat="44.35332" lon="0.69622">
        <ele>135</ele>
        <time>2012-02-26T09:09:04Z</time>
      </trkpt>
      <trkpt lat="44.35332" lon="0.69626">
        <ele>135</ele>
        <time>2012-02-26T09:09:05Z</time>
      </trkpt>
      <trkpt lat="44.35332" lon="0.69631">
        <ele>136</ele>
        <time>2012-02-26T09:09:06Z</time>
      </trkpt>
      <trkpt lat="44.35333" lon="0.69635">
        <ele>136</ele>
        <time>2012-02-26T09:09:07Z</time>
      </trkpt>
      <trkpt lat="44.35333" lon="0.69639">
        <ele>136</ele>
        <time>2012-02-26T09:09:08Z</time>
      </trkpt>
      <trkpt lat="44.35334" lon="0.69643">
        <ele>136</ele>
        <time>2012-02-26T09:09:09Z</time>
      </trkpt>
      <trkpt lat="44.35334" lon="0.69647">
        <ele>136</ele>
        <time>2012-02-26T09:09:10Z</time>
      </trkpt>
      <trkpt lat="44.35334" lon="0.6965">
        <ele>137</ele>
        <time>2012-02-26T09:09:11Z</time>
      </trkpt>
      <trkpt lat="44.35334" lon="0.69654">
        <ele>137</ele>
        <time>2012-02-26T09:09:12Z</time>
      </trkpt>
      <trkpt lat="44.35335" lon="0.69657">
        <ele>138</ele>
        <time>2012-02-26T09:09:13Z</time>
      </trkpt>
      <trkpt lat="44.35336" lon="0.69661">
        <ele>139</ele>
        <time>2012-02-26T09:09:14Z</time>
      </trkpt>
      <trkpt lat="44.35337" lon="0.69665">
        <ele>139</ele>
        <time>2012-02-26T09:09:15Z</time>
      </trkpt>
      <trkpt lat="44.35336" lon="0.69669">
        <ele>140</ele>
        <time>2012-02-26T09:09:16Z</time>
      </trkpt>
      <trkpt lat="44.35336" lon="0.69673">
        <ele>140</ele>
        <time>2012-02-26T09:09:17Z</time>
      </trkpt>
      <trkpt lat="44.35336" lon="0.69677">
        <ele>141</ele>
        <time>2012-02-26T09:09:18Z</time>
      </trkpt>
      <trkpt lat="44.35336" lon="0.69681">
        <ele>141</ele>
        <time>2012-02-26T09:09:19Z</time>
      </trkpt>
      <trkpt lat="44.35336" lon="0.69685">
        <ele>141</ele>
        <time>2012-02-26T09:09:20Z</time>
      </trkpt>
      <trkpt lat="44.35335" lon="0.69689">
        <ele>142</ele>
        <time>2012-02-26T09:09:21Z</time>
      </trkpt>
      <trkpt lat="44.35335" lon="0.69693">
        <ele>142</ele>
        <time>2012-02-26T09:09:22Z</time>
      </trkpt>
      <trkpt lat="44.35334" lon="0.69696">
        <ele>142</ele>
        <time>2012-02-26T09:09:23Z</time>
      </trkpt>
      <trkpt lat="44.35334" lon="0.69701">
        <ele>142</ele>
        <time>2012-02-26T09:09:24Z</time>
      </trkpt>
      <trkpt lat="44.35334" lon="0.69705">
        <ele>142</ele>
        <time>2012-02-26T09:09:25Z</time>
      </trkpt>
      <trkpt lat="44.35334" lon="0.69709">
        <ele>142</ele>
        <time>2012-02-26T09:09:26Z</time>
      </trkpt>
      <trkpt lat="44.35334" lon="0.69713">
        <ele>142</ele>
        <time>2012-02-26T09:09:27Z</time>
      </trkpt>
      <trkpt lat="44.35334" lon="0.69718">
        <ele>142</ele>
        <time>2012-02-26T09:09:28Z</time>
      </trkpt>
      <trkpt lat="44.35334" lon="0.69721">
        <ele>142</ele>
        <time>2012-02-26T09:09:29Z</time>
      </trkpt>
      <trkpt lat="44.35333" lon="0.69725">
        <ele>142</ele>
        <time>2012-02-26T09:09:30Z</time>
      </trkpt>
      <trkpt lat="44.35334" lon="0.69729">
        <ele>142</ele>
        <time>2012-02-26T09:09:31Z</time>
      </trkpt>
      <trkpt lat="44.35334" lon="0.69733">
        <ele>142</ele>
        <time>2012-02-26T09:09:32Z</time>
      </trkpt>
      <trkpt lat="44.35334" lon="0.69736">
        <ele>142</ele>
        <time>2012-02-26T09:09:33Z</time>
      </trkpt>
      <trkpt lat="44.35334" lon="0.69739">
        <ele>142</ele>
        <time>2012-02-26T09:09:34Z</time>
      </trkpt>
      <trkpt lat="44.35334" lon="0.69743">
        <ele>142</ele>
        <time>2012-02-26T09:09:35Z</time>
      </trkpt>
      <trkpt lat="44.35334" lon="0.69746">
        <ele>142</ele>
        <time>2012-02-26T09:09:36Z</time>
      </trkpt>
      <trkpt lat="44.35334" lon="0.6975">
        <ele>143</ele>
        <time>2012-02-26T09:09:37Z</time>
      </trkpt>
      <trkpt lat="44.35333" lon="0.69753">
        <ele>143</ele>
        <time>2012-02-26T09:09:38Z</time>
      </trkpt>
      <trkpt lat="44.35334" lon="0.69757">
        <ele>144</ele>
        <time>2012-02-26T09:09:39Z</time>
      </trkpt>
      <trkpt lat="44.35334" lon="0.69762">
        <ele>144</ele>
        <time>2012-02-26T09:09:40Z</time>
      </trkpt>
      <trkpt lat="44.35333" lon="0.69766">
        <ele>144</ele>
        <time>2012-02-26T09:09:41Z</time>
      </trkpt>
      <trkpt lat="44.35333" lon="0.6977">
        <ele>144</ele>
        <time>2012-02-26T09:09:42Z</time>
      </trkpt>
      <trkpt lat="44.35333" lon="0.69774">
        <ele>144</ele>
        <time>2012-02-26T09:09:43Z</time>
      </trkpt>
      <trkpt lat="44.35333" lon="0.69778">
        <ele>144</ele>
        <time>2012-02-26T09:09:44Z</time>
      </trkpt>
      <trkpt lat="44.35333" lon="0.69782">
        <ele>144</ele>
        <time>2012-02-26T09:09:45Z</time>
      </trkpt>
      <trkpt lat="44.35333" lon="0.69785">
        <ele>144</ele>
        <time>2012-02-26T09:09:46Z</time>
      </trkpt>
      <trkpt lat="44.35333" lon="0.69789">
        <ele>145</ele>
        <time>2012-02-26T09:09:47Z</time>
      </trkpt>
      <trkpt lat="44.35333" lon="0.69792">
        <ele>145</ele>
        <time>2012-02-26T09:09:48Z</time>
      </trkpt>
      <trkpt lat="44.35334" lon="0.69796">
        <ele>146</ele>
        <time>2012-02-26T09:09:49Z</time>
      </trkpt>
      <trkpt lat="44.35334" lon="0.698">
        <ele>147</ele>
        <time>2012-02-26T09:09:50Z</time>
      </trkpt>
      <trkpt lat="44.35334" lon="0.69805">
        <ele>147</ele>
        <time>2012-02-26T09:09:51Z</time>
      </trkpt>
      <trkpt lat="44.35334" lon="0.69808">
        <ele>148</ele>
        <time>2012-02-26T09:09:52Z</time>
      </trkpt>
      <trkpt lat="44.35334" lon="0.69812">
        <ele>148</ele>
        <time>2012-02-26T09:09:53Z</time>
      </trkpt>
      <trkpt lat="44.35335" lon="0.69816">
        <ele>149</ele>
        <time>2012-02-26T09:09:54Z</time>
      </trkpt>
      <trkpt lat="44.35335" lon="0.6982">
        <ele>149</ele>
        <time>2012-02-26T09:09:55Z</time>
      </trkpt>
      <trkpt lat="44.35336" lon="0.69823">
        <ele>150</ele>
        <time>2012-02-26T09:09:56Z</time>
      </trkpt>
      <trkpt lat="44.35336" lon="0.69828">
        <ele>150</ele>
        <time>2012-02-26T09:09:57Z</time>
      </trkpt>
      <trkpt lat="44.35336" lon="0.69832">
        <ele>150</ele>
        <time>2012-02-26T09:09:58Z</time>
      </trkpt>
      <trkpt lat="44.35337" lon="0.69837">
        <ele>150</ele>
        <time>2012-02-26T09:09:59Z</time>
      </trkpt>
      <trkpt lat="44.35336" lon="0.69841">
        <ele>150</ele>
        <time>2012-02-26T09:10:00Z</time>
      </trkpt>
      <trkpt lat="44.35336" lon="0.69845">
        <ele>150</ele>
        <time>2012-02-26T09:10:01Z</time>
      </trkpt>
      <trkpt lat="44.35336" lon="0.69849">
        <ele>150</ele>
        <time>2012-02-26T09:10:02Z</time>
      </trkpt>
      <trkpt lat="44.35337" lon="0.69853">
        <ele>150</ele>
        <time>2012-02-26T09:10:03Z</time>
      </trkpt>
      <trkpt lat="44.35337" lon="0.69857">
        <ele>150</ele>
        <time>2012-02-26T09:10:04Z</time>
      </trkpt>
      <trkpt lat="44.35338" lon="0.6986">
        <ele>150</ele>
        <time>2012-02-26T09:10:05Z</time>
      </trkpt>
      <trkpt lat="44.35339" lon="0.69864">
        <ele>150</ele>
        <time>2012-02-26T09:10:06Z</time>
      </trkpt>
      <trkpt lat="44.35339" lon="0.69867">
        <ele>151</ele>
        <time>2012-02-26T09:10:07Z</time>
      </trkpt>
      <trkpt lat="44.35339" lon="0.6987">
        <ele>152</ele>
        <time>2012-02-26T09:10:08Z</time>
      </trkpt>
      <trkpt lat="44.35339" lon="0.69875">
        <ele>153</ele>
        <time>2012-02-26T09:10:09Z</time>
      </trkpt>
      <trkpt lat="44.35339" lon="0.69879">
        <ele>153</ele>
        <time>2012-02-26T09:10:10Z</time>
      </trkpt>
      <trkpt lat="44.35338" lon="0.69884">
        <ele>153</ele>
        <time>2012-02-26T09:10:11Z</time>
      </trkpt>
      <trkpt lat="44.35338" lon="0.69888">
        <ele>153</ele>
        <time>2012-02-26T09:10:12Z</time>
      </trkpt>
      <trkpt lat="44.35338" lon="0.69891">
        <ele>153</ele>
        <time>2012-02-26T09:10:13Z</time>
      </trkpt>
      <trkpt lat="44.35338" lon="0.69895">
        <ele>153</ele>
        <time>2012-02-26T09:10:14Z</time>
      </trkpt>
      <trkpt lat="44.35338" lon="0.69899">
        <ele>153</ele>
        <time>2012-02-26T09:10:15Z</time>
      </trkpt>
      <trkpt lat="44.35338" lon="0.69903">
        <ele>153</ele>
        <time>2012-02-26T09:10:16Z</time>
      </trkpt>
      <trkpt lat="44.3534" lon="0.69906">
        <ele>153</ele>
        <time>2012-02-26T09:10:17Z</time>
      </trkpt>
      <trkpt lat="44.3534" lon="0.6991">
        <ele>153</ele>
        <time>2012-02-26T09:10:18Z</time>
      </trkpt>
      <trkpt lat="44.3534" lon="0.69914">
        <ele>153</ele>
        <time>2012-02-26T09:10:19Z</time>
      </trkpt>
      <trkpt lat="44.3534" lon="0.69918">
        <ele>153</ele>
        <time>2012-02-26T09:10:20Z</time>
      </trkpt>
      <trkpt lat="44.3534" lon="0.69921">
        <ele>153</ele>
        <time>2012-02-26T09:10:21Z</time>
      </trkpt>
      <trkpt lat="44.3534" lon="0.69925">
        <ele>153</ele>
        <time>2012-02-26T09:10:22Z</time>
      </trkpt>
      <trkpt lat="44.3534" lon="0.69929">
        <ele>153</ele>
        <time>2012-02-26T09:10:23Z</time>
      </trkpt>
      <trkpt lat="44.3534" lon="0.69933">
        <ele>153</ele>
        <time>2012-02-26T09:10:24Z</time>
      </trkpt>
      <trkpt lat="44.35339" lon="0.69937">
        <ele>153</ele>
        <time>2012-02-26T09:10:25Z</time>
      </trkpt>
      <trkpt lat="44.35339" lon="0.6994">
        <ele>153</ele>
        <time>2012-02-26T09:10:26Z</time>
      </trkpt>
      <trkpt lat="44.35338" lon="0.69943">
        <ele>153</ele>
        <time>2012-02-26T09:10:27Z</time>
      </trkpt>
      <trkpt lat="44.35337" lon="0.69946">
        <ele>153</ele>
        <time>2012-02-26T09:10:28Z</time>
      </trkpt>
      <trkpt lat="44.35337" lon="0.6995">
        <ele>153</ele>
        <time>2012-02-26T09:10:29Z</time>
      </trkpt>
      <trkpt lat="44.35335" lon="0.69953">
        <ele>154</ele>
        <time>2012-02-26T09:10:30Z</time>
      </trkpt>
      <trkpt lat="44.35334" lon="0.69956">
        <ele>154</ele>
        <time>2012-02-26T09:10:31Z</time>
      </trkpt>
      <trkpt lat="44.35334" lon="0.69959">
        <ele>155</ele>
        <time>2012-02-26T09:10:32Z</time>
      </trkpt>
      <trkpt lat="44.35332" lon="0.69962">
        <ele>156</ele>
        <time>2012-02-26T09:10:33Z</time>
      </trkpt>
      <trkpt lat="44.35331" lon="0.69964">
        <ele>157</ele>
        <time>2012-02-26T09:10:34Z</time>
      </trkpt>
      <trkpt lat="44.35331" lon="0.69967">
        <ele>158</ele>
        <time>2012-02-26T09:10:35Z</time>
      </trkpt>
      <trkpt lat="44.35329" lon="0.69969">
        <ele>159</ele>
        <time>2012-02-26T09:10:36Z</time>
      </trkpt>
      <trkpt lat="44.35329" lon="0.69972">
        <ele>160</ele>
        <time>2012-02-26T09:10:37Z</time>
      </trkpt>
      <trkpt lat="44.35328" lon="0.69974">
        <ele>161</ele>
        <time>2012-02-26T09:10:38Z</time>
      </trkpt>
      <trkpt lat="44.35326" lon="0.69976">
        <ele>162</ele>
        <time>2012-02-26T09:10:39Z</time>
      </trkpt>
      <trkpt lat="44.35325" lon="0.69978">
        <ele>163</ele>
        <time>2012-02-26T09:10:40Z</time>
      </trkpt>
      <trkpt lat="44.35323" lon="0.6998">
        <ele>164</ele>
        <time>2012-02-26T09:10:41Z</time>
      </trkpt>
      <trkpt lat="44.35322" lon="0.69982">
        <ele>165</ele>
        <time>2012-02-26T09:10:42Z</time>
      </trkpt>
      <trkpt lat="44.35321" lon="0.69984">
        <ele>166</ele>
        <time>2012-02-26T09:10:43Z</time>
      </trkpt>
      <trkpt lat="44.35319" lon="0.69987">
        <ele>167</ele>
        <time>2012-02-26T09:10:44Z</time>
      </trkpt>
      <trkpt lat="44.35318" lon="0.69989">
        <ele>168</ele>
        <time>2012-02-26T09:10:45Z</time>
      </trkpt>
      <trkpt lat="44.35317" lon="0.69991">
        <ele>169</ele>
        <time>2012-02-26T09:10:46Z</time>
      </trkpt>
      <trkpt lat="44.35315" lon="0.69994">
        <ele>170</ele>
        <time>2012-02-26T09:10:47Z</time>
      </trkpt>
      <trkpt lat="44.35314" lon="0.69998">
        <ele>171</ele>
        <time>2012-02-26T09:10:48Z</time>
      </trkpt>
      <trkpt lat="44.35313" lon="0.7">
        <ele>172</ele>
        <time>2012-02-26T09:10:49Z</time>
      </trkpt>
      <trkpt lat="44.35312" lon="0.70003">
        <ele>173</ele>
        <time>2012-02-26T09:10:50Z</time>
      </trkpt>
      <trkpt lat="44.35312" lon="0.70006">
        <ele>174</ele>
        <time>2012-02-26T09:10:51Z</time>
      </trkpt>
      <trkpt lat="44.35311" lon="0.70009">
        <ele>175</ele>
        <time>2012-02-26T09:10:52Z</time>
      </trkpt>
      <trkpt lat="44.3531" lon="0.70012">
        <ele>176</ele>
        <time>2012-02-26T09:10:53Z</time>
      </trkpt>
      <trkpt lat="44.35309" lon="0.70015">
        <ele>177</ele>
        <time>2012-02-26T09:10:54Z</time>
      </trkpt>
      <trkpt lat="44.35308" lon="0.70018">
        <ele>178</ele>
        <time>2012-02-26T09:10:55Z</time>
      </trkpt>
      <trkpt lat="44.35307" lon="0.70021">
        <ele>179</ele>
        <time>2012-02-26T09:10:56Z</time>
      </trkpt>
      <trkpt lat="44.35307" lon="0.70024">
        <ele>180</ele>
        <time>2012-02-26T09:10:57Z</time>
      </trkpt>
      <trkpt lat="44.35306" lon="0.70028">
        <ele>181</ele>
        <time>2012-02-26T09:10:58Z</time>
      </trkpt>
      <trkpt lat="44.35305" lon="0.70032">
        <ele>181</ele>
        <time>2012-02-26T09:10:59Z</time>
      </trkpt>
      <trkpt lat="44.35305" lon="0.70035">
        <ele>181</ele>
        <time>2012-02-26T09:11:00Z</time>
      </trkpt>
      <trkpt lat="44.35305" lon="0.70039">
        <ele>181</ele>
        <time>2012-02-26T09:11:01Z</time>
      </trkpt>
      <trkpt lat="44.35304" lon="0.70043">
        <ele>181</ele>
        <time>2012-02-26T09:11:02Z</time>
      </trkpt>
      <trkpt lat="44.35304" lon="0.70046">
        <ele>181</ele>
        <time>2012-02-26T09:11:03Z</time>
      </trkpt>
      <trkpt lat="44.35302" lon="0.70048">
        <ele>181</ele>
        <time>2012-02-26T09:11:04Z</time>
      </trkpt>
      <trkpt lat="44.35301" lon="0.70051">
        <ele>181</ele>
        <time>2012-02-26T09:11:05Z</time>
      </trkpt>
      <trkpt lat="44.353" lon="0.70054">
        <ele>181</ele>
        <time>2012-02-26T09:11:06Z</time>
      </trkpt>
      <trkpt lat="44.353" lon="0.70057">
        <ele>181</ele>
        <time>2012-02-26T09:11:07Z</time>
      </trkpt>
      <trkpt lat="44.353" lon="0.70061">
        <ele>181</ele>
        <time>2012-02-26T09:11:08Z</time>
      </trkpt>
      <trkpt lat="44.353" lon="0.70064">
        <ele>181</ele>
        <time>2012-02-26T09:11:09Z</time>
      </trkpt>
      <trkpt lat="44.35299" lon="0.70067">
        <ele>181</ele>
        <time>2012-02-26T09:11:10Z</time>
      </trkpt>
      <trkpt lat="44.35299" lon="0.7007">
        <ele>181</ele>
        <time>2012-02-26T09:11:11Z</time>
      </trkpt>
      <trkpt lat="44.35299" lon="0.70073">
        <ele>181</ele>
        <time>2012-02-26T09:11:12Z</time>
      </trkpt>
      <trkpt lat="44.35299" lon="0.70075">
        <ele>181</ele>
        <time>2012-02-26T09:11:13Z</time>
      </trkpt>
      <trkpt lat="44.353" lon="0.70078">
        <ele>181</ele>
        <time>2012-02-26T09:11:14Z</time>
      </trkpt>
      <trkpt lat="44.353" lon="0.70081">
        <ele>181</ele>
        <time>2012-02-26T09:11:15Z</time>
      </trkpt>
      <trkpt lat="44.353" lon="0.70083">
        <ele>181</ele>
        <time>2012-02-26T09:11:16Z</time>
      </trkpt>
      <trkpt lat="44.353" lon="0.70085">
        <ele>181</ele>
        <time>2012-02-26T09:11:17Z</time>
      </trkpt>
      <trkpt lat="44.353" lon="0.70088">
        <ele>181</ele>
        <time>2012-02-26T09:11:18Z</time>
      </trkpt>
      <trkpt lat="44.35301" lon="0.70091">
        <ele>181</ele>
        <time>2012-02-26T09:11:19Z</time>
      </trkpt>
      <trkpt lat="44.35301" lon="0.70093">
        <ele>181</ele>
        <time>2012-02-26T09:11:20Z</time>
      </trkpt>
      <trkpt lat="44.35302" lon="0.70095">
        <ele>181</ele>
        <time>2012-02-26T09:11:21Z</time>
      </trkpt>
      <trkpt lat="44.35304" lon="0.70098">
        <ele>181</ele>
        <time>2012-02-26T09:11:23Z</time>
      </trkpt>
      <trkpt lat="44.35307" lon="0.70099">
        <ele>182</ele>
        <time>2012-02-26T09:11:25Z</time>
      </trkpt>
      <trkpt lat="44.3531" lon="0.70099">
        <ele>182</ele>
        <time>2012-02-26T09:11:26Z</time>
      </trkpt>
      <trkpt lat="44.35312" lon="0.701">
        <ele>183</ele>
        <time>2012-02-26T09:11:27Z</time>
      </trkpt>
      <trkpt lat="44.35314" lon="0.701">
        <ele>183</ele>
        <time>2012-02-26T09:11:28Z</time>
      </trkpt>
      <trkpt lat="44.35316" lon="0.70101">
        <ele>183</ele>
        <time>2012-02-26T09:11:29Z</time>
      </trkpt>
      <trkpt lat="44.35317" lon="0.70101">
        <ele>183</ele>
        <time>2012-02-26T09:11:30Z</time>
      </trkpt>
      <trkpt lat="44.3532" lon="0.70101">
        <ele>183</ele>
        <time>2012-02-26T09:11:31Z</time>
      </trkpt>
      <trkpt lat="44.35323" lon="0.701">
        <ele>183</ele>
        <time>2012-02-26T09:11:32Z</time>
      </trkpt>
      <trkpt lat="44.35324" lon="0.701">
        <ele>183</ele>
        <time>2012-02-26T09:11:33Z</time>
      </trkpt>
      <trkpt lat="44.35326" lon="0.701">
        <ele>183</ele>
        <time>2012-02-26T09:11:34Z</time>
      </trkpt>
      <trkpt lat="44.35329" lon="0.70099">
        <ele>183</ele>
        <time>2012-02-26T09:11:35Z</time>
      </trkpt>
      <trkpt lat="44.35331" lon="0.70098">
        <ele>183</ele>
        <time>2012-02-26T09:11:36Z</time>
      </trkpt>
      <trkpt lat="44.35334" lon="0.70098">
        <ele>183</ele>
        <time>2012-02-26T09:11:37Z</time>
      </trkpt>
      <trkpt lat="44.35336" lon="0.70097">
        <ele>183</ele>
        <time>2012-02-26T09:11:38Z</time>
      </trkpt>
      <trkpt lat="44.35338" lon="0.70096">
        <ele>183</ele>
        <time>2012-02-26T09:11:39Z</time>
      </trkpt>
      <trkpt lat="44.3534" lon="0.70096">
        <ele>183</ele>
        <time>2012-02-26T09:11:40Z</time>
      </trkpt>
      <trkpt lat="44.35343" lon="0.70095">
        <ele>183</ele>
        <time>2012-02-26T09:11:41Z</time>
      </trkpt>
      <trkpt lat="44.35346" lon="0.70094">
        <ele>183</ele>
        <time>2012-02-26T09:11:42Z</time>
      </trkpt>
      <trkpt lat="44.35348" lon="0.70094">
        <ele>183</ele>
        <time>2012-02-26T09:11:43Z</time>
      </trkpt>
      <trkpt lat="44.3535" lon="0.70094">
        <ele>183</ele>
        <time>2012-02-26T09:11:44Z</time>
      </trkpt>
      <trkpt lat="44.35352" lon="0.70094">
        <ele>183</ele>
        <time>2012-02-26T09:11:45Z</time>
      </trkpt>
      <trkpt lat="44.35355" lon="0.70093">
        <ele>183</ele>
        <time>2012-02-26T09:11:46Z</time>
      </trkpt>
      <trkpt lat="44.35356" lon="0.70093">
        <ele>183</ele>
        <time>2012-02-26T09:11:47Z</time>
      </trkpt>
      <trkpt lat="44.35358" lon="0.70093">
        <ele>183</ele>
        <time>2012-02-26T09:11:48Z</time>
      </trkpt>
      <trkpt lat="44.3536" lon="0.70092">
        <ele>183</ele>
        <time>2012-02-26T09:11:49Z</time>
      </trkpt>
      <trkpt lat="44.35362" lon="0.70091">
        <ele>184</ele>
        <time>2012-02-26T09:11:50Z</time>
      </trkpt>
      <trkpt lat="44.35364" lon="0.70091">
        <ele>184</ele>
        <time>2012-02-26T09:11:51Z</time>
      </trkpt>
      <trkpt lat="44.35366" lon="0.7009">
        <ele>185</ele>
        <time>2012-02-26T09:11:52Z</time>
      </trkpt>
      <trkpt lat="44.35369" lon="0.7009">
        <ele>185</ele>
        <time>2012-02-26T09:11:53Z</time>
      </trkpt>
      <trkpt lat="44.35371" lon="0.70089">
        <ele>185</ele>
        <time>2012-02-26T09:11:54Z</time>
      </trkpt>
      <trkpt lat="44.35374" lon="0.70088">
        <ele>185</ele>
        <time>2012-02-26T09:11:55Z</time>
      </trkpt>
      <trkpt lat="44.35376" lon="0.70088">
        <ele>186</ele>
        <time>2012-02-26T09:11:56Z</time>
      </trkpt>
      <trkpt lat="44.35378" lon="0.70087">
        <ele>186</ele>
        <time>2012-02-26T09:11:57Z</time>
      </trkpt>
      <trkpt lat="44.35381" lon="0.70086">
        <ele>186</ele>
        <time>2012-02-26T09:11:58Z</time>
      </trkpt>
      <trkpt lat="44.35383" lon="0.70086">
        <ele>186</ele>
        <time>2012-02-26T09:11:59Z</time>
      </trkpt>
      <trkpt lat="44.35386" lon="0.70086">
        <ele>186</ele>
        <time>2012-02-26T09:12:00Z</time>
      </trkpt>
      <trkpt lat="44.35389" lon="0.70086">
        <ele>186</ele>
        <time>2012-02-26T09:12:01Z</time>
      </trkpt>
      <trkpt lat="44.35391" lon="0.70086">
        <ele>186</ele>
        <time>2012-02-26T09:12:02Z</time>
      </trkpt>
      <trkpt lat="44.35394" lon="0.70085">
        <ele>186</ele>
        <time>2012-02-26T09:12:03Z</time>
      </trkpt>
      <trkpt lat="44.35397" lon="0.70085">
        <ele>186</ele>
        <time>2012-02-26T09:12:04Z</time>
      </trkpt>
      <trkpt lat="44.35399" lon="0.70085">
        <ele>186</ele>
        <time>2012-02-26T09:12:05Z</time>
      </trkpt>
      <trkpt lat="44.35402" lon="0.70085">
        <ele>186</ele>
        <time>2012-02-26T09:12:06Z</time>
      </trkpt>
      <trkpt lat="44.35404" lon="0.70084">
        <ele>186</ele>
        <time>2012-02-26T09:12:07Z</time>
      </trkpt>
      <trkpt lat="44.35407" lon="0.70084">
        <ele>186</ele>
        <time>2012-02-26T09:12:08Z</time>
      </trkpt>
      <trkpt lat="44.3541" lon="0.70084">
        <ele>186</ele>
        <time>2012-02-26T09:12:09Z</time>
      </trkpt>
      <trkpt lat="44.35413" lon="0.70084">
        <ele>186</ele>
        <time>2012-02-26T09:12:10Z</time>
      </trkpt>
      <trkpt lat="44.35416" lon="0.70084">
        <ele>186</ele>
        <time>2012-02-26T09:12:11Z</time>
      </trkpt>
      <trkpt lat="44.35418" lon="0.70085">
        <ele>186</ele>
        <time>2012-02-26T09:12:12Z</time>
      </trkpt>
      <trkpt lat="44.3542" lon="0.70085">
        <ele>186</ele>
        <time>2012-02-26T09:12:13Z</time>
      </trkpt>
      <trkpt lat="44.35421" lon="0.70086">
        <ele>186</ele>
        <time>2012-02-26T09:12:14Z</time>
      </trkpt>
      <trkpt lat="44.35423" lon="0.70086">
        <ele>185</ele>
        <time>2012-02-26T09:12:15Z</time>
      </trkpt>
      <trkpt lat="44.35426" lon="0.70087">
        <ele>185</ele>
        <time>2012-02-26T09:12:16Z</time>
      </trkpt>
      <trkpt lat="44.35428" lon="0.70088">
        <ele>185</ele>
        <time>2012-02-26T09:12:17Z</time>
      </trkpt>
      <trkpt lat="44.3543" lon="0.7009">
        <ele>185</ele>
        <time>2012-02-26T09:12:18Z</time>
      </trkpt>
      <trkpt lat="44.35432" lon="0.70091">
        <ele>185</ele>
        <time>2012-02-26T09:12:19Z</time>
      </trkpt>
      <trkpt lat="44.35434" lon="0.70093">
        <ele>185</ele>
        <time>2012-02-26T09:12:20Z</time>
      </trkpt>
      <trkpt lat="44.35437" lon="0.70095">
        <ele>185</ele>
        <time>2012-02-26T09:12:21Z</time>
      </trkpt>
      <trkpt lat="44.35439" lon="0.70097">
        <ele>185</ele>
        <time>2012-02-26T09:12:22Z</time>
      </trkpt>
      <trkpt lat="44.35441" lon="0.701">
        <ele>185</ele>
        <time>2012-02-26T09:12:23Z</time>
      </trkpt>
      <trkpt lat="44.35443" lon="0.70101">
        <ele>185</ele>
        <time>2012-02-26T09:12:24Z</time>
      </trkpt>
      <trkpt lat="44.35445" lon="0.70103">
        <ele>185</ele>
        <time>2012-02-26T09:12:25Z</time>
      </trkpt>
      <trkpt lat="44.35447" lon="0.70106">
        <ele>185</ele>
        <time>2012-02-26T09:12:26Z</time>
      </trkpt>
      <trkpt lat="44.35449" lon="0.70108">
        <ele>185</ele>
        <time>2012-02-26T09:12:27Z</time>
      </trkpt>
      <trkpt lat="44.3545" lon="0.70111">
        <ele>185</ele>
        <time>2012-02-26T09:12:28Z</time>
      </trkpt>
      <trkpt lat="44.35452" lon="0.70114">
        <ele>185</ele>
        <time>2012-02-26T09:12:29Z</time>
      </trkpt>
      <trkpt lat="44.35453" lon="0.70117">
        <ele>185</ele>
        <time>2012-02-26T09:12:30Z</time>
      </trkpt>
      <trkpt lat="44.35453" lon="0.70121">
        <ele>185</ele>
        <time>2012-02-26T09:12:31Z</time>
      </trkpt>
      <trkpt lat="44.35453" lon="0.70125">
        <ele>185</ele>
        <time>2012-02-26T09:12:32Z</time>
      </trkpt>
      <trkpt lat="44.35453" lon="0.70128">
        <ele>185</ele>
        <time>2012-02-26T09:12:33Z</time>
      </trkpt>
      <trkpt lat="44.35453" lon="0.70131">
        <ele>185</ele>
        <time>2012-02-26T09:12:34Z</time>
      </trkpt>
      <trkpt lat="44.35453" lon="0.70135">
        <ele>185</ele>
        <time>2012-02-26T09:12:35Z</time>
      </trkpt>
      <trkpt lat="44.35453" lon="0.70138">
        <ele>185</ele>
        <time>2012-02-26T09:12:36Z</time>
      </trkpt>
      <trkpt lat="44.35453" lon="0.70142">
        <ele>185</ele>
        <time>2012-02-26T09:12:37Z</time>
      </trkpt>
      <trkpt lat="44.35452" lon="0.70145">
        <ele>185</ele>
        <time>2012-02-26T09:12:38Z</time>
      </trkpt>
      <trkpt lat="44.35451" lon="0.70149">
        <ele>185</ele>
        <time>2012-02-26T09:12:39Z</time>
      </trkpt>
      <trkpt lat="44.3545" lon="0.70152">
        <ele>185</ele>
        <time>2012-02-26T09:12:40Z</time>
      </trkpt>
      <trkpt lat="44.35449" lon="0.70155">
        <ele>185</ele>
        <time>2012-02-26T09:12:41Z</time>
      </trkpt>
      <trkpt lat="44.35449" lon="0.70159">
        <ele>185</ele>
        <time>2012-02-26T09:12:42Z</time>
      </trkpt>
      <trkpt lat="44.35449" lon="0.70162">
        <ele>185</ele>
        <time>2012-02-26T09:12:43Z</time>
      </trkpt>
      <trkpt lat="44.35449" lon="0.70165">
        <ele>185</ele>
        <time>2012-02-26T09:12:44Z</time>
      </trkpt>
      <trkpt lat="44.35449" lon="0.70169">
        <ele>185</ele>
        <time>2012-02-26T09:12:45Z</time>
      </trkpt>
      <trkpt lat="44.35449" lon="0.70172">
        <ele>186</ele>
        <time>2012-02-26T09:12:46Z</time>
      </trkpt>
      <trkpt lat="44.3545" lon="0.70175">
        <ele>186</ele>
        <time>2012-02-26T09:12:47Z</time>
      </trkpt>
      <trkpt lat="44.3545" lon="0.70179">
        <ele>186</ele>
        <time>2012-02-26T09:12:48Z</time>
      </trkpt>
      <trkpt lat="44.3545" lon="0.70182">
        <ele>187</ele>
        <time>2012-02-26T09:12:49Z</time>
      </trkpt>
      <trkpt lat="44.3545" lon="0.70185">
        <ele>187</ele>
        <time>2012-02-26T09:12:50Z</time>
      </trkpt>
      <trkpt lat="44.35451" lon="0.70188">
        <ele>187</ele>
        <time>2012-02-26T09:12:51Z</time>
      </trkpt>
      <trkpt lat="44.35452" lon="0.70191">
        <ele>188</ele>
        <time>2012-02-26T09:12:52Z</time>
      </trkpt>
      <trkpt lat="44.35452" lon="0.70195">
        <ele>188</ele>
        <time>2012-02-26T09:12:53Z</time>
      </trkpt>
      <trkpt lat="44.35453" lon="0.70198">
        <ele>188</ele>
        <time>2012-02-26T09:12:54Z</time>
      </trkpt>
      <trkpt lat="44.35454" lon="0.70202">
        <ele>189</ele>
        <time>2012-02-26T09:12:55Z</time>
      </trkpt>
      <trkpt lat="44.35456" lon="0.70207">
        <ele>189</ele>
        <time>2012-02-26T09:12:56Z</time>
      </trkpt>
      <trkpt lat="44.35457" lon="0.7021">
        <ele>189</ele>
        <time>2012-02-26T09:12:57Z</time>
      </trkpt>
      <trkpt lat="44.35457" lon="0.70214">
        <ele>189</ele>
        <time>2012-02-26T09:12:58Z</time>
      </trkpt>
      <trkpt lat="44.35458" lon="0.70218">
        <ele>189</ele>
        <time>2012-02-26T09:12:59Z</time>
      </trkpt>
      <trkpt lat="44.35458" lon="0.70221">
        <ele>189</ele>
        <time>2012-02-26T09:13:00Z</time>
      </trkpt>
      <trkpt lat="44.35459" lon="0.70225">
        <ele>189</ele>
        <time>2012-02-26T09:13:01Z</time>
      </trkpt>
      <trkpt lat="44.3546" lon="0.70228">
        <ele>189</ele>
        <time>2012-02-26T09:13:02Z</time>
      </trkpt>
      <trkpt lat="44.3546" lon="0.70232">
        <ele>189</ele>
        <time>2012-02-26T09:13:03Z</time>
      </trkpt>
      <trkpt lat="44.35461" lon="0.70236">
        <ele>189</ele>
        <time>2012-02-26T09:13:04Z</time>
      </trkpt>
      <trkpt lat="44.35461" lon="0.70239">
        <ele>189</ele>
        <time>2012-02-26T09:13:05Z</time>
      </trkpt>
      <trkpt lat="44.35462" lon="0.70243">
        <ele>189</ele>
        <time>2012-02-26T09:13:06Z</time>
      </trkpt>
      <trkpt lat="44.35462" lon="0.70246">
        <ele>190</ele>
        <time>2012-02-26T09:13:07Z</time>
      </trkpt>
      <trkpt lat="44.35463" lon="0.7025">
        <ele>190</ele>
        <time>2012-02-26T09:13:08Z</time>
      </trkpt>
      <trkpt lat="44.35464" lon="0.70253">
        <ele>190</ele>
        <time>2012-02-26T09:13:09Z</time>
      </trkpt>
      <trkpt lat="44.35465" lon="0.70256">
        <ele>190</ele>
        <time>2012-02-26T09:13:10Z</time>
      </trkpt>
      <trkpt lat="44.35465" lon="0.70259">
        <ele>191</ele>
        <time>2012-02-26T09:13:11Z</time>
      </trkpt>
      <trkpt lat="44.35466" lon="0.70262">
        <ele>191</ele>
        <time>2012-02-26T09:13:12Z</time>
      </trkpt>
      <trkpt lat="44.35467" lon="0.70265">
        <ele>191</ele>
        <time>2012-02-26T09:13:13Z</time>
      </trkpt>
      <trkpt lat="44.35468" lon="0.70268">
        <ele>191</ele>
        <time>2012-02-26T09:13:14Z</time>
      </trkpt>
      <trkpt lat="44.35469" lon="0.70271">
        <ele>191</ele>
        <time>2012-02-26T09:13:15Z</time>
      </trkpt>
      <trkpt lat="44.35471" lon="0.70273">
        <ele>191</ele>
        <time>2012-02-26T09:13:16Z</time>
      </trkpt>
      <trkpt lat="44.35474" lon="0.70275">
        <ele>191</ele>
        <time>2012-02-26T09:13:17Z</time>
      </trkpt>
      <trkpt lat="44.35477" lon="0.70276">
        <ele>191</ele>
        <time>2012-02-26T09:13:18Z</time>
      </trkpt>
      <trkpt lat="44.35479" lon="0.70276">
        <ele>191</ele>
        <time>2012-02-26T09:13:19Z</time>
      </trkpt>
      <trkpt lat="44.35483" lon="0.70276">
        <ele>191</ele>
        <time>2012-02-26T09:13:20Z</time>
      </trkpt>
      <trkpt lat="44.35486" lon="0.70276">
        <ele>191</ele>
        <time>2012-02-26T09:13:21Z</time>
      </trkpt>
      <trkpt lat="44.3549" lon="0.70276">
        <ele>191</ele>
        <time>2012-02-26T09:13:22Z</time>
      </trkpt>
      <trkpt lat="44.35494" lon="0.70275">
        <ele>191</ele>
        <time>2012-02-26T09:13:23Z</time>
      </trkpt>
      <trkpt lat="44.35498" lon="0.70275">
        <ele>191</ele>
        <time>2012-02-26T09:13:24Z</time>
      </trkpt>
      <trkpt lat="44.35501" lon="0.70274">
        <ele>191</ele>
        <time>2012-02-26T09:13:25Z</time>
      </trkpt>
      <trkpt lat="44.35504" lon="0.70273">
        <ele>191</ele>
        <time>2012-02-26T09:13:26Z</time>
      </trkpt>
      <trkpt lat="44.35508" lon="0.70272">
        <ele>191</ele>
        <time>2012-02-26T09:13:27Z</time>
      </trkpt>
      <trkpt lat="44.35511" lon="0.70271">
        <ele>191</ele>
        <time>2012-02-26T09:13:28Z</time>
      </trkpt>
      <trkpt lat="44.35515" lon="0.7027">
        <ele>191</ele>
        <time>2012-02-26T09:13:29Z</time>
      </trkpt>
      <trkpt lat="44.35519" lon="0.70269">
        <ele>191</ele>
        <time>2012-02-26T09:13:30Z</time>
      </trkpt>
      <trkpt lat="44.35523" lon="0.70267">
        <ele>191</ele>
        <time>2012-02-26T09:13:31Z</time>
      </trkpt>
      <trkpt lat="44.35527" lon="0.70266">
        <ele>191</ele>
        <time>2012-02-26T09:13:32Z</time>
      </trkpt>
      <trkpt lat="44.35532" lon="0.70265">
        <ele>191</ele>
        <time>2012-02-26T09:13:33Z</time>
      </trkpt>
      <trkpt lat="44.35537" lon="0.70263">
        <ele>191</ele>
        <time>2012-02-26T09:13:34Z</time>
      </trkpt>
      <trkpt lat="44.35541" lon="0.70262">
        <ele>191</ele>
        <time>2012-02-26T09:13:35Z</time>
      </trkpt>
      <trkpt lat="44.35545" lon="0.70261">
        <ele>191</ele>
        <time>2012-02-26T09:13:36Z</time>
      </trkpt>
      <trkpt lat="44.3555" lon="0.7026">
        <ele>191</ele>
        <time>2012-02-26T09:13:37Z</time>
      </trkpt>
      <trkpt lat="44.35554" lon="0.70258">
        <ele>191</ele>
        <time>2012-02-26T09:13:38Z</time>
      </trkpt>
      <trkpt lat="44.35559" lon="0.70257">
        <ele>191</ele>
        <time>2012-02-26T09:13:39Z</time>
      </trkpt>
      <trkpt lat="44.35563" lon="0.70255">
        <ele>191</ele>
        <time>2012-02-26T09:13:40Z</time>
      </trkpt>
      <trkpt lat="44.35568" lon="0.70254">
        <ele>192</ele>
        <time>2012-02-26T09:13:41Z</time>
      </trkpt>
      <trkpt lat="44.35573" lon="0.70252">
        <ele>192</ele>
        <time>2012-02-26T09:13:42Z</time>
      </trkpt>
      <trkpt lat="44.35578" lon="0.7025">
        <ele>192</ele>
        <time>2012-02-26T09:13:43Z</time>
      </trkpt>
      <trkpt lat="44.35584" lon="0.70248">
        <ele>192</ele>
        <time>2012-02-26T09:13:44Z</time>
      </trkpt>
      <trkpt lat="44.35589" lon="0.70246">
        <ele>192</ele>
        <time>2012-02-26T09:13:45Z</time>
      </trkpt>
      <trkpt lat="44.35595" lon="0.70244">
        <ele>192</ele>
        <time>2012-02-26T09:13:46Z</time>
      </trkpt>
      <trkpt lat="44.356" lon="0.70243">
        <ele>192</ele>
        <time>2012-02-26T09:13:47Z</time>
      </trkpt>
      <trkpt lat="44.35606" lon="0.70241">
        <ele>192</ele>
        <time>2012-02-26T09:13:48Z</time>
      </trkpt>
      <trkpt lat="44.35611" lon="0.7024">
        <ele>192</ele>
        <time>2012-02-26T09:13:49Z</time>
      </trkpt>
      <trkpt lat="44.35617" lon="0.70239">
        <ele>191</ele>
        <time>2012-02-26T09:13:50Z</time>
      </trkpt>
      <trkpt lat="44.35622" lon="0.70239">
        <ele>191</ele>
        <time>2012-02-26T09:13:51Z</time>
      </trkpt>
      <trkpt lat="44.35628" lon="0.70239">
        <ele>190</ele>
        <time>2012-02-26T09:13:52Z</time>
      </trkpt>
      <trkpt lat="44.35633" lon="0.70239">
        <ele>190</ele>
        <time>2012-02-26T09:13:53Z</time>
      </trkpt>
      <trkpt lat="44.35638" lon="0.7024">
        <ele>190</ele>
        <time>2012-02-26T09:13:54Z</time>
      </trkpt>
      <trkpt lat="44.35643" lon="0.70242">
        <ele>190</ele>
        <time>2012-02-26T09:13:55Z</time>
      </trkpt>
      <trkpt lat="44.35649" lon="0.70244">
        <ele>190</ele>
        <time>2012-02-26T09:13:56Z</time>
      </trkpt>
      <trkpt lat="44.35654" lon="0.70245">
        <ele>189</ele>
        <time>2012-02-26T09:13:57Z</time>
      </trkpt>
      <trkpt lat="44.35659" lon="0.70247">
        <ele>189</ele>
        <time>2012-02-26T09:13:58Z</time>
      </trkpt>
      <trkpt lat="44.35664" lon="0.70249">
        <ele>189</ele>
        <time>2012-02-26T09:13:59Z</time>
      </trkpt>
      <trkpt lat="44.35669" lon="0.70251">
        <ele>189</ele>
        <time>2012-02-26T09:14:00Z</time>
      </trkpt>
      <trkpt lat="44.35675" lon="0.70253">
        <ele>189</ele>
        <time>2012-02-26T09:14:01Z</time>
      </trkpt>
      <trkpt lat="44.3568" lon="0.70255">
        <ele>189</ele>
        <time>2012-02-26T09:14:02Z</time>
      </trkpt>
      <trkpt lat="44.35685" lon="0.70257">
        <ele>189</ele>
        <time>2012-02-26T09:14:03Z</time>
      </trkpt>
      <trkpt lat="44.3569" lon="0.70258">
        <ele>189</ele>
        <time>2012-02-26T09:14:04Z</time>
      </trkpt>
      <trkpt lat="44.35695" lon="0.7026">
        <ele>188</ele>
        <time>2012-02-26T09:14:05Z</time>
      </trkpt>
      <trkpt lat="44.357" lon="0.70262">
        <ele>188</ele>
        <time>2012-02-26T09:14:06Z</time>
      </trkpt>
      <trkpt lat="44.35705" lon="0.70264">
        <ele>188</ele>
        <time>2012-02-26T09:14:07Z</time>
      </trkpt>
      <trkpt lat="44.3571" lon="0.70266">
        <ele>188</ele>
        <time>2012-02-26T09:14:08Z</time>
      </trkpt>
      <trkpt lat="44.35716" lon="0.70267">
        <ele>187</ele>
        <time>2012-02-26T09:14:09Z</time>
      </trkpt>
      <trkpt lat="44.35721" lon="0.70269">
        <ele>187</ele>
        <time>2012-02-26T09:14:10Z</time>
      </trkpt>
      <trkpt lat="44.35727" lon="0.70271">
        <ele>187</ele>
        <time>2012-02-26T09:14:11Z</time>
      </trkpt>
      <trkpt lat="44.35733" lon="0.70273">
        <ele>187</ele>
        <time>2012-02-26T09:14:12Z</time>
      </trkpt>
      <trkpt lat="44.35738" lon="0.70275">
        <ele>187</ele>
        <time>2012-02-26T09:14:13Z</time>
      </trkpt>
      <trkpt lat="44.35744" lon="0.70277">
        <ele>186</ele>
        <time>2012-02-26T09:14:14Z</time>
      </trkpt>
      <trkpt lat="44.35751" lon="0.70279">
        <ele>186</ele>
        <time>2012-02-26T09:14:15Z</time>
      </trkpt>
      <trkpt lat="44.35757" lon="0.70281">
        <ele>186</ele>
        <time>2012-02-26T09:14:16Z</time>
      </trkpt>
      <trkpt lat="44.35763" lon="0.70283">
        <ele>186</ele>
        <time>2012-02-26T09:14:17Z</time>
      </trkpt>
      <trkpt lat="44.35769" lon="0.70285">
        <ele>186</ele>
        <time>2012-02-26T09:14:18Z</time>
      </trkpt>
      <trkpt lat="44.35775" lon="0.70287">
        <ele>185</ele>
        <time>2012-02-26T09:14:19Z</time>
      </trkpt>
      <trkpt lat="44.35782" lon="0.70289">
        <ele>185</ele>
        <time>2012-02-26T09:14:20Z</time>
      </trkpt>
      <trkpt lat="44.35788" lon="0.70291">
        <ele>185</ele>
        <time>2012-02-26T09:14:21Z</time>
      </trkpt>
      <trkpt lat="44.35794" lon="0.70293">
        <ele>185</ele>
        <time>2012-02-26T09:14:22Z</time>
      </trkpt>
      <trkpt lat="44.358" lon="0.70295">
        <ele>185</ele>
        <time>2012-02-26T09:14:23Z</time>
      </trkpt>
      <trkpt lat="44.35806" lon="0.70297">
        <ele>185</ele>
        <time>2012-02-26T09:14:24Z</time>
      </trkpt>
      <trkpt lat="44.35812" lon="0.70301">
        <ele>185</ele>
        <time>2012-02-26T09:14:25Z</time>
      </trkpt>
      <trkpt lat="44.35817" lon="0.70303">
        <ele>185</ele>
        <time>2012-02-26T09:14:26Z</time>
      </trkpt>
      <trkpt lat="44.35823" lon="0.70306">
        <ele>185</ele>
        <time>2012-02-26T09:14:27Z</time>
      </trkpt>
      <trkpt lat="44.35829" lon="0.70308">
        <ele>185</ele>
        <time>2012-02-26T09:14:28Z</time>
      </trkpt>
      <trkpt lat="44.35835" lon="0.7031">
        <ele>185</ele>
        <time>2012-02-26T09:14:29Z</time>
      </trkpt>
      <trkpt lat="44.35841" lon="0.70312">
        <ele>185</ele>
        <time>2012-02-26T09:14:30Z</time>
      </trkpt>
      <trkpt lat="44.35847" lon="0.70314">
        <ele>185</ele>
        <time>2012-02-26T09:14:31Z</time>
      </trkpt>
      <trkpt lat="44.35854" lon="0.70316">
        <ele>185</ele>
        <time>2012-02-26T09:14:32Z</time>
      </trkpt>
      <trkpt lat="44.3586" lon="0.70319">
        <ele>185</ele>
        <time>2012-02-26T09:14:33Z</time>
      </trkpt>
      <trkpt lat="44.35867" lon="0.70321">
        <ele>185</ele>
        <time>2012-02-26T09:14:34Z</time>
      </trkpt>
      <trkpt lat="44.35873" lon="0.70323">
        <ele>185</ele>
        <time>2012-02-26T09:14:35Z</time>
      </trkpt>
      <trkpt lat="44.3588" lon="0.70325">
        <ele>185</ele>
        <time>2012-02-26T09:14:36Z</time>
      </trkpt>
      <trkpt lat="44.35887" lon="0.70328">
        <ele>185</ele>
        <time>2012-02-26T09:14:37Z</time>
      </trkpt>
      <trkpt lat="44.35894" lon="0.70329">
        <ele>185</ele>
        <time>2012-02-26T09:14:38Z</time>
      </trkpt>
      <trkpt lat="44.359" lon="0.70332">
        <ele>185</ele>
        <time>2012-02-26T09:14:39Z</time>
      </trkpt>
      <trkpt lat="44.35907" lon="0.70334">
        <ele>185</ele>
        <time>2012-02-26T09:14:40Z</time>
      </trkpt>
      <trkpt lat="44.35914" lon="0.70336">
        <ele>185</ele>
        <time>2012-02-26T09:14:41Z</time>
      </trkpt>
      <trkpt lat="44.35921" lon="0.70338">
        <ele>185</ele>
        <time>2012-02-26T09:14:42Z</time>
      </trkpt>
      <trkpt lat="44.35928" lon="0.70341">
        <ele>185</ele>
        <time>2012-02-26T09:14:43Z</time>
      </trkpt>
      <trkpt lat="44.35935" lon="0.70343">
        <ele>185</ele>
        <time>2012-02-26T09:14:44Z</time>
      </trkpt>
      <trkpt lat="44.35942" lon="0.70345">
        <ele>185</ele>
        <time>2012-02-26T09:14:45Z</time>
      </trkpt>
      <trkpt lat="44.35948" lon="0.70347">
        <ele>185</ele>
        <time>2012-02-26T09:14:46Z</time>
      </trkpt>
      <trkpt lat="44.35955" lon="0.7035">
        <ele>185</ele>
        <time>2012-02-26T09:14:47Z</time>
      </trkpt>
      <trkpt lat="44.35962" lon="0.70352">
        <ele>185</ele>
        <time>2012-02-26T09:14:48Z</time>
      </trkpt>
      <trkpt lat="44.35968" lon="0.70355">
        <ele>185</ele>
        <time>2012-02-26T09:14:49Z</time>
      </trkpt>
      <trkpt lat="44.35975" lon="0.70357">
        <ele>185</ele>
        <time>2012-02-26T09:14:50Z</time>
      </trkpt>
      <trkpt lat="44.35981" lon="0.7036">
        <ele>185</ele>
        <time>2012-02-26T09:14:51Z</time>
      </trkpt>
      <trkpt lat="44.35988" lon="0.70362">
        <ele>185</ele>
        <time>2012-02-26T09:14:52Z</time>
      </trkpt>
      <trkpt lat="44.35995" lon="0.70364">
        <ele>185</ele>
        <time>2012-02-26T09:14:53Z</time>
      </trkpt>
      <trkpt lat="44.36002" lon="0.70366">
        <ele>185</ele>
        <time>2012-02-26T09:14:54Z</time>
      </trkpt>
      <trkpt lat="44.36008" lon="0.70368">
        <ele>185</ele>
        <time>2012-02-26T09:14:55Z</time>
      </trkpt>
      <trkpt lat="44.36015" lon="0.70371">
        <ele>185</ele>
        <time>2012-02-26T09:14:56Z</time>
      </trkpt>
      <trkpt lat="44.36022" lon="0.70373">
        <ele>185</ele>
        <time>2012-02-26T09:14:57Z</time>
      </trkpt>
      <trkpt lat="44.36028" lon="0.70375">
        <ele>185</ele>
        <time>2012-02-26T09:14:58Z</time>
      </trkpt>
      <trkpt lat="44.36035" lon="0.70377">
        <ele>185</ele>
        <time>2012-02-26T09:14:59Z</time>
      </trkpt>
      <trkpt lat="44.36042" lon="0.70379">
        <ele>185</ele>
        <time>2012-02-26T09:15:00Z</time>
      </trkpt>
      <trkpt lat="44.36048" lon="0.70381">
        <ele>185</ele>
        <time>2012-02-26T09:15:01Z</time>
      </trkpt>
      <trkpt lat="44.36054" lon="0.70384">
        <ele>185</ele>
        <time>2012-02-26T09:15:02Z</time>
      </trkpt>
      <trkpt lat="44.3606" lon="0.70386">
        <ele>185</ele>
        <time>2012-02-26T09:15:03Z</time>
      </trkpt>
      <trkpt lat="44.36066" lon="0.70388">
        <ele>185</ele>
        <time>2012-02-26T09:15:04Z</time>
      </trkpt>
      <trkpt lat="44.36072" lon="0.7039">
        <ele>185</ele>
        <time>2012-02-26T09:15:05Z</time>
      </trkpt>
      <trkpt lat="44.36079" lon="0.70392">
        <ele>185</ele>
        <time>2012-02-26T09:15:06Z</time>
      </trkpt>
      <trkpt lat="44.36086" lon="0.70394">
        <ele>185</ele>
        <time>2012-02-26T09:15:07Z</time>
      </trkpt>
      <trkpt lat="44.36092" lon="0.70396">
        <ele>185</ele>
        <time>2012-02-26T09:15:08Z</time>
      </trkpt>
      <trkpt lat="44.36099" lon="0.70398">
        <ele>185</ele>
        <time>2012-02-26T09:15:09Z</time>
      </trkpt>
      <trkpt lat="44.36105" lon="0.704">
        <ele>185</ele>
        <time>2012-02-26T09:15:10Z</time>
      </trkpt>
      <trkpt lat="44.36112" lon="0.70402">
        <ele>185</ele>
        <time>2012-02-26T09:15:11Z</time>
      </trkpt>
      <trkpt lat="44.36119" lon="0.70404">
        <ele>185</ele>
        <time>2012-02-26T09:15:12Z</time>
      </trkpt>
      <trkpt lat="44.36125" lon="0.70407">
        <ele>185</ele>
        <time>2012-02-26T09:15:13Z</time>
      </trkpt>
      <trkpt lat="44.36131" lon="0.7041">
        <ele>185</ele>
        <time>2012-02-26T09:15:14Z</time>
      </trkpt>
      <trkpt lat="44.36138" lon="0.70412">
        <ele>185</ele>
        <time>2012-02-26T09:15:15Z</time>
      </trkpt>
      <trkpt lat="44.36144" lon="0.70414">
        <ele>185</ele>
        <time>2012-02-26T09:15:16Z</time>
      </trkpt>
      <trkpt lat="44.3615" lon="0.70416">
        <ele>185</ele>
        <time>2012-02-26T09:15:17Z</time>
      </trkpt>
      <trkpt lat="44.36156" lon="0.70418">
        <ele>185</ele>
        <time>2012-02-26T09:15:18Z</time>
      </trkpt>
      <trkpt lat="44.36162" lon="0.7042">
        <ele>185</ele>
        <time>2012-02-26T09:15:19Z</time>
      </trkpt>
      <trkpt lat="44.36167" lon="0.70422">
        <ele>185</ele>
        <time>2012-02-26T09:15:20Z</time>
      </trkpt>
      <trkpt lat="44.36173" lon="0.70424">
        <ele>185</ele>
        <time>2012-02-26T09:15:21Z</time>
      </trkpt>
      <trkpt lat="44.36178" lon="0.70426">
        <ele>185</ele>
        <time>2012-02-26T09:15:22Z</time>
      </trkpt>
      <trkpt lat="44.36183" lon="0.70427">
        <ele>185</ele>
        <time>2012-02-26T09:15:23Z</time>
      </trkpt>
      <trkpt lat="44.36188" lon="0.70428">
        <ele>185</ele>
        <time>2012-02-26T09:15:24Z</time>
      </trkpt>
      <trkpt lat="44.36193" lon="0.70429">
        <ele>185</ele>
        <time>2012-02-26T09:15:25Z</time>
      </trkpt>
      <trkpt lat="44.36198" lon="0.70431">
        <ele>185</ele>
        <time>2012-02-26T09:15:26Z</time>
      </trkpt>
      <trkpt lat="44.36203" lon="0.70433">
        <ele>185</ele>
        <time>2012-02-26T09:15:27Z</time>
      </trkpt>
      <trkpt lat="44.36208" lon="0.70435">
        <ele>185</ele>
        <time>2012-02-26T09:15:28Z</time>
      </trkpt>
      <trkpt lat="44.36213" lon="0.70437">
        <ele>185</ele>
        <time>2012-02-26T09:15:29Z</time>
      </trkpt>
      <trkpt lat="44.36218" lon="0.70439">
        <ele>185</ele>
        <time>2012-02-26T09:15:30Z</time>
      </trkpt>
      <trkpt lat="44.36223" lon="0.7044">
        <ele>185</ele>
        <time>2012-02-26T09:15:31Z</time>
      </trkpt>
      <trkpt lat="44.36228" lon="0.70442">
        <ele>186</ele>
        <time>2012-02-26T09:15:32Z</time>
      </trkpt>
      <trkpt lat="44.36233" lon="0.70444">
        <ele>186</ele>
        <time>2012-02-26T09:15:33Z</time>
      </trkpt>
      <trkpt lat="44.36238" lon="0.70446">
        <ele>187</ele>
        <time>2012-02-26T09:15:34Z</time>
      </trkpt>
      <trkpt lat="44.36243" lon="0.70448">
        <ele>187</ele>
        <time>2012-02-26T09:15:35Z</time>
      </trkpt>
      <trkpt lat="44.36249" lon="0.7045">
        <ele>187</ele>
        <time>2012-02-26T09:15:36Z</time>
      </trkpt>
      <trkpt lat="44.36254" lon="0.70452">
        <ele>187</ele>
        <time>2012-02-26T09:15:37Z</time>
      </trkpt>
      <trkpt lat="44.36259" lon="0.70454">
        <ele>187</ele>
        <time>2012-02-26T09:15:38Z</time>
      </trkpt>
      <trkpt lat="44.36265" lon="0.70455">
        <ele>187</ele>
        <time>2012-02-26T09:15:39Z</time>
      </trkpt>
      <trkpt lat="44.3627" lon="0.70457">
        <ele>188</ele>
        <time>2012-02-26T09:15:40Z</time>
      </trkpt>
      <trkpt lat="44.36276" lon="0.70458">
        <ele>188</ele>
        <time>2012-02-26T09:15:41Z</time>
      </trkpt>
      <trkpt lat="44.36281" lon="0.7046">
        <ele>188</ele>
        <time>2012-02-26T09:15:42Z</time>
      </trkpt>
      <trkpt lat="44.36286" lon="0.70461">
        <ele>188</ele>
        <time>2012-02-26T09:15:43Z</time>
      </trkpt>
      <trkpt lat="44.36291" lon="0.70463">
        <ele>188</ele>
        <time>2012-02-26T09:15:44Z</time>
      </trkpt>
      <trkpt lat="44.36297" lon="0.70464">
        <ele>188</ele>
        <time>2012-02-26T09:15:45Z</time>
      </trkpt>
      <trkpt lat="44.36302" lon="0.70466">
        <ele>188</ele>
        <time>2012-02-26T09:15:46Z</time>
      </trkpt>
      <trkpt lat="44.36308" lon="0.70468">
        <ele>188</ele>
        <time>2012-02-26T09:15:47Z</time>
      </trkpt>
      <trkpt lat="44.36314" lon="0.7047">
        <ele>188</ele>
        <time>2012-02-26T09:15:48Z</time>
      </trkpt>
      <trkpt lat="44.36319" lon="0.70473">
        <ele>188</ele>
        <time>2012-02-26T09:15:49Z</time>
      </trkpt>
      <trkpt lat="44.36325" lon="0.70475">
        <ele>188</ele>
        <time>2012-02-26T09:15:50Z</time>
      </trkpt>
      <trkpt lat="44.36332" lon="0.70477">
        <ele>188</ele>
        <time>2012-02-26T09:15:51Z</time>
      </trkpt>
      <trkpt lat="44.36338" lon="0.70481">
        <ele>188</ele>
        <time>2012-02-26T09:15:52Z</time>
      </trkpt>
      <trkpt lat="44.36344" lon="0.70485">
        <ele>188</ele>
        <time>2012-02-26T09:15:53Z</time>
      </trkpt>
      <trkpt lat="44.3635" lon="0.70491">
        <ele>188</ele>
        <time>2012-02-26T09:15:54Z</time>
      </trkpt>
      <trkpt lat="44.36356" lon="0.70498">
        <ele>188</ele>
        <time>2012-02-26T09:15:55Z</time>
      </trkpt>
      <trkpt lat="44.36361" lon="0.70506">
        <ele>188</ele>
        <time>2012-02-26T09:15:56Z</time>
      </trkpt>
      <trkpt lat="44.36365" lon="0.70517">
        <ele>188</ele>
        <time>2012-02-26T09:15:57Z</time>
      </trkpt>
      <trkpt lat="44.36369" lon="0.70528">
        <ele>188</ele>
        <time>2012-02-26T09:15:58Z</time>
      </trkpt>
      <trkpt lat="44.36372" lon="0.7054">
        <ele>188</ele>
        <time>2012-02-26T09:15:59Z</time>
      </trkpt>
      <trkpt lat="44.36376" lon="0.70553">
        <ele>188</ele>
        <time>2012-02-26T09:16:00Z</time>
      </trkpt>
      <trkpt lat="44.3638" lon="0.70565">
        <ele>187</ele>
        <time>2012-02-26T09:16:01Z</time>
      </trkpt>
      <trkpt lat="44.36383" lon="0.70578">
        <ele>186</ele>
        <time>2012-02-26T09:16:02Z</time>
      </trkpt>
      <trkpt lat="44.36386" lon="0.70592">
        <ele>185</ele>
        <time>2012-02-26T09:16:03Z</time>
      </trkpt>
      <trkpt lat="44.3639" lon="0.70605">
        <ele>185</ele>
        <time>2012-02-26T09:16:04Z</time>
      </trkpt>
      <trkpt lat="44.36393" lon="0.70619">
        <ele>184</ele>
        <time>2012-02-26T09:16:05Z</time>
      </trkpt>
      <trkpt lat="44.36396" lon="0.70631">
        <ele>183</ele>
        <time>2012-02-26T09:16:06Z</time>
      </trkpt>
      <trkpt lat="44.36399" lon="0.70644">
        <ele>182</ele>
        <time>2012-02-26T09:16:07Z</time>
      </trkpt>
      <trkpt lat="44.36402" lon="0.70655">
        <ele>182</ele>
        <time>2012-02-26T09:16:08Z</time>
      </trkpt>
      <trkpt lat="44.36405" lon="0.70666">
        <ele>181</ele>
        <time>2012-02-26T09:16:09Z</time>
      </trkpt>
      <trkpt lat="44.36407" lon="0.70675">
        <ele>180</ele>
        <time>2012-02-26T09:16:10Z</time>
      </trkpt>
      <trkpt lat="44.3641" lon="0.70683">
        <ele>180</ele>
        <time>2012-02-26T09:16:11Z</time>
      </trkpt>
      <trkpt lat="44.36413" lon="0.70688">
        <ele>179</ele>
        <time>2012-02-26T09:16:12Z</time>
      </trkpt>
      <trkpt lat="44.36417" lon="0.70691">
        <ele>178</ele>
        <time>2012-02-26T09:16:13Z</time>
      </trkpt>
      <trkpt lat="44.3642" lon="0.70692">
        <ele>178</ele>
        <time>2012-02-26T09:16:14Z</time>
      </trkpt>
      <trkpt lat="44.36424" lon="0.70689">
        <ele>178</ele>
        <time>2012-02-26T09:16:15Z</time>
      </trkpt>
      <trkpt lat="44.36427" lon="0.70685">
        <ele>177</ele>
        <time>2012-02-26T09:16:16Z</time>
      </trkpt>
      <trkpt lat="44.3643" lon="0.70681">
        <ele>177</ele>
        <time>2012-02-26T09:16:17Z</time>
      </trkpt>
      <trkpt lat="44.36433" lon="0.70676">
        <ele>177</ele>
        <time>2012-02-26T09:16:18Z</time>
      </trkpt>
      <trkpt lat="44.36435" lon="0.70671">
        <ele>177</ele>
        <time>2012-02-26T09:16:19Z</time>
      </trkpt>
      <trkpt lat="44.36438" lon="0.70665">
        <ele>177</ele>
        <time>2012-02-26T09:16:20Z</time>
      </trkpt>
      <trkpt lat="44.36441" lon="0.7066">
        <ele>177</ele>
        <time>2012-02-26T09:16:21Z</time>
      </trkpt>
      <trkpt lat="44.36444" lon="0.70655">
        <ele>177</ele>
        <time>2012-02-26T09:16:22Z</time>
      </trkpt>
      <trkpt lat="44.36447" lon="0.7065">
        <ele>177</ele>
        <time>2012-02-26T09:16:23Z</time>
      </trkpt>
      <trkpt lat="44.3645" lon="0.70645">
        <ele>177</ele>
        <time>2012-02-26T09:16:24Z</time>
      </trkpt>
      <trkpt lat="44.36453" lon="0.7064">
        <ele>177</ele>
        <time>2012-02-26T09:16:25Z</time>
      </trkpt>
      <trkpt lat="44.36456" lon="0.70635">
        <ele>177</ele>
        <time>2012-02-26T09:16:26Z</time>
      </trkpt>
      <trkpt lat="44.36458" lon="0.70629">
        <ele>177</ele>
        <time>2012-02-26T09:16:27Z</time>
      </trkpt>
      <trkpt lat="44.3646" lon="0.70623">
        <ele>177</ele>
        <time>2012-02-26T09:16:28Z</time>
      </trkpt>
      <trkpt lat="44.36462" lon="0.70618">
        <ele>177</ele>
        <time>2012-02-26T09:16:29Z</time>
      </trkpt>
      <trkpt lat="44.36464" lon="0.70612">
        <ele>176</ele>
        <time>2012-02-26T09:16:30Z</time>
      </trkpt>
      <trkpt lat="44.36467" lon="0.70604">
        <ele>176</ele>
        <time>2012-02-26T09:16:31Z</time>
      </trkpt>
      <trkpt lat="44.3647" lon="0.70597">
        <ele>176</ele>
        <time>2012-02-26T09:16:32Z</time>
      </trkpt>
      <trkpt lat="44.36472" lon="0.70588">
        <ele>176</ele>
        <time>2012-02-26T09:16:33Z</time>
      </trkpt>
      <trkpt lat="44.36475" lon="0.70579">
        <ele>175</ele>
        <time>2012-02-26T09:16:34Z</time>
      </trkpt>
      <trkpt lat="44.36478" lon="0.7057">
        <ele>174</ele>
        <time>2012-02-26T09:16:35Z</time>
      </trkpt>
      <trkpt lat="44.3648" lon="0.70561">
        <ele>174</ele>
        <time>2012-02-26T09:16:36Z</time>
      </trkpt>
      <trkpt lat="44.36482" lon="0.70551">
        <ele>173</ele>
        <time>2012-02-26T09:16:37Z</time>
      </trkpt>
      <trkpt lat="44.36483" lon="0.70541">
        <ele>172</ele>
        <time>2012-02-26T09:16:38Z</time>
      </trkpt>
      <trkpt lat="44.36485" lon="0.70529">
        <ele>172</ele>
        <time>2012-02-26T09:16:39Z</time>
      </trkpt>
      <trkpt lat="44.36487" lon="0.70519">
        <ele>172</ele>
        <time>2012-02-26T09:16:40Z</time>
      </trkpt>
      <trkpt lat="44.3649" lon="0.7051">
        <ele>172</ele>
        <time>2012-02-26T09:16:41Z</time>
      </trkpt>
      <trkpt lat="44.36493" lon="0.70502">
        <ele>172</ele>
        <time>2012-02-26T09:16:42Z</time>
      </trkpt>
      <trkpt lat="44.36496" lon="0.70493">
        <ele>172</ele>
        <time>2012-02-26T09:16:43Z</time>
      </trkpt>
      <trkpt lat="44.36499" lon="0.70484">
        <ele>172</ele>
        <time>2012-02-26T09:16:44Z</time>
      </trkpt>
      <trkpt lat="44.36502" lon="0.70475">
        <ele>172</ele>
        <time>2012-02-26T09:16:45Z</time>
      </trkpt>
      <trkpt lat="44.36506" lon="0.70467">
        <ele>172</ele>
        <time>2012-02-26T09:16:46Z</time>
      </trkpt>
      <trkpt lat="44.36509" lon="0.70459">
        <ele>172</ele>
        <time>2012-02-26T09:16:47Z</time>
      </trkpt>
      <trkpt lat="44.36512" lon="0.70452">
        <ele>172</ele>
        <time>2012-02-26T09:16:48Z</time>
      </trkpt>
      <trkpt lat="44.36515" lon="0.70445">
        <ele>172</ele>
        <time>2012-02-26T09:16:49Z</time>
      </trkpt>
      <trkpt lat="44.36518" lon="0.70439">
        <ele>172</ele>
        <time>2012-02-26T09:16:50Z</time>
      </trkpt>
      <trkpt lat="44.36521" lon="0.70432">
        <ele>172</ele>
        <time>2012-02-26T09:16:51Z</time>
      </trkpt>
      <trkpt lat="44.36525" lon="0.70426">
        <ele>172</ele>
        <time>2012-02-26T09:16:52Z</time>
      </trkpt>
      <trkpt lat="44.36528" lon="0.70419">
        <ele>172</ele>
        <time>2012-02-26T09:16:53Z</time>
      </trkpt>
      <trkpt lat="44.36531" lon="0.70411">
        <ele>172</ele>
        <time>2012-02-26T09:16:54Z</time>
      </trkpt>
      <trkpt lat="44.36535" lon="0.70404">
        <ele>172</ele>
        <time>2012-02-26T09:16:55Z</time>
      </trkpt>
      <trkpt lat="44.36538" lon="0.70398">
        <ele>172</ele>
        <time>2012-02-26T09:16:56Z</time>
      </trkpt>
      <trkpt lat="44.36543" lon="0.70392">
        <ele>172</ele>
        <time>2012-02-26T09:16:57Z</time>
      </trkpt>
      <trkpt lat="44.36546" lon="0.70386">
        <ele>172</ele>
        <time>2012-02-26T09:16:58Z</time>
      </trkpt>
      <trkpt lat="44.36549" lon="0.70381">
        <ele>172</ele>
        <time>2012-02-26T09:16:59Z</time>
      </trkpt>
      <trkpt lat="44.36553" lon="0.70376">
        <ele>172</ele>
        <time>2012-02-26T09:17:00Z</time>
      </trkpt>
      <trkpt lat="44.36557" lon="0.70372">
        <ele>172</ele>
        <time>2012-02-26T09:17:01Z</time>
      </trkpt>
      <trkpt lat="44.36561" lon="0.70369">
        <ele>172</ele>
        <time>2012-02-26T09:17:02Z</time>
      </trkpt>
      <trkpt lat="44.36564" lon="0.70364">
        <ele>172</ele>
        <time>2012-02-26T09:17:03Z</time>
      </trkpt>
      <trkpt lat="44.36568" lon="0.70361">
        <ele>172</ele>
        <time>2012-02-26T09:17:04Z</time>
      </trkpt>
      <trkpt lat="44.36572" lon="0.70358">
        <ele>172</ele>
        <time>2012-02-26T09:17:05Z</time>
      </trkpt>
      <trkpt lat="44.36576" lon="0.70353">
        <ele>172</ele>
        <time>2012-02-26T09:17:06Z</time>
      </trkpt>
      <trkpt lat="44.3658" lon="0.70349">
        <ele>172</ele>
        <time>2012-02-26T09:17:07Z</time>
      </trkpt>
      <trkpt lat="44.36585" lon="0.70344">
        <ele>172</ele>
        <time>2012-02-26T09:17:08Z</time>
      </trkpt>
      <trkpt lat="44.36589" lon="0.70339">
        <ele>172</ele>
        <time>2012-02-26T09:17:09Z</time>
      </trkpt>
      <trkpt lat="44.36594" lon="0.70334">
        <ele>172</ele>
        <time>2012-02-26T09:17:10Z</time>
      </trkpt>
      <trkpt lat="44.36598" lon="0.70329">
        <ele>172</ele>
        <time>2012-02-26T09:17:11Z</time>
      </trkpt>
      <trkpt lat="44.36602" lon="0.70325">
        <ele>172</ele>
        <time>2012-02-26T09:17:12Z</time>
      </trkpt>
      <trkpt lat="44.36607" lon="0.70321">
        <ele>172</ele>
        <time>2012-02-26T09:17:13Z</time>
      </trkpt>
      <trkpt lat="44.36611" lon="0.70317">
        <ele>172</ele>
        <time>2012-02-26T09:17:14Z</time>
      </trkpt>
      <trkpt lat="44.36615" lon="0.70314">
        <ele>172</ele>
        <time>2012-02-26T09:17:15Z</time>
      </trkpt>
      <trkpt lat="44.36618" lon="0.70311">
        <ele>172</ele>
        <time>2012-02-26T09:17:16Z</time>
      </trkpt>
      <trkpt lat="44.36623" lon="0.70309">
        <ele>172</ele>
        <time>2012-02-26T09:17:17Z</time>
      </trkpt>
      <trkpt lat="44.36628" lon="0.70307">
        <ele>172</ele>
        <time>2012-02-26T09:17:18Z</time>
      </trkpt>
      <trkpt lat="44.36632" lon="0.70306">
        <ele>172</ele>
        <time>2012-02-26T09:17:19Z</time>
      </trkpt>
      <trkpt lat="44.36637" lon="0.70305">
        <ele>172</ele>
        <time>2012-02-26T09:17:20Z</time>
      </trkpt>
      <trkpt lat="44.36641" lon="0.70305">
        <ele>172</ele>
        <time>2012-02-26T09:17:21Z</time>
      </trkpt>
      <trkpt lat="44.36646" lon="0.70304">
        <ele>172</ele>
        <time>2012-02-26T09:17:22Z</time>
      </trkpt>
      <trkpt lat="44.36651" lon="0.70302">
        <ele>172</ele>
        <time>2012-02-26T09:17:23Z</time>
      </trkpt>
      <trkpt lat="44.36656" lon="0.703">
        <ele>172</ele>
        <time>2012-02-26T09:17:24Z</time>
      </trkpt>
      <trkpt lat="44.36661" lon="0.70298">
        <ele>172</ele>
        <time>2012-02-26T09:17:25Z</time>
      </trkpt>
      <trkpt lat="44.36665" lon="0.70296">
        <ele>172</ele>
        <time>2012-02-26T09:17:26Z</time>
      </trkpt>
      <trkpt lat="44.36668" lon="0.70294">
        <ele>172</ele>
        <time>2012-02-26T09:17:27Z</time>
      </trkpt>
      <trkpt lat="44.36671" lon="0.70292">
        <ele>172</ele>
        <time>2012-02-26T09:17:28Z</time>
      </trkpt>
      <trkpt lat="44.36674" lon="0.70288">
        <ele>172</ele>
        <time>2012-02-26T09:17:29Z</time>
      </trkpt>
      <trkpt lat="44.36678" lon="0.70285">
        <ele>172</ele>
        <time>2012-02-26T09:17:30Z</time>
      </trkpt>
      <trkpt lat="44.36681" lon="0.70282">
        <ele>172</ele>
        <time>2012-02-26T09:17:31Z</time>
      </trkpt>
      <trkpt lat="44.36685" lon="0.70278">
        <ele>172</ele>
        <time>2012-02-26T09:17:32Z</time>
      </trkpt>
      <trkpt lat="44.36689" lon="0.70275">
        <ele>172</ele>
        <time>2012-02-26T09:17:33Z</time>
      </trkpt>
      <trkpt lat="44.36693" lon="0.70271">
        <ele>172</ele>
        <time>2012-02-26T09:17:34Z</time>
      </trkpt>
      <trkpt lat="44.36696" lon="0.70267">
        <ele>172</ele>
        <time>2012-02-26T09:17:35Z</time>
      </trkpt>
      <trkpt lat="44.36698" lon="0.70263">
        <ele>172</ele>
        <time>2012-02-26T09:17:36Z</time>
      </trkpt>
      <trkpt lat="44.367" lon="0.70258">
        <ele>172</ele>
        <time>2012-02-26T09:17:37Z</time>
      </trkpt>
      <trkpt lat="44.36702" lon="0.70254">
        <ele>172</ele>
        <time>2012-02-26T09:17:38Z</time>
      </trkpt>
      <trkpt lat="44.36703" lon="0.70251">
        <ele>172</ele>
        <time>2012-02-26T09:17:39Z</time>
      </trkpt>
      <trkpt lat="44.36705" lon="0.70247">
        <ele>172</ele>
        <time>2012-02-26T09:17:40Z</time>
      </trkpt>
      <trkpt lat="44.36706" lon="0.70243">
        <ele>172</ele>
        <time>2012-02-26T09:17:41Z</time>
      </trkpt>
      <trkpt lat="44.36708" lon="0.7024">
        <ele>172</ele>
        <time>2012-02-26T09:17:42Z</time>
      </trkpt>
      <trkpt lat="44.3671" lon="0.70236">
        <ele>172</ele>
        <time>2012-02-26T09:17:43Z</time>
      </trkpt>
      <trkpt lat="44.36712" lon="0.70233">
        <ele>172</ele>
        <time>2012-02-26T09:17:44Z</time>
      </trkpt>
      <trkpt lat="44.36713" lon="0.70229">
        <ele>172</ele>
        <time>2012-02-26T09:17:45Z</time>
      </trkpt>
      <trkpt lat="44.36715" lon="0.70226">
        <ele>172</ele>
        <time>2012-02-26T09:17:46Z</time>
      </trkpt>
      <trkpt lat="44.36717" lon="0.70222">
        <ele>172</ele>
        <time>2012-02-26T09:17:47Z</time>
      </trkpt>
      <trkpt lat="44.36719" lon="0.70218">
        <ele>172</ele>
        <time>2012-02-26T09:17:48Z</time>
      </trkpt>
      <trkpt lat="44.36721" lon="0.70214">
        <ele>172</ele>
        <time>2012-02-26T09:17:49Z</time>
      </trkpt>
      <trkpt lat="44.36722" lon="0.7021">
        <ele>172</ele>
        <time>2012-02-26T09:17:50Z</time>
      </trkpt>
      <trkpt lat="44.36724" lon="0.70207">
        <ele>172</ele>
        <time>2012-02-26T09:17:51Z</time>
      </trkpt>
      <trkpt lat="44.36725" lon="0.70203">
        <ele>172</ele>
        <time>2012-02-26T09:17:52Z</time>
      </trkpt>
      <trkpt lat="44.36726" lon="0.70199">
        <ele>172</ele>
        <time>2012-02-26T09:17:53Z</time>
      </trkpt>
      <trkpt lat="44.36727" lon="0.70195">
        <ele>172</ele>
        <time>2012-02-26T09:17:54Z</time>
      </trkpt>
      <trkpt lat="44.36729" lon="0.70192">
        <ele>172</ele>
        <time>2012-02-26T09:17:55Z</time>
      </trkpt>
      <trkpt lat="44.36731" lon="0.70188">
        <ele>172</ele>
        <time>2012-02-26T09:17:56Z</time>
      </trkpt>
      <trkpt lat="44.36733" lon="0.70184">
        <ele>172</ele>
        <time>2012-02-26T09:17:57Z</time>
      </trkpt>
      <trkpt lat="44.36735" lon="0.7018">
        <ele>173</ele>
        <time>2012-02-26T09:17:58Z</time>
      </trkpt>
      <trkpt lat="44.36736" lon="0.70176">
        <ele>173</ele>
        <time>2012-02-26T09:17:59Z</time>
      </trkpt>
      <trkpt lat="44.36736" lon="0.70171">
        <ele>174</ele>
        <time>2012-02-26T09:18:00Z</time>
      </trkpt>
      <trkpt lat="44.36737" lon="0.70166">
        <ele>175</ele>
        <time>2012-02-26T09:18:01Z</time>
      </trkpt>
      <trkpt lat="44.36737" lon="0.70161">
        <ele>175</ele>
        <time>2012-02-26T09:18:02Z</time>
      </trkpt>
      <trkpt lat="44.36737" lon="0.70156">
        <ele>175</ele>
        <time>2012-02-26T09:18:03Z</time>
      </trkpt>
      <trkpt lat="44.36736" lon="0.70152">
        <ele>175</ele>
        <time>2012-02-26T09:18:04Z</time>
      </trkpt>
      <trkpt lat="44.36736" lon="0.70147">
        <ele>175</ele>
        <time>2012-02-26T09:18:05Z</time>
      </trkpt>
      <trkpt lat="44.36735" lon="0.70142">
        <ele>175</ele>
        <time>2012-02-26T09:18:06Z</time>
      </trkpt>
      <trkpt lat="44.36734" lon="0.70137">
        <ele>175</ele>
        <time>2012-02-26T09:18:07Z</time>
      </trkpt>
      <trkpt lat="44.36733" lon="0.70132">
        <ele>175</ele>
        <time>2012-02-26T09:18:08Z</time>
      </trkpt>
      <trkpt lat="44.36732" lon="0.70128">
        <ele>175</ele>
        <time>2012-02-26T09:18:09Z</time>
      </trkpt>
      <trkpt lat="44.36731" lon="0.70123">
        <ele>175</ele>
        <time>2012-02-26T09:18:10Z</time>
      </trkpt>
      <trkpt lat="44.36731" lon="0.70119">
        <ele>175</ele>
        <time>2012-02-26T09:18:11Z</time>
      </trkpt>
      <trkpt lat="44.36731" lon="0.70114">
        <ele>175</ele>
        <time>2012-02-26T09:18:12Z</time>
      </trkpt>
      <trkpt lat="44.3673" lon="0.70109">
        <ele>175</ele>
        <time>2012-02-26T09:18:13Z</time>
      </trkpt>
      <trkpt lat="44.36729" lon="0.70104">
        <ele>174</ele>
        <time>2012-02-26T09:18:14Z</time>
      </trkpt>
      <trkpt lat="44.36728" lon="0.70099">
        <ele>174</ele>
        <time>2012-02-26T09:18:15Z</time>
      </trkpt>
      <trkpt lat="44.36727" lon="0.70095">
        <ele>174</ele>
        <time>2012-02-26T09:18:16Z</time>
      </trkpt>
      <trkpt lat="44.36727" lon="0.7009">
        <ele>174</ele>
        <time>2012-02-26T09:18:17Z</time>
      </trkpt>
      <trkpt lat="44.36726" lon="0.70084">
        <ele>174</ele>
        <time>2012-02-26T09:18:18Z</time>
      </trkpt>
      <trkpt lat="44.36724" lon="0.70078">
        <ele>174</ele>
        <time>2012-02-26T09:18:19Z</time>
      </trkpt>
      <trkpt lat="44.36723" lon="0.70073">
        <ele>174</ele>
        <time>2012-02-26T09:18:20Z</time>
      </trkpt>
      <trkpt lat="44.36723" lon="0.70069">
        <ele>174</ele>
        <time>2012-02-26T09:18:21Z</time>
      </trkpt>
      <trkpt lat="44.36721" lon="0.70064">
        <ele>174</ele>
        <time>2012-02-26T09:18:22Z</time>
      </trkpt>
      <trkpt lat="44.36721" lon="0.70059">
        <ele>174</ele>
        <time>2012-02-26T09:18:23Z</time>
      </trkpt>
      <trkpt lat="44.36722" lon="0.70055">
        <ele>174</ele>
        <time>2012-02-26T09:18:24Z</time>
      </trkpt>
      <trkpt lat="44.36724" lon="0.7005">
        <ele>174</ele>
        <time>2012-02-26T09:18:25Z</time>
      </trkpt>
      <trkpt lat="44.36728" lon="0.70047">
        <ele>174</ele>
        <time>2012-02-26T09:18:26Z</time>
      </trkpt>
      <trkpt lat="44.36732" lon="0.70044">
        <ele>174</ele>
        <time>2012-02-26T09:18:27Z</time>
      </trkpt>
      <trkpt lat="44.36736" lon="0.70043">
        <ele>174</ele>
        <time>2012-02-26T09:18:28Z</time>
      </trkpt>
      <trkpt lat="44.36741" lon="0.70041">
        <ele>174</ele>
        <time>2012-02-26T09:18:29Z</time>
      </trkpt>
      <trkpt lat="44.36746" lon="0.70039">
        <ele>174</ele>
        <time>2012-02-26T09:18:30Z</time>
      </trkpt>
      <trkpt lat="44.36752" lon="0.70037">
        <ele>174</ele>
        <time>2012-02-26T09:18:31Z</time>
      </trkpt>
      <trkpt lat="44.36757" lon="0.70035">
        <ele>174</ele>
        <time>2012-02-26T09:18:32Z</time>
      </trkpt>
      <trkpt lat="44.36763" lon="0.70033">
        <ele>174</ele>
        <time>2012-02-26T09:18:33Z</time>
      </trkpt>
      <trkpt lat="44.36769" lon="0.7003">
        <ele>174</ele>
        <time>2012-02-26T09:18:34Z</time>
      </trkpt>
      <trkpt lat="44.36775" lon="0.70027">
        <ele>174</ele>
        <time>2012-02-26T09:18:35Z</time>
      </trkpt>
      <trkpt lat="44.36781" lon="0.70024">
        <ele>174</ele>
        <time>2012-02-26T09:18:36Z</time>
      </trkpt>
      <trkpt lat="44.36787" lon="0.70022">
        <ele>174</ele>
        <time>2012-02-26T09:18:37Z</time>
      </trkpt>
      <trkpt lat="44.36794" lon="0.7002">
        <ele>174</ele>
        <time>2012-02-26T09:18:38Z</time>
      </trkpt>
      <trkpt lat="44.368" lon="0.70018">
        <ele>174</ele>
        <time>2012-02-26T09:18:39Z</time>
      </trkpt>
      <trkpt lat="44.36807" lon="0.70016">
        <ele>174</ele>
        <time>2012-02-26T09:18:40Z</time>
      </trkpt>
      <trkpt lat="44.36814" lon="0.70015">
        <ele>174</ele>
        <time>2012-02-26T09:18:41Z</time>
      </trkpt>
      <trkpt lat="44.3682" lon="0.70012">
        <ele>174</ele>
        <time>2012-02-26T09:18:42Z</time>
      </trkpt>
      <trkpt lat="44.36827" lon="0.70011">
        <ele>174</ele>
        <time>2012-02-26T09:18:43Z</time>
      </trkpt>
      <trkpt lat="44.36833" lon="0.70008">
        <ele>174</ele>
        <time>2012-02-26T09:18:44Z</time>
      </trkpt>
      <trkpt lat="44.36839" lon="0.70006">
        <ele>174</ele>
        <time>2012-02-26T09:18:45Z</time>
      </trkpt>
      <trkpt lat="44.36845" lon="0.70004">
        <ele>174</ele>
        <time>2012-02-26T09:18:46Z</time>
      </trkpt>
      <trkpt lat="44.36852" lon="0.70002">
        <ele>174</ele>
        <time>2012-02-26T09:18:47Z</time>
      </trkpt>
      <trkpt lat="44.36858" lon="0.7">
        <ele>174</ele>
        <time>2012-02-26T09:18:48Z</time>
      </trkpt>
      <trkpt lat="44.36864" lon="0.69999">
        <ele>174</ele>
        <time>2012-02-26T09:18:49Z</time>
      </trkpt>
      <trkpt lat="44.36871" lon="0.69997">
        <ele>174</ele>
        <time>2012-02-26T09:18:50Z</time>
      </trkpt>
      <trkpt lat="44.36877" lon="0.69996">
        <ele>174</ele>
        <time>2012-02-26T09:18:51Z</time>
      </trkpt>
      <trkpt lat="44.36884" lon="0.69994">
        <ele>174</ele>
        <time>2012-02-26T09:18:52Z</time>
      </trkpt>
      <trkpt lat="44.36892" lon="0.69993">
        <ele>174</ele>
        <time>2012-02-26T09:18:53Z</time>
      </trkpt>
      <trkpt lat="44.36899" lon="0.69992">
        <ele>174</ele>
        <time>2012-02-26T09:18:54Z</time>
      </trkpt>
      <trkpt lat="44.36906" lon="0.69991">
        <ele>174</ele>
        <time>2012-02-26T09:18:55Z</time>
      </trkpt>
      <trkpt lat="44.36914" lon="0.69991">
        <ele>174</ele>
        <time>2012-02-26T09:18:56Z</time>
      </trkpt>
      <trkpt lat="44.36922" lon="0.69991">
        <ele>174</ele>
        <time>2012-02-26T09:18:57Z</time>
      </trkpt>
      <trkpt lat="44.3693" lon="0.6999">
        <ele>174</ele>
        <time>2012-02-26T09:18:58Z</time>
      </trkpt>
      <trkpt lat="44.36938" lon="0.6999">
        <ele>174</ele>
        <time>2012-02-26T09:18:59Z</time>
      </trkpt>
      <trkpt lat="44.36946" lon="0.6999">
        <ele>174</ele>
        <time>2012-02-26T09:19:00Z</time>
      </trkpt>
      <trkpt lat="44.36955" lon="0.69991">
        <ele>174</ele>
        <time>2012-02-26T09:19:01Z</time>
      </trkpt>
      <trkpt lat="44.36963" lon="0.69991">
        <ele>174</ele>
        <time>2012-02-26T09:19:02Z</time>
      </trkpt>
      <trkpt lat="44.36972" lon="0.69992">
        <ele>173</ele>
        <time>2012-02-26T09:19:03Z</time>
      </trkpt>
      <trkpt lat="44.3698" lon="0.69992">
        <ele>172</ele>
        <time>2012-02-26T09:19:04Z</time>
      </trkpt>
      <trkpt lat="44.36989" lon="0.69992">
        <ele>172</ele>
        <time>2012-02-26T09:19:05Z</time>
      </trkpt>
      <trkpt lat="44.36998" lon="0.69993">
        <ele>171</ele>
        <time>2012-02-26T09:19:06Z</time>
      </trkpt>
      <trkpt lat="44.37006" lon="0.69993">
        <ele>171</ele>
        <time>2012-02-26T09:19:07Z</time>
      </trkpt>
      <trkpt lat="44.37015" lon="0.69994">
        <ele>170</ele>
        <time>2012-02-26T09:19:08Z</time>
      </trkpt>
      <trkpt lat="44.37023" lon="0.69995">
        <ele>170</ele>
        <time>2012-02-26T09:19:09Z</time>
      </trkpt>
      <trkpt lat="44.37031" lon="0.69995">
        <ele>170</ele>
        <time>2012-02-26T09:19:10Z</time>
      </trkpt>
      <trkpt lat="44.37039" lon="0.69996">
        <ele>170</ele>
        <time>2012-02-26T09:19:11Z</time>
      </trkpt>
      <trkpt lat="44.37047" lon="0.69996">
        <ele>169</ele>
        <time>2012-02-26T09:19:12Z</time>
      </trkpt>
      <trkpt lat="44.37055" lon="0.69997">
        <ele>169</ele>
        <time>2012-02-26T09:19:13Z</time>
      </trkpt>
      <trkpt lat="44.37062" lon="0.69998">
        <ele>169</ele>
        <time>2012-02-26T09:19:14Z</time>
      </trkpt>
      <trkpt lat="44.3707" lon="0.69999">
        <ele>169</ele>
        <time>2012-02-26T09:19:15Z</time>
      </trkpt>
      <trkpt lat="44.37078" lon="0.7">
        <ele>169</ele>
        <time>2012-02-26T09:19:16Z</time>
      </trkpt>
      <trkpt lat="44.37085" lon="0.70001">
        <ele>169</ele>
        <time>2012-02-26T09:19:17Z</time>
      </trkpt>
      <trkpt lat="44.37092" lon="0.70002">
        <ele>169</ele>
        <time>2012-02-26T09:19:18Z</time>
      </trkpt>
      <trkpt lat="44.371" lon="0.70002">
        <ele>169</ele>
        <time>2012-02-26T09:19:19Z</time>
      </trkpt>
      <trkpt lat="44.37107" lon="0.70003">
        <ele>169</ele>
        <time>2012-02-26T09:19:20Z</time>
      </trkpt>
      <trkpt lat="44.37114" lon="0.70003">
        <ele>169</ele>
        <time>2012-02-26T09:19:21Z</time>
      </trkpt>
      <trkpt lat="44.37122" lon="0.70004">
        <ele>169</ele>
        <time>2012-02-26T09:19:22Z</time>
      </trkpt>
      <trkpt lat="44.37129" lon="0.70005">
        <ele>169</ele>
        <time>2012-02-26T09:19:23Z</time>
      </trkpt>
      <trkpt lat="44.37136" lon="0.70006">
        <ele>169</ele>
        <time>2012-02-26T09:19:24Z</time>
      </trkpt>
      <trkpt lat="44.37143" lon="0.70007">
        <ele>169</ele>
        <time>2012-02-26T09:19:25Z</time>
      </trkpt>
      <trkpt lat="44.3715" lon="0.70009">
        <ele>169</ele>
        <time>2012-02-26T09:19:26Z</time>
      </trkpt>
      <trkpt lat="44.37157" lon="0.7001">
        <ele>169</ele>
        <time>2012-02-26T09:19:27Z</time>
      </trkpt>
      <trkpt lat="44.37164" lon="0.7001">
        <ele>169</ele>
        <time>2012-02-26T09:19:28Z</time>
      </trkpt>
      <trkpt lat="44.37171" lon="0.70011">
        <ele>169</ele>
        <time>2012-02-26T09:19:29Z</time>
      </trkpt>
      <trkpt lat="44.37177" lon="0.70012">
        <ele>169</ele>
        <time>2012-02-26T09:19:30Z</time>
      </trkpt>
      <trkpt lat="44.37184" lon="0.70012">
        <ele>169</ele>
        <time>2012-02-26T09:19:31Z</time>
      </trkpt>
      <trkpt lat="44.37191" lon="0.70013">
        <ele>169</ele>
        <time>2012-02-26T09:19:32Z</time>
      </trkpt>
      <trkpt lat="44.37197" lon="0.70014">
        <ele>169</ele>
        <time>2012-02-26T09:19:33Z</time>
      </trkpt>
      <trkpt lat="44.37204" lon="0.70015">
        <ele>170</ele>
        <time>2012-02-26T09:19:34Z</time>
      </trkpt>
      <trkpt lat="44.3721" lon="0.70015">
        <ele>170</ele>
        <time>2012-02-26T09:19:35Z</time>
      </trkpt>
      <trkpt lat="44.37216" lon="0.70016">
        <ele>170</ele>
        <time>2012-02-26T09:19:36Z</time>
      </trkpt>
      <trkpt lat="44.37222" lon="0.70016">
        <ele>171</ele>
        <time>2012-02-26T09:19:37Z</time>
      </trkpt>
      <trkpt lat="44.37228" lon="0.70017">
        <ele>171</ele>
        <time>2012-02-26T09:19:38Z</time>
      </trkpt>
      <trkpt lat="44.37234" lon="0.70018">
        <ele>171</ele>
        <time>2012-02-26T09:19:39Z</time>
      </trkpt>
      <trkpt lat="44.3724" lon="0.70019">
        <ele>171</ele>
        <time>2012-02-26T09:19:40Z</time>
      </trkpt>
      <trkpt lat="44.37246" lon="0.70018">
        <ele>171</ele>
        <time>2012-02-26T09:19:41Z</time>
      </trkpt>
      <trkpt lat="44.37252" lon="0.70019">
        <ele>171</ele>
        <time>2012-02-26T09:19:42Z</time>
      </trkpt>
      <trkpt lat="44.37258" lon="0.7002">
        <ele>171</ele>
        <time>2012-02-26T09:19:43Z</time>
      </trkpt>
      <trkpt lat="44.37264" lon="0.7002">
        <ele>171</ele>
        <time>2012-02-26T09:19:44Z</time>
      </trkpt>
      <trkpt lat="44.3727" lon="0.70021">
        <ele>171</ele>
        <time>2012-02-26T09:19:45Z</time>
      </trkpt>
      <trkpt lat="44.37276" lon="0.70021">
        <ele>171</ele>
        <time>2012-02-26T09:19:46Z</time>
      </trkpt>
      <trkpt lat="44.37281" lon="0.70022">
        <ele>171</ele>
        <time>2012-02-26T09:19:47Z</time>
      </trkpt>
      <trkpt lat="44.37286" lon="0.70022">
        <ele>171</ele>
        <time>2012-02-26T09:19:48Z</time>
      </trkpt>
      <trkpt lat="44.37292" lon="0.70023">
        <ele>171</ele>
        <time>2012-02-26T09:19:49Z</time>
      </trkpt>
      <trkpt lat="44.37297" lon="0.70024">
        <ele>171</ele>
        <time>2012-02-26T09:19:50Z</time>
      </trkpt>
      <trkpt lat="44.37303" lon="0.70024">
        <ele>171</ele>
        <time>2012-02-26T09:19:51Z</time>
      </trkpt>
      <trkpt lat="44.37308" lon="0.70024">
        <ele>171</ele>
        <time>2012-02-26T09:19:52Z</time>
      </trkpt>
      <trkpt lat="44.37313" lon="0.70025">
        <ele>171</ele>
        <time>2012-02-26T09:19:53Z</time>
      </trkpt>
      <trkpt lat="44.37319" lon="0.70025">
        <ele>171</ele>
        <time>2012-02-26T09:19:54Z</time>
      </trkpt>
      <trkpt lat="44.37324" lon="0.70025">
        <ele>171</ele>
        <time>2012-02-26T09:19:55Z</time>
      </trkpt>
      <trkpt lat="44.37329" lon="0.70026">
        <ele>171</ele>
        <time>2012-02-26T09:19:56Z</time>
      </trkpt>
      <trkpt lat="44.37334" lon="0.70027">
        <ele>171</ele>
        <time>2012-02-26T09:19:57Z</time>
      </trkpt>
      <trkpt lat="44.3734" lon="0.70028">
        <ele>171</ele>
        <time>2012-02-26T09:19:58Z</time>
      </trkpt>
      <trkpt lat="44.37345" lon="0.70029">
        <ele>171</ele>
        <time>2012-02-26T09:19:59Z</time>
      </trkpt>
      <trkpt lat="44.3735" lon="0.70029">
        <ele>171</ele>
        <time>2012-02-26T09:20:00Z</time>
      </trkpt>
      <trkpt lat="44.37355" lon="0.7003">
        <ele>171</ele>
        <time>2012-02-26T09:20:01Z</time>
      </trkpt>
      <trkpt lat="44.3736" lon="0.7003">
        <ele>171</ele>
        <time>2012-02-26T09:20:02Z</time>
      </trkpt>
      <trkpt lat="44.37365" lon="0.7003">
        <ele>171</ele>
        <time>2012-02-26T09:20:03Z</time>
      </trkpt>
      <trkpt lat="44.3737" lon="0.70031">
        <ele>171</ele>
        <time>2012-02-26T09:20:04Z</time>
      </trkpt>
      <trkpt lat="44.37376" lon="0.70031">
        <ele>171</ele>
        <time>2012-02-26T09:20:05Z</time>
      </trkpt>
      <trkpt lat="44.37381" lon="0.70031">
        <ele>171</ele>
        <time>2012-02-26T09:20:06Z</time>
      </trkpt>
      <trkpt lat="44.37388" lon="0.7003">
        <ele>171</ele>
        <time>2012-02-26T09:20:07Z</time>
      </trkpt>
      <trkpt lat="44.37394" lon="0.70029">
        <ele>171</ele>
        <time>2012-02-26T09:20:08Z</time>
      </trkpt>
      <trkpt lat="44.37399" lon="0.70028">
        <ele>171</ele>
        <time>2012-02-26T09:20:09Z</time>
      </trkpt>
      <trkpt lat="44.37404" lon="0.70028">
        <ele>172</ele>
        <time>2012-02-26T09:20:10Z</time>
      </trkpt>
      <trkpt lat="44.37409" lon="0.70028">
        <ele>172</ele>
        <time>2012-02-26T09:20:11Z</time>
      </trkpt>
      <trkpt lat="44.37415" lon="0.70028">
        <ele>172</ele>
        <time>2012-02-26T09:20:12Z</time>
      </trkpt>
      <trkpt lat="44.37421" lon="0.70029">
        <ele>172</ele>
        <time>2012-02-26T09:20:13Z</time>
      </trkpt>
      <trkpt lat="44.37426" lon="0.70029">
        <ele>172</ele>
        <time>2012-02-26T09:20:14Z</time>
      </trkpt>
      <trkpt lat="44.37432" lon="0.7003">
        <ele>172</ele>
        <time>2012-02-26T09:20:15Z</time>
      </trkpt>
      <trkpt lat="44.37438" lon="0.70032">
        <ele>172</ele>
        <time>2012-02-26T09:20:16Z</time>
      </trkpt>
      <trkpt lat="44.37444" lon="0.70033">
        <ele>172</ele>
        <time>2012-02-26T09:20:17Z</time>
      </trkpt>
      <trkpt lat="44.3745" lon="0.70032">
        <ele>172</ele>
        <time>2012-02-26T09:20:18Z</time>
      </trkpt>
      <trkpt lat="44.37455" lon="0.70032">
        <ele>172</ele>
        <time>2012-02-26T09:20:19Z</time>
      </trkpt>
      <trkpt lat="44.3746" lon="0.70033">
        <ele>172</ele>
        <time>2012-02-26T09:20:20Z</time>
      </trkpt>
      <trkpt lat="44.37465" lon="0.70033">
        <ele>172</ele>
        <time>2012-02-26T09:20:21Z</time>
      </trkpt>
      <trkpt lat="44.37471" lon="0.70034">
        <ele>172</ele>
        <time>2012-02-26T09:20:22Z</time>
      </trkpt>
      <trkpt lat="44.37476" lon="0.70035">
        <ele>172</ele>
        <time>2012-02-26T09:20:23Z</time>
      </trkpt>
      <trkpt lat="44.37482" lon="0.70036">
        <ele>172</ele>
        <time>2012-02-26T09:20:24Z</time>
      </trkpt>
      <trkpt lat="44.37488" lon="0.70037">
        <ele>172</ele>
        <time>2012-02-26T09:20:25Z</time>
      </trkpt>
      <trkpt lat="44.37493" lon="0.70037">
        <ele>172</ele>
        <time>2012-02-26T09:20:26Z</time>
      </trkpt>
      <trkpt lat="44.37498" lon="0.70036">
        <ele>172</ele>
        <time>2012-02-26T09:20:27Z</time>
      </trkpt>
      <trkpt lat="44.37505" lon="0.70036">
        <ele>172</ele>
        <time>2012-02-26T09:20:28Z</time>
      </trkpt>
      <trkpt lat="44.37511" lon="0.70037">
        <ele>172</ele>
        <time>2012-02-26T09:20:29Z</time>
      </trkpt>
      <trkpt lat="44.37517" lon="0.70037">
        <ele>172</ele>
        <time>2012-02-26T09:20:30Z</time>
      </trkpt>
      <trkpt lat="44.37522" lon="0.70038">
        <ele>172</ele>
        <time>2012-02-26T09:20:31Z</time>
      </trkpt>
      <trkpt lat="44.37528" lon="0.70039">
        <ele>172</ele>
        <time>2012-02-26T09:20:32Z</time>
      </trkpt>
      <trkpt lat="44.37533" lon="0.7004">
        <ele>173</ele>
        <time>2012-02-26T09:20:33Z</time>
      </trkpt>
      <trkpt lat="44.37538" lon="0.70041">
        <ele>173</ele>
        <time>2012-02-26T09:20:34Z</time>
      </trkpt>
      <trkpt lat="44.37542" lon="0.7004">
        <ele>174</ele>
        <time>2012-02-26T09:20:35Z</time>
      </trkpt>
      <trkpt lat="44.37547" lon="0.70041">
        <ele>174</ele>
        <time>2012-02-26T09:20:36Z</time>
      </trkpt>
      <trkpt lat="44.37553" lon="0.70043">
        <ele>175</ele>
        <time>2012-02-26T09:20:37Z</time>
      </trkpt>
      <trkpt lat="44.37558" lon="0.70043">
        <ele>175</ele>
        <time>2012-02-26T09:20:38Z</time>
      </trkpt>
      <trkpt lat="44.37563" lon="0.70043">
        <ele>175</ele>
        <time>2012-02-26T09:20:39Z</time>
      </trkpt>
      <trkpt lat="44.37568" lon="0.70044">
        <ele>175</ele>
        <time>2012-02-26T09:20:40Z</time>
      </trkpt>
      <trkpt lat="44.37574" lon="0.70045">
        <ele>175</ele>
        <time>2012-02-26T09:20:41Z</time>
      </trkpt>
      <trkpt lat="44.37579" lon="0.70046">
        <ele>175</ele>
        <time>2012-02-26T09:20:42Z</time>
      </trkpt>
      <trkpt lat="44.37585" lon="0.70046">
        <ele>176</ele>
        <time>2012-02-26T09:20:43Z</time>
      </trkpt>
      <trkpt lat="44.3759" lon="0.70047">
        <ele>176</ele>
        <time>2012-02-26T09:20:44Z</time>
      </trkpt>
      <trkpt lat="44.37595" lon="0.70047">
        <ele>177</ele>
        <time>2012-02-26T09:20:45Z</time>
      </trkpt>
      <trkpt lat="44.376" lon="0.70047">
        <ele>178</ele>
        <time>2012-02-26T09:20:46Z</time>
      </trkpt>
      <trkpt lat="44.37604" lon="0.70048">
        <ele>178</ele>
        <time>2012-02-26T09:20:47Z</time>
      </trkpt>
      <trkpt lat="44.37608" lon="0.70048">
        <ele>179</ele>
        <time>2012-02-26T09:20:48Z</time>
      </trkpt>
      <trkpt lat="44.37612" lon="0.7005">
        <ele>179</ele>
        <time>2012-02-26T09:20:49Z</time>
      </trkpt>
      <trkpt lat="44.37617" lon="0.7005">
        <ele>180</ele>
        <time>2012-02-26T09:20:50Z</time>
      </trkpt>
      <trkpt lat="44.37622" lon="0.7005">
        <ele>180</ele>
        <time>2012-02-26T09:20:51Z</time>
      </trkpt>
      <trkpt lat="44.37627" lon="0.70051">
        <ele>181</ele>
        <time>2012-02-26T09:20:52Z</time>
      </trkpt>
      <trkpt lat="44.37632" lon="0.70051">
        <ele>181</ele>
        <time>2012-02-26T09:20:53Z</time>
      </trkpt>
      <trkpt lat="44.37637" lon="0.70051">
        <ele>181</ele>
        <time>2012-02-26T09:20:54Z</time>
      </trkpt>
      <trkpt lat="44.37642" lon="0.7005">
        <ele>182</ele>
        <time>2012-02-26T09:20:55Z</time>
      </trkpt>
      <trkpt lat="44.37647" lon="0.7005">
        <ele>182</ele>
        <time>2012-02-26T09:20:56Z</time>
      </trkpt>
      <trkpt lat="44.37652" lon="0.70049">
        <ele>182</ele>
        <time>2012-02-26T09:20:57Z</time>
      </trkpt>
      <trkpt lat="44.37657" lon="0.70048">
        <ele>183</ele>
        <time>2012-02-26T09:20:58Z</time>
      </trkpt>
      <trkpt lat="44.37662" lon="0.70048">
        <ele>183</ele>
        <time>2012-02-26T09:20:59Z</time>
      </trkpt>
      <trkpt lat="44.37667" lon="0.70049">
        <ele>183</ele>
        <time>2012-02-26T09:21:00Z</time>
      </trkpt>
      <trkpt lat="44.37673" lon="0.7005">
        <ele>184</ele>
        <time>2012-02-26T09:21:01Z</time>
      </trkpt>
      <trkpt lat="44.37679" lon="0.70051">
        <ele>184</ele>
        <time>2012-02-26T09:21:02Z</time>
      </trkpt>
      <trkpt lat="44.37684" lon="0.70051">
        <ele>184</ele>
        <time>2012-02-26T09:21:03Z</time>
      </trkpt>
      <trkpt lat="44.37689" lon="0.70052">
        <ele>184</ele>
        <time>2012-02-26T09:21:04Z</time>
      </trkpt>
      <trkpt lat="44.37695" lon="0.70052">
        <ele>184</ele>
        <time>2012-02-26T09:21:05Z</time>
      </trkpt>
      <trkpt lat="44.37701" lon="0.70052">
        <ele>184</ele>
        <time>2012-02-26T09:21:06Z</time>
      </trkpt>
      <trkpt lat="44.37706" lon="0.70052">
        <ele>184</ele>
        <time>2012-02-26T09:21:07Z</time>
      </trkpt>
      <trkpt lat="44.37712" lon="0.70053">
        <ele>184</ele>
        <time>2012-02-26T09:21:08Z</time>
      </trkpt>
      <trkpt lat="44.37718" lon="0.70053">
        <ele>184</ele>
        <time>2012-02-26T09:21:09Z</time>
      </trkpt>
      <trkpt lat="44.37724" lon="0.70053">
        <ele>184</ele>
        <time>2012-02-26T09:21:10Z</time>
      </trkpt>
      <trkpt lat="44.3773" lon="0.70052">
        <ele>184</ele>
        <time>2012-02-26T09:21:11Z</time>
      </trkpt>
      <trkpt lat="44.37735" lon="0.70052">
        <ele>184</ele>
        <time>2012-02-26T09:21:12Z</time>
      </trkpt>
      <trkpt lat="44.3774" lon="0.70051">
        <ele>184</ele>
        <time>2012-02-26T09:21:13Z</time>
      </trkpt>
      <trkpt lat="44.37746" lon="0.70051">
        <ele>184</ele>
        <time>2012-02-26T09:21:14Z</time>
      </trkpt>
      <trkpt lat="44.37752" lon="0.7005">
        <ele>184</ele>
        <time>2012-02-26T09:21:15Z</time>
      </trkpt>
      <trkpt lat="44.37759" lon="0.70049">
        <ele>184</ele>
        <time>2012-02-26T09:21:16Z</time>
      </trkpt>
      <trkpt lat="44.37766" lon="0.70047">
        <ele>184</ele>
        <time>2012-02-26T09:21:17Z</time>
      </trkpt>
      <trkpt lat="44.37772" lon="0.70044">
        <ele>184</ele>
        <time>2012-02-26T09:21:18Z</time>
      </trkpt>
      <trkpt lat="44.3778" lon="0.70042">
        <ele>184</ele>
        <time>2012-02-26T09:21:19Z</time>
      </trkpt>
      <trkpt lat="44.37786" lon="0.70039">
        <ele>184</ele>
        <time>2012-02-26T09:21:20Z</time>
      </trkpt>
      <trkpt lat="44.37794" lon="0.70037">
        <ele>184</ele>
        <time>2012-02-26T09:21:21Z</time>
      </trkpt>
      <trkpt lat="44.37801" lon="0.70034">
        <ele>184</ele>
        <time>2012-02-26T09:21:22Z</time>
      </trkpt>
      <trkpt lat="44.37807" lon="0.7003">
        <ele>184</ele>
        <time>2012-02-26T09:21:23Z</time>
      </trkpt>
      <trkpt lat="44.37814" lon="0.70026">
        <ele>184</ele>
        <time>2012-02-26T09:21:24Z</time>
      </trkpt>
      <trkpt lat="44.3782" lon="0.70021">
        <ele>184</ele>
        <time>2012-02-26T09:21:25Z</time>
      </trkpt>
      <trkpt lat="44.37826" lon="0.70016">
        <ele>184</ele>
        <time>2012-02-26T09:21:26Z</time>
      </trkpt>
      <trkpt lat="44.37831" lon="0.70011">
        <ele>184</ele>
        <time>2012-02-26T09:21:27Z</time>
      </trkpt>
      <trkpt lat="44.37837" lon="0.70007">
        <ele>184</ele>
        <time>2012-02-26T09:21:28Z</time>
      </trkpt>
      <trkpt lat="44.37842" lon="0.70002">
        <ele>183</ele>
        <time>2012-02-26T09:21:29Z</time>
      </trkpt>
      <trkpt lat="44.37846" lon="0.69997">
        <ele>182</ele>
        <time>2012-02-26T09:21:30Z</time>
      </trkpt>
      <trkpt lat="44.37851" lon="0.69993">
        <ele>181</ele>
        <time>2012-02-26T09:21:31Z</time>
      </trkpt>
      <trkpt lat="44.37854" lon="0.69989">
        <ele>180</ele>
        <time>2012-02-26T09:21:32Z</time>
      </trkpt>
      <trkpt lat="44.37857" lon="0.69985">
        <ele>179</ele>
        <time>2012-02-26T09:21:33Z</time>
      </trkpt>
      <trkpt lat="44.3786" lon="0.69981">
        <ele>178</ele>
        <time>2012-02-26T09:21:34Z</time>
      </trkpt>
      <trkpt lat="44.37863" lon="0.69975">
        <ele>178</ele>
        <time>2012-02-26T09:21:35Z</time>
      </trkpt>
      <trkpt lat="44.37866" lon="0.6997">
        <ele>177</ele>
        <time>2012-02-26T09:21:36Z</time>
      </trkpt>
      <trkpt lat="44.37869" lon="0.69967">
        <ele>177</ele>
        <time>2012-02-26T09:21:37Z</time>
      </trkpt>
      <trkpt lat="44.37874" lon="0.69964">
        <ele>177</ele>
        <time>2012-02-26T09:21:38Z</time>
      </trkpt>
      <trkpt lat="44.37879" lon="0.69965">
        <ele>177</ele>
        <time>2012-02-26T09:21:39Z</time>
      </trkpt>
      <trkpt lat="44.37883" lon="0.69965">
        <ele>177</ele>
        <time>2012-02-26T09:21:40Z</time>
      </trkpt>
      <trkpt lat="44.37887" lon="0.69966">
        <ele>177</ele>
        <time>2012-02-26T09:21:41Z</time>
      </trkpt>
      <trkpt lat="44.37891" lon="0.69966">
        <ele>177</ele>
        <time>2012-02-26T09:21:42Z</time>
      </trkpt>
      <trkpt lat="44.37895" lon="0.69966">
        <ele>177</ele>
        <time>2012-02-26T09:21:43Z</time>
      </trkpt>
      <trkpt lat="44.379" lon="0.69967">
        <ele>177</ele>
        <time>2012-02-26T09:21:44Z</time>
      </trkpt>
      <trkpt lat="44.37904" lon="0.69967">
        <ele>177</ele>
        <time>2012-02-26T09:21:45Z</time>
      </trkpt>
      <trkpt lat="44.37909" lon="0.69969">
        <ele>177</ele>
        <time>2012-02-26T09:21:46Z</time>
      </trkpt>
      <trkpt lat="44.37912" lon="0.69973">
        <ele>177</ele>
        <time>2012-02-26T09:21:47Z</time>
      </trkpt>
      <trkpt lat="44.37916" lon="0.69978">
        <ele>177</ele>
        <time>2012-02-26T09:21:48Z</time>
      </trkpt>
      <trkpt lat="44.37921" lon="0.69983">
        <ele>177</ele>
        <time>2012-02-26T09:21:49Z</time>
      </trkpt>
      <trkpt lat="44.37925" lon="0.69987">
        <ele>177</ele>
        <time>2012-02-26T09:21:50Z</time>
      </trkpt>
      <trkpt lat="44.37931" lon="0.69991">
        <ele>178</ele>
        <time>2012-02-26T09:21:51Z</time>
      </trkpt>
      <trkpt lat="44.37936" lon="0.69994">
        <ele>178</ele>
        <time>2012-02-26T09:21:52Z</time>
      </trkpt>
      <trkpt lat="44.37942" lon="0.69997">
        <ele>178</ele>
        <time>2012-02-26T09:21:53Z</time>
      </trkpt>
      <trkpt lat="44.37947" lon="0.70001">
        <ele>178</ele>
        <time>2012-02-26T09:21:54Z</time>
      </trkpt>
      <trkpt lat="44.37952" lon="0.70005">
        <ele>178</ele>
        <time>2012-02-26T09:21:55Z</time>
      </trkpt>
      <trkpt lat="44.37957" lon="0.7001">
        <ele>178</ele>
        <time>2012-02-26T09:21:56Z</time>
      </trkpt>
      <trkpt lat="44.37962" lon="0.70015">
        <ele>179</ele>
        <time>2012-02-26T09:21:57Z</time>
      </trkpt>
      <trkpt lat="44.37966" lon="0.70021">
        <ele>179</ele>
        <time>2012-02-26T09:21:58Z</time>
      </trkpt>
      <trkpt lat="44.37969" lon="0.70027">
        <ele>180</ele>
        <time>2012-02-26T09:21:59Z</time>
      </trkpt>
      <trkpt lat="44.37973" lon="0.70035">
        <ele>181</ele>
        <time>2012-02-26T09:22:00Z</time>
      </trkpt>
      <trkpt lat="44.37977" lon="0.70042">
        <ele>181</ele>
        <time>2012-02-26T09:22:01Z</time>
      </trkpt>
      <trkpt lat="44.37981" lon="0.70049">
        <ele>182</ele>
        <time>2012-02-26T09:22:02Z</time>
      </trkpt>
      <trkpt lat="44.37986" lon="0.70055">
        <ele>183</ele>
        <time>2012-02-26T09:22:03Z</time>
      </trkpt>
      <trkpt lat="44.37992" lon="0.70061">
        <ele>183</ele>
        <time>2012-02-26T09:22:04Z</time>
      </trkpt>
      <trkpt lat="44.37998" lon="0.70066">
        <ele>183</ele>
        <time>2012-02-26T09:22:05Z</time>
      </trkpt>
      <trkpt lat="44.38004" lon="0.7007">
        <ele>183</ele>
        <time>2012-02-26T09:22:06Z</time>
      </trkpt>
      <trkpt lat="44.3801" lon="0.70073">
        <ele>183</ele>
        <time>2012-02-26T09:22:07Z</time>
      </trkpt>
      <trkpt lat="44.38016" lon="0.70076">
        <ele>183</ele>
        <time>2012-02-26T09:22:08Z</time>
      </trkpt>
      <trkpt lat="44.38022" lon="0.7008">
        <ele>183</ele>
        <time>2012-02-26T09:22:09Z</time>
      </trkpt>
      <trkpt lat="44.38027" lon="0.70083">
        <ele>184</ele>
        <time>2012-02-26T09:22:10Z</time>
      </trkpt>
      <trkpt lat="44.38033" lon="0.70085">
        <ele>184</ele>
        <time>2012-02-26T09:22:11Z</time>
      </trkpt>
      <trkpt lat="44.38039" lon="0.70086">
        <ele>185</ele>
        <time>2012-02-26T09:22:12Z</time>
      </trkpt>
      <trkpt lat="44.38045" lon="0.70086">
        <ele>185</ele>
        <time>2012-02-26T09:22:13Z</time>
      </trkpt>
      <trkpt lat="44.3805" lon="0.70085">
        <ele>186</ele>
        <time>2012-02-26T09:22:14Z</time>
      </trkpt>
      <trkpt lat="44.38056" lon="0.70085">
        <ele>186</ele>
        <time>2012-02-26T09:22:15Z</time>
      </trkpt>
      <trkpt lat="44.38061" lon="0.70086">
        <ele>186</ele>
        <time>2012-02-26T09:22:16Z</time>
      </trkpt>
      <trkpt lat="44.38067" lon="0.70085">
        <ele>186</ele>
        <time>2012-02-26T09:22:17Z</time>
      </trkpt>
      <trkpt lat="44.38073" lon="0.70086">
        <ele>186</ele>
        <time>2012-02-26T09:22:18Z</time>
      </trkpt>
      <trkpt lat="44.38079" lon="0.70086">
        <ele>186</ele>
        <time>2012-02-26T09:22:19Z</time>
      </trkpt>
      <trkpt lat="44.38084" lon="0.70088">
        <ele>186</ele>
        <time>2012-02-26T09:22:20Z</time>
      </trkpt>
      <trkpt lat="44.38089" lon="0.70089">
        <ele>186</ele>
        <time>2012-02-26T09:22:21Z</time>
      </trkpt>
      <trkpt lat="44.38094" lon="0.7009">
        <ele>186</ele>
        <time>2012-02-26T09:22:22Z</time>
      </trkpt>
      <trkpt lat="44.38099" lon="0.70092">
        <ele>187</ele>
        <time>2012-02-26T09:22:23Z</time>
      </trkpt>
      <trkpt lat="44.38105" lon="0.70095">
        <ele>187</ele>
        <time>2012-02-26T09:22:24Z</time>
      </trkpt>
      <trkpt lat="44.3811" lon="0.70098">
        <ele>187</ele>
        <time>2012-02-26T09:22:25Z</time>
      </trkpt>
      <trkpt lat="44.38115" lon="0.701">
        <ele>187</ele>
        <time>2012-02-26T09:22:26Z</time>
      </trkpt>
      <trkpt lat="44.38121" lon="0.70103">
        <ele>187</ele>
        <time>2012-02-26T09:22:27Z</time>
      </trkpt>
      <trkpt lat="44.38126" lon="0.70105">
        <ele>187</ele>
        <time>2012-02-26T09:22:28Z</time>
      </trkpt>
      <trkpt lat="44.38132" lon="0.70108">
        <ele>187</ele>
        <time>2012-02-26T09:22:29Z</time>
      </trkpt>
      <trkpt lat="44.38138" lon="0.7011">
        <ele>187</ele>
        <time>2012-02-26T09:22:30Z</time>
      </trkpt>
      <trkpt lat="44.38143" lon="0.70113">
        <ele>187</ele>
        <time>2012-02-26T09:22:31Z</time>
      </trkpt>
      <trkpt lat="44.38149" lon="0.70117">
        <ele>187</ele>
        <time>2012-02-26T09:22:32Z</time>
      </trkpt>
      <trkpt lat="44.38154" lon="0.70121">
        <ele>187</ele>
        <time>2012-02-26T09:22:33Z</time>
      </trkpt>
      <trkpt lat="44.3816" lon="0.70124">
        <ele>187</ele>
        <time>2012-02-26T09:22:34Z</time>
      </trkpt>
      <trkpt lat="44.38166" lon="0.70128">
        <ele>187</ele>
        <time>2012-02-26T09:22:35Z</time>
      </trkpt>
      <trkpt lat="44.38171" lon="0.70132">
        <ele>187</ele>
        <time>2012-02-26T09:22:36Z</time>
      </trkpt>
      <trkpt lat="44.38176" lon="0.70136">
        <ele>187</ele>
        <time>2012-02-26T09:22:37Z</time>
      </trkpt>
      <trkpt lat="44.38182" lon="0.7014">
        <ele>187</ele>
        <time>2012-02-26T09:22:38Z</time>
      </trkpt>
      <trkpt lat="44.38187" lon="0.70144">
        <ele>187</ele>
        <time>2012-02-26T09:22:39Z</time>
      </trkpt>
      <trkpt lat="44.38192" lon="0.70148">
        <ele>187</ele>
        <time>2012-02-26T09:22:40Z</time>
      </trkpt>
      <trkpt lat="44.38198" lon="0.70152">
        <ele>187</ele>
        <time>2012-02-26T09:22:41Z</time>
      </trkpt>
      <trkpt lat="44.38203" lon="0.70156">
        <ele>187</ele>
        <time>2012-02-26T09:22:42Z</time>
      </trkpt>
      <trkpt lat="44.38208" lon="0.7016">
        <ele>187</ele>
        <time>2012-02-26T09:22:43Z</time>
      </trkpt>
      <trkpt lat="44.38214" lon="0.70163">
        <ele>187</ele>
        <time>2012-02-26T09:22:44Z</time>
      </trkpt>
      <trkpt lat="44.38219" lon="0.70167">
        <ele>187</ele>
        <time>2012-02-26T09:22:45Z</time>
      </trkpt>
      <trkpt lat="44.38225" lon="0.70171">
        <ele>187</ele>
        <time>2012-02-26T09:22:46Z</time>
      </trkpt>
      <trkpt lat="44.3823" lon="0.70176">
        <ele>187</ele>
        <time>2012-02-26T09:22:47Z</time>
      </trkpt>
      <trkpt lat="44.38234" lon="0.7018">
        <ele>187</ele>
        <time>2012-02-26T09:22:48Z</time>
      </trkpt>
      <trkpt lat="44.3824" lon="0.70185">
        <ele>187</ele>
        <time>2012-02-26T09:22:49Z</time>
      </trkpt>
      <trkpt lat="44.38244" lon="0.7019">
        <ele>187</ele>
        <time>2012-02-26T09:22:50Z</time>
      </trkpt>
      <trkpt lat="44.38249" lon="0.70194">
        <ele>187</ele>
        <time>2012-02-26T09:22:51Z</time>
      </trkpt>
      <trkpt lat="44.38255" lon="0.70198">
        <ele>187</ele>
        <time>2012-02-26T09:22:52Z</time>
      </trkpt>
      <trkpt lat="44.3826" lon="0.70202">
        <ele>187</ele>
        <time>2012-02-26T09:22:53Z</time>
      </trkpt>
      <trkpt lat="44.38264" lon="0.70207">
        <ele>187</ele>
        <time>2012-02-26T09:22:54Z</time>
      </trkpt>
      <trkpt lat="44.38269" lon="0.70212">
        <ele>187</ele>
        <time>2012-02-26T09:22:55Z</time>
      </trkpt>
      <trkpt lat="44.38273" lon="0.70217">
        <ele>187</ele>
        <time>2012-02-26T09:22:56Z</time>
      </trkpt>
      <trkpt lat="44.38278" lon="0.70221">
        <ele>187</ele>
        <time>2012-02-26T09:22:57Z</time>
      </trkpt>
      <trkpt lat="44.38284" lon="0.70223">
        <ele>187</ele>
        <time>2012-02-26T09:22:58Z</time>
      </trkpt>
      <trkpt lat="44.38287" lon="0.70222">
        <ele>187</ele>
        <time>2012-02-26T09:22:59Z</time>
      </trkpt>
      <trkpt lat="44.3829" lon="0.70219">
        <ele>187</ele>
        <time>2012-02-26T09:23:00Z</time>
      </trkpt>
      <trkpt lat="44.38292" lon="0.70214">
        <ele>187</ele>
        <time>2012-02-26T09:23:01Z</time>
      </trkpt>
      <trkpt lat="44.38294" lon="0.70208">
        <ele>187</ele>
        <time>2012-02-26T09:23:02Z</time>
      </trkpt>
      <trkpt lat="44.38296" lon="0.70202">
        <ele>187</ele>
        <time>2012-02-26T09:23:03Z</time>
      </trkpt>
      <trkpt lat="44.38298" lon="0.70197">
        <ele>187</ele>
        <time>2012-02-26T09:23:04Z</time>
      </trkpt>
      <trkpt lat="44.38301" lon="0.70191">
        <ele>187</ele>
        <time>2012-02-26T09:23:05Z</time>
      </trkpt>
      <trkpt lat="44.38303" lon="0.70185">
        <ele>187</ele>
        <time>2012-02-26T09:23:06Z</time>
      </trkpt>
      <trkpt lat="44.38305" lon="0.70178">
        <ele>187</ele>
        <time>2012-02-26T09:23:07Z</time>
      </trkpt>
      <trkpt lat="44.38307" lon="0.70172">
        <ele>187</ele>
        <time>2012-02-26T09:23:08Z</time>
      </trkpt>
      <trkpt lat="44.38309" lon="0.70166">
        <ele>187</ele>
        <time>2012-02-26T09:23:09Z</time>
      </trkpt>
      <trkpt lat="44.38311" lon="0.70159">
        <ele>187</ele>
        <time>2012-02-26T09:23:10Z</time>
      </trkpt>
      <trkpt lat="44.38314" lon="0.70152">
        <ele>187</ele>
        <time>2012-02-26T09:23:11Z</time>
      </trkpt>
      <trkpt lat="44.38316" lon="0.70144">
        <ele>187</ele>
        <time>2012-02-26T09:23:12Z</time>
      </trkpt>
      <trkpt lat="44.38317" lon="0.70138">
        <ele>187</ele>
        <time>2012-02-26T09:23:13Z</time>
      </trkpt>
      <trkpt lat="44.38319" lon="0.7013">
        <ele>187</ele>
        <time>2012-02-26T09:23:14Z</time>
      </trkpt>
      <trkpt lat="44.38321" lon="0.70123">
        <ele>187</ele>
        <time>2012-02-26T09:23:15Z</time>
      </trkpt>
      <trkpt lat="44.38322" lon="0.70115">
        <ele>187</ele>
        <time>2012-02-26T09:23:16Z</time>
      </trkpt>
      <trkpt lat="44.38323" lon="0.70108">
        <ele>187</ele>
        <time>2012-02-26T09:23:17Z</time>
      </trkpt>
      <trkpt lat="44.38323" lon="0.70101">
        <ele>187</ele>
        <time>2012-02-26T09:23:18Z</time>
      </trkpt>
      <trkpt lat="44.38324" lon="0.70094">
        <ele>186</ele>
        <time>2012-02-26T09:23:19Z</time>
      </trkpt>
      <trkpt lat="44.38325" lon="0.70086">
        <ele>186</ele>
        <time>2012-02-26T09:23:20Z</time>
      </trkpt>
      <trkpt lat="44.38326" lon="0.70078">
        <ele>186</ele>
        <time>2012-02-26T09:23:21Z</time>
      </trkpt>
      <trkpt lat="44.38328" lon="0.7007">
        <ele>186</ele>
        <time>2012-02-26T09:23:22Z</time>
      </trkpt>
      <trkpt lat="44.38329" lon="0.70062">
        <ele>185</ele>
        <time>2012-02-26T09:23:23Z</time>
      </trkpt>
      <trkpt lat="44.3833" lon="0.70054">
        <ele>185</ele>
        <time>2012-02-26T09:23:24Z</time>
      </trkpt>
      <trkpt lat="44.38331" lon="0.70045">
        <ele>185</ele>
        <time>2012-02-26T09:23:25Z</time>
      </trkpt>
      <trkpt lat="44.38333" lon="0.70037">
        <ele>185</ele>
        <time>2012-02-26T09:23:26Z</time>
      </trkpt>
      <trkpt lat="44.38334" lon="0.70029">
        <ele>184</ele>
        <time>2012-02-26T09:23:27Z</time>
      </trkpt>
      <trkpt lat="44.38335" lon="0.7002">
        <ele>184</ele>
        <time>2012-02-26T09:23:28Z</time>
      </trkpt>
      <trkpt lat="44.38336" lon="0.70012">
        <ele>184</ele>
        <time>2012-02-26T09:23:29Z</time>
      </trkpt>
      <trkpt lat="44.38338" lon="0.70003">
        <ele>184</ele>
        <time>2012-02-26T09:23:30Z</time>
      </trkpt>
      <trkpt lat="44.38339" lon="0.69994">
        <ele>184</ele>
        <time>2012-02-26T09:23:31Z</time>
      </trkpt>
      <trkpt lat="44.38341" lon="0.69985">
        <ele>183</ele>
        <time>2012-02-26T09:23:32Z</time>
      </trkpt>
      <trkpt lat="44.38342" lon="0.69976">
        <ele>183</ele>
        <time>2012-02-26T09:23:33Z</time>
      </trkpt>
      <trkpt lat="44.38342" lon="0.69966">
        <ele>183</ele>
        <time>2012-02-26T09:23:34Z</time>
      </trkpt>
      <trkpt lat="44.38343" lon="0.69957">
        <ele>183</ele>
        <time>2012-02-26T09:23:35Z</time>
      </trkpt>
      <trkpt lat="44.38343" lon="0.69947">
        <ele>182</ele>
        <time>2012-02-26T09:23:36Z</time>
      </trkpt>
      <trkpt lat="44.38344" lon="0.69937">
        <ele>182</ele>
        <time>2012-02-26T09:23:37Z</time>
      </trkpt>
      <trkpt lat="44.38345" lon="0.69928">
        <ele>182</ele>
        <time>2012-02-26T09:23:38Z</time>
      </trkpt>
      <trkpt lat="44.38347" lon="0.69918">
        <ele>182</ele>
        <time>2012-02-26T09:23:39Z</time>
      </trkpt>
      <trkpt lat="44.38348" lon="0.69909">
        <ele>182</ele>
        <time>2012-02-26T09:23:40Z</time>
      </trkpt>
      <trkpt lat="44.3835" lon="0.699">
        <ele>182</ele>
        <time>2012-02-26T09:23:41Z</time>
      </trkpt>
      <trkpt lat="44.38351" lon="0.69892">
        <ele>182</ele>
        <time>2012-02-26T09:23:42Z</time>
      </trkpt>
      <trkpt lat="44.38353" lon="0.69884">
        <ele>182</ele>
        <time>2012-02-26T09:23:43Z</time>
      </trkpt>
      <trkpt lat="44.38354" lon="0.69877">
        <ele>182</ele>
        <time>2012-02-26T09:23:44Z</time>
      </trkpt>
      <trkpt lat="44.38356" lon="0.6987">
        <ele>182</ele>
        <time>2012-02-26T09:23:45Z</time>
      </trkpt>
      <trkpt lat="44.38358" lon="0.69862">
        <ele>182</ele>
        <time>2012-02-26T09:23:46Z</time>
      </trkpt>
      <trkpt lat="44.3836" lon="0.69855">
        <ele>182</ele>
        <time>2012-02-26T09:23:47Z</time>
      </trkpt>
      <trkpt lat="44.38362" lon="0.69848">
        <ele>182</ele>
        <time>2012-02-26T09:23:48Z</time>
      </trkpt>
      <trkpt lat="44.38364" lon="0.6984">
        <ele>182</ele>
        <time>2012-02-26T09:23:49Z</time>
      </trkpt>
      <trkpt lat="44.38366" lon="0.69832">
        <ele>182</ele>
        <time>2012-02-26T09:23:50Z</time>
      </trkpt>
      <trkpt lat="44.38368" lon="0.69825">
        <ele>182</ele>
        <time>2012-02-26T09:23:51Z</time>
      </trkpt>
      <trkpt lat="44.3837" lon="0.69818">
        <ele>182</ele>
        <time>2012-02-26T09:23:52Z</time>
      </trkpt>
      <trkpt lat="44.38372" lon="0.6981">
        <ele>182</ele>
        <time>2012-02-26T09:23:53Z</time>
      </trkpt>
      <trkpt lat="44.38374" lon="0.69802">
        <ele>182</ele>
        <time>2012-02-26T09:23:54Z</time>
      </trkpt>
      <trkpt lat="44.38376" lon="0.69794">
        <ele>182</ele>
        <time>2012-02-26T09:23:55Z</time>
      </trkpt>
      <trkpt lat="44.38377" lon="0.69787">
        <ele>182</ele>
        <time>2012-02-26T09:23:56Z</time>
      </trkpt>
      <trkpt lat="44.38379" lon="0.6978">
        <ele>182</ele>
        <time>2012-02-26T09:23:57Z</time>
      </trkpt>
      <trkpt lat="44.38381" lon="0.69773">
        <ele>182</ele>
        <time>2012-02-26T09:23:58Z</time>
      </trkpt>
      <trkpt lat="44.38382" lon="0.69766">
        <ele>182</ele>
        <time>2012-02-26T09:23:59Z</time>
      </trkpt>
      <trkpt lat="44.38383" lon="0.69759">
        <ele>182</ele>
        <time>2012-02-26T09:24:00Z</time>
      </trkpt>
      <trkpt lat="44.38385" lon="0.69752">
        <ele>182</ele>
        <time>2012-02-26T09:24:01Z</time>
      </trkpt>
      <trkpt lat="44.38386" lon="0.69745">
        <ele>182</ele>
        <time>2012-02-26T09:24:02Z</time>
      </trkpt>
      <trkpt lat="44.38387" lon="0.69737">
        <ele>182</ele>
        <time>2012-02-26T09:24:03Z</time>
      </trkpt>
      <trkpt lat="44.38388" lon="0.6973">
        <ele>182</ele>
        <time>2012-02-26T09:24:04Z</time>
      </trkpt>
      <trkpt lat="44.38388" lon="0.69722">
        <ele>182</ele>
        <time>2012-02-26T09:24:05Z</time>
      </trkpt>
      <trkpt lat="44.38389" lon="0.69714">
        <ele>182</ele>
        <time>2012-02-26T09:24:06Z</time>
      </trkpt>
      <trkpt lat="44.38389" lon="0.69706">
        <ele>182</ele>
        <time>2012-02-26T09:24:07Z</time>
      </trkpt>
      <trkpt lat="44.3839" lon="0.69697">
        <ele>182</ele>
        <time>2012-02-26T09:24:08Z</time>
      </trkpt>
      <trkpt lat="44.3839" lon="0.6969">
        <ele>182</ele>
        <time>2012-02-26T09:24:09Z</time>
      </trkpt>
      <trkpt lat="44.3839" lon="0.69681">
        <ele>182</ele>
        <time>2012-02-26T09:24:10Z</time>
      </trkpt>
      <trkpt lat="44.3839" lon="0.69674">
        <ele>182</ele>
        <time>2012-02-26T09:24:11Z</time>
      </trkpt>
      <trkpt lat="44.38389" lon="0.69666">
        <ele>182</ele>
        <time>2012-02-26T09:24:12Z</time>
      </trkpt>
      <trkpt lat="44.38388" lon="0.69658">
        <ele>182</ele>
        <time>2012-02-26T09:24:13Z</time>
      </trkpt>
      <trkpt lat="44.38388" lon="0.69651">
        <ele>182</ele>
        <time>2012-02-26T09:24:14Z</time>
      </trkpt>
      <trkpt lat="44.38388" lon="0.69643">
        <ele>182</ele>
        <time>2012-02-26T09:24:15Z</time>
      </trkpt>
      <trkpt lat="44.38388" lon="0.69635">
        <ele>182</ele>
        <time>2012-02-26T09:24:16Z</time>
      </trkpt>
      <trkpt lat="44.38388" lon="0.69627">
        <ele>182</ele>
        <time>2012-02-26T09:24:17Z</time>
      </trkpt>
      <trkpt lat="44.38389" lon="0.69619">
        <ele>182</ele>
        <time>2012-02-26T09:24:18Z</time>
      </trkpt>
      <trkpt lat="44.38391" lon="0.69611">
        <ele>182</ele>
        <time>2012-02-26T09:24:19Z</time>
      </trkpt>
      <trkpt lat="44.38393" lon="0.69604">
        <ele>182</ele>
        <time>2012-02-26T09:24:20Z</time>
      </trkpt>
      <trkpt lat="44.38396" lon="0.69598">
        <ele>182</ele>
        <time>2012-02-26T09:24:21Z</time>
      </trkpt>
      <trkpt lat="44.38399" lon="0.69591">
        <ele>182</ele>
        <time>2012-02-26T09:24:22Z</time>
      </trkpt>
      <trkpt lat="44.38402" lon="0.69584">
        <ele>182</ele>
        <time>2012-02-26T09:24:23Z</time>
      </trkpt>
      <trkpt lat="44.38406" lon="0.69577">
        <ele>182</ele>
        <time>2012-02-26T09:24:24Z</time>
      </trkpt>
      <trkpt lat="44.38409" lon="0.69571">
        <ele>182</ele>
        <time>2012-02-26T09:24:25Z</time>
      </trkpt>
      <trkpt lat="44.38412" lon="0.69564">
        <ele>182</ele>
        <time>2012-02-26T09:24:26Z</time>
      </trkpt>
      <trkpt lat="44.38416" lon="0.69558">
        <ele>182</ele>
        <time>2012-02-26T09:24:27Z</time>
      </trkpt>
      <trkpt lat="44.38419" lon="0.69552">
        <ele>182</ele>
        <time>2012-02-26T09:24:28Z</time>
      </trkpt>
      <trkpt lat="44.38422" lon="0.69545">
        <ele>182</ele>
        <time>2012-02-26T09:24:29Z</time>
      </trkpt>
      <trkpt lat="44.38425" lon="0.69539">
        <ele>182</ele>
        <time>2012-02-26T09:24:30Z</time>
      </trkpt>
      <trkpt lat="44.38429" lon="0.69533">
        <ele>182</ele>
        <time>2012-02-26T09:24:31Z</time>
      </trkpt>
      <trkpt lat="44.38431" lon="0.69526">
        <ele>182</ele>
        <time>2012-02-26T09:24:32Z</time>
      </trkpt>
      <trkpt lat="44.38433" lon="0.6952">
        <ele>182</ele>
        <time>2012-02-26T09:24:33Z</time>
      </trkpt>
      <trkpt lat="44.38437" lon="0.69513">
        <ele>182</ele>
        <time>2012-02-26T09:24:34Z</time>
      </trkpt>
      <trkpt lat="44.3844" lon="0.69507">
        <ele>182</ele>
        <time>2012-02-26T09:24:35Z</time>
      </trkpt>
      <trkpt lat="44.38445" lon="0.69502">
        <ele>182</ele>
        <time>2012-02-26T09:24:36Z</time>
      </trkpt>
      <trkpt lat="44.38449" lon="0.69496">
        <ele>182</ele>
        <time>2012-02-26T09:24:37Z</time>
      </trkpt>
      <trkpt lat="44.38454" lon="0.6949">
        <ele>182</ele>
        <time>2012-02-26T09:24:38Z</time>
      </trkpt>
      <trkpt lat="44.38457" lon="0.69483">
        <ele>182</ele>
        <time>2012-02-26T09:24:39Z</time>
      </trkpt>
      <trkpt lat="44.38462" lon="0.69476">
        <ele>182</ele>
        <time>2012-02-26T09:24:40Z</time>
      </trkpt>
      <trkpt lat="44.38465" lon="0.6947">
        <ele>182</ele>
        <time>2012-02-26T09:24:41Z</time>
      </trkpt>
      <trkpt lat="44.38469" lon="0.69464">
        <ele>182</ele>
        <time>2012-02-26T09:24:42Z</time>
      </trkpt>
      <trkpt lat="44.38474" lon="0.69457">
        <ele>182</ele>
        <time>2012-02-26T09:24:43Z</time>
      </trkpt>
      <trkpt lat="44.38478" lon="0.6945">
        <ele>182</ele>
        <time>2012-02-26T09:24:44Z</time>
      </trkpt>
      <trkpt lat="44.38482" lon="0.69442">
        <ele>182</ele>
        <time>2012-02-26T09:24:45Z</time>
      </trkpt>
      <trkpt lat="44.38486" lon="0.69432">
        <ele>181</ele>
        <time>2012-02-26T09:24:46Z</time>
      </trkpt>
      <trkpt lat="44.38489" lon="0.6942">
        <ele>180</ele>
        <time>2012-02-26T09:24:47Z</time>
      </trkpt>
      <trkpt lat="44.38491" lon="0.69409">
        <ele>179</ele>
        <time>2012-02-26T09:24:48Z</time>
      </trkpt>
      <trkpt lat="44.38492" lon="0.69398">
        <ele>178</ele>
        <time>2012-02-26T09:24:49Z</time>
      </trkpt>
      <trkpt lat="44.38491" lon="0.69389">
        <ele>177</ele>
        <time>2012-02-26T09:24:50Z</time>
      </trkpt>
      <trkpt lat="44.3849" lon="0.69379">
        <ele>176</ele>
        <time>2012-02-26T09:24:51Z</time>
      </trkpt>
      <trkpt lat="44.38488" lon="0.6937">
        <ele>175</ele>
        <time>2012-02-26T09:24:52Z</time>
      </trkpt>
      <trkpt lat="44.38486" lon="0.69362">
        <ele>174</ele>
        <time>2012-02-26T09:24:53Z</time>
      </trkpt>
      <trkpt lat="44.38483" lon="0.69355">
        <ele>173</ele>
        <time>2012-02-26T09:24:54Z</time>
      </trkpt>
      <trkpt lat="44.38482" lon="0.69349">
        <ele>172</ele>
        <time>2012-02-26T09:24:55Z</time>
      </trkpt>
      <trkpt lat="44.3848" lon="0.69344">
        <ele>172</ele>
        <time>2012-02-26T09:24:56Z</time>
      </trkpt>
      <trkpt lat="44.38481" lon="0.6934">
        <ele>171</ele>
        <time>2012-02-26T09:24:57Z</time>
      </trkpt>
      <trkpt lat="44.38482" lon="0.69335">
        <ele>170</ele>
        <time>2012-02-26T09:24:58Z</time>
      </trkpt>
      <trkpt lat="44.38485" lon="0.69331">
        <ele>169</ele>
        <time>2012-02-26T09:24:59Z</time>
      </trkpt>
      <trkpt lat="44.38488" lon="0.69326">
        <ele>169</ele>
        <time>2012-02-26T09:25:00Z</time>
      </trkpt>
      <trkpt lat="44.38493" lon="0.6932">
        <ele>169</ele>
        <time>2012-02-26T09:25:01Z</time>
      </trkpt>
      <trkpt lat="44.38497" lon="0.69314">
        <ele>168</ele>
        <time>2012-02-26T09:25:02Z</time>
      </trkpt>
      <trkpt lat="44.38501" lon="0.69307">
        <ele>168</ele>
        <time>2012-02-26T09:25:03Z</time>
      </trkpt>
      <trkpt lat="44.38506" lon="0.69301">
        <ele>168</ele>
        <time>2012-02-26T09:25:04Z</time>
      </trkpt>
      <trkpt lat="44.38511" lon="0.69294">
        <ele>168</ele>
        <time>2012-02-26T09:25:05Z</time>
      </trkpt>
      <trkpt lat="44.38516" lon="0.69287">
        <ele>167</ele>
        <time>2012-02-26T09:25:06Z</time>
      </trkpt>
      <trkpt lat="44.3852" lon="0.6928">
        <ele>167</ele>
        <time>2012-02-26T09:25:07Z</time>
      </trkpt>
      <trkpt lat="44.38522" lon="0.69277">
        <ele>167</ele>
        <time>2012-02-26T09:25:08Z</time>
      </trkpt>
      <trkpt lat="44.38523" lon="0.69274">
        <ele>167</ele>
        <time>2012-02-26T09:25:09Z</time>
      </trkpt>
      <trkpt lat="44.38525" lon="0.69272">
        <ele>167</ele>
        <time>2012-02-26T09:25:10Z</time>
      </trkpt>
      <trkpt lat="44.38526" lon="0.6927">
        <ele>167</ele>
        <time>2012-02-26T09:25:11Z</time>
      </trkpt>
      <trkpt lat="44.38527" lon="0.69267">
        <ele>167</ele>
        <time>2012-02-26T09:25:12Z</time>
      </trkpt>
      <trkpt lat="44.38528" lon="0.69266">
        <ele>167</ele>
        <time>2012-02-26T09:25:13Z</time>
      </trkpt>
      <trkpt lat="44.38531" lon="0.69263">
        <ele>167</ele>
        <time>2012-02-26T09:25:14Z</time>
      </trkpt>
      <trkpt lat="44.38533" lon="0.6926">
        <ele>166</ele>
        <time>2012-02-26T09:25:15Z</time>
      </trkpt>
      <trkpt lat="44.38536" lon="0.69256">
        <ele>166</ele>
        <time>2012-02-26T09:25:16Z</time>
      </trkpt>
      <trkpt lat="44.38538" lon="0.69252">
        <ele>166</ele>
        <time>2012-02-26T09:25:17Z</time>
      </trkpt>
      <trkpt lat="44.38541" lon="0.69247">
        <ele>166</ele>
        <time>2012-02-26T09:25:18Z</time>
      </trkpt>
      <trkpt lat="44.38543" lon="0.69242">
        <ele>166</ele>
        <time>2012-02-26T09:25:19Z</time>
      </trkpt>
      <trkpt lat="44.38546" lon="0.69236">
        <ele>166</ele>
        <time>2012-02-26T09:25:20Z</time>
      </trkpt>
      <trkpt lat="44.38549" lon="0.6923">
        <ele>166</ele>
        <time>2012-02-26T09:25:21Z</time>
      </trkpt>
      <trkpt lat="44.38552" lon="0.69224">
        <ele>166</ele>
        <time>2012-02-26T09:25:22Z</time>
      </trkpt>
      <trkpt lat="44.38554" lon="0.69217">
        <ele>166</ele>
        <time>2012-02-26T09:25:23Z</time>
      </trkpt>
      <trkpt lat="44.38557" lon="0.69209">
        <ele>166</ele>
        <time>2012-02-26T09:25:24Z</time>
      </trkpt>
      <trkpt lat="44.38559" lon="0.69202">
        <ele>166</ele>
        <time>2012-02-26T09:25:25Z</time>
      </trkpt>
      <trkpt lat="44.38562" lon="0.69195">
        <ele>166</ele>
        <time>2012-02-26T09:25:26Z</time>
      </trkpt>
      <trkpt lat="44.38565" lon="0.69187">
        <ele>166</ele>
        <time>2012-02-26T09:25:27Z</time>
      </trkpt>
      <trkpt lat="44.38568" lon="0.69179">
        <ele>165</ele>
        <time>2012-02-26T09:25:28Z</time>
      </trkpt>
      <trkpt lat="44.3857" lon="0.69172">
        <ele>165</ele>
        <time>2012-02-26T09:25:29Z</time>
      </trkpt>
      <trkpt lat="44.38573" lon="0.69164">
        <ele>165</ele>
        <time>2012-02-26T09:25:30Z</time>
      </trkpt>
      <trkpt lat="44.38576" lon="0.69156">
        <ele>165</ele>
        <time>2012-02-26T09:25:31Z</time>
      </trkpt>
      <trkpt lat="44.38579" lon="0.69147">
        <ele>165</ele>
        <time>2012-02-26T09:25:32Z</time>
      </trkpt>
      <trkpt lat="44.38581" lon="0.69139">
        <ele>165</ele>
        <time>2012-02-26T09:25:33Z</time>
      </trkpt>
      <trkpt lat="44.38584" lon="0.69131">
        <ele>165</ele>
        <time>2012-02-26T09:25:34Z</time>
      </trkpt>
      <trkpt lat="44.38586" lon="0.69123">
        <ele>165</ele>
        <time>2012-02-26T09:25:35Z</time>
      </trkpt>
      <trkpt lat="44.38589" lon="0.69116">
        <ele>164</ele>
        <time>2012-02-26T09:25:36Z</time>
      </trkpt>
      <trkpt lat="44.38591" lon="0.69109">
        <ele>164</ele>
        <time>2012-02-26T09:25:37Z</time>
      </trkpt>
      <trkpt lat="44.38594" lon="0.69102">
        <ele>164</ele>
        <time>2012-02-26T09:25:38Z</time>
      </trkpt>
      <trkpt lat="44.38596" lon="0.69095">
        <ele>164</ele>
        <time>2012-02-26T09:25:39Z</time>
      </trkpt>
      <trkpt lat="44.38599" lon="0.69087">
        <ele>163</ele>
        <time>2012-02-26T09:25:40Z</time>
      </trkpt>
      <trkpt lat="44.38601" lon="0.69081">
        <ele>163</ele>
        <time>2012-02-26T09:25:41Z</time>
      </trkpt>
      <trkpt lat="44.38602" lon="0.69073">
        <ele>163</ele>
        <time>2012-02-26T09:25:42Z</time>
      </trkpt>
      <trkpt lat="44.38602" lon="0.69065">
        <ele>163</ele>
        <time>2012-02-26T09:25:43Z</time>
      </trkpt>
      <trkpt lat="44.38601" lon="0.69058">
        <ele>163</ele>
        <time>2012-02-26T09:25:44Z</time>
      </trkpt>
      <trkpt lat="44.38599" lon="0.6905">
        <ele>163</ele>
        <time>2012-02-26T09:25:45Z</time>
      </trkpt>
      <trkpt lat="44.38597" lon="0.69044">
        <ele>163</ele>
        <time>2012-02-26T09:25:46Z</time>
      </trkpt>
      <trkpt lat="44.38595" lon="0.69038">
        <ele>163</ele>
        <time>2012-02-26T09:25:47Z</time>
      </trkpt>
      <trkpt lat="44.38593" lon="0.69032">
        <ele>163</ele>
        <time>2012-02-26T09:25:48Z</time>
      </trkpt>
      <trkpt lat="44.3859" lon="0.69026">
        <ele>163</ele>
        <time>2012-02-26T09:25:49Z</time>
      </trkpt>
      <trkpt lat="44.38586" lon="0.6902">
        <ele>162</ele>
        <time>2012-02-26T09:25:50Z</time>
      </trkpt>
      <trkpt lat="44.38582" lon="0.69016">
        <ele>161</ele>
        <time>2012-02-26T09:25:51Z</time>
      </trkpt>
      <trkpt lat="44.38578" lon="0.69012">
        <ele>161</ele>
        <time>2012-02-26T09:25:52Z</time>
      </trkpt>
      <trkpt lat="44.38573" lon="0.6901">
        <ele>161</ele>
        <time>2012-02-26T09:25:53Z</time>
      </trkpt>
      <trkpt lat="44.38568" lon="0.69007">
        <ele>160</ele>
        <time>2012-02-26T09:25:54Z</time>
      </trkpt>
      <trkpt lat="44.38564" lon="0.69006">
        <ele>160</ele>
        <time>2012-02-26T09:25:55Z</time>
      </trkpt>
      <trkpt lat="44.3856" lon="0.69005">
        <ele>160</ele>
        <time>2012-02-26T09:25:56Z</time>
      </trkpt>
      <trkpt lat="44.38556" lon="0.69002">
        <ele>160</ele>
        <time>2012-02-26T09:25:57Z</time>
      </trkpt>
      <trkpt lat="44.38553" lon="0.68997">
        <ele>160</ele>
        <time>2012-02-26T09:25:58Z</time>
      </trkpt>
      <trkpt lat="44.38551" lon="0.6899">
        <ele>160</ele>
        <time>2012-02-26T09:25:59Z</time>
      </trkpt>
      <trkpt lat="44.38548" lon="0.68984">
        <ele>160</ele>
        <time>2012-02-26T09:26:00Z</time>
      </trkpt>
      <trkpt lat="44.38543" lon="0.68977">
        <ele>160</ele>
        <time>2012-02-26T09:26:01Z</time>
      </trkpt>
      <trkpt lat="44.38538" lon="0.68971">
        <ele>160</ele>
        <time>2012-02-26T09:26:02Z</time>
      </trkpt>
      <trkpt lat="44.38534" lon="0.68965">
        <ele>160</ele>
        <time>2012-02-26T09:26:03Z</time>
      </trkpt>
      <trkpt lat="44.3853" lon="0.68959">
        <ele>159</ele>
        <time>2012-02-26T09:26:04Z</time>
      </trkpt>
      <trkpt lat="44.38527" lon="0.68954">
        <ele>159</ele>
        <time>2012-02-26T09:26:05Z</time>
      </trkpt>
      <trkpt lat="44.38523" lon="0.68948">
        <ele>158</ele>
        <time>2012-02-26T09:26:06Z</time>
      </trkpt>
      <trkpt lat="44.38519" lon="0.68943">
        <ele>158</ele>
        <time>2012-02-26T09:26:07Z</time>
      </trkpt>
      <trkpt lat="44.38515" lon="0.68938">
        <ele>158</ele>
        <time>2012-02-26T09:26:08Z</time>
      </trkpt>
      <trkpt lat="44.38512" lon="0.68933">
        <ele>158</ele>
        <time>2012-02-26T09:26:09Z</time>
      </trkpt>
      <trkpt lat="44.3851" lon="0.68928">
        <ele>158</ele>
        <time>2012-02-26T09:26:10Z</time>
      </trkpt>
      <trkpt lat="44.38508" lon="0.68923">
        <ele>158</ele>
        <time>2012-02-26T09:26:11Z</time>
      </trkpt>
      <trkpt lat="44.38507" lon="0.68918">
        <ele>158</ele>
        <time>2012-02-26T09:26:12Z</time>
      </trkpt>
      <trkpt lat="44.38506" lon="0.68912">
        <ele>158</ele>
        <time>2012-02-26T09:26:13Z</time>
      </trkpt>
      <trkpt lat="44.38504" lon="0.68907">
        <ele>158</ele>
        <time>2012-02-26T09:26:14Z</time>
      </trkpt>
      <trkpt lat="44.38503" lon="0.68902">
        <ele>158</ele>
        <time>2012-02-26T09:26:15Z</time>
      </trkpt>
      <trkpt lat="44.38503" lon="0.68896">
        <ele>158</ele>
        <time>2012-02-26T09:26:16Z</time>
      </trkpt>
      <trkpt lat="44.38502" lon="0.68891">
        <ele>158</ele>
        <time>2012-02-26T09:26:17Z</time>
      </trkpt>
      <trkpt lat="44.385" lon="0.68886">
        <ele>158</ele>
        <time>2012-02-26T09:26:18Z</time>
      </trkpt>
      <trkpt lat="44.38499" lon="0.68881">
        <ele>158</ele>
        <time>2012-02-26T09:26:19Z</time>
      </trkpt>
      <trkpt lat="44.38496" lon="0.68875">
        <ele>158</ele>
        <time>2012-02-26T09:26:20Z</time>
      </trkpt>
      <trkpt lat="44.38493" lon="0.68869">
        <ele>158</ele>
        <time>2012-02-26T09:26:21Z</time>
      </trkpt>
      <trkpt lat="44.3849" lon="0.68863">
        <ele>158</ele>
        <time>2012-02-26T09:26:22Z</time>
      </trkpt>
      <trkpt lat="44.38488" lon="0.68858">
        <ele>158</ele>
        <time>2012-02-26T09:26:23Z</time>
      </trkpt>
      <trkpt lat="44.38485" lon="0.68852">
        <ele>158</ele>
        <time>2012-02-26T09:26:24Z</time>
      </trkpt>
      <trkpt lat="44.38483" lon="0.68847">
        <ele>158</ele>
        <time>2012-02-26T09:26:25Z</time>
      </trkpt>
      <trkpt lat="44.38483" lon="0.68841">
        <ele>158</ele>
        <time>2012-02-26T09:26:26Z</time>
      </trkpt>
      <trkpt lat="44.38484" lon="0.68836">
        <ele>158</ele>
        <time>2012-02-26T09:26:27Z</time>
      </trkpt>
      <trkpt lat="44.38486" lon="0.6883">
        <ele>158</ele>
        <time>2012-02-26T09:26:28Z</time>
      </trkpt>
      <trkpt lat="44.38487" lon="0.68825">
        <ele>157</ele>
        <time>2012-02-26T09:26:29Z</time>
      </trkpt>
      <trkpt lat="44.38486" lon="0.68819">
        <ele>157</ele>
        <time>2012-02-26T09:26:30Z</time>
      </trkpt>
      <trkpt lat="44.38486" lon="0.68814">
        <ele>156</ele>
        <time>2012-02-26T09:26:31Z</time>
      </trkpt>
      <trkpt lat="44.38486" lon="0.68808">
        <ele>156</ele>
        <time>2012-02-26T09:26:32Z</time>
      </trkpt>
      <trkpt lat="44.38487" lon="0.68802">
        <ele>155</ele>
        <time>2012-02-26T09:26:33Z</time>
      </trkpt>
      <trkpt lat="44.38487" lon="0.68796">
        <ele>155</ele>
        <time>2012-02-26T09:26:34Z</time>
      </trkpt>
      <trkpt lat="44.38487" lon="0.68789">
        <ele>154</ele>
        <time>2012-02-26T09:26:35Z</time>
      </trkpt>
      <trkpt lat="44.38486" lon="0.68783">
        <ele>154</ele>
        <time>2012-02-26T09:26:36Z</time>
      </trkpt>
      <trkpt lat="44.38484" lon="0.68777">
        <ele>153</ele>
        <time>2012-02-26T09:26:37Z</time>
      </trkpt>
      <trkpt lat="44.38483" lon="0.6877">
        <ele>153</ele>
        <time>2012-02-26T09:26:38Z</time>
      </trkpt>
      <trkpt lat="44.38481" lon="0.68763">
        <ele>152</ele>
        <time>2012-02-26T09:26:39Z</time>
      </trkpt>
      <trkpt lat="44.38479" lon="0.68756">
        <ele>152</ele>
        <time>2012-02-26T09:26:40Z</time>
      </trkpt>
      <trkpt lat="44.38477" lon="0.68749">
        <ele>152</ele>
        <time>2012-02-26T09:26:41Z</time>
      </trkpt>
      <trkpt lat="44.38475" lon="0.68743">
        <ele>152</ele>
        <time>2012-02-26T09:26:42Z</time>
      </trkpt>
      <trkpt lat="44.38473" lon="0.68737">
        <ele>152</ele>
        <time>2012-02-26T09:26:43Z</time>
      </trkpt>
      <trkpt lat="44.38471" lon="0.68731">
        <ele>152</ele>
        <time>2012-02-26T09:26:44Z</time>
      </trkpt>
      <trkpt lat="44.38469" lon="0.68725">
        <ele>152</ele>
        <time>2012-02-26T09:26:45Z</time>
      </trkpt>
      <trkpt lat="44.38467" lon="0.68718">
        <ele>152</ele>
        <time>2012-02-26T09:26:46Z</time>
      </trkpt>
      <trkpt lat="44.38465" lon="0.68711">
        <ele>152</ele>
        <time>2012-02-26T09:26:47Z</time>
      </trkpt>
      <trkpt lat="44.38464" lon="0.68705">
        <ele>152</ele>
        <time>2012-02-26T09:26:48Z</time>
      </trkpt>
      <trkpt lat="44.38463" lon="0.68699">
        <ele>152</ele>
        <time>2012-02-26T09:26:49Z</time>
      </trkpt>
      <trkpt lat="44.38463" lon="0.68695">
        <ele>152</ele>
        <time>2012-02-26T09:26:50Z</time>
      </trkpt>
      <trkpt lat="44.38463" lon="0.68693">
        <ele>152</ele>
        <time>2012-02-26T09:26:51Z</time>
      </trkpt>
      <trkpt lat="44.38464" lon="0.68691">
        <ele>152</ele>
        <time>2012-02-26T09:26:52Z</time>
      </trkpt>
      <trkpt lat="44.38466" lon="0.6869">
        <ele>152</ele>
        <time>2012-02-26T09:26:54Z</time>
      </trkpt>
      <trkpt lat="44.38467" lon="0.68691">
        <ele>152</ele>
        <time>2012-02-26T09:26:55Z</time>
      </trkpt>
      <trkpt lat="44.38469" lon="0.68692">
        <ele>152</ele>
        <time>2012-02-26T09:26:56Z</time>
      </trkpt>
      <trkpt lat="44.3847" lon="0.68694">
        <ele>152</ele>
        <time>2012-02-26T09:26:57Z</time>
      </trkpt>
      <trkpt lat="44.38472" lon="0.68696">
        <ele>152</ele>
        <time>2012-02-26T09:26:58Z</time>
      </trkpt>
      <trkpt lat="44.38473" lon="0.68697">
        <ele>153</ele>
        <time>2012-02-26T09:26:59Z</time>
      </trkpt>
      <trkpt lat="44.38475" lon="0.68699">
        <ele>154</ele>
        <time>2012-02-26T09:27:00Z</time>
      </trkpt>
      <trkpt lat="44.38476" lon="0.687">
        <ele>155</ele>
        <time>2012-02-26T09:27:01Z</time>
      </trkpt>
      <trkpt lat="44.38478" lon="0.687">
        <ele>156</ele>
        <time>2012-02-26T09:27:02Z</time>
      </trkpt>
      <trkpt lat="44.38479" lon="0.68701">
        <ele>156</ele>
        <time>2012-02-26T09:27:03Z</time>
      </trkpt>
      <trkpt lat="44.38482" lon="0.687">
        <ele>157</ele>
        <time>2012-02-26T09:27:04Z</time>
      </trkpt>
      <trkpt lat="44.38484" lon="0.687">
        <ele>157</ele>
        <time>2012-02-26T09:27:05Z</time>
      </trkpt>
      <trkpt lat="44.38486" lon="0.68699">
        <ele>157</ele>
        <time>2012-02-26T09:27:06Z</time>
      </trkpt>
      <trkpt lat="44.38487" lon="0.687">
        <ele>157</ele>
        <time>2012-02-26T09:27:07Z</time>
      </trkpt>
      <trkpt lat="44.3849" lon="0.687">
        <ele>157</ele>
        <time>2012-02-26T09:27:08Z</time>
      </trkpt>
      <trkpt lat="44.38491" lon="0.68699">
        <ele>157</ele>
        <time>2012-02-26T09:27:09Z</time>
      </trkpt>
      <trkpt lat="44.38493" lon="0.68699">
        <ele>157</ele>
        <time>2012-02-26T09:27:10Z</time>
      </trkpt>
      <trkpt lat="44.38495" lon="0.68699">
        <ele>157</ele>
        <time>2012-02-26T09:27:11Z</time>
      </trkpt>
      <trkpt lat="44.38497" lon="0.68698">
        <ele>157</ele>
        <time>2012-02-26T09:27:12Z</time>
      </trkpt>
      <trkpt lat="44.38499" lon="0.68698">
        <ele>157</ele>
        <time>2012-02-26T09:27:13Z</time>
      </trkpt>
      <trkpt lat="44.385" lon="0.68697">
        <ele>157</ele>
        <time>2012-02-26T09:27:14Z</time>
      </trkpt>
      <trkpt lat="44.38501" lon="0.68695">
        <ele>158</ele>
        <time>2012-02-26T09:27:16Z</time>
      </trkpt>
      <trkpt lat="44.38501" lon="0.68693">
        <ele>159</ele>
        <time>2012-02-26T09:27:17Z</time>
      </trkpt>
      <trkpt lat="44.38501" lon="0.6869">
        <ele>159</ele>
        <time>2012-02-26T09:27:18Z</time>
      </trkpt>
      <trkpt lat="44.38499" lon="0.68688">
        <ele>159</ele>
        <time>2012-02-26T09:27:19Z</time>
      </trkpt>
      <trkpt lat="44.38496" lon="0.68687">
        <ele>160</ele>
        <time>2012-02-26T09:27:20Z</time>
      </trkpt>
      <trkpt lat="44.38494" lon="0.68686">
        <ele>160</ele>
        <time>2012-02-26T09:27:21Z</time>
      </trkpt>
      <trkpt lat="44.38492" lon="0.68685">
        <ele>160</ele>
        <time>2012-02-26T09:27:22Z</time>
      </trkpt>
      <trkpt lat="44.3849" lon="0.68682">
        <ele>160</ele>
        <time>2012-02-26T09:27:23Z</time>
      </trkpt>
      <trkpt lat="44.38487" lon="0.68679">
        <ele>160</ele>
        <time>2012-02-26T09:27:24Z</time>
      </trkpt>
      <trkpt lat="44.38484" lon="0.68675">
        <ele>160</ele>
        <time>2012-02-26T09:27:25Z</time>
      </trkpt>
      <trkpt lat="44.38483" lon="0.6867">
        <ele>160</ele>
        <time>2012-02-26T09:27:26Z</time>
      </trkpt>
      <trkpt lat="44.38483" lon="0.68666">
        <ele>160</ele>
        <time>2012-02-26T09:27:27Z</time>
      </trkpt>
      <trkpt lat="44.38485" lon="0.68661">
        <ele>160</ele>
        <time>2012-02-26T09:27:28Z</time>
      </trkpt>
      <trkpt lat="44.38489" lon="0.68659">
        <ele>160</ele>
        <time>2012-02-26T09:27:29Z</time>
      </trkpt>
      <trkpt lat="44.38492" lon="0.68657">
        <ele>160</ele>
        <time>2012-02-26T09:27:30Z</time>
      </trkpt>
      <trkpt lat="44.38496" lon="0.68657">
        <ele>160</ele>
        <time>2012-02-26T09:27:31Z</time>
      </trkpt>
      <trkpt lat="44.38498" lon="0.68658">
        <ele>160</ele>
        <time>2012-02-26T09:27:32Z</time>
      </trkpt>
      <trkpt lat="44.38501" lon="0.68659">
        <ele>160</ele>
        <time>2012-02-26T09:27:33Z</time>
      </trkpt>
      <trkpt lat="44.38504" lon="0.6866">
        <ele>160</ele>
        <time>2012-02-26T09:27:34Z</time>
      </trkpt>
      <trkpt lat="44.38508" lon="0.6866">
        <ele>160</ele>
        <time>2012-02-26T09:27:35Z</time>
      </trkpt>
      <trkpt lat="44.38511" lon="0.68659">
        <ele>160</ele>
        <time>2012-02-26T09:27:36Z</time>
      </trkpt>
      <trkpt lat="44.38514" lon="0.68658">
        <ele>160</ele>
        <time>2012-02-26T09:27:37Z</time>
      </trkpt>
      <trkpt lat="44.38518" lon="0.68656">
        <ele>160</ele>
        <time>2012-02-26T09:27:38Z</time>
      </trkpt>
      <trkpt lat="44.38521" lon="0.68655">
        <ele>160</ele>
        <time>2012-02-26T09:27:39Z</time>
      </trkpt>
      <trkpt lat="44.38525" lon="0.68652">
        <ele>160</ele>
        <time>2012-02-26T09:27:40Z</time>
      </trkpt>
      <trkpt lat="44.38528" lon="0.6865">
        <ele>160</ele>
        <time>2012-02-26T09:27:41Z</time>
      </trkpt>
      <trkpt lat="44.38531" lon="0.68648">
        <ele>160</ele>
        <time>2012-02-26T09:27:42Z</time>
      </trkpt>
      <trkpt lat="44.38535" lon="0.68646">
        <ele>160</ele>
        <time>2012-02-26T09:27:43Z</time>
      </trkpt>
      <trkpt lat="44.38538" lon="0.68643">
        <ele>160</ele>
        <time>2012-02-26T09:27:44Z</time>
      </trkpt>
      <trkpt lat="44.38542" lon="0.6864">
        <ele>160</ele>
        <time>2012-02-26T09:27:45Z</time>
      </trkpt>
      <trkpt lat="44.38546" lon="0.68638">
        <ele>160</ele>
        <time>2012-02-26T09:27:46Z</time>
      </trkpt>
      <trkpt lat="44.3855" lon="0.68635">
        <ele>160</ele>
        <time>2012-02-26T09:27:47Z</time>
      </trkpt>
      <trkpt lat="44.38554" lon="0.68632">
        <ele>160</ele>
        <time>2012-02-26T09:27:48Z</time>
      </trkpt>
      <trkpt lat="44.38557" lon="0.68629">
        <ele>160</ele>
        <time>2012-02-26T09:27:49Z</time>
      </trkpt>
      <trkpt lat="44.38561" lon="0.68626">
        <ele>160</ele>
        <time>2012-02-26T09:27:50Z</time>
      </trkpt>
      <trkpt lat="44.38564" lon="0.68624">
        <ele>160</ele>
        <time>2012-02-26T09:27:51Z</time>
      </trkpt>
      <trkpt lat="44.38568" lon="0.68621">
        <ele>160</ele>
        <time>2012-02-26T09:27:52Z</time>
      </trkpt>
      <trkpt lat="44.38571" lon="0.68618">
        <ele>160</ele>
        <time>2012-02-26T09:27:53Z</time>
      </trkpt>
      <trkpt lat="44.38574" lon="0.68615">
        <ele>160</ele>
        <time>2012-02-26T09:27:54Z</time>
      </trkpt>
      <trkpt lat="44.38578" lon="0.68612">
        <ele>160</ele>
        <time>2012-02-26T09:27:55Z</time>
      </trkpt>
      <trkpt lat="44.38581" lon="0.68611">
        <ele>160</ele>
        <time>2012-02-26T09:27:56Z</time>
      </trkpt>
      <trkpt lat="44.38584" lon="0.68609">
        <ele>160</ele>
        <time>2012-02-26T09:27:57Z</time>
      </trkpt>
      <trkpt lat="44.38586" lon="0.68609">
        <ele>160</ele>
        <time>2012-02-26T09:27:58Z</time>
      </trkpt>
      <trkpt lat="44.38587" lon="0.68611">
        <ele>160</ele>
        <time>2012-02-26T09:27:59Z</time>
      </trkpt>
      <trkpt lat="44.38589" lon="0.68611">
        <ele>160</ele>
        <time>2012-02-26T09:28:01Z</time>
      </trkpt>
      <trkpt lat="44.38589" lon="0.68612">
        <ele>162</ele>
        <time>2012-02-26T09:28:11Z</time>
      </trkpt>
    </trkseg>
  </trk>
</gpx>